Wetterdaten: Samstag, 20.05.2017
Datum Zeit Temp. A. Temp. A. max Feuchte A. Luftdruck Regen Wind Richtung Richtung Sonnenschein ET UV Solar Taupunkt Windchill Windböen
20.05.2017 00:00 5,3 °C 5,3 °C 92 % 1017,6 hPa 0,0 mm 2,5 km/h (1 Bft) W 270 ° 0 min 0,000 mm 0,0 UV-I 0 W/m² 4,1 °C 5,3 °C 4,8 km/h (1 Bft)
20.05.2017 00:01 5,3 °C 5,4 °C 91 % 1017,7 hPa 0,0 mm 1,1 km/h (1 Bft) W 270 ° 0 min 0,000 mm 0,0 UV-I 0 W/m² 4,0 °C 5,3 °C 1,6 km/h (1 Bft)
20.05.2017 00:02 5,4 °C 5,4 °C 92 % 1017,7 hPa 0,0 mm 2,1 km/h (1 Bft) W 270 ° 0 min 0,000 mm 0,0 UV-I 0 W/m² 4,2 °C 5,4 °C 3,2 km/h (1 Bft)
20.05.2017 00:03 5,4 °C 5,4 °C 91 % 1017,7 hPa 0,0 mm 0,9 km/h (0 Bft) W 270 ° 0 min 0,000 mm 0,0 UV-I 0 W/m² 4,1 °C 5,4 °C 1,6 km/h (1 Bft)
20.05.2017 00:04 5,3 °C 5,4 °C 91 % 1017,7 hPa 0,0 mm 0,9 km/h (0 Bft) W 270 ° 0 min 0,000 mm 0,0 UV-I 0 W/m² 4,0 °C 5,3 °C 1,6 km/h (1 Bft)
20.05.2017 00:05 5,3 °C 5,4 °C 91 % 1017,7 hPa 0,0 mm 2,9 km/h (1 Bft) W 270 ° 0 min 0,000 mm 0,0 UV-I 0 W/m² 4,0 °C 5,3 °C 3,2 km/h (1 Bft)
20.05.2017 00:06 5,2 °C 5,3 °C 91 % 1017,7 hPa 0,0 mm 0,5 km/h (0 Bft) W 270 ° 0 min 0,000 mm 0,0 UV-I 0 W/m² 3,9 °C 5,2 °C 3,2 km/h (1 Bft)
20.05.2017 00:07 5,2 °C 5,2 °C 91 % 1017,7 hPa 0,0 mm 1,6 km/h (1 Bft) W-SW 258 ° 0 min 0,000 mm 0,0 UV-I 0 W/m² 3,9 °C 5,2 °C 4,8 km/h (1 Bft)
20.05.2017 00:08 5,2 °C 5,2 °C 92 % 1017,7 hPa 0,0 mm 0,7 km/h (0 Bft) W-SW 258 ° 0 min 0,000 mm 0,0 UV-I 0 W/m² 4,0 °C 5,2 °C 3,2 km/h (1 Bft)
20.05.2017 00:09 5,2 °C 5,2 °C 92 % 1017,7 hPa 0,0 mm 2,3 km/h (1 Bft) W-SW 258 ° 0 min 0,000 mm 0,0 UV-I 0 W/m² 4,0 °C 5,2 °C 4,8 km/h (1 Bft)
20.05.2017 00:10 5,2 °C 5,2 °C 92 % 1017,7 hPa 0,0 mm 2,9 km/h (1 Bft) W-SW 249 ° 0 min 0,000 mm 0,0 UV-I 0 W/m² 4,0 °C 5,2 °C 6,4 km/h (2 Bft)
20.05.2017 00:11 5,2 °C 5,2 °C 92 % 1017,7 hPa 0,0 mm 0,1 km/h (0 Bft) W-SW 249 ° 0 min 0,000 mm 0,0 UV-I 0 W/m² 4,0 °C 5,2 °C 1,6 km/h (1 Bft)
20.05.2017 00:12 5,2 °C 5,2 °C 92 % 1017,7 hPa 0,0 mm 1,3 km/h (1 Bft) W-SW 249 ° 0 min 0,000 mm 0,0 UV-I 0 W/m² 4,0 °C 5,2 °C 3,2 km/h (1 Bft)
20.05.2017 00:13 5,2 °C 5,2 °C 92 % 1017,7 hPa 0,0 mm 2,0 km/h (1 Bft) W-SW 249 ° 0 min 0,000 mm 0,0 UV-I 0 W/m² 4,0 °C 5,2 °C 4,8 km/h (1 Bft)
20.05.2017 00:14 5,2 °C 5,2 °C 92 % 1017,8 hPa 0,0 mm 1,7 km/h (1 Bft) W-SW 249 ° 0 min 0,000 mm 0,0 UV-I 0 W/m² 4,0 °C 5,2 °C 3,2 km/h (1 Bft)
20.05.2017 00:15 5,2 °C 5,2 °C 92 % 1017,8 hPa 0,0 mm 3,8 km/h (1 Bft) W-SW 258 ° 0 min 0,000 mm 0,0 UV-I 0 W/m² 4,0 °C 5,2 °C 6,4 km/h (2 Bft)
20.05.2017 00:16 5,2 °C 5,2 °C 92 % 1017,8 hPa 0,0 mm 2,0 km/h (1 Bft) W-SW 258 ° 0 min 0,000 mm 0,0 UV-I 0 W/m² 4,0 °C 5,2 °C 3,2 km/h (1 Bft)
20.05.2017 00:17 5,1 °C 5,2 °C 92 % 1017,8 hPa 0,0 mm 3,5 km/h (1 Bft) W-SW 258 ° 0 min 0,000 mm 0,0 UV-I 0 W/m² 3,9 °C 5,1 °C 4,8 km/h (1 Bft)
20.05.2017 00:18 5,1 °C 5,1 °C 92 % 1017,8 hPa 0,0 mm 0,9 km/h (0 Bft) W-SW 258 ° 0 min 0,000 mm 0,0 UV-I 0 W/m² 3,9 °C 5,1 °C 3,2 km/h (1 Bft)
20.05.2017 00:19 5,1 °C 5,1 °C 92 % 1017,8 hPa 0,0 mm 1,7 km/h (1 Bft) W-SW 258 ° 0 min 0,000 mm 0,0 UV-I 0 W/m² 3,9 °C 5,1 °C 3,2 km/h (1 Bft)
20.05.2017 00:20 5,0 °C 5,1 °C 92 % 1017,8 hPa 0,0 mm 1,5 km/h (1 Bft) W-SW 258 ° 0 min 0,000 mm 0,0 UV-I 0 W/m² 3,8 °C 5,0 °C 3,2 km/h (1 Bft)
20.05.2017 00:21 5,0 °C 5,1 °C 92 % 1017,7 hPa 0,0 mm 0,9 km/h (0 Bft) W-SW 258 ° 0 min 0,000 mm 0,0 UV-I 0 W/m² 3,8 °C 5,0 °C 1,6 km/h (1 Bft)
20.05.2017 00:22 4,9 °C 5,0 °C 92 % 1017,7 hPa 0,0 mm 0,6 km/h (0 Bft) W-SW 258 ° 0 min 0,000 mm 0,0 UV-I 0 W/m² 3,7 °C 4,9 °C 1,6 km/h (1 Bft)
20.05.2017 00:23 4,9 °C 4,9 °C 92 % 1017,7 hPa 0,0 mm 3,0 km/h (1 Bft) W-SW 237 ° 0 min 0,000 mm 0,0 UV-I 0 W/m² 3,7 °C 4,9 °C 6,4 km/h (2 Bft)
20.05.2017 00:24 4,9 °C 4,9 °C 92 % 1017,8 hPa 0,0 mm 1,3 km/h (1 Bft) W-SW 237 ° 0 min 0,000 mm 0,0 UV-I 0 W/m² 3,7 °C 4,9 °C 3,2 km/h (1 Bft)
20.05.2017 00:25 4,9 °C 4,9 °C 92 % 1017,7 hPa 0,0 mm 1,5 km/h (1 Bft) W-SW 237 ° 0 min 0,000 mm 0,0 UV-I 0 W/m² 3,7 °C 4,9 °C 3,2 km/h (1 Bft)
20.05.2017 00:26 4,9 °C 4,9 °C 92 % 1017,7 hPa 0,0 mm 2,4 km/h (1 Bft) W-SW 248 ° 0 min 0,000 mm 0,0 UV-I 0 W/m² 3,7 °C 4,9 °C 4,8 km/h (1 Bft)
20.05.2017 00:27 4,9 °C 4,9 °C 92 % 1017,8 hPa 0,0 mm 1,4 km/h (1 Bft) W-SW 248 ° 0 min 0,000 mm 0,0 UV-I 0 W/m² 3,7 °C 4,9 °C 3,2 km/h (1 Bft)
20.05.2017 00:28 4,9 °C 4,9 °C 92 % 1017,8 hPa 0,0 mm 1,5 km/h (1 Bft) W-SW 248 ° 0 min 0,000 mm 0,0 UV-I 0 W/m² 3,7 °C 4,9 °C 3,2 km/h (1 Bft)
20.05.2017 00:29 4,9 °C 4,9 °C 92 % 1017,8 hPa 0,0 mm 1,7 km/h (1 Bft) W-SW 248 ° 0 min 0,000 mm 0,0 UV-I 0 W/m² 3,7 °C 4,9 °C 3,2 km/h (1 Bft)
20.05.2017 00:30 4,9 °C 4,9 °C 91 % 1017,8 hPa 0,0 mm 2,3 km/h (1 Bft) SW 232 ° 0 min 0,000 mm 0,0 UV-I 0 W/m² 3,6 °C 4,9 °C 4,8 km/h (1 Bft)
20.05.2017 00:31 4,9 °C 4,9 °C 91 % 1017,8 hPa 0,0 mm 0,8 km/h (0 Bft) SW 232 ° 0 min 0,000 mm 0,0 UV-I 0 W/m² 3,6 °C 4,9 °C 3,2 km/h (1 Bft)
20.05.2017 00:32 4,9 °C 5,0 °C 91 % 1017,8 hPa 0,0 mm 1,3 km/h (1 Bft) SW 232 ° 0 min 0,000 mm 0,0 UV-I 0 W/m² 3,6 °C 4,9 °C 3,2 km/h (1 Bft)
20.05.2017 00:33 5,0 °C 5,0 °C 91 % 1017,7 hPa 0,0 mm 1,7 km/h (1 Bft) SW 232 ° 0 min 0,000 mm 0,0 UV-I 0 W/m² 3,7 °C 5,0 °C 3,2 km/h (1 Bft)
20.05.2017 00:34 5,0 °C 5,0 °C 91 % 1017,8 hPa 0,0 mm 1,0 km/h (0 Bft) SW 232 ° 0 min 0,000 mm 0,0 UV-I 0 W/m² 3,7 °C 5,0 °C 3,2 km/h (1 Bft)
20.05.2017 00:35 4,9 °C 5,0 °C 91 % 1017,8 hPa 0,0 mm 1,5 km/h (1 Bft) SW 232 ° 0 min 0,000 mm 0,0 UV-I 0 W/m² 3,6 °C 4,9 °C 3,2 km/h (1 Bft)
20.05.2017 00:36 4,9 °C 4,9 °C 91 % 1017,8 hPa 0,0 mm 2,0 km/h (1 Bft) SW 232 ° 0 min 0,000 mm 0,0 UV-I 0 W/m² 3,6 °C 4,9 °C 4,8 km/h (1 Bft)
20.05.2017 00:37 4,9 °C 4,9 °C 91 % 1017,8 hPa 0,0 mm 1,5 km/h (1 Bft) SW 232 ° 0 min 0,000 mm 0,0 UV-I 0 W/m² 3,6 °C 4,9 °C 3,2 km/h (1 Bft)
20.05.2017 00:38 4,9 °C 4,9 °C 91 % 1017,8 hPa 0,0 mm 1,8 km/h (1 Bft) SW 232 ° 0 min 0,000 mm 0,0 UV-I 0 W/m² 3,6 °C 4,9 °C 4,8 km/h (1 Bft)
20.05.2017 00:39 4,9 °C 4,9 °C 91 % 1017,8 hPa 0,0 mm 2,4 km/h (1 Bft) S-SW 211 ° 0 min 0,000 mm 0,0 UV-I 0 W/m² 3,6 °C 4,9 °C 4,8 km/h (1 Bft)
20.05.2017 00:40 4,9 °C 4,9 °C 91 % 1017,7 hPa 0,0 mm 1,4 km/h (1 Bft) S-SW 209 ° 0 min 0,000 mm 0,0 UV-I 0 W/m² 3,6 °C 4,9 °C 4,8 km/h (1 Bft)
20.05.2017 00:41 4,9 °C 5,0 °C 91 % 1017,7 hPa 0,0 mm 5,5 km/h (1 Bft) S 190 ° 0 min 0,000 mm 0,0 UV-I 0 W/m² 3,6 °C 3,8 °C 8,0 km/h (2 Bft)
20.05.2017 00:42 5,0 °C 5,0 °C 91 % 1017,7 hPa 0,0 mm 4,7 km/h (1 Bft) S 188 ° 0 min 0,000 mm 0,0 UV-I 0 W/m² 3,7 °C 4,2 °C 8,0 km/h (2 Bft)
20.05.2017 00:43 5,1 °C 5,1 °C 91 % 1017,7 hPa 0,0 mm 5,2 km/h (1 Bft) S-SW 196 ° 0 min 0,000 mm 0,0 UV-I 0 W/m² 3,8 °C 4,1 °C 8,0 km/h (2 Bft)
20.05.2017 00:44 5,1 °C 5,1 °C 91 % 1017,8 hPa 0,0 mm 7,1 km/h (2 Bft) S-SW 195 ° 0 min 0,000 mm 0,0 UV-I 0 W/m² 3,8 °C 3,5 °C 9,7 km/h (2 Bft)
20.05.2017 00:45 5,1 °C 5,1 °C 91 % 1017,7 hPa 0,0 mm 5,0 km/h (1 Bft) S-SW 209 ° 0 min 0,000 mm 0,0 UV-I 0 W/m² 3,8 °C 4,2 °C 8,0 km/h (2 Bft)
20.05.2017 00:46 5,1 °C 5,1 °C 91 % 1017,7 hPa 0,0 mm 3,1 km/h (1 Bft) S 185 ° 0 min 0,000 mm 0,0 UV-I 0 W/m² 3,8 °C 5,1 °C 6,4 km/h (2 Bft)
20.05.2017 00:47 5,1 °C 5,2 °C 91 % 1017,7 hPa 0,0 mm 3,1 km/h (1 Bft) S-SW 209 ° 0 min 0,000 mm 0,0 UV-I 0 W/m² 3,8 °C 5,1 °C 4,8 km/h (1 Bft)
20.05.2017 00:48 5,1 °C 5,1 °C 91 % 1017,7 hPa 0,0 mm 3,5 km/h (1 Bft) S-SW 207 ° 0 min 0,000 mm 0,0 UV-I 0 W/m² 3,8 °C 5,1 °C 6,4 km/h (2 Bft)
20.05.2017 00:49 5,1 °C 5,1 °C 91 % 1017,7 hPa 0,0 mm 2,5 km/h (1 Bft) S-SW 192 ° 0 min 0,000 mm 0,0 UV-I 0 W/m² 3,8 °C 5,1 °C 4,8 km/h (1 Bft)
20.05.2017 00:50 5,0 °C 5,1 °C 90 % 1017,8 hPa 0,0 mm 4,8 km/h (1 Bft) S 188 ° 0 min 0,000 mm 0,0 UV-I 0 W/m² 3,5 °C 4,2 °C 6,4 km/h (2 Bft)
20.05.2017 00:51 5,0 °C 5,1 °C 90 % 1017,8 hPa 0,0 mm 3,8 km/h (1 Bft) S 184 ° 0 min 0,000 mm 0,0 UV-I 0 W/m² 3,5 °C 5,0 °C 4,8 km/h (1 Bft)
20.05.2017 00:52 5,1 °C 5,1 °C 91 % 1017,7 hPa 0,0 mm 4,5 km/h (1 Bft) S-SW 213 ° 0 min 0,000 mm 0,0 UV-I 0 W/m² 3,8 °C 5,1 °C 8,0 km/h (2 Bft)
20.05.2017 00:53 5,1 °C 5,1 °C 90 % 1017,7 hPa 0,0 mm 3,0 km/h (1 Bft) S-SW 204 ° 0 min 0,000 mm 0,0 UV-I 0 W/m² 3,6 °C 5,1 °C 4,8 km/h (1 Bft)
20.05.2017 00:54 5,0 °C 5,1 °C 91 % 1017,7 hPa 0,0 mm 3,3 km/h (1 Bft) S-SW 204 ° 0 min 0,000 mm 0,0 UV-I 0 W/m² 3,7 °C 5,0 °C 4,8 km/h (1 Bft)
20.05.2017 00:55 4,9 °C 5,0 °C 91 % 1017,8 hPa 0,0 mm 2,5 km/h (1 Bft) S-SW 204 ° 0 min 0,000 mm 0,0 UV-I 0 W/m² 3,6 °C 4,9 °C 3,2 km/h (1 Bft)
20.05.2017 00:56 4,9 °C 4,9 °C 91 % 1017,8 hPa 0,0 mm 3,6 km/h (1 Bft) S-SW 202 ° 0 min 0,000 mm 0,0 UV-I 0 W/m² 3,6 °C 4,9 °C 6,4 km/h (2 Bft)
20.05.2017 00:57 4,9 °C 4,9 °C 91 % 1017,8 hPa 0,0 mm 1,8 km/h (1 Bft) S-SW 198 ° 0 min 0,000 mm 0,0 UV-I 0 W/m² 3,6 °C 4,9 °C 4,8 km/h (1 Bft)
20.05.2017 00:58 4,8 °C 4,9 °C 92 % 1017,8 hPa 0,0 mm 0,0 km/h (0 Bft) S-SW 198 ° 0 min 0,000 mm 0,0 UV-I 0 W/m² 3,6 °C 4,8 °C 0,0 km/h (0 Bft)
20.05.2017 00:59 4,8 °C 4,8 °C 92 % 1017,8 hPa 0,0 mm 1,9 km/h (1 Bft) S-SW 204 ° 0 min 0,000 mm 0,0 UV-I 0 W/m² 3,6 °C 4,8 °C 3,2 km/h (1 Bft)
20.05.2017 01:00 4,7 °C 4,8 °C 92 % 1017,8 hPa 0,0 mm 1,5 km/h (1 Bft) S-SW 204 ° 0 min 0,000 mm 0,0 UV-I 0 W/m² 3,5 °C 4,7 °C 3,2 km/h (1 Bft)
20.05.2017 01:01 4,7 °C 4,7 °C 92 % 1017,8 hPa 0,0 mm 2,7 km/h (1 Bft) SW 217 ° 0 min 0,000 mm 0,0 UV-I 0 W/m² 3,5 °C 4,7 °C 6,4 km/h (2 Bft)
20.05.2017 01:02 4,6 °C 4,7 °C 91 % 1017,8 hPa 0,0 mm 2,0 km/h (1 Bft) SW 217 ° 0 min 0,000 mm 0,0 UV-I 0 W/m² 3,3 °C 4,6 °C 3,2 km/h (1 Bft)
20.05.2017 01:03 4,5 °C 4,6 °C 92 % 1017,9 hPa 0,0 mm 1,5 km/h (1 Bft) W-SW 248 ° 0 min 0,000 mm 0,0 UV-I 0 W/m² 3,3 °C 4,5 °C 3,2 km/h (1 Bft)
20.05.2017 01:04 4,4 °C 4,5 °C 92 % 1017,9 hPa 0,0 mm 0,9 km/h (0 Bft) SW 236 ° 0 min 0,000 mm 0,0 UV-I 0 W/m² 3,2 °C 4,4 °C 3,2 km/h (1 Bft)
20.05.2017 01:05 4,4 °C 4,4 °C 92 % 1017,9 hPa 0,0 mm 1,7 km/h (1 Bft) SW 236 ° 0 min 0,000 mm 0,0 UV-I 0 W/m² 3,2 °C 4,4 °C 3,2 km/h (1 Bft)
20.05.2017 01:06 4,5 °C 4,5 °C 93 % 1017,9 hPa 0,0 mm 0,5 km/h (0 Bft) SW 236 ° 0 min 0,000 mm 0,0 UV-I 0 W/m² 3,5 °C 4,5 °C 1,6 km/h (1 Bft)
20.05.2017 01:07 4,5 °C 4,5 °C 93 % 1017,8 hPa 0,0 mm 0,6 km/h (0 Bft) SW 236 ° 0 min 0,000 mm 0,0 UV-I 0 W/m² 3,5 °C 4,5 °C 1,6 km/h (1 Bft)
20.05.2017 01:08 4,6 °C 4,6 °C 93 % 1017,8 hPa 0,0 mm 1,3 km/h (1 Bft) S-SW 213 ° 0 min 0,000 mm 0,0 UV-I 0 W/m² 3,6 °C 4,6 °C 4,8 km/h (1 Bft)
20.05.2017 01:09 4,6 °C 4,6 °C 93 % 1017,8 hPa 0,0 mm 0,4 km/h (0 Bft) S-SW 213 ° 0 min 0,000 mm 0,0 UV-I 0 W/m² 3,6 °C 4,6 °C 1,6 km/h (1 Bft)
20.05.2017 01:10 4,6 °C 4,6 °C 93 % 1017,8 hPa 0,0 mm 0,9 km/h (0 Bft) S-SW 213 ° 0 min 0,000 mm 0,0 UV-I 0 W/m² 3,6 °C 4,6 °C 1,6 km/h (1 Bft)
20.05.2017 01:11 4,6 °C 4,6 °C 93 % 1017,8 hPa 0,0 mm 0,2 km/h (0 Bft) S-SW 213 ° 0 min 0,000 mm 0,0 UV-I 0 W/m² 3,6 °C 4,6 °C 1,6 km/h (1 Bft)
20.05.2017 01:12 4,6 °C 4,6 °C 93 % 1017,8 hPa 0,0 mm 0,1 km/h (0 Bft) S-SW 213 ° 0 min 0,000 mm 0,0 UV-I 0 W/m² 3,6 °C 4,6 °C 1,6 km/h (1 Bft)
20.05.2017 01:13 4,6 °C 4,6 °C 93 % 1017,8 hPa 0,0 mm 0,0 km/h (0 Bft) S-SW 213 ° 0 min 0,000 mm 0,0 UV-I 0 W/m² 3,6 °C 4,6 °C 0,0 km/h (0 Bft)
20.05.2017 01:14 4,6 °C 4,6 °C 93 % 1017,8 hPa 0,0 mm 0,0 km/h (0 Bft) S-SW 213 ° 0 min 0,000 mm 0,0 UV-I 0 W/m² 3,6 °C 4,6 °C 0,0 km/h (0 Bft)
20.05.2017 01:15 4,6 °C 4,6 °C 94 % 1017,7 hPa 0,0 mm 0,1 km/h (0 Bft) S-SW 213 ° 0 min 0,000 mm 0,0 UV-I 0 W/m² 3,7 °C 4,6 °C 1,6 km/h (1 Bft)
20.05.2017 01:16 4,6 °C 4,6 °C 94 % 1017,7 hPa 0,0 mm 0,0 km/h (0 Bft) S-SW 213 ° 0 min 0,000 mm 0,0 UV-I 0 W/m² 3,7 °C 4,6 °C 0,0 km/h (0 Bft)
20.05.2017 01:17 4,7 °C 4,7 °C 94 % 1017,7 hPa 0,0 mm 0,0 km/h (0 Bft) S-SW 213 ° 0 min 0,000 mm 0,0 UV-I 0 W/m² 3,8 °C 4,7 °C 0,0 km/h (0 Bft)
20.05.2017 01:18 4,6 °C 4,7 °C 94 % 1017,7 hPa 0,0 mm 0,0 km/h (0 Bft) S-SW 213 ° 0 min 0,000 mm 0,0 UV-I 0 W/m² 3,7 °C 4,6 °C 0,0 km/h (0 Bft)
20.05.2017 01:19 4,7 °C 4,7 °C 94 % 1017,7 hPa 0,0 mm 0,0 km/h (0 Bft) S-SW 213 ° 0 min 0,000 mm 0,0 UV-I 0 W/m² 3,8 °C 4,7 °C 0,0 km/h (0 Bft)
20.05.2017 01:20 4,7 °C 4,7 °C 94 % 1017,7 hPa 0,0 mm 0,0 km/h (0 Bft) S-SW 213 ° 0 min 0,000 mm 0,0 UV-I 0 W/m² 3,8 °C 4,7 °C 0,0 km/h (0 Bft)
20.05.2017 01:21 4,7 °C 4,7 °C 94 % 1017,7 hPa 0,0 mm 0,0 km/h (0 Bft) S-SW 213 ° 0 min 0,000 mm 0,0 UV-I 0 W/m² 3,8 °C 4,7 °C 0,0 km/h (0 Bft)
20.05.2017 01:22 4,7 °C 4,8 °C 94 % 1017,7 hPa 0,0 mm 0,0 km/h (0 Bft) S-SW 213 ° 0 min 0,000 mm 0,0 UV-I 0 W/m² 3,8 °C 4,7 °C 0,0 km/h (0 Bft)
20.05.2017 01:23 4,8 °C 4,8 °C 94 % 1017,8 hPa 0,0 mm 0,0 km/h (0 Bft) S-SW 213 ° 0 min 0,000 mm 0,0 UV-I 0 W/m² 3,9 °C 4,8 °C 0,0 km/h (0 Bft)
20.05.2017 01:24 4,8 °C 4,8 °C 94 % 1017,8 hPa 0,0 mm 0,0 km/h (0 Bft) S-SW 213 ° 0 min 0,000 mm 0,0 UV-I 0 W/m² 3,9 °C 4,8 °C 0,0 km/h (0 Bft)
20.05.2017 01:25 4,8 °C 4,8 °C 94 % 1017,7 hPa 0,0 mm 0,0 km/h (0 Bft) S-SW 213 ° 0 min 0,000 mm 0,0 UV-I 0 W/m² 3,9 °C 4,8 °C 0,0 km/h (0 Bft)
20.05.2017 01:26 4,7 °C 4,8 °C 94 % 1017,7 hPa 0,0 mm 0,0 km/h (0 Bft) S-SW 213 ° 0 min 0,000 mm 0,0 UV-I 0 W/m² 3,8 °C 4,7 °C 0,0 km/h (0 Bft)
20.05.2017 01:27 4,8 °C 4,8 °C 94 % 1017,7 hPa 0,0 mm 0,0 km/h (0 Bft) S-SW 213 ° 0 min 0,000 mm 0,0 UV-I 0 W/m² 3,9 °C 4,8 °C 0,0 km/h (0 Bft)
20.05.2017 01:28 4,8 °C 4,8 °C 94 % 1017,7 hPa 0,0 mm 0,0 km/h (0 Bft) S-SW 213 ° 0 min 0,000 mm 0,0 UV-I 0 W/m² 3,9 °C 4,8 °C 0,0 km/h (0 Bft)
20.05.2017 01:29 4,8 °C 4,8 °C 94 % 1017,7 hPa 0,0 mm 0,0 km/h (0 Bft) S-SW 213 ° 0 min 0,000 mm 0,0 UV-I 0 W/m² 3,9 °C 4,8 °C 0,0 km/h (0 Bft)
20.05.2017 01:30 4,8 °C 4,8 °C 94 % 1017,8 hPa 0,0 mm 0,0 km/h (0 Bft) S-SW 213 ° 0 min 0,000 mm 0,0 UV-I 0 W/m² 3,9 °C 4,8 °C 0,0 km/h (0 Bft)
20.05.2017 01:31 4,8 °C 4,8 °C 94 % 1017,7 hPa 0,0 mm 0,0 km/h (0 Bft) S-SW 213 ° 0 min 0,000 mm 0,0 UV-I 0 W/m² 3,9 °C 4,8 °C 0,0 km/h (0 Bft)
20.05.2017 01:32 4,8 °C 4,9 °C 94 % 1017,7 hPa 0,0 mm 0,0 km/h (0 Bft) S-SW 213 ° 0 min 0,000 mm 0,0 UV-I 0 W/m² 3,9 °C 4,8 °C 0,0 km/h (0 Bft)
20.05.2017 01:33 4,8 °C 4,9 °C 94 % 1017,7 hPa 0,0 mm 0,0 km/h (0 Bft) S-SW 213 ° 0 min 0,000 mm 0,0 UV-I 0 W/m² 3,9 °C 4,8 °C 0,0 km/h (0 Bft)
20.05.2017 01:34 4,8 °C 4,8 °C 94 % 1017,7 hPa 0,0 mm 0,0 km/h (0 Bft) S-SW 213 ° 0 min 0,000 mm 0,0 UV-I 0 W/m² 3,9 °C 4,8 °C 0,0 km/h (0 Bft)
20.05.2017 01:35 4,8 °C 4,8 °C 94 % 1017,6 hPa 0,0 mm 0,0 km/h (0 Bft) S-SW 213 ° 0 min 0,000 mm 0,0 UV-I 0 W/m² 3,9 °C 4,8 °C 0,0 km/h (0 Bft)
20.05.2017 01:36 4,8 °C 4,8 °C 94 % 1017,7 hPa 0,0 mm 0,0 km/h (0 Bft) S-SW 213 ° 0 min 0,000 mm 0,0 UV-I 0 W/m² 3,9 °C 4,8 °C 0,0 km/h (0 Bft)
20.05.2017 01:37 4,8 °C 4,8 °C 94 % 1017,8 hPa 0,0 mm 0,0 km/h (0 Bft) S-SW 213 ° 0 min 0,000 mm 0,0 UV-I 0 W/m² 3,9 °C 4,8 °C 0,0 km/h (0 Bft)
20.05.2017 01:38 4,8 °C 4,8 °C 94 % 1017,8 hPa 0,0 mm 0,0 km/h (0 Bft) S-SW 213 ° 0 min 0,000 mm 0,0 UV-I 0 W/m² 3,9 °C 4,8 °C 0,0 km/h (0 Bft)
20.05.2017 01:39 4,7 °C 4,8 °C 94 % 1017,8 hPa 0,0 mm 0,0 km/h (0 Bft) S-SW 213 ° 0 min 0,000 mm 0,0 UV-I 0 W/m² 3,8 °C 4,7 °C 0,0 km/h (0 Bft)
20.05.2017 01:40 4,7 °C 4,7 °C 94 % 1017,8 hPa 0,0 mm 0,0 km/h (0 Bft) S-SW 213 ° 0 min 0,000 mm 0,0 UV-I 0 W/m² 3,8 °C 4,7 °C 0,0 km/h (0 Bft)
20.05.2017 01:41 4,6 °C 4,7 °C 94 % 1017,7 hPa 0,0 mm 0,0 km/h (0 Bft) S-SW 213 ° 0 min 0,000 mm 0,0 UV-I 0 W/m² 3,7 °C 4,6 °C 0,0 km/h (0 Bft)
20.05.2017 01:42 4,6 °C 4,6 °C 94 % 1017,7 hPa 0,0 mm 0,0 km/h (0 Bft) S-SW 213 ° 0 min 0,000 mm 0,0 UV-I 0 W/m² 3,7 °C 4,6 °C 0,0 km/h (0 Bft)
20.05.2017 01:43 4,6 °C 4,6 °C 94 % 1017,8 hPa 0,0 mm 0,0 km/h (0 Bft) S-SW 213 ° 0 min 0,000 mm 0,0 UV-I 0 W/m² 3,7 °C 4,6 °C 0,0 km/h (0 Bft)
20.05.2017 01:44 4,6 °C 4,6 °C 94 % 1017,8 hPa 0,0 mm 0,0 km/h (0 Bft) S-SW 213 ° 0 min 0,000 mm 0,0 UV-I 0 W/m² 3,7 °C 4,6 °C 0,0 km/h (0 Bft)
20.05.2017 01:45 4,6 °C 4,6 °C 94 % 1017,8 hPa 0,0 mm 0,0 km/h (0 Bft) S-SW 213 ° 0 min 0,000 mm 0,0 UV-I 0 W/m² 3,7 °C 4,6 °C 0,0 km/h (0 Bft)
20.05.2017 01:46 4,6 °C 4,6 °C 94 % 1017,9 hPa 0,0 mm 0,0 km/h (0 Bft) S-SW 213 ° 0 min 0,000 mm 0,0 UV-I 0 W/m² 3,7 °C 4,6 °C 0,0 km/h (0 Bft)
20.05.2017 01:47 4,6 °C 4,6 °C 94 % 1017,9 hPa 0,0 mm 0,0 km/h (0 Bft) S-SW 213 ° 0 min 0,000 mm 0,0 UV-I 0 W/m² 3,7 °C 4,6 °C 0,0 km/h (0 Bft)
20.05.2017 01:48 4,6 °C 4,6 °C 94 % 1017,8 hPa 0,0 mm 0,0 km/h (0 Bft) S-SW 213 ° 0 min 0,000 mm 0,0 UV-I 0 W/m² 3,7 °C 4,6 °C 0,0 km/h (0 Bft)
20.05.2017 01:49 4,6 °C 4,6 °C 94 % 1017,8 hPa 0,0 mm 0,0 km/h (0 Bft) S-SW 213 ° 0 min 0,000 mm 0,0 UV-I 0 W/m² 3,7 °C 4,6 °C 0,0 km/h (0 Bft)
20.05.2017 01:50 4,6 °C 4,6 °C 94 % 1017,8 hPa 0,0 mm 0,0 km/h (0 Bft) S-SW 213 ° 0 min 0,000 mm 0,0 UV-I 0 W/m² 3,7 °C 4,6 °C 0,0 km/h (0 Bft)
20.05.2017 01:51 4,6 °C 4,6 °C 94 % 1017,9 hPa 0,0 mm 0,0 km/h (0 Bft) S-SW 213 ° 0 min 0,000 mm 0,0 UV-I 0 W/m² 3,7 °C 4,6 °C 0,0 km/h (0 Bft)
20.05.2017 01:52 4,6 °C 4,6 °C 94 % 1017,9 hPa 0,0 mm 0,0 km/h (0 Bft) S-SW 213 ° 0 min 0,000 mm 0,0 UV-I 0 W/m² 3,7 °C 4,6 °C 0,0 km/h (0 Bft)
20.05.2017 01:53 4,6 °C 4,6 °C 94 % 1017,9 hPa 0,0 mm 0,0 km/h (0 Bft) S-SW 213 ° 0 min 0,000 mm 0,0 UV-I 0 W/m² 3,7 °C 4,6 °C 0,0 km/h (0 Bft)
20.05.2017 01:54 4,6 °C 4,6 °C 94 % 1017,9 hPa 0,0 mm 0,1 km/h (0 Bft) S-SW 213 ° 0 min 0,000 mm 0,0 UV-I 0 W/m² 3,7 °C 4,6 °C 1,6 km/h (1 Bft)
20.05.2017 01:55 4,5 °C 4,6 °C 94 % 1017,9 hPa 0,0 mm 0,0 km/h (0 Bft) S-SW 213 ° 0 min 0,000 mm 0,0 UV-I 0 W/m² 3,6 °C 4,5 °C 0,0 km/h (0 Bft)
20.05.2017 01:56 4,4 °C 4,5 °C 94 % 1017,9 hPa 0,0 mm 0,0 km/h (0 Bft) S-SW 213 ° 0 min 0,000 mm 0,0 UV-I 0 W/m² 3,5 °C 4,4 °C 0,0 km/h (0 Bft)
20.05.2017 01:57 4,4 °C 4,4 °C 94 % 1017,9 hPa 0,0 mm 0,0 km/h (0 Bft) S-SW 213 ° 0 min 0,000 mm 0,0 UV-I 0 W/m² 3,5 °C 4,4 °C 0,0 km/h (0 Bft)
20.05.2017 01:58 4,4 °C 4,4 °C 94 % 1017,9 hPa 0,0 mm 0,0 km/h (0 Bft) S-SW 213 ° 0 min 0,000 mm 0,0 UV-I 0 W/m² 3,5 °C 4,4 °C 0,0 km/h (0 Bft)
20.05.2017 01:59 4,4 °C 4,4 °C 94 % 1017,9 hPa 0,0 mm 0,0 km/h (0 Bft) S-SW 213 ° 0 min 0,000 mm 0,0 UV-I 0 W/m² 3,5 °C 4,4 °C 0,0 km/h (0 Bft)
20.05.2017 02:00 4,4 °C 4,4 °C 94 % 1018,0 hPa 0,0 mm 0,0 km/h (0 Bft) S-SW 213 ° 0 min 0,000 mm 0,0 UV-I 0 W/m² 3,5 °C 4,4 °C 0,0 km/h (0 Bft)
20.05.2017 02:01 4,4 °C 4,4 °C 94 % 1018,0 hPa 0,0 mm 0,0 km/h (0 Bft) S-SW 213 ° 0 min 0,000 mm 0,0 UV-I 0 W/m² 3,5 °C 4,4 °C 0,0 km/h (0 Bft)
20.05.2017 02:02 4,4 °C 4,4 °C 94 % 1018,0 hPa 0,0 mm 0,0 km/h (0 Bft) S-SW 213 ° 0 min 0,000 mm 0,0 UV-I 0 W/m² 3,5 °C 4,4 °C 0,0 km/h (0 Bft)
20.05.2017 02:03 4,3 °C 4,4 °C 94 % 1017,9 hPa 0,0 mm 0,0 km/h (0 Bft) S-SW 213 ° 0 min 0,000 mm 0,0 UV-I 0 W/m² 3,4 °C 4,3 °C 0,0 km/h (0 Bft)
20.05.2017 02:04 4,3 °C 4,3 °C 94 % 1018,0 hPa 0,0 mm 0,0 km/h (0 Bft) S-SW 213 ° 0 min 0,000 mm 0,0 UV-I 0 W/m² 3,4 °C 4,3 °C 0,0 km/h (0 Bft)
20.05.2017 02:05 4,3 °C 4,3 °C 94 % 1018,0 hPa 0,0 mm 0,0 km/h (0 Bft) S-SW 213 ° 0 min 0,000 mm 0,0 UV-I 0 W/m² 3,4 °C 4,3 °C 0,0 km/h (0 Bft)
20.05.2017 02:06 4,3 °C 4,3 °C 94 % 1018,0 hPa 0,0 mm 0,0 km/h (0 Bft) S-SW 213 ° 0 min 0,000 mm 0,0 UV-I 0 W/m² 3,4 °C 4,3 °C 0,0 km/h (0 Bft)
20.05.2017 02:07 4,3 °C 4,3 °C 94 % 1017,9 hPa 0,0 mm 0,0 km/h (0 Bft) S-SW 213 ° 0 min 0,000 mm 0,0 UV-I 0 W/m² 3,4 °C 4,3 °C 0,0 km/h (0 Bft)
20.05.2017 02:08 4,3 °C 4,3 °C 94 % 1017,9 hPa 0,0 mm 0,0 km/h (0 Bft) S-SW 213 ° 0 min 0,000 mm 0,0 UV-I 0 W/m² 3,4 °C 4,3 °C 0,0 km/h (0 Bft)
20.05.2017 02:09 4,3 °C 4,4 °C 94 % 1017,9 hPa 0,0 mm 0,0 km/h (0 Bft) S-SW 213 ° 0 min 0,000 mm 0,0 UV-I 0 W/m² 3,4 °C 4,3 °C 0,0 km/h (0 Bft)
20.05.2017 02:10 4,3 °C 4,3 °C 94 % 1017,9 hPa 0,0 mm 0,0 km/h (0 Bft) S-SW 213 ° 0 min 0,000 mm 0,0 UV-I 0 W/m² 3,4 °C 4,3 °C 0,0 km/h (0 Bft)
20.05.2017 02:11 4,4 °C 4,4 °C 94 % 1017,9 hPa 0,0 mm 0,0 km/h (0 Bft) S-SW 213 ° 0 min 0,000 mm 0,0 UV-I 0 W/m² 3,5 °C 4,4 °C 0,0 km/h (0 Bft)
20.05.2017 02:12 4,4 °C 4,4 °C 94 % 1017,9 hPa 0,0 mm 0,0 km/h (0 Bft) S-SW 213 ° 0 min 0,000 mm 0,0 UV-I 0 W/m² 3,5 °C 4,4 °C 0,0 km/h (0 Bft)
20.05.2017 02:13 4,4 °C 4,4 °C 94 % 1017,9 hPa 0,0 mm 0,0 km/h (0 Bft) S-SW 213 ° 0 min 0,000 mm 0,0 UV-I 0 W/m² 3,5 °C 4,4 °C 0,0 km/h (0 Bft)
20.05.2017 02:14 4,4 °C 4,4 °C 94 % 1017,8 hPa 0,0 mm 0,0 km/h (0 Bft) S-SW 213 ° 0 min 0,000 mm 0,0 UV-I 0 W/m² 3,5 °C 4,4 °C 0,0 km/h (0 Bft)
20.05.2017 02:15 4,4 °C 4,4 °C 94 % 1017,9 hPa 0,0 mm 0,0 km/h (0 Bft) S-SW 213 ° 0 min 0,000 mm 0,0 UV-I 0 W/m² 3,5 °C 4,4 °C 0,0 km/h (0 Bft)
20.05.2017 02:16 4,3 °C 4,4 °C 94 % 1017,9 hPa 0,0 mm 0,0 km/h (0 Bft) S-SW 213 ° 0 min 0,000 mm 0,0 UV-I 0 W/m² 3,4 °C 4,3 °C 0,0 km/h (0 Bft)
20.05.2017 02:17 4,3 °C 4,3 °C 94 % 1017,9 hPa 0,0 mm 0,0 km/h (0 Bft) S-SW 213 ° 0 min 0,000 mm 0,0 UV-I 0 W/m² 3,4 °C 4,3 °C 0,0 km/h (0 Bft)
20.05.2017 02:18 4,3 °C 4,3 °C 94 % 1018,0 hPa 0,0 mm 0,0 km/h (0 Bft) S-SW 213 ° 0 min 0,000 mm 0,0 UV-I 0 W/m² 3,4 °C 4,3 °C 0,0 km/h (0 Bft)
20.05.2017 02:19 4,3 °C 4,3 °C 94 % 1017,9 hPa 0,0 mm 0,0 km/h (0 Bft) S-SW 213 ° 0 min 0,000 mm 0,0 UV-I 0 W/m² 3,4 °C 4,3 °C 0,0 km/h (0 Bft)
20.05.2017 02:20 4,2 °C 4,3 °C 94 % 1017,9 hPa 0,0 mm 0,0 km/h (0 Bft) S-SW 213 ° 0 min 0,000 mm 0,0 UV-I 0 W/m² 3,3 °C 4,2 °C 0,0 km/h (0 Bft)
20.05.2017 02:21 4,2 °C 4,2 °C 94 % 1017,9 hPa 0,0 mm 0,0 km/h (0 Bft) S-SW 213 ° 0 min 0,000 mm 0,0 UV-I 0 W/m² 3,3 °C 4,2 °C 0,0 km/h (0 Bft)
20.05.2017 02:22 4,2 °C 4,2 °C 94 % 1018,0 hPa 0,0 mm 0,0 km/h (0 Bft) S-SW 213 ° 0 min 0,000 mm 0,0 UV-I 0 W/m² 3,3 °C 4,2 °C 0,0 km/h (0 Bft)
20.05.2017 02:23 4,2 °C 4,2 °C 94 % 1017,9 hPa 0,0 mm 0,0 km/h (0 Bft) S-SW 213 ° 0 min 0,000 mm 0,0 UV-I 0 W/m² 3,3 °C 4,2 °C 0,0 km/h (0 Bft)
20.05.2017 02:24 4,1 °C 4,2 °C 94 % 1017,9 hPa 0,0 mm 0,0 km/h (0 Bft) S-SW 213 ° 0 min 0,000 mm 0,0 UV-I 0 W/m² 3,2 °C 4,1 °C 0,0 km/h (0 Bft)
20.05.2017 02:25 4,1 °C 4,2 °C 94 % 1018,0 hPa 0,0 mm 0,0 km/h (0 Bft) S-SW 213 ° 0 min 0,000 mm 0,0 UV-I 0 W/m² 3,2 °C 4,1 °C 0,0 km/h (0 Bft)
20.05.2017 02:26 4,1 °C 4,1 °C 94 % 1017,9 hPa 0,0 mm 0,0 km/h (0 Bft) S-SW 213 ° 0 min 0,000 mm 0,0 UV-I 0 W/m² 3,2 °C 4,1 °C 0,0 km/h (0 Bft)
20.05.2017 02:27 4,1 °C 4,1 °C 94 % 1018,0 hPa 0,0 mm 0,0 km/h (0 Bft) S-SW 213 ° 0 min 0,000 mm 0,0 UV-I 0 W/m² 3,2 °C 4,1 °C 0,0 km/h (0 Bft)
20.05.2017 02:28 4,0 °C 4,1 °C 94 % 1018,0 hPa 0,0 mm 0,0 km/h (0 Bft) S-SW 213 ° 0 min 0,000 mm 0,0 UV-I 0 W/m² 3,1 °C 4,0 °C 0,0 km/h (0 Bft)
20.05.2017 02:29 4,0 °C 4,1 °C 94 % 1017,9 hPa 0,0 mm 0,0 km/h (0 Bft) S-SW 213 ° 0 min 0,000 mm 0,0 UV-I 0 W/m² 3,1 °C 4,0 °C 0,0 km/h (0 Bft)
20.05.2017 02:30 4,0 °C 4,0 °C 94 % 1017,9 hPa 0,0 mm 0,0 km/h (0 Bft) S-SW 213 ° 0 min 0,000 mm 0,0 UV-I 0 W/m² 3,1 °C 4,0 °C 0,0 km/h (0 Bft)
20.05.2017 02:31 4,0 °C 4,0 °C 94 % 1017,9 hPa 0,0 mm 0,0 km/h (0 Bft) S-SW 213 ° 0 min 0,000 mm 0,0 UV-I 0 W/m² 3,1 °C 4,0 °C 0,0 km/h (0 Bft)
20.05.2017 02:32 4,1 °C 4,1 °C 94 % 1017,8 hPa 0,0 mm 0,0 km/h (0 Bft) S-SW 213 ° 0 min 0,000 mm 0,0 UV-I 0 W/m² 3,2 °C 4,1 °C 0,0 km/h (0 Bft)
20.05.2017 02:33 4,1 °C 4,1 °C 95 % 1017,8 hPa 0,0 mm 0,0 km/h (0 Bft) S-SW 213 ° 0 min 0,000 mm 0,0 UV-I 0 W/m² 3,4 °C 4,1 °C 0,0 km/h (0 Bft)
20.05.2017 02:34 4,1 °C 4,1 °C 94 % 1017,9 hPa 0,0 mm 0,0 km/h (0 Bft) S-SW 213 ° 0 min 0,000 mm 0,0 UV-I 0 W/m² 3,2 °C 4,1 °C 0,0 km/h (0 Bft)
20.05.2017 02:35 4,2 °C 4,2 °C 95 % 1017,9 hPa 0,0 mm 0,0 km/h (0 Bft) S-SW 213 ° 0 min 0,000 mm 0,0 UV-I 0 W/m² 3,5 °C 4,2 °C 0,0 km/h (0 Bft)
20.05.2017 02:36 4,2 °C 4,2 °C 95 % 1017,9 hPa 0,0 mm 0,0 km/h (0 Bft) S-SW 213 ° 0 min 0,000 mm 0,0 UV-I 0 W/m² 3,5 °C 4,2 °C 0,0 km/h (0 Bft)
20.05.2017 02:37 4,3 °C 4,3 °C 95 % 1017,8 hPa 0,0 mm 0,0 km/h (0 Bft) S-SW 213 ° 0 min 0,000 mm 0,0 UV-I 0 W/m² 3,6 °C 4,3 °C 0,0 km/h (0 Bft)
20.05.2017 02:38 4,3 °C 4,3 °C 95 % 1017,8 hPa 0,0 mm 0,0 km/h (0 Bft) S-SW 213 ° 0 min 0,000 mm 0,0 UV-I 0 W/m² 3,6 °C 4,3 °C 0,0 km/h (0 Bft)
20.05.2017 02:39 4,3 °C 4,3 °C 95 % 1017,8 hPa 0,0 mm 0,0 km/h (0 Bft) S-SW 213 ° 0 min 0,000 mm 0,0 UV-I 0 W/m² 3,6 °C 4,3 °C 0,0 km/h (0 Bft)
20.05.2017 02:40 4,2 °C 4,3 °C 95 % 1017,8 hPa 0,0 mm 0,0 km/h (0 Bft) S-SW 213 ° 0 min 0,000 mm 0,0 UV-I 0 W/m² 3,5 °C 4,2 °C 0,0 km/h (0 Bft)
20.05.2017 02:41 4,1 °C 4,2 °C 94 % 1017,8 hPa 0,0 mm 0,0 km/h (0 Bft) S-SW 213 ° 0 min 0,000 mm 0,0 UV-I 0 W/m² 3,2 °C 4,1 °C 0,0 km/h (0 Bft)
20.05.2017 02:42 3,9 °C 4,1 °C 94 % 1017,8 hPa 0,0 mm 0,0 km/h (0 Bft) S-SW 213 ° 0 min 0,000 mm 0,0 UV-I 0 W/m² 3,0 °C 3,9 °C 0,0 km/h (0 Bft)
20.05.2017 02:43 3,9 °C 3,9 °C 94 % 1017,7 hPa 0,0 mm 0,0 km/h (0 Bft) S-SW 213 ° 0 min 0,000 mm 0,0 UV-I 0 W/m² 3,0 °C 3,9 °C 0,0 km/h (0 Bft)
20.05.2017 02:44 3,8 °C 3,9 °C 94 % 1017,7 hPa 0,0 mm 0,0 km/h (0 Bft) S-SW 213 ° 0 min 0,000 mm 0,0 UV-I 0 W/m² 2,9 °C 3,8 °C 0,0 km/h (0 Bft)
20.05.2017 02:45 3,8 °C 3,8 °C 94 % 1017,8 hPa 0,0 mm 0,0 km/h (0 Bft) S-SW 213 ° 0 min 0,000 mm 0,0 UV-I 0 W/m² 2,9 °C 3,8 °C 0,0 km/h (0 Bft)
20.05.2017 02:46 3,8 °C 3,8 °C 94 % 1017,8 hPa 0,0 mm 0,0 km/h (0 Bft) S-SW 213 ° 0 min 0,000 mm 0,0 UV-I 0 W/m² 2,9 °C 3,8 °C 0,0 km/h (0 Bft)
20.05.2017 02:47 3,8 °C 3,8 °C 94 % 1017,8 hPa 0,0 mm 0,0 km/h (0 Bft) S-SW 213 ° 0 min 0,000 mm 0,0 UV-I 0 W/m² 2,9 °C 3,8 °C 0,0 km/h (0 Bft)
20.05.2017 02:48 3,8 °C 3,8 °C 94 % 1017,8 hPa 0,0 mm 0,0 km/h (0 Bft) S-SW 213 ° 0 min 0,000 mm 0,0 UV-I 0 W/m² 2,9 °C 3,8 °C 0,0 km/h (0 Bft)
20.05.2017 02:49 3,8 °C 3,8 °C 94 % 1017,7 hPa 0,0 mm 0,0 km/h (0 Bft) S-SW 213 ° 0 min 0,000 mm 0,0 UV-I 0 W/m² 2,9 °C 3,8 °C 0,0 km/h (0 Bft)
20.05.2017 02:50 3,8 °C 3,8 °C 94 % 1017,7 hPa 0,0 mm 0,0 km/h (0 Bft) S-SW 213 ° 0 min 0,000 mm 0,0 UV-I 0 W/m² 2,9 °C 3,8 °C 0,0 km/h (0 Bft)
20.05.2017 02:51 3,8 °C 3,8 °C 94 % 1017,7 hPa 0,0 mm 0,0 km/h (0 Bft) S-SW 213 ° 0 min 0,000 mm 0,0 UV-I 0 W/m² 2,9 °C 3,8 °C 0,0 km/h (0 Bft)
20.05.2017 02:52 3,8 °C 3,8 °C 94 % 1017,7 hPa 0,0 mm 0,0 km/h (0 Bft) S-SW 213 ° 0 min 0,000 mm 0,0 UV-I 0 W/m² 2,9 °C 3,8 °C 0,0 km/h (0 Bft)
20.05.2017 02:53 3,8 °C 3,8 °C 94 % 1017,7 hPa 0,0 mm 0,0 km/h (0 Bft) S-SW 213 ° 0 min 0,000 mm 0,0 UV-I 0 W/m² 2,9 °C 3,8 °C 0,0 km/h (0 Bft)
20.05.2017 02:54 3,8 °C 3,8 °C 94 % 1017,7 hPa 0,0 mm 0,0 km/h (0 Bft) S-SW 213 ° 0 min 0,000 mm 0,0 UV-I 0 W/m² 2,9 °C 3,8 °C 0,0 km/h (0 Bft)
20.05.2017 02:55 3,8 °C 3,8 °C 94 % 1017,7 hPa 0,0 mm 0,0 km/h (0 Bft) S-SW 213 ° 0 min 0,000 mm 0,0 UV-I 0 W/m² 2,9 °C 3,8 °C 0,0 km/h (0 Bft)
20.05.2017 02:56 3,8 °C 3,8 °C 94 % 1017,7 hPa 0,0 mm 0,0 km/h (0 Bft) S-SW 213 ° 0 min 0,000 mm 0,0 UV-I 0 W/m² 2,9 °C 3,8 °C 0,0 km/h (0 Bft)
20.05.2017 02:57 3,8 °C 3,8 °C 94 % 1017,7 hPa 0,0 mm 0,0 km/h (0 Bft) S-SW 213 ° 0 min 0,000 mm 0,0 UV-I 0 W/m² 2,9 °C 3,8 °C 0,0 km/h (0 Bft)
20.05.2017 02:58 3,8 °C 3,8 °C 94 % 1017,8 hPa 0,0 mm 0,0 km/h (0 Bft) S-SW 213 ° 0 min 0,000 mm 0,0 UV-I 0 W/m² 2,9 °C 3,8 °C 0,0 km/h (0 Bft)
20.05.2017 02:59 3,8 °C 3,8 °C 95 % 1017,8 hPa 0,0 mm 0,0 km/h (0 Bft) S-SW 213 ° 0 min 0,000 mm 0,0 UV-I 0 W/m² 3,1 °C 3,8 °C 0,0 km/h (0 Bft)
20.05.2017 03:00 3,8 °C 3,8 °C 95 % 1017,8 hPa 0,0 mm 0,0 km/h (0 Bft) S-SW 213 ° 0 min 0,000 mm 0,0 UV-I 0 W/m² 3,1 °C 3,8 °C 0,0 km/h (0 Bft)
20.05.2017 03:01 3,9 °C 3,9 °C 95 % 1017,7 hPa 0,0 mm 0,0 km/h (0 Bft) S-SW 213 ° 0 min 0,000 mm 0,0 UV-I 0 W/m² 3,2 °C 3,9 °C 0,0 km/h (0 Bft)
20.05.2017 03:02 3,9 °C 3,9 °C 95 % 1017,8 hPa 0,0 mm 0,0 km/h (0 Bft) S-SW 213 ° 0 min 0,000 mm 0,0 UV-I 0 W/m² 3,2 °C 3,9 °C 0,0 km/h (0 Bft)
20.05.2017 03:03 3,9 °C 3,9 °C 95 % 1017,8 hPa 0,0 mm 0,0 km/h (0 Bft) S-SW 213 ° 0 min 0,000 mm 0,0 UV-I 0 W/m² 3,2 °C 3,9 °C 0,0 km/h (0 Bft)
20.05.2017 03:04 4,1 °C 4,1 °C 95 % 1017,8 hPa 0,0 mm 0,6 km/h (0 Bft) S-SW 213 ° 0 min 0,000 mm 0,0 UV-I 0 W/m² 3,4 °C 4,1 °C 1,6 km/h (1 Bft)
20.05.2017 03:05 4,1 °C 4,1 °C 95 % 1017,8 hPa 0,0 mm 0,0 km/h (0 Bft) S-SW 213 ° 0 min 0,000 mm 0,0 UV-I 0 W/m² 3,4 °C 4,1 °C 0,0 km/h (0 Bft)
20.05.2017 03:06 4,1 °C 4,1 °C 95 % 1017,7 hPa 0,0 mm 0,0 km/h (0 Bft) S-SW 213 ° 0 min 0,000 mm 0,0 UV-I 0 W/m² 3,4 °C 4,1 °C 0,0 km/h (0 Bft)
20.05.2017 03:07 4,0 °C 4,1 °C 95 % 1017,8 hPa 0,0 mm 0,0 km/h (0 Bft) S-SW 213 ° 0 min 0,000 mm 0,0 UV-I 0 W/m² 3,3 °C 4,0 °C 0,0 km/h (0 Bft)
20.05.2017 03:08 3,9 °C 4,0 °C 95 % 1017,8 hPa 0,0 mm 0,0 km/h (0 Bft) S-SW 213 ° 0 min 0,000 mm 0,0 UV-I 0 W/m² 3,2 °C 3,9 °C 0,0 km/h (0 Bft)
20.05.2017 03:09 3,9 °C 3,9 °C 95 % 1017,8 hPa 0,0 mm 0,0 km/h (0 Bft) S-SW 213 ° 0 min 0,000 mm 0,0 UV-I 0 W/m² 3,2 °C 3,9 °C 0,0 km/h (0 Bft)
20.05.2017 03:10 3,8 °C 3,9 °C 95 % 1017,9 hPa 0,0 mm 0,0 km/h (0 Bft) S-SW 213 ° 0 min 0,000 mm 0,0 UV-I 0 W/m² 3,1 °C 3,8 °C 0,0 km/h (0 Bft)
20.05.2017 03:11 3,8 °C 3,9 °C 95 % 1017,8 hPa 0,0 mm 0,0 km/h (0 Bft) S-SW 213 ° 0 min 0,000 mm 0,0 UV-I 0 W/m² 3,1 °C 3,8 °C 0,0 km/h (0 Bft)
20.05.2017 03:12 3,7 °C 3,8 °C 94 % 1017,9 hPa 0,0 mm 0,0 km/h (0 Bft) S-SW 213 ° 0 min 0,000 mm 0,0 UV-I 0 W/m² 2,8 °C 3,7 °C 0,0 km/h (0 Bft)
20.05.2017 03:13 3,8 °C 3,8 °C 94 % 1017,9 hPa 0,0 mm 0,0 km/h (0 Bft) S-SW 213 ° 0 min 0,000 mm 0,0 UV-I 0 W/m² 2,9 °C 3,8 °C 0,0 km/h (0 Bft)
20.05.2017 03:14 3,8 °C 3,8 °C 95 % 1017,9 hPa 0,0 mm 0,0 km/h (0 Bft) S-SW 213 ° 0 min 0,000 mm 0,0 UV-I 0 W/m² 3,1 °C 3,8 °C 0,0 km/h (0 Bft)
20.05.2017 03:15 3,8 °C 3,8 °C 95 % 1017,8 hPa 0,0 mm 0,7 km/h (0 Bft) S-SW 213 ° 0 min 0,000 mm 0,0 UV-I 0 W/m² 3,1 °C 3,8 °C 3,2 km/h (1 Bft)
20.05.2017 03:16 3,8 °C 3,8 °C 95 % 1017,8 hPa 0,0 mm 2,5 km/h (1 Bft) S-SW 213 ° 0 min 0,000 mm 0,0 UV-I 0 W/m² 3,1 °C 3,8 °C 3,2 km/h (1 Bft)
20.05.2017 03:17 3,9 °C 3,9 °C 95 % 1017,8 hPa 0,0 mm 1,6 km/h (1 Bft) S-SW 213 ° 0 min 0,000 mm 0,0 UV-I 0 W/m² 3,2 °C 3,9 °C 3,2 km/h (1 Bft)
20.05.2017 03:18 3,9 °C 3,9 °C 95 % 1017,9 hPa 0,0 mm 0,1 km/h (0 Bft) S-SW 213 ° 0 min 0,000 mm 0,0 UV-I 0 W/m² 3,2 °C 3,9 °C 1,6 km/h (1 Bft)
20.05.2017 03:19 3,9 °C 3,9 °C 95 % 1017,9 hPa 0,0 mm 0,7 km/h (0 Bft) S-SW 213 ° 0 min 0,000 mm 0,0 UV-I 0 W/m² 3,2 °C 3,9 °C 1,6 km/h (1 Bft)
20.05.2017 03:20 3,9 °C 3,9 °C 95 % 1017,9 hPa 0,0 mm 0,4 km/h (0 Bft) S-SW 213 ° 0 min 0,000 mm 0,0 UV-I 0 W/m² 3,2 °C 3,9 °C 1,6 km/h (1 Bft)
20.05.2017 03:21 3,8 °C 3,9 °C 95 % 1017,9 hPa 0,0 mm 0,0 km/h (0 Bft) S-SW 213 ° 0 min 0,000 mm 0,0 UV-I 0 W/m² 3,1 °C 3,8 °C 0,0 km/h (0 Bft)
20.05.2017 03:22 3,7 °C 3,8 °C 95 % 1017,9 hPa 0,0 mm 0,0 km/h (0 Bft) S-SW 213 ° 0 min 0,000 mm 0,0 UV-I 0 W/m² 3,0 °C 3,7 °C 0,0 km/h (0 Bft)
20.05.2017 03:23 3,7 °C 3,7 °C 95 % 1017,9 hPa 0,0 mm 0,0 km/h (0 Bft) S-SW 213 ° 0 min 0,000 mm 0,0 UV-I 0 W/m² 3,0 °C 3,7 °C 0,0 km/h (0 Bft)
20.05.2017 03:24 3,7 °C 3,7 °C 95 % 1017,9 hPa 0,0 mm 0,0 km/h (0 Bft) S-SW 213 ° 0 min 0,000 mm 0,0 UV-I 0 W/m² 3,0 °C 3,7 °C 0,0 km/h (0 Bft)
20.05.2017 03:25 3,7 °C 3,7 °C 95 % 1017,9 hPa 0,0 mm 0,0 km/h (0 Bft) S-SW 213 ° 0 min 0,000 mm 0,0 UV-I 0 W/m² 3,0 °C 3,7 °C 0,0 km/h (0 Bft)
20.05.2017 03:26 3,7 °C 3,7 °C 95 % 1017,9 hPa 0,0 mm 0,0 km/h (0 Bft) S-SW 213 ° 0 min 0,000 mm 0,0 UV-I 0 W/m² 3,0 °C 3,7 °C 0,0 km/h (0 Bft)
20.05.2017 03:27 3,7 °C 3,7 °C 95 % 1017,9 hPa 0,0 mm 0,0 km/h (0 Bft) S-SW 213 ° 0 min 0,000 mm 0,0 UV-I 0 W/m² 3,0 °C 3,7 °C 0,0 km/h (0 Bft)
20.05.2017 03:28 3,6 °C 3,7 °C 95 % 1017,8 hPa 0,0 mm 0,0 km/h (0 Bft) S-SW 213 ° 0 min 0,000 mm 0,0 UV-I 0 W/m² 2,9 °C 3,6 °C 0,0 km/h (0 Bft)
20.05.2017 03:29 3,6 °C 3,7 °C 95 % 1017,8 hPa 0,0 mm 0,0 km/h (0 Bft) S-SW 213 ° 0 min 0,000 mm 0,0 UV-I 0 W/m² 2,9 °C 3,6 °C 0,0 km/h (0 Bft)
20.05.2017 03:30 3,7 °C 3,7 °C 95 % 1017,8 hPa 0,0 mm 0,0 km/h (0 Bft) S-SW 213 ° 0 min 0,000 mm 0,0 UV-I 0 W/m² 3,0 °C 3,7 °C 0,0 km/h (0 Bft)
20.05.2017 03:31 3,7 °C 3,7 °C 95 % 1017,8 hPa 0,0 mm 0,0 km/h (0 Bft) S-SW 213 ° 0 min 0,000 mm 0,0 UV-I 0 W/m² 3,0 °C 3,7 °C 0,0 km/h (0 Bft)
20.05.2017 03:32 3,7 °C 3,7 °C 95 % 1017,8 hPa 0,0 mm 0,0 km/h (0 Bft) S-SW 213 ° 0 min 0,000 mm 0,0 UV-I 0 W/m² 3,0 °C 3,7 °C 0,0 km/h (0 Bft)
20.05.2017 03:33 3,7 °C 3,7 °C 95 % 1017,8 hPa 0,0 mm 0,0 km/h (0 Bft) S-SW 213 ° 0 min 0,000 mm 0,0 UV-I 0 W/m² 3,0 °C 3,7 °C 0,0 km/h (0 Bft)
20.05.2017 03:34 3,6 °C 3,7 °C 95 % 1017,9 hPa 0,0 mm 0,0 km/h (0 Bft) S-SW 213 ° 0 min 0,000 mm 0,0 UV-I 0 W/m² 2,9 °C 3,6 °C 0,0 km/h (0 Bft)
20.05.2017 03:35 3,7 °C 3,7 °C 95 % 1017,9 hPa 0,0 mm 0,0 km/h (0 Bft) S-SW 213 ° 0 min 0,000 mm 0,0 UV-I 0 W/m² 3,0 °C 3,7 °C 0,0 km/h (0 Bft)
20.05.2017 03:36 3,7 °C 3,7 °C 95 % 1017,9 hPa 0,0 mm 0,0 km/h (0 Bft) S-SW 213 ° 0 min 0,000 mm 0,0 UV-I 0 W/m² 3,0 °C 3,7 °C 0,0 km/h (0 Bft)
20.05.2017 03:37 3,7 °C 3,7 °C 95 % 1017,9 hPa 0,0 mm 0,0 km/h (0 Bft) S-SW 213 ° 0 min 0,000 mm 0,0 UV-I 0 W/m² 3,0 °C 3,7 °C 0,0 km/h (0 Bft)
20.05.2017 03:38 3,7 °C 3,7 °C 95 % 1018,0 hPa 0,0 mm 0,0 km/h (0 Bft) S-SW 213 ° 0 min 0,000 mm 0,0 UV-I 0 W/m² 3,0 °C 3,7 °C 0,0 km/h (0 Bft)
20.05.2017 03:39 3,7 °C 3,7 °C 95 % 1018,0 hPa 0,0 mm 0,0 km/h (0 Bft) S-SW 213 ° 0 min 0,000 mm 0,0 UV-I 0 W/m² 3,0 °C 3,7 °C 0,0 km/h (0 Bft)
20.05.2017 03:40 3,7 °C 3,7 °C 95 % 1018,0 hPa 0,0 mm 0,0 km/h (0 Bft) S-SW 213 ° 0 min 0,000 mm 0,0 UV-I 0 W/m² 3,0 °C 3,7 °C 0,0 km/h (0 Bft)
20.05.2017 03:41 3,7 °C 3,7 °C 95 % 1017,9 hPa 0,0 mm 0,0 km/h (0 Bft) S-SW 213 ° 0 min 0,000 mm 0,0 UV-I 0 W/m² 3,0 °C 3,7 °C 0,0 km/h (0 Bft)
20.05.2017 03:42 3,7 °C 3,8 °C 95 % 1018,0 hPa 0,0 mm 0,0 km/h (0 Bft) S-SW 213 ° 0 min 0,000 mm 0,0 UV-I 0 W/m² 3,0 °C 3,7 °C 0,0 km/h (0 Bft)
20.05.2017 03:43 3,8 °C 3,8 °C 95 % 1017,9 hPa 0,0 mm 0,0 km/h (0 Bft) S-SW 213 ° 0 min 0,000 mm 0,0 UV-I 0 W/m² 3,1 °C 3,8 °C 0,0 km/h (0 Bft)
20.05.2017 03:44 3,8 °C 3,8 °C 95 % 1017,9 hPa 0,0 mm 0,0 km/h (0 Bft) S-SW 213 ° 0 min 0,000 mm 0,0 UV-I 0 W/m² 3,1 °C 3,8 °C 0,0 km/h (0 Bft)
20.05.2017 03:45 3,8 °C 3,8 °C 95 % 1017,9 hPa 0,0 mm 0,0 km/h (0 Bft) S-SW 213 ° 0 min 0,000 mm 0,0 UV-I 0 W/m² 3,1 °C 3,8 °C 0,0 km/h (0 Bft)
20.05.2017 03:46 3,9 °C 3,9 °C 95 % 1017,9 hPa 0,0 mm 0,0 km/h (0 Bft) S-SW 213 ° 0 min 0,000 mm 0,0 UV-I 0 W/m² 3,2 °C 3,9 °C 0,0 km/h (0 Bft)
20.05.2017 03:47 3,9 °C 3,9 °C 95 % 1017,9 hPa 0,0 mm 0,0 km/h (0 Bft) S-SW 213 ° 0 min 0,000 mm 0,0 UV-I 0 W/m² 3,2 °C 3,9 °C 0,0 km/h (0 Bft)
20.05.2017 03:48 3,9 °C 3,9 °C 95 % 1018,1 hPa 0,0 mm 0,0 km/h (0 Bft) S-SW 213 ° 0 min 0,000 mm 0,0 UV-I 0 W/m² 3,2 °C 3,9 °C 0,0 km/h (0 Bft)
20.05.2017 03:49 3,9 °C 3,9 °C 95 % 1018,1 hPa 0,0 mm 0,0 km/h (0 Bft) S-SW 213 ° 0 min 0,000 mm 0,0 UV-I 0 W/m² 3,2 °C 3,9 °C 0,0 km/h (0 Bft)
20.05.2017 03:50 3,9 °C 3,9 °C 95 % 1018,1 hPa 0,0 mm 0,0 km/h (0 Bft) S-SW 213 ° 0 min 0,000 mm 0,0 UV-I 0 W/m² 3,2 °C 3,9 °C 0,0 km/h (0 Bft)
20.05.2017 03:51 3,9 °C 3,9 °C 95 % 1018,1 hPa 0,0 mm 0,0 km/h (0 Bft) S-SW 213 ° 0 min 0,000 mm 0,0 UV-I 0 W/m² 3,2 °C 3,9 °C 0,0 km/h (0 Bft)
20.05.2017 03:52 4,0 °C 4,0 °C 95 % 1018,0 hPa 0,0 mm 0,0 km/h (0 Bft) S-SW 213 ° 0 min 0,000 mm 0,0 UV-I 0 W/m² 3,3 °C 4,0 °C 0,0 km/h (0 Bft)
20.05.2017 03:53 4,0 °C 4,0 °C 95 % 1018,0 hPa 0,0 mm 0,0 km/h (0 Bft) S-SW 213 ° 0 min 0,000 mm 0,0 UV-I 0 W/m² 3,3 °C 4,0 °C 0,0 km/h (0 Bft)
20.05.2017 03:54 4,1 °C 4,1 °C 95 % 1018,0 hPa 0,0 mm 0,0 km/h (0 Bft) S-SW 213 ° 0 min 0,000 mm 0,0 UV-I 0 W/m² 3,4 °C 4,1 °C 0,0 km/h (0 Bft)
20.05.2017 03:55 4,2 °C 4,2 °C 95 % 1018,0 hPa 0,0 mm 0,0 km/h (0 Bft) S-SW 213 ° 0 min 0,000 mm 0,0 UV-I 0 W/m² 3,5 °C 4,2 °C 0,0 km/h (0 Bft)
20.05.2017 03:56 4,4 °C 4,4 °C 95 % 1018,0 hPa 0,0 mm 0,5 km/h (0 Bft) SW 215 ° 0 min 0,000 mm 0,0 UV-I 0 W/m² 3,7 °C 4,4 °C 1,6 km/h (1 Bft)
20.05.2017 03:57 4,5 °C 4,5 °C 96 % 1018,0 hPa 0,0 mm 0,3 km/h (0 Bft) SW 215 ° 0 min 0,000 mm 0,0 UV-I 0 W/m² 3,9 °C 4,5 °C 1,6 km/h (1 Bft)
20.05.2017 03:58 4,6 °C 4,6 °C 96 % 1018,0 hPa 0,0 mm 0,0 km/h (0 Bft) SW 215 ° 0 min 0,000 mm 0,0 UV-I 0 W/m² 4,0 °C 4,6 °C 0,0 km/h (0 Bft)
20.05.2017 03:59 4,5 °C 4,6 °C 96 % 1018,0 hPa 0,0 mm 0,0 km/h (0 Bft) SW 215 ° 0 min 0,000 mm 0,0 UV-I 0 W/m² 3,9 °C 4,5 °C 0,0 km/h (0 Bft)
20.05.2017 04:00 4,4 °C 4,5 °C 96 % 1018,0 hPa 0,0 mm 0,0 km/h (0 Bft) SW 215 ° 0 min 0,000 mm 0,0 UV-I 0 W/m² 3,8 °C 4,4 °C 0,0 km/h (0 Bft)
20.05.2017 04:01 4,4 °C 4,4 °C 95 % 1018,0 hPa 0,0 mm 0,0 km/h (0 Bft) SW 215 ° 0 min 0,000 mm 0,0 UV-I 0 W/m² 3,7 °C 4,4 °C 0,0 km/h (0 Bft)
20.05.2017 04:02 4,4 °C 4,4 °C 95 % 1018,0 hPa 0,0 mm 0,0 km/h (0 Bft) SW 215 ° 0 min 0,000 mm 0,0 UV-I 0 W/m² 3,7 °C 4,4 °C 0,0 km/h (0 Bft)
20.05.2017 04:03 4,6 °C 4,6 °C 95 % 1017,9 hPa 0,0 mm 0,0 km/h (0 Bft) SW 215 ° 0 min 0,000 mm 0,0 UV-I 0 W/m² 3,9 °C 4,6 °C 0,0 km/h (0 Bft)
20.05.2017 04:04 4,6 °C 4,6 °C 95 % 1017,9 hPa 0,0 mm 0,0 km/h (0 Bft) SW 215 ° 0 min 0,000 mm 0,0 UV-I 0 W/m² 3,9 °C 4,6 °C 0,0 km/h (0 Bft)
20.05.2017 04:05 4,7 °C 4,7 °C 95 % 1018,0 hPa 0,0 mm 0,0 km/h (0 Bft) SW 215 ° 0 min 0,000 mm 0,0 UV-I 0 W/m² 4,0 °C 4,7 °C 0,0 km/h (0 Bft)
20.05.2017 04:06 4,8 °C 4,8 °C 96 % 1018,0 hPa 0,0 mm 0,0 km/h (0 Bft) SW 215 ° 0 min 0,000 mm 0,0 UV-I 0 W/m² 4,2 °C 4,8 °C 0,0 km/h (0 Bft)
20.05.2017 04:07 4,9 °C 4,9 °C 96 % 1018,0 hPa 0,0 mm 1,3 km/h (1 Bft) SW 215 ° 0 min 0,000 mm 0,0 UV-I 0 W/m² 4,3 °C 4,9 °C 3,2 km/h (1 Bft)
20.05.2017 04:08 4,9 °C 4,9 °C 96 % 1018,0 hPa 0,0 mm 0,4 km/h (0 Bft) SW 215 ° 0 min 0,000 mm 0,0 UV-I 0 W/m² 4,3 °C 4,9 °C 1,6 km/h (1 Bft)
20.05.2017 04:09 4,9 °C 4,9 °C 96 % 1018,0 hPa 0,0 mm 0,0 km/h (0 Bft) SW 215 ° 0 min 0,000 mm 0,0 UV-I 0 W/m² 4,3 °C 4,9 °C 0,0 km/h (0 Bft)
20.05.2017 04:10 4,9 °C 4,9 °C 95 % 1018,0 hPa 0,0 mm 0,0 km/h (0 Bft) SW 215 ° 0 min 0,000 mm 0,0 UV-I 0 W/m² 4,2 °C 4,9 °C 0,0 km/h (0 Bft)
20.05.2017 04:11 5,0 °C 5,0 °C 95 % 1018,0 hPa 0,0 mm 0,0 km/h (0 Bft) SW 215 ° 0 min 0,000 mm 0,0 UV-I 0 W/m² 4,3 °C 5,0 °C 0,0 km/h (0 Bft)
20.05.2017 04:12 5,0 °C 5,1 °C 95 % 1018,0 hPa 0,0 mm 0,0 km/h (0 Bft) SW 215 ° 0 min 0,000 mm 0,0 UV-I 0 W/m² 4,3 °C 5,0 °C 0,0 km/h (0 Bft)
20.05.2017 04:13 5,1 °C 5,1 °C 95 % 1018,0 hPa 0,0 mm 0,7 km/h (0 Bft) SW 215 ° 0 min 0,000 mm 0,0 UV-I 0 W/m² 4,4 °C 5,1 °C 1,6 km/h (1 Bft)
20.05.2017 04:14 5,1 °C 5,1 °C 95 % 1018,0 hPa 0,0 mm 0,0 km/h (0 Bft) SW 215 ° 0 min 0,000 mm 0,0 UV-I 0 W/m² 4,4 °C 5,1 °C 0,0 km/h (0 Bft)
20.05.2017 04:15 5,1 °C 5,1 °C 95 % 1018,0 hPa 0,0 mm 1,1 km/h (1 Bft) SW 215 ° 0 min 0,000 mm 0,0 UV-I 0 W/m² 4,4 °C 5,1 °C 3,2 km/h (1 Bft)
20.05.2017 04:16 5,1 °C 5,1 °C 95 % 1018,0 hPa 0,0 mm 1,3 km/h (1 Bft) SO 139 ° 0 min 0,000 mm 0,0 UV-I 0 W/m² 4,4 °C 5,1 °C 3,2 km/h (1 Bft)
20.05.2017 04:17 5,1 °C 5,1 °C 95 % 1018,0 hPa 0,0 mm 0,3 km/h (0 Bft) SO 140 ° 0 min 0,000 mm 0,0 UV-I 0 W/m² 4,4 °C 5,1 °C 1,6 km/h (1 Bft)
20.05.2017 04:18 5,2 °C 5,2 °C 95 % 1018,0 hPa 0,0 mm 0,2 km/h (0 Bft) SO 139 ° 0 min 0,000 mm 0,0 UV-I 0 W/m² 4,5 °C 5,2 °C 1,6 km/h (1 Bft)
20.05.2017 04:19 5,2 °C 5,2 °C 95 % 1018,0 hPa 0,0 mm 0,0 km/h (0 Bft) SO 140 ° 0 min 0,000 mm 0,0 UV-I 0 W/m² 4,5 °C 5,2 °C 0,0 km/h (0 Bft)
20.05.2017 04:20 5,2 °C 5,2 °C 95 % 1018,0 hPa 0,0 mm 0,0 km/h (0 Bft) SO 140 ° 0 min 0,000 mm 0,0 UV-I 0 W/m² 4,5 °C 5,2 °C 0,0 km/h (0 Bft)
20.05.2017 04:21 5,2 °C 5,2 °C 95 % 1018,0 hPa 0,0 mm 0,6 km/h (0 Bft) SO 140 ° 0 min 0,000 mm 0,0 UV-I 0 W/m² 4,5 °C 5,2 °C 3,2 km/h (1 Bft)
20.05.2017 04:22 5,3 °C 5,3 °C 95 % 1018,0 hPa 0,0 mm 1,1 km/h (1 Bft) SO 140 ° 0 min 0,000 mm 0,0 UV-I 0 W/m² 4,6 °C 5,3 °C 3,2 km/h (1 Bft)
20.05.2017 04:23 5,3 °C 5,3 °C 95 % 1018,0 hPa 0,0 mm 0,8 km/h (0 Bft) SO 140 ° 0 min 0,000 mm 0,0 UV-I 0 W/m² 4,6 °C 5,3 °C 3,2 km/h (1 Bft)
20.05.2017 04:24 5,3 °C 5,3 °C 95 % 1018,0 hPa 0,0 mm 1,7 km/h (1 Bft) SO 140 ° 0 min 0,000 mm 0,0 UV-I 0 W/m² 4,6 °C 5,3 °C 3,2 km/h (1 Bft)
20.05.2017 04:25 5,3 °C 5,4 °C 95 % 1018,0 hPa 0,0 mm 0,8 km/h (0 Bft) SO 140 ° 0 min 0,000 mm 0,0 UV-I 0 W/m² 4,6 °C 5,3 °C 1,6 km/h (1 Bft)
20.05.2017 04:26 5,3 °C 5,4 °C 95 % 1018,0 hPa 0,0 mm 0,0 km/h (0 Bft) SO 140 ° 0 min 0,000 mm 0,0 UV-I 0 W/m² 4,6 °C 5,3 °C 0,0 km/h (0 Bft)
20.05.2017 04:27 5,3 °C 5,4 °C 95 % 1018,0 hPa 0,0 mm 0,0 km/h (0 Bft) SO 140 ° 0 min 0,000 mm 0,0 UV-I 0 W/m² 4,6 °C 5,3 °C 0,0 km/h (0 Bft)
20.05.2017 04:28 5,3 °C 5,4 °C 95 % 1018,0 hPa 0,0 mm 0,0 km/h (0 Bft) SO 140 ° 0 min 0,000 mm 0,0 UV-I 0 W/m² 4,6 °C 5,3 °C 0,0 km/h (0 Bft)
20.05.2017 04:29 5,3 °C 5,4 °C 95 % 1018,0 hPa 0,0 mm 0,0 km/h (0 Bft) SO 140 ° 0 min 0,000 mm 0,0 UV-I 0 W/m² 4,6 °C 5,3 °C 0,0 km/h (0 Bft)
20.05.2017 04:30 5,4 °C 5,4 °C 95 % 1018,0 hPa 0,0 mm 1,5 km/h (1 Bft) SO 140 ° 0 min 0,000 mm 0,0 UV-I 0 W/m² 4,7 °C 5,4 °C 3,2 km/h (1 Bft)
20.05.2017 04:31 5,4 °C 5,4 °C 95 % 1018,0 hPa 0,0 mm 0,1 km/h (0 Bft) SO 140 ° 0 min 0,000 mm 0,0 UV-I 0 W/m² 4,7 °C 5,4 °C 1,6 km/h (1 Bft)
20.05.2017 04:32 5,4 °C 5,4 °C 95 % 1018,0 hPa 0,0 mm 0,3 km/h (0 Bft) SO 140 ° 0 min 0,000 mm 0,0 UV-I 0 W/m² 4,7 °C 5,4 °C 1,6 km/h (1 Bft)
20.05.2017 04:33 5,4 °C 5,4 °C 95 % 1018,0 hPa 0,0 mm 0,6 km/h (0 Bft) SO 140 ° 0 min 0,000 mm 0,0 UV-I 0 W/m² 4,7 °C 5,4 °C 1,6 km/h (1 Bft)
20.05.2017 04:34 5,4 °C 5,4 °C 95 % 1018,0 hPa 0,0 mm 1,7 km/h (1 Bft) SO 140 ° 0 min 0,000 mm 0,0 UV-I 0 W/m² 4,7 °C 5,4 °C 3,2 km/h (1 Bft)
20.05.2017 04:35 5,4 °C 5,4 °C 95 % 1018,0 hPa 0,0 mm 0,0 km/h (0 Bft) SO 140 ° 0 min 0,000 mm 0,0 UV-I 0 W/m² 4,7 °C 5,4 °C 0,0 km/h (0 Bft)
20.05.2017 04:36 5,5 °C 5,5 °C 95 % 1018,0 hPa 0,0 mm 0,1 km/h (0 Bft) SO 140 ° 0 min 0,000 mm 0,0 UV-I 0 W/m² 4,8 °C 5,5 °C 1,6 km/h (1 Bft)
20.05.2017 04:37 5,5 °C 5,5 °C 95 % 1018,0 hPa 0,0 mm 0,7 km/h (0 Bft) SO 140 ° 0 min 0,000 mm 0,0 UV-I 0 W/m² 4,8 °C 5,5 °C 1,6 km/h (1 Bft)
20.05.2017 04:38 5,5 °C 5,5 °C 95 % 1018,0 hPa 0,0 mm 1,3 km/h (1 Bft) SO 140 ° 0 min 0,000 mm 0,0 UV-I 0 W/m² 4,8 °C 5,5 °C 3,2 km/h (1 Bft)
20.05.2017 04:39 5,5 °C 5,5 °C 95 % 1018,0 hPa 0,0 mm 3,6 km/h (1 Bft) S-SW 196 ° 0 min 0,000 mm 0,0 UV-I 0 W/m² 4,8 °C 5,5 °C 6,4 km/h (2 Bft)
20.05.2017 04:40 5,5 °C 5,6 °C 94 % 1018,0 hPa 0,0 mm 1,9 km/h (1 Bft) S-SW 196 ° 0 min 0,000 mm 0,0 UV-I 0 W/m² 4,6 °C 5,5 °C 3,2 km/h (1 Bft)
20.05.2017 04:41 5,6 °C 5,6 °C 94 % 1018,0 hPa 0,0 mm 1,4 km/h (1 Bft) S-SW 196 ° 0 min 0,000 mm 0,0 UV-I 0 W/m² 4,7 °C 5,6 °C 3,2 km/h (1 Bft)
20.05.2017 04:42 5,6 °C 5,6 °C 94 % 1018,0 hPa 0,0 mm 0,3 km/h (0 Bft) S-SW 196 ° 0 min 0,000 mm 0,0 UV-I 0 W/m² 4,7 °C 5,6 °C 1,6 km/h (1 Bft)
20.05.2017 04:43 5,6 °C 5,6 °C 94 % 1018,0 hPa 0,0 mm 0,6 km/h (0 Bft) S-SW 196 ° 0 min 0,000 mm 0,0 UV-I 0 W/m² 4,7 °C 5,6 °C 3,2 km/h (1 Bft)
20.05.2017 04:44 5,6 °C 5,6 °C 94 % 1017,9 hPa 0,0 mm 2,8 km/h (1 Bft) S-SW 196 ° 0 min 0,000 mm 0,0 UV-I 0 W/m² 4,7 °C 5,6 °C 3,2 km/h (1 Bft)
20.05.2017 04:45 5,6 °C 5,6 °C 94 % 1018,0 hPa 0,0 mm 4,8 km/h (1 Bft) S-SW 197 ° 0 min 0,000 mm 0,0 UV-I 0 W/m² 4,7 °C 4,8 °C 6,4 km/h (2 Bft)
20.05.2017 04:46 5,7 °C 5,7 °C 93 % 1017,9 hPa 0,0 mm 3,0 km/h (1 Bft) SW 214 ° 0 min 0,000 mm 0,0 UV-I 0 W/m² 4,7 °C 5,7 °C 4,8 km/h (1 Bft)
20.05.2017 04:47 5,7 °C 5,7 °C 93 % 1018,0 hPa 0,0 mm 3,2 km/h (1 Bft) S-SW 195 ° 0 min 0,000 mm 0,0 UV-I 0 W/m² 4,7 °C 5,7 °C 6,4 km/h (2 Bft)
20.05.2017 04:48 5,8 °C 5,8 °C 93 % 1018,0 hPa 0,0 mm 3,6 km/h (1 Bft) S 188 ° 0 min 0,000 mm 0,0 UV-I 0 W/m² 4,8 °C 5,8 °C 6,4 km/h (2 Bft)
20.05.2017 04:49 5,8 °C 5,8 °C 93 % 1017,9 hPa 0,0 mm 2,6 km/h (1 Bft) S-SW 208 ° 0 min 0,000 mm 0,0 UV-I 0 W/m² 4,8 °C 5,8 °C 4,8 km/h (1 Bft)
20.05.2017 04:50 5,7 °C 5,8 °C 93 % 1017,9 hPa 0,0 mm 0,8 km/h (0 Bft) S-SW 208 ° 0 min 0,000 mm 0,0 UV-I 0 W/m² 4,7 °C 5,7 °C 1,6 km/h (1 Bft)
20.05.2017 04:51 5,7 °C 5,7 °C 93 % 1017,9 hPa 0,0 mm 0,6 km/h (0 Bft) S-SW 208 ° 0 min 0,000 mm 0,0 UV-I 0 W/m² 4,7 °C 5,7 °C 1,6 km/h (1 Bft)
20.05.2017 04:52 5,7 °C 5,7 °C 93 % 1018,0 hPa 0,0 mm 0,1 km/h (0 Bft) S-SW 208 ° 0 min 0,000 mm 0,0 UV-I 0 W/m² 4,7 °C 5,7 °C 1,6 km/h (1 Bft)
20.05.2017 04:53 5,6 °C 5,7 °C 93 % 1017,9 hPa 0,0 mm 1,4 km/h (1 Bft) S-SW 208 ° 0 min 0,000 mm 0,0 UV-I 0 W/m² 4,6 °C 5,6 °C 3,2 km/h (1 Bft)
20.05.2017 04:54 5,6 °C 5,6 °C 93 % 1018,0 hPa 0,0 mm 2,1 km/h (1 Bft) S-SW 208 ° 0 min 0,000 mm 0,0 UV-I 0 W/m² 4,6 °C 5,6 °C 3,2 km/h (1 Bft)
20.05.2017 04:55 5,6 °C 5,6 °C 93 % 1018,0 hPa 0,0 mm 1,9 km/h (1 Bft) S-SW 208 ° 0 min 0,000 mm 0,0 UV-I 0 W/m² 4,6 °C 5,6 °C 3,2 km/h (1 Bft)
20.05.2017 04:56 5,6 °C 5,6 °C 93 % 1017,9 hPa 0,0 mm 2,2 km/h (1 Bft) S-SW 208 ° 0 min 0,000 mm 0,0 UV-I 0 W/m² 4,6 °C 5,6 °C 3,2 km/h (1 Bft)
20.05.2017 04:57 5,6 °C 5,6 °C 93 % 1017,9 hPa 0,0 mm 2,4 km/h (1 Bft) S 185 ° 0 min 0,000 mm 0,0 UV-I 0 W/m² 4,6 °C 5,6 °C 4,8 km/h (1 Bft)
20.05.2017 04:58 5,5 °C 5,6 °C 93 % 1017,9 hPa 0,0 mm 1,6 km/h (1 Bft) S 185 ° 0 min 0,000 mm 0,0 UV-I 0 W/m² 4,5 °C 5,5 °C 3,2 km/h (1 Bft)
20.05.2017 04:59 5,6 °C 5,6 °C 93 % 1017,9 hPa 0,0 mm 0,7 km/h (0 Bft) S 185 ° 0 min 0,000 mm 0,0 UV-I 0 W/m² 4,6 °C 5,6 °C 1,6 km/h (1 Bft)
20.05.2017 05:00 5,5 °C 5,6 °C 93 % 1018,0 hPa 0,0 mm 1,0 km/h (0 Bft) S 185 ° 0 min 0,000 mm 0,0 UV-I 0 W/m² 4,5 °C 5,5 °C 3,2 km/h (1 Bft)
20.05.2017 05:01 5,4 °C 5,5 °C 93 % 1018,0 hPa 0,0 mm 0,7 km/h (0 Bft) S 185 ° 0 min 0,000 mm 0,0 UV-I 0 W/m² 4,4 °C 5,4 °C 1,6 km/h (1 Bft)
20.05.2017 05:02 5,4 °C 5,4 °C 93 % 1018,0 hPa 0,0 mm 0,2 km/h (0 Bft) S 185 ° 0 min 0,000 mm 0,0 UV-I 0 W/m² 4,4 °C 5,4 °C 1,6 km/h (1 Bft)
20.05.2017 05:03 5,4 °C 5,4 °C 93 % 1018,0 hPa 0,0 mm 0,5 km/h (0 Bft) S 185 ° 0 min 0,000 mm 0,0 UV-I 0 W/m² 4,4 °C 5,4 °C 1,6 km/h (1 Bft)
20.05.2017 05:04 5,3 °C 5,4 °C 92 % 1018,0 hPa 0,0 mm 1,7 km/h (1 Bft) S 185 ° 0 min 0,000 mm 0,0 UV-I 0 W/m² 4,1 °C 5,3 °C 3,2 km/h (1 Bft)
20.05.2017 05:05 5,3 °C 5,3 °C 93 % 1018,1 hPa 0,0 mm 1,3 km/h (1 Bft) S 184 ° 0 min 0,000 mm 0,0 UV-I 0 W/m² 4,3 °C 5,3 °C 3,2 km/h (1 Bft)
20.05.2017 05:06 5,3 °C 5,3 °C 93 % 1018,0 hPa 0,0 mm 0,7 km/h (0 Bft) S 185 ° 0 min 0,000 mm 0,0 UV-I 0 W/m² 4,3 °C 5,3 °C 1,6 km/h (1 Bft)
20.05.2017 05:07 5,3 °C 5,3 °C 93 % 1018,1 hPa 0,0 mm 0,8 km/h (0 Bft) S 184 ° 0 min 0,000 mm 0,0 UV-I 0 W/m² 4,3 °C 5,3 °C 3,2 km/h (1 Bft)
20.05.2017 05:08 5,2 °C 5,3 °C 92 % 1018,0 hPa 0,0 mm 1,5 km/h (1 Bft) S 184 ° 0 min 0,000 mm 0,0 UV-I 0 W/m² 4,0 °C 5,2 °C 3,2 km/h (1 Bft)
20.05.2017 05:09 5,2 °C 5,2 °C 93 % 1018,0 hPa 0,0 mm 1,7 km/h (1 Bft) S 185 ° 0 min 0,000 mm 0,0 UV-I 0 W/m² 4,2 °C 5,2 °C 3,2 km/h (1 Bft)
20.05.2017 05:10 5,2 °C 5,2 °C 93 % 1018,0 hPa 0,0 mm 0,7 km/h (0 Bft) S 184 ° 0 min 0,000 mm 0,0 UV-I 0 W/m² 4,2 °C 5,2 °C 1,6 km/h (1 Bft)
20.05.2017 05:11 5,1 °C 5,2 °C 93 % 1018,1 hPa 0,0 mm 0,0 km/h (0 Bft) S 185 ° 0 min 0,000 mm 0,0 UV-I 0 W/m² 4,1 °C 5,1 °C 0,0 km/h (0 Bft)
20.05.2017 05:12 5,1 °C 5,1 °C 93 % 1018,1 hPa 0,0 mm 0,6 km/h (0 Bft) S 185 ° 0 min 0,000 mm 0,0 UV-I 0 W/m² 4,1 °C 5,1 °C 1,6 km/h (1 Bft)
20.05.2017 05:13 5,1 °C 5,1 °C 93 % 1018,0 hPa 0,0 mm 2,0 km/h (1 Bft) S 184 ° 0 min 0,000 mm 0,0 UV-I 0 W/m² 4,1 °C 5,1 °C 3,2 km/h (1 Bft)
20.05.2017 05:14 5,1 °C 5,1 °C 93 % 1018,0 hPa 0,0 mm 1,3 km/h (1 Bft) S 185 ° 0 min 0,000 mm 0,0 UV-I 0 W/m² 4,1 °C 5,1 °C 3,2 km/h (1 Bft)
20.05.2017 05:15 5,0 °C 5,1 °C 93 % 1018,1 hPa 0,0 mm 0,0 km/h (0 Bft) S 185 ° 0 min 0,000 mm 0,0 UV-I 0 W/m² 4,0 °C 5,0 °C 0,0 km/h (0 Bft)
20.05.2017 05:16 4,9 °C 5,0 °C 93 % 1018,1 hPa 0,0 mm 0,0 km/h (0 Bft) S 184 ° 0 min 0,000 mm 0,0 UV-I 0 W/m² 3,9 °C 4,9 °C 0,0 km/h (0 Bft)
20.05.2017 05:17 4,8 °C 4,9 °C 92 % 1018,2 hPa 0,0 mm 0,0 km/h (0 Bft) S 184 ° 0 min 0,000 mm 0,0 UV-I 0 W/m² 3,6 °C 4,8 °C 0,0 km/h (0 Bft)
20.05.2017 05:18 4,7 °C 4,8 °C 92 % 1018,2 hPa 0,0 mm 0,0 km/h (0 Bft) S 185 ° 0 min 0,000 mm 0,0 UV-I 0 W/m² 3,5 °C 4,7 °C 0,0 km/h (0 Bft)
20.05.2017 05:19 4,7 °C 4,7 °C 93 % 1018,2 hPa 0,0 mm 0,0 km/h (0 Bft) S 185 ° 0 min 0,000 mm 0,0 UV-I 0 W/m² 3,7 °C 4,7 °C 0,0 km/h (0 Bft)
20.05.2017 05:20 4,7 °C 4,7 °C 93 % 1018,2 hPa 0,0 mm 0,0 km/h (0 Bft) S 184 ° 0 min 0,000 mm 0,0 UV-I 0 W/m² 3,7 °C 4,7 °C 0,0 km/h (0 Bft)
20.05.2017 05:21 4,7 °C 4,7 °C 93 % 1018,2 hPa 0,0 mm 0,0 km/h (0 Bft) S 185 ° 0 min 0,000 mm 0,0 UV-I 0 W/m² 3,7 °C 4,7 °C 0,0 km/h (0 Bft)
20.05.2017 05:22 4,6 °C 4,7 °C 93 % 1018,2 hPa 0,0 mm 0,0 km/h (0 Bft) S 185 ° 0 min 0,000 mm 0,0 UV-I 0 W/m² 3,6 °C 4,6 °C 0,0 km/h (0 Bft)
20.05.2017 05:23 4,6 °C 4,6 °C 93 % 1018,2 hPa 0,0 mm 0,0 km/h (0 Bft) S 185 ° 0 min 0,000 mm 0,0 UV-I 0 W/m² 3,6 °C 4,6 °C 0,0 km/h (0 Bft)
20.05.2017 05:24 4,6 °C 4,6 °C 93 % 1018,2 hPa 0,0 mm 0,0 km/h (0 Bft) S 185 ° 0 min 0,000 mm 0,0 UV-I 0 W/m² 3,6 °C 4,6 °C 0,0 km/h (0 Bft)
20.05.2017 05:25 4,6 °C 4,6 °C 93 % 1018,2 hPa 0,0 mm 0,0 km/h (0 Bft) S 185 ° 0 min 0,000 mm 0,0 UV-I 0 W/m² 3,6 °C 4,6 °C 0,0 km/h (0 Bft)
20.05.2017 05:26 4,6 °C 4,6 °C 93 % 1018,3 hPa 0,0 mm 0,0 km/h (0 Bft) S 185 ° 0 min 0,000 mm 0,0 UV-I 0 W/m² 3,6 °C 4,6 °C 0,0 km/h (0 Bft)
20.05.2017 05:27 4,5 °C 4,6 °C 93 % 1018,3 hPa 0,0 mm 0,0 km/h (0 Bft) S 185 ° 0 min 0,000 mm 0,0 UV-I 0 W/m² 3,5 °C 4,5 °C 0,0 km/h (0 Bft)
20.05.2017 05:28 4,5 °C 4,5 °C 93 % 1018,3 hPa 0,0 mm 0,0 km/h (0 Bft) S 184 ° 0 min 0,000 mm 0,0 UV-I 0 W/m² 3,5 °C 4,5 °C 0,0 km/h (0 Bft)
20.05.2017 05:29 4,4 °C 4,5 °C 93 % 1018,3 hPa 0,0 mm 0,0 km/h (0 Bft) S 185 ° 0 min 0,000 mm 0,0 UV-I 5 W/m² 3,4 °C 4,4 °C 0,0 km/h (0 Bft)
20.05.2017 05:30 4,5 °C 4,5 °C 93 % 1018,3 hPa 0,0 mm 0,0 km/h (0 Bft) S 185 ° 0 min 0,000 mm 0,0 UV-I 5 W/m² 3,5 °C 4,5 °C 0,0 km/h (0 Bft)
20.05.2017 05:31 4,4 °C 4,5 °C 93 % 1018,2 hPa 0,0 mm 0,0 km/h (0 Bft) S 185 ° 0 min 0,000 mm 0,0 UV-I 5 W/m² 3,4 °C 4,4 °C 0,0 km/h (0 Bft)
20.05.2017 05:32 4,3 °C 4,4 °C 93 % 1018,3 hPa 0,0 mm 0,0 km/h (0 Bft) S 185 ° 0 min 0,000 mm 0,0 UV-I 5 W/m² 3,3 °C 4,3 °C 0,0 km/h (0 Bft)
20.05.2017 05:33 4,3 °C 4,3 °C 94 % 1018,3 hPa 0,0 mm 0,0 km/h (0 Bft) S 185 ° 0 min 0,000 mm 0,0 UV-I 5 W/m² 3,4 °C 4,3 °C 0,0 km/h (0 Bft)
20.05.2017 05:34 4,3 °C 4,3 °C 94 % 1018,3 hPa 0,0 mm 0,0 km/h (0 Bft) S 185 ° 0 min 0,000 mm 0,0 UV-I 5 W/m² 3,4 °C 4,3 °C 0,0 km/h (0 Bft)
20.05.2017 05:35 4,3 °C 4,3 °C 94 % 1018,3 hPa 0,0 mm 0,0 km/h (0 Bft) S 184 ° 0 min 0,000 mm 0,0 UV-I 5 W/m² 3,4 °C 4,3 °C 0,0 km/h (0 Bft)
20.05.2017 05:36 4,4 °C 4,4 °C 94 % 1018,3 hPa 0,0 mm 0,0 km/h (0 Bft) S 185 ° 0 min 0,000 mm 0,0 UV-I 5 W/m² 3,5 °C 4,4 °C 0,0 km/h (0 Bft)
20.05.2017 05:37 4,4 °C 4,4 °C 94 % 1018,3 hPa 0,0 mm 0,0 km/h (0 Bft) S 185 ° 0 min 0,000 mm 0,0 UV-I 5 W/m² 3,5 °C 4,4 °C 0,0 km/h (0 Bft)
20.05.2017 05:38 4,4 °C 4,4 °C 94 % 1018,4 hPa 0,0 mm 0,0 km/h (0 Bft) S 185 ° 0 min 0,000 mm 0,0 UV-I 5 W/m² 3,5 °C 4,4 °C 0,0 km/h (0 Bft)
20.05.2017 05:39 4,3 °C 4,4 °C 94 % 1018,4 hPa 0,0 mm 0,0 km/h (0 Bft) S 185 ° 0 min 0,000 mm 0,0 UV-I 5 W/m² 3,4 °C 4,3 °C 0,0 km/h (0 Bft)
20.05.2017 05:40 4,3 °C 4,3 °C 94 % 1018,5 hPa 0,0 mm 0,0 km/h (0 Bft) S 185 ° 0 min 0,000 mm 0,0 UV-I 7 W/m² 3,4 °C 4,3 °C 0,0 km/h (0 Bft)
20.05.2017 05:41 4,2 °C 4,3 °C 94 % 1018,4 hPa 0,0 mm 0,0 km/h (0 Bft) S 185 ° 0 min 0,000 mm 0,0 UV-I 7 W/m² 3,3 °C 4,2 °C 0,0 km/h (0 Bft)
20.05.2017 05:42 4,2 °C 4,2 °C 94 % 1018,4 hPa 0,0 mm 0,0 km/h (0 Bft) S 185 ° 0 min 0,000 mm 0,0 UV-I 9 W/m² 3,3 °C 4,2 °C 0,0 km/h (0 Bft)
20.05.2017 05:43 4,2 °C 4,2 °C 94 % 1018,5 hPa 0,0 mm 0,0 km/h (0 Bft) S 185 ° 0 min 0,000 mm 0,0 UV-I 9 W/m² 3,3 °C 4,2 °C 0,0 km/h (0 Bft)
20.05.2017 05:44 4,2 °C 4,2 °C 94 % 1018,5 hPa 0,0 mm 0,0 km/h (0 Bft) S 185 ° 0 min 0,000 mm 0,0 UV-I 11 W/m² 3,3 °C 4,2 °C 0,0 km/h (0 Bft)
20.05.2017 05:45 4,2 °C 4,2 °C 94 % 1018,5 hPa 0,0 mm 0,0 km/h (0 Bft) S 185 ° 0 min 0,000 mm 0,0 UV-I 11 W/m² 3,3 °C 4,2 °C 0,0 km/h (0 Bft)
20.05.2017 05:46 4,2 °C 4,2 °C 94 % 1018,5 hPa 0,0 mm 0,0 km/h (0 Bft) S 185 ° 0 min 0,000 mm 0,0 UV-I 12 W/m² 3,3 °C 4,2 °C 0,0 km/h (0 Bft)
20.05.2017 05:47 4,3 °C 4,3 °C 94 % 1018,5 hPa 0,0 mm 0,0 km/h (0 Bft) S 185 ° 0 min 0,000 mm 0,0 UV-I 12 W/m² 3,4 °C 4,3 °C 0,0 km/h (0 Bft)
20.05.2017 05:48 4,3 °C 4,3 °C 94 % 1018,4 hPa 0,0 mm 0,0 km/h (0 Bft) S 184 ° 0 min 0,000 mm 0,0 UV-I 14 W/m² 3,4 °C 4,3 °C 0,0 km/h (0 Bft)
20.05.2017 05:49 4,3 °C 4,3 °C 94 % 1018,5 hPa 0,0 mm 0,0 km/h (0 Bft) S 185 ° 0 min 0,000 mm 0,0 UV-I 14 W/m² 3,4 °C 4,3 °C 0,0 km/h (0 Bft)
20.05.2017 05:50 4,4 °C 4,4 °C 94 % 1018,4 hPa 0,0 mm 0,0 km/h (0 Bft) S 185 ° 0 min 0,000 mm 0,0 UV-I 14 W/m² 3,5 °C 4,4 °C 0,0 km/h (0 Bft)
20.05.2017 05:51 4,4 °C 4,4 °C 94 % 1018,4 hPa 0,0 mm 0,0 km/h (0 Bft) S 184 ° 0 min 0,000 mm 0,0 UV-I 16 W/m² 3,5 °C 4,4 °C 0,0 km/h (0 Bft)
20.05.2017 05:52 4,4 °C 4,5 °C 94 % 1018,4 hPa 0,0 mm 0,0 km/h (0 Bft) S 185 ° 0 min 0,000 mm 0,0 UV-I 18 W/m² 3,5 °C 4,4 °C 0,0 km/h (0 Bft)
20.05.2017 05:53 4,6 °C 4,6 °C 95 % 1018,5 hPa 0,0 mm 0,3 km/h (0 Bft) S 185 ° 0 min 0,000 mm 0,0 UV-I 18 W/m² 3,9 °C 4,6 °C 1,6 km/h (1 Bft)
20.05.2017 05:54 4,6 °C 4,6 °C 95 % 1018,5 hPa 0,0 mm 1,5 km/h (1 Bft) S 185 ° 0 min 0,000 mm 0,0 UV-I 19 W/m² 3,9 °C 4,6 °C 3,2 km/h (1 Bft)
20.05.2017 05:55 4,6 °C 4,6 °C 95 % 1018,5 hPa 0,0 mm 1,5 km/h (1 Bft) S 185 ° 0 min 0,000 mm 0,0 UV-I 18 W/m² 3,9 °C 4,6 °C 3,2 km/h (1 Bft)
20.05.2017 05:56 4,6 °C 4,6 °C 95 % 1018,5 hPa 0,0 mm 1,2 km/h (1 Bft) S 185 ° 0 min 0,000 mm 0,0 UV-I 18 W/m² 3,9 °C 4,6 °C 1,6 km/h (1 Bft)
20.05.2017 05:57 4,7 °C 4,7 °C 95 % 1018,5 hPa 0,0 mm 1,0 km/h (0 Bft) S 185 ° 0 min 0,000 mm 0,0 UV-I 18 W/m² 4,0 °C 4,7 °C 1,6 km/h (1 Bft)
20.05.2017 05:58 4,7 °C 4,7 °C 95 % 1018,6 hPa 0,0 mm 1,1 km/h (1 Bft) S 185 ° 0 min 0,000 mm 0,0 UV-I 18 W/m² 4,0 °C 4,7 °C 1,6 km/h (1 Bft)
20.05.2017 05:59 4,7 °C 4,7 °C 95 % 1018,6 hPa 0,0 mm 0,7 km/h (0 Bft) S 185 ° 0 min 0,000 mm 0,0 UV-I 18 W/m² 4,0 °C 4,7 °C 1,6 km/h (1 Bft)
20.05.2017 06:00 4,7 °C 4,7 °C 95 % 1018,6 hPa 0,0 mm 0,0 km/h (0 Bft) S 185 ° 0 min 0,000 mm 0,0 UV-I 19 W/m² 4,0 °C 4,7 °C 0,0 km/h (0 Bft)
20.05.2017 06:01 4,7 °C 4,7 °C 95 % 1018,5 hPa 0,0 mm 0,0 km/h (0 Bft) S 185 ° 0 min 0,000 mm 0,0 UV-I 19 W/m² 4,0 °C 4,7 °C 0,0 km/h (0 Bft)
20.05.2017 06:02 4,7 °C 4,7 °C 95 % 1018,6 hPa 0,0 mm 0,7 km/h (0 Bft) S-SO 159 ° 0 min 0,000 mm 0,0 UV-I 19 W/m² 4,0 °C 4,7 °C 1,6 km/h (1 Bft)
20.05.2017 06:03 4,7 °C 4,7 °C 95 % 1018,7 hPa 0,0 mm 0,4 km/h (0 Bft) S-SO 159 ° 0 min 0,000 mm 0,0 UV-I 21 W/m² 4,0 °C 4,7 °C 1,6 km/h (1 Bft)
20.05.2017 06:04 4,7 °C 4,7 °C 95 % 1018,7 hPa 0,0 mm 1,5 km/h (1 Bft) S-SO 158 ° 0 min 0,000 mm 0,0 UV-I 21 W/m² 4,0 °C 4,7 °C 3,2 km/h (1 Bft)
20.05.2017 06:05 4,7 °C 4,7 °C 95 % 1018,7 hPa 0,0 mm 0,9 km/h (0 Bft) S-SO 158 ° 0 min 0,000 mm 0,0 UV-I 21 W/m² 4,0 °C 4,7 °C 3,2 km/h (1 Bft)
20.05.2017 06:06 4,8 °C 4,8 °C 95 % 1018,7 hPa 0,0 mm 0,0 km/h (0 Bft) S-SO 158 ° 0 min 0,000 mm 0,0 UV-I 19 W/m² 4,1 °C 4,8 °C 0,0 km/h (0 Bft)
20.05.2017 06:07 4,8 °C 4,8 °C 95 % 1018,7 hPa 0,0 mm 0,0 km/h (0 Bft) S-SO 158 ° 0 min 0,000 mm 0,0 UV-I 19 W/m² 4,1 °C 4,8 °C 0,0 km/h (0 Bft)
20.05.2017 06:08 4,9 °C 4,9 °C 95 % 1018,7 hPa 0,0 mm 0,0 km/h (0 Bft) S-SO 158 ° 0 min 0,000 mm 0,0 UV-I 19 W/m² 4,2 °C 4,9 °C 0,0 km/h (0 Bft)
20.05.2017 06:09 4,9 °C 4,9 °C 95 % 1018,7 hPa 0,0 mm 0,0 km/h (0 Bft) S-SO 158 ° 0 min 0,000 mm 0,0 UV-I 18 W/m² 4,2 °C 4,9 °C 0,0 km/h (0 Bft)
20.05.2017 06:10 4,9 °C 4,9 °C 95 % 1018,8 hPa 0,0 mm 0,0 km/h (0 Bft) S-SO 158 ° 0 min 0,000 mm 0,0 UV-I 19 W/m² 4,2 °C 4,9 °C 0,0 km/h (0 Bft)
20.05.2017 06:11 5,0 °C 5,0 °C 95 % 1018,8 hPa 0,0 mm 0,0 km/h (0 Bft) S-SO 158 ° 0 min 0,000 mm 0,0 UV-I 19 W/m² 4,3 °C 5,0 °C 0,0 km/h (0 Bft)
20.05.2017 06:12 5,0 °C 5,0 °C 95 % 1018,8 hPa 0,0 mm 0,0 km/h (0 Bft) S-SO 158 ° 0 min 0,000 mm 0,0 UV-I 19 W/m² 4,3 °C 5,0 °C 0,0 km/h (0 Bft)
20.05.2017 06:13 5,1 °C 5,1 °C 95 % 1018,8 hPa 0,0 mm 0,0 km/h (0 Bft) S-SO 158 ° 0 min 0,000 mm 0,0 UV-I 21 W/m² 4,4 °C 5,1 °C 0,0 km/h (0 Bft)
20.05.2017 06:14 5,1 °C 5,1 °C 95 % 1018,8 hPa 0,0 mm 0,0 km/h (0 Bft) S-SO 158 ° 0 min 0,000 mm 0,0 UV-I 21 W/m² 4,4 °C 5,1 °C 0,0 km/h (0 Bft)
20.05.2017 06:15 5,1 °C 5,1 °C 95 % 1018,8 hPa 0,0 mm 0,0 km/h (0 Bft) S-SO 158 ° 0 min 0,000 mm 0,0 UV-I 21 W/m² 4,4 °C 5,1 °C 0,0 km/h (0 Bft)
20.05.2017 06:16 5,2 °C 5,2 °C 95 % 1018,9 hPa 0,0 mm 0,0 km/h (0 Bft) S-SO 158 ° 0 min 0,000 mm 0,0 UV-I 21 W/m² 4,5 °C 5,2 °C 0,0 km/h (0 Bft)
20.05.2017 06:17 5,1 °C 5,2 °C 95 % 1018,9 hPa 0,0 mm 0,0 km/h (0 Bft) S-SO 158 ° 0 min 0,000 mm 0,0 UV-I 21 W/m² 4,4 °C 5,1 °C 0,0 km/h (0 Bft)
20.05.2017 06:18 5,2 °C 5,2 °C 95 % 1018,9 hPa 0,0 mm 0,0 km/h (0 Bft) S-SO 158 ° 0 min 0,000 mm 0,0 UV-I 23 W/m² 4,5 °C 5,2 °C 0,0 km/h (0 Bft)
20.05.2017 06:19 5,2 °C 5,2 °C 95 % 1018,9 hPa 0,0 mm 0,0 km/h (0 Bft) S-SO 158 ° 0 min 0,000 mm 0,0 UV-I 25 W/m² 4,5 °C 5,2 °C 0,0 km/h (0 Bft)
20.05.2017 06:20 5,2 °C 5,2 °C 95 % 1018,9 hPa 0,0 mm 0,0 km/h (0 Bft) S-SO 158 ° 0 min 0,000 mm 0,0 UV-I 26 W/m² 4,5 °C 5,2 °C 0,0 km/h (0 Bft)
20.05.2017 06:21 5,2 °C 5,2 °C 95 % 1018,9 hPa 0,0 mm 0,1 km/h (0 Bft) S-SO 158 ° 0 min 0,000 mm 0,0 UV-I 26 W/m² 4,5 °C 5,2 °C 1,6 km/h (1 Bft)
20.05.2017 06:22 5,2 °C 5,2 °C 95 % 1018,9 hPa 0,0 mm 0,0 km/h (0 Bft) S-SO 158 ° 0 min 0,000 mm 0,0 UV-I 33 W/m² 4,5 °C 5,2 °C 0,0 km/h (0 Bft)
20.05.2017 06:23 5,3 °C 5,3 °C 95 % 1018,9 hPa 0,0 mm 0,0 km/h (0 Bft) S-SO 158 ° 0 min 0,000 mm 0,0 UV-I 32 W/m² 4,6 °C 5,3 °C 0,0 km/h (0 Bft)
20.05.2017 06:24 5,3 °C 5,3 °C 95 % 1018,9 hPa 0,0 mm 0,0 km/h (0 Bft) S-SO 158 ° 0 min 0,000 mm 0,0 UV-I 32 W/m² 4,6 °C 5,3 °C 0,0 km/h (0 Bft)
20.05.2017 06:25 5,3 °C 5,3 °C 95 % 1018,9 hPa 0,0 mm 0,0 km/h (0 Bft) S-SO 158 ° 0 min 0,000 mm 0,0 UV-I 35 W/m² 4,6 °C 5,3 °C 0,0 km/h (0 Bft)
20.05.2017 06:26 5,2 °C 5,3 °C 95 % 1019,0 hPa 0,0 mm 0,0 km/h (0 Bft) S-SO 158 ° 0 min 0,000 mm 0,0 UV-I 37 W/m² 4,5 °C 5,2 °C 0,0 km/h (0 Bft)
20.05.2017 06:27 5,2 °C 5,3 °C 95 % 1018,9 hPa 0,0 mm 0,0 km/h (0 Bft) S-SO 158 ° 0 min 0,000 mm 0,0 UV-I 37 W/m² 4,5 °C 5,2 °C 0,0 km/h (0 Bft)
20.05.2017 06:28 5,2 °C 5,3 °C 95 % 1018,9 hPa 0,0 mm 0,0 km/h (0 Bft) S-SO 158 ° 0 min 0,000 mm 0,0 UV-I 39 W/m² 4,5 °C 5,2 °C 0,0 km/h (0 Bft)
20.05.2017 06:29 5,3 °C 5,3 °C 95 % 1019,0 hPa 0,0 mm 0,0 km/h (0 Bft) S-SO 158 ° 0 min 0,000 mm 0,0 UV-I 39 W/m² 4,6 °C 5,3 °C 0,0 km/h (0 Bft)
20.05.2017 06:30 5,3 °C 5,3 °C 95 % 1019,0 hPa 0,0 mm 0,0 km/h (0 Bft) S-SO 158 ° 0 min 0,000 mm 0,0 UV-I 39 W/m² 4,6 °C 5,3 °C 0,0 km/h (0 Bft)
20.05.2017 06:31 5,3 °C 5,3 °C 95 % 1019,0 hPa 0,0 mm 0,0 km/h (0 Bft) S-SO 158 ° 0 min 0,000 mm 0,0 UV-I 39 W/m² 4,6 °C 5,3 °C 0,0 km/h (0 Bft)
20.05.2017 06:32 5,3 °C 5,3 °C 95 % 1019,0 hPa 0,0 mm 0,0 km/h (0 Bft) S-SO 158 ° 0 min 0,000 mm 0,0 UV-I 39 W/m² 4,6 °C 5,3 °C 0,0 km/h (0 Bft)
20.05.2017 06:33 5,3 °C 5,3 °C 95 % 1019,0 hPa 0,0 mm 0,0 km/h (0 Bft) S-SO 158 ° 0 min 0,000 mm 0,0 UV-I 39 W/m² 4,6 °C 5,3 °C 0,0 km/h (0 Bft)
20.05.2017 06:34 5,2 °C 5,3 °C 95 % 1019,0 hPa 0,0 mm 0,0 km/h (0 Bft) S-SO 158 ° 0 min 0,000 mm 0,0 UV-I 39 W/m² 4,5 °C 5,2 °C 0,0 km/h (0 Bft)
20.05.2017 06:35 5,2 °C 5,2 °C 95 % 1019,0 hPa 0,0 mm 0,0 km/h (0 Bft) S-SO 158 ° 0 min 0,000 mm 0,0 UV-I 39 W/m² 4,5 °C 5,2 °C 0,0 km/h (0 Bft)
20.05.2017 06:36 5,2 °C 5,2 °C 94 % 1019,0 hPa 0,0 mm 0,0 km/h (0 Bft) S-SO 158 ° 0 min 0,000 mm 0,0 UV-I 46 W/m² 4,3 °C 5,2 °C 0,0 km/h (0 Bft)
20.05.2017 06:37 5,2 °C 5,2 °C 94 % 1019,0 hPa 0,0 mm 0,0 km/h (0 Bft) S-SO 158 ° 0 min 0,000 mm 0,0 UV-I 46 W/m² 4,3 °C 5,2 °C 0,0 km/h (0 Bft)
20.05.2017 06:38 5,2 °C 5,2 °C 94 % 1019,1 hPa 0,0 mm 0,0 km/h (0 Bft) S-SO 158 ° 0 min 0,000 mm 0,0 UV-I 46 W/m² 4,3 °C 5,2 °C 0,0 km/h (0 Bft)
20.05.2017 06:39 5,3 °C 5,3 °C 94 % 1019,1 hPa 0,0 mm 0,0 km/h (0 Bft) S-SO 158 ° 0 min 0,000 mm 0,0 UV-I 37 W/m² 4,4 °C 5,3 °C 0,0 km/h (0 Bft)
20.05.2017 06:40 5,3 °C 5,3 °C 94 % 1019,1 hPa 0,0 mm 0,8 km/h (0 Bft) S-SO 158 ° 0 min 0,000 mm 0,0 UV-I 37 W/m² 4,4 °C 5,3 °C 1,6 km/h (1 Bft)
20.05.2017 06:41 5,3 °C 5,3 °C 94 % 1019,1 hPa 0,0 mm 0,9 km/h (0 Bft) S-SO 158 ° 0 min 0,000 mm 0,0 UV-I 37 W/m² 4,4 °C 5,3 °C 3,2 km/h (1 Bft)
20.05.2017 06:42 5,3 °C 5,3 °C 94 % 1019,1 hPa 0,0 mm 0,1 km/h (0 Bft) S-SO 158 ° 0 min 0,000 mm 0,0 UV-I 37 W/m² 4,4 °C 5,3 °C 1,6 km/h (1 Bft)
20.05.2017 06:43 5,3 °C 5,3 °C 94 % 1019,1 hPa 0,0 mm 0,0 km/h (0 Bft) S-SO 158 ° 0 min 0,000 mm 0,0 UV-I 37 W/m² 4,4 °C 5,3 °C 0,0 km/h (0 Bft)
20.05.2017 06:44 5,4 °C 5,4 °C 94 % 1019,1 hPa 0,0 mm 0,1 km/h (0 Bft) S-SO 158 ° 0 min 0,000 mm 0,0 UV-I 37 W/m² 4,5 °C 5,4 °C 1,6 km/h (1 Bft)
20.05.2017 06:45 5,3 °C 5,4 °C 94 % 1019,1 hPa 0,0 mm 0,0 km/h (0 Bft) S-SO 158 ° 0 min 0,000 mm 0,0 UV-I 37 W/m² 4,4 °C 5,3 °C 0,0 km/h (0 Bft)
20.05.2017 06:46 5,3 °C 5,4 °C 94 % 1019,0 hPa 0,0 mm 0,0 km/h (0 Bft) S-SO 158 ° 0 min 0,000 mm 0,0 UV-I 37 W/m² 4,4 °C 5,3 °C 0,0 km/h (0 Bft)
20.05.2017 06:47 5,3 °C 5,4 °C 94 % 1019,1 hPa 0,0 mm 0,0 km/h (0 Bft) S-SO 158 ° 0 min 0,000 mm 0,0 UV-I 37 W/m² 4,4 °C 5,3 °C 0,0 km/h (0 Bft)
20.05.2017 06:48 5,4 °C 5,4 °C 94 % 1019,1 hPa 0,0 mm 0,0 km/h (0 Bft) S-SO 158 ° 0 min 0,000 mm 0,0 UV-I 37 W/m² 4,5 °C 5,4 °C 0,0 km/h (0 Bft)
20.05.2017 06:49 5,4 °C 5,4 °C 94 % 1019,1 hPa 0,0 mm 0,1 km/h (0 Bft) S-SO 158 ° 0 min 0,000 mm 0,0 UV-I 35 W/m² 4,5 °C 5,4 °C 1,6 km/h (1 Bft)
20.05.2017 06:50 5,4 °C 5,4 °C 94 % 1019,1 hPa 0,0 mm 0,0 km/h (0 Bft) S-SO 158 ° 0 min 0,000 mm 0,0 UV-I 35 W/m² 4,5 °C 5,4 °C 0,0 km/h (0 Bft)
20.05.2017 06:51 5,4 °C 5,4 °C 94 % 1019,1 hPa 0,0 mm 0,2 km/h (0 Bft) S-SO 158 ° 0 min 0,000 mm 0,0 UV-I 32 W/m² 4,5 °C 5,4 °C 1,6 km/h (1 Bft)
20.05.2017 06:52 5,4 °C 5,4 °C 94 % 1019,1 hPa 0,0 mm 0,0 km/h (0 Bft) S-SO 158 ° 0 min 0,000 mm 0,0 UV-I 32 W/m² 4,5 °C 5,4 °C 0,0 km/h (0 Bft)
20.05.2017 06:53 5,3 °C 5,4 °C 94 % 1019,1 hPa 0,0 mm 0,0 km/h (0 Bft) S-SO 158 ° 0 min 0,000 mm 0,0 UV-I 30 W/m² 4,4 °C 5,3 °C 0,0 km/h (0 Bft)
20.05.2017 06:54 5,3 °C 5,3 °C 94 % 1019,1 hPa 0,0 mm 0,0 km/h (0 Bft) S-SO 158 ° 0 min 0,000 mm 0,0 UV-I 30 W/m² 4,4 °C 5,3 °C 0,0 km/h (0 Bft)
20.05.2017 06:55 5,3 °C 5,3 °C 94 % 1019,2 hPa 0,0 mm 0,0 km/h (0 Bft) S-SO 158 ° 0 min 0,000 mm 0,0 UV-I 30 W/m² 4,4 °C 5,3 °C 0,0 km/h (0 Bft)
20.05.2017 06:56 5,3 °C 5,3 °C 93 % 1019,2 hPa 0,0 mm 0,5 km/h (0 Bft) S-SO 158 ° 0 min 0,000 mm 0,0 UV-I 32 W/m² 4,3 °C 5,3 °C 1,6 km/h (1 Bft)
20.05.2017 06:57 5,3 °C 5,3 °C 94 % 1019,2 hPa 0,0 mm 0,4 km/h (0 Bft) S-SO 158 ° 0 min 0,000 mm 0,0 UV-I 32 W/m² 4,4 °C 5,3 °C 1,6 km/h (1 Bft)
20.05.2017 06:58 5,3 °C 5,3 °C 94 % 1019,2 hPa 0,0 mm 0,0 km/h (0 Bft) S-SO 158 ° 0 min 0,000 mm 0,0 UV-I 33 W/m² 4,4 °C 5,3 °C 0,0 km/h (0 Bft)
20.05.2017 06:59 5,3 °C 5,3 °C 94 % 1019,2 hPa 0,0 mm 0,0 km/h (0 Bft) S-SO 158 ° 0 min 0,000 mm 0,0 UV-I 33 W/m² 4,4 °C 5,3 °C 0,0 km/h (0 Bft)
20.05.2017 07:00 5,3 °C 5,3 °C 93 % 1019,2 hPa 0,0 mm 0,0 km/h (0 Bft) S-SO 158 ° 0 min 0,000 mm 0,0 UV-I 35 W/m² 4,3 °C 5,3 °C 0,0 km/h (0 Bft)
20.05.2017 07:01 5,3 °C 5,3 °C 93 % 1019,2 hPa 0,0 mm 0,0 km/h (0 Bft) S-SO 158 ° 0 min 0,025 mm 0,0 UV-I 35 W/m² 4,3 °C 5,3 °C 0,0 km/h (0 Bft)
20.05.2017 07:02 5,2 °C 5,3 °C 93 % 1019,2 hPa 0,0 mm 0,1 km/h (0 Bft) S-SO 158 ° 0 min 0,000 mm 0,0 UV-I 35 W/m² 4,2 °C 5,2 °C 1,6 km/h (1 Bft)
20.05.2017 07:03 5,2 °C 5,2 °C 93 % 1019,2 hPa 0,0 mm 0,0 km/h (0 Bft) S-SO 158 ° 0 min 0,000 mm 0,0 UV-I 35 W/m² 4,2 °C 5,2 °C 0,0 km/h (0 Bft)
20.05.2017 07:04 5,2 °C 5,2 °C 93 % 1019,2 hPa 0,0 mm 0,0 km/h (0 Bft) S-SO 158 ° 0 min 0,000 mm 0,0 UV-I 37 W/m² 4,2 °C 5,2 °C 0,0 km/h (0 Bft)
20.05.2017 07:05 5,1 °C 5,2 °C 93 % 1019,3 hPa 0,0 mm 0,0 km/h (0 Bft) S-SO 158 ° 0 min 0,000 mm 0,0 UV-I 39 W/m² 4,1 °C 5,1 °C 0,0 km/h (0 Bft)
20.05.2017 07:06 5,1 °C 5,1 °C 93 % 1019,3 hPa 0,0 mm 0,0 km/h (0 Bft) S-SO 158 ° 0 min 0,000 mm 0,0 UV-I 39 W/m² 4,1 °C 5,1 °C 0,0 km/h (0 Bft)
20.05.2017 07:07 5,1 °C 5,1 °C 93 % 1019,3 hPa 0,0 mm 0,0 km/h (0 Bft) S-SO 158 ° 0 min 0,000 mm 0,0 UV-I 40 W/m² 4,1 °C 5,1 °C 0,0 km/h (0 Bft)
20.05.2017 07:08 5,1 °C 5,1 °C 93 % 1019,3 hPa 0,0 mm 0,9 km/h (0 Bft) S-SO 158 ° 0 min 0,000 mm 0,0 UV-I 42 W/m² 4,1 °C 5,1 °C 1,6 km/h (1 Bft)
20.05.2017 07:09 5,1 °C 5,2 °C 93 % 1019,3 hPa 0,0 mm 0,1 km/h (0 Bft) S-SO 158 ° 0 min 0,000 mm 0,0 UV-I 51 W/m² 4,1 °C 5,1 °C 1,6 km/h (1 Bft)
20.05.2017 07:10 5,2 °C 5,2 °C 93 % 1019,3 hPa 0,0 mm 0,0 km/h (0 Bft) S-SO 158 ° 0 min 0,000 mm 0,6 UV-I 58 W/m² 4,2 °C 5,2 °C 0,0 km/h (0 Bft)
20.05.2017 07:11 5,2 °C 5,2 °C 93 % 1019,3 hPa 0,0 mm 0,0 km/h (0 Bft) S-SO 158 ° 0 min 0,000 mm 0,6 UV-I 69 W/m² 4,2 °C 5,2 °C 0,0 km/h (0 Bft)
20.05.2017 07:12 5,2 °C 5,2 °C 93 % 1019,4 hPa 0,0 mm 0,0 km/h (0 Bft) S-SO 158 ° 0 min 0,000 mm 0,6 UV-I 62 W/m² 4,2 °C 5,2 °C 0,0 km/h (0 Bft)
20.05.2017 07:13 5,2 °C 5,2 °C 93 % 1019,3 hPa 0,0 mm 0,0 km/h (0 Bft) S-SO 158 ° 0 min 0,000 mm 0,6 UV-I 65 W/m² 4,2 °C 5,2 °C 0,0 km/h (0 Bft)
20.05.2017 07:14 5,2 °C 5,2 °C 93 % 1019,4 hPa 0,0 mm 0,0 km/h (0 Bft) S-SO 158 ° 0 min 0,000 mm 0,6 UV-I 63 W/m² 4,2 °C 5,2 °C 0,0 km/h (0 Bft)
20.05.2017 07:15 5,2 °C 5,2 °C 93 % 1019,4 hPa 0,0 mm 0,1 km/h (0 Bft) S-SO 158 ° 0 min 0,000 mm 0,6 UV-I 67 W/m² 4,2 °C 5,2 °C 1,6 km/h (1 Bft)
20.05.2017 07:16 5,3 °C 5,3 °C 93 % 1019,4 hPa 0,0 mm 0,5 km/h (0 Bft) S-SO 158 ° 0 min 0,000 mm 0,6 UV-I 67 W/m² 4,3 °C 5,3 °C 1,6 km/h (1 Bft)
20.05.2017 07:17 5,3 °C 5,3 °C 93 % 1019,4 hPa 0,0 mm 2,3 km/h (1 Bft) S 171 ° 0 min 0,000 mm 0,6 UV-I 72 W/m² 4,3 °C 5,3 °C 3,2 km/h (1 Bft)
20.05.2017 07:18 5,4 °C 5,4 °C 93 % 1019,4 hPa 0,0 mm 6,2 km/h (2 Bft) S-SW 196 ° 0 min 0,000 mm 0,6 UV-I 77 W/m² 4,4 °C 4,1 °C 8,0 km/h (2 Bft)
20.05.2017 07:19 5,4 °C 5,4 °C 93 % 1019,4 hPa 0,0 mm 6,1 km/h (2 Bft) S-SW 205 ° 0 min 0,000 mm 0,6 UV-I 77 W/m² 4,4 °C 4,2 °C 8,0 km/h (2 Bft)
20.05.2017 07:20 5,5 °C 5,5 °C 92 % 1019,4 hPa 0,0 mm 3,1 km/h (1 Bft) S-SW 212 ° 0 min 0,000 mm 0,6 UV-I 102 W/m² 4,3 °C 5,5 °C 4,8 km/h (1 Bft)
20.05.2017 07:21 5,6 °C 5,6 °C 92 % 1019,5 hPa 0,0 mm 1,2 km/h (1 Bft) S-SW 211 ° 0 min 0,000 mm 0,7 UV-I 90 W/m² 4,4 °C 5,6 °C 4,8 km/h (1 Bft)
20.05.2017 07:22 5,6 °C 5,6 °C 92 % 1019,4 hPa 0,0 mm 0,0 km/h (0 Bft) S-SW 211 ° 0 min 0,000 mm 0,7 UV-I 84 W/m² 4,4 °C 5,6 °C 0,0 km/h (0 Bft)
20.05.2017 07:23 5,6 °C 5,6 °C 92 % 1019,5 hPa 0,0 mm 0,5 km/h (0 Bft) S-SW 211 ° 0 min 0,000 mm 0,8 UV-I 128 W/m² 4,4 °C 5,6 °C 1,6 km/h (1 Bft)
20.05.2017 07:24 5,6 °C 5,6 °C 92 % 1019,5 hPa 0,0 mm 0,0 km/h (0 Bft) S-SW 211 ° 0 min 0,000 mm 0,8 UV-I 181 W/m² 4,4 °C 5,6 °C 0,0 km/h (0 Bft)
20.05.2017 07:25 5,6 °C 5,6 °C 93 % 1019,5 hPa 0,0 mm 0,1 km/h (0 Bft) S-SW 211 ° 0 min 0,000 mm 0,8 UV-I 200 W/m² 4,6 °C 5,6 °C 1,6 km/h (1 Bft)
20.05.2017 07:26 5,6 °C 5,6 °C 93 % 1019,5 hPa 0,0 mm 0,0 km/h (0 Bft) S-SW 211 ° 0 min 0,000 mm 0,9 UV-I 250 W/m² 4,6 °C 5,6 °C 0,0 km/h (0 Bft)
20.05.2017 07:27 5,8 °C 5,8 °C 93 % 1019,5 hPa 0,0 mm 0,1 km/h (0 Bft) S-SW 211 ° 0 min 0,000 mm 0,9 UV-I 244 W/m² 4,8 °C 5,8 °C 1,6 km/h (1 Bft)
20.05.2017 07:28 5,9 °C 5,9 °C 93 % 1019,5 hPa 0,0 mm 0,3 km/h (0 Bft) S-SW 211 ° 0 min 0,000 mm 0,8 UV-I 244 W/m² 4,9 °C 5,9 °C 3,2 km/h (1 Bft)
20.05.2017 07:29 5,9 °C 5,9 °C 93 % 1019,6 hPa 0,0 mm 0,5 km/h (0 Bft) S-SW 211 ° 0 min 0,000 mm 0,8 UV-I 105 W/m² 4,9 °C 5,9 °C 1,6 km/h (1 Bft)
20.05.2017 07:30 5,9 °C 5,9 °C 93 % 1019,5 hPa 0,0 mm 0,0 km/h (0 Bft) S-SW 211 ° 0 min 0,000 mm 0,8 UV-I 139 W/m² 4,9 °C 5,9 °C 0,0 km/h (0 Bft)
20.05.2017 07:31 5,9 °C 5,9 °C 93 % 1019,6 hPa 0,0 mm 0,0 km/h (0 Bft) S-SW 211 ° 0 min 0,000 mm 0,9 UV-I 214 W/m² 4,9 °C 5,9 °C 0,0 km/h (0 Bft)
20.05.2017 07:32 5,9 °C 5,9 °C 93 % 1019,5 hPa 0,0 mm 0,0 km/h (0 Bft) S-SW 211 ° 0 min 0,000 mm 0,9 UV-I 195 W/m² 4,9 °C 5,9 °C 0,0 km/h (0 Bft)
20.05.2017 07:33 5,9 °C 5,9 °C 93 % 1019,6 hPa 0,0 mm 0,0 km/h (0 Bft) S-SW 211 ° 0 min 0,000 mm 0,9 UV-I 176 W/m² 4,9 °C 5,9 °C 0,0 km/h (0 Bft)
20.05.2017 07:34 6,1 °C 6,1 °C 93 % 1019,6 hPa 0,0 mm 1,1 km/h (1 Bft) S-SW 212 ° 0 min 0,000 mm 0,9 UV-I 148 W/m² 5,1 °C 6,1 °C 3,2 km/h (1 Bft)
20.05.2017 07:35 6,2 °C 6,2 °C 94 % 1019,6 hPa 0,0 mm 1,7 km/h (1 Bft) S-SW 211 ° 0 min 0,000 mm 0,8 UV-I 130 W/m² 5,3 °C 6,2 °C 3,2 km/h (1 Bft)
20.05.2017 07:36 6,3 °C 6,3 °C 94 % 1019,6 hPa 0,0 mm 0,1 km/h (0 Bft) S-SW 211 ° 0 min 0,000 mm 0,9 UV-I 135 W/m² 5,4 °C 6,3 °C 1,6 km/h (1 Bft)
20.05.2017 07:37 6,4 °C 6,4 °C 93 % 1019,6 hPa 0,0 mm 1,7 km/h (1 Bft) S-SW 211 ° 0 min 0,000 mm 1,0 UV-I 225 W/m² 5,4 °C 6,4 °C 3,2 km/h (1 Bft)
20.05.2017 07:38 6,4 °C 6,4 °C 93 % 1019,6 hPa 0,0 mm 0,1 km/h (0 Bft) S-SW 211 ° 0 min 0,000 mm 0,9 UV-I 116 W/m² 5,4 °C 6,4 °C 1,6 km/h (1 Bft)
20.05.2017 07:39 6,4 °C 6,4 °C 93 % 1019,6 hPa 0,0 mm 0,0 km/h (0 Bft) S-SW 211 ° 0 min 0,000 mm 0,9 UV-I 127 W/m² 5,4 °C 6,4 °C 0,0 km/h (0 Bft)
20.05.2017 07:40 6,4 °C 6,5 °C 93 % 1019,6 hPa 0,0 mm 0,0 km/h (0 Bft) S-SW 211 ° 0 min 0,000 mm 1,1 UV-I 186 W/m² 5,4 °C 6,4 °C 0,0 km/h (0 Bft)
20.05.2017 07:41 6,6 °C 6,6 °C 93 % 1019,7 hPa 0,0 mm 1,1 km/h (1 Bft) S-SW 211 ° 0 min 0,000 mm 1,0 UV-I 162 W/m² 5,6 °C 6,6 °C 3,2 km/h (1 Bft)
20.05.2017 07:42 6,6 °C 6,6 °C 93 % 1019,7 hPa 0,0 mm 0,1 km/h (0 Bft) S-SW 211 ° 0 min 0,000 mm 1,0 UV-I 163 W/m² 5,6 °C 6,6 °C 1,6 km/h (1 Bft)
20.05.2017 07:43 6,6 °C 6,6 °C 92 % 1019,7 hPa 0,0 mm 0,0 km/h (0 Bft) S-SW 211 ° 0 min 0,000 mm 1,1 UV-I 207 W/m² 5,4 °C 6,6 °C 0,0 km/h (0 Bft)
20.05.2017 07:44 6,7 °C 6,7 °C 93 % 1019,7 hPa 0,0 mm 0,0 km/h (0 Bft) S-SW 211 ° 0 min 0,000 mm 1,1 UV-I 178 W/m² 5,6 °C 6,7 °C 0,0 km/h (0 Bft)
20.05.2017 07:45 6,8 °C 6,8 °C 92 % 1019,7 hPa 0,0 mm 0,8 km/h (0 Bft) S-SW 211 ° 0 min 0,000 mm 1,0 UV-I 153 W/m² 5,6 °C 6,8 °C 3,2 km/h (1 Bft)
20.05.2017 07:46 6,8 °C 6,8 °C 91 % 1019,7 hPa 0,0 mm 0,0 km/h (0 Bft) S-SW 211 ° 0 min 0,000 mm 1,1 UV-I 178 W/m² 5,4 °C 6,8 °C 0,0 km/h (0 Bft)
20.05.2017 07:47 6,9 °C 6,9 °C 92 % 1019,7 hPa 0,0 mm 0,0 km/h (0 Bft) S-SW 211 ° 0 min 0,000 mm 1,2 UV-I 213 W/m² 5,7 °C 6,9 °C 0,0 km/h (0 Bft)
20.05.2017 07:48 7,1 °C 7,1 °C 92 % 1019,7 hPa 0,0 mm 0,0 km/h (0 Bft) S-SW 211 ° 0 min 0,000 mm 1,0 UV-I 169 W/m² 5,9 °C 7,1 °C 0,0 km/h (0 Bft)
20.05.2017 07:49 7,2 °C 7,2 °C 92 % 1019,7 hPa 0,0 mm 0,0 km/h (0 Bft) S-SW 211 ° 0 min 0,000 mm 1,0 UV-I 130 W/m² 6,0 °C 7,2 °C 0,0 km/h (0 Bft)
20.05.2017 07:50 7,3 °C 7,3 °C 92 % 1019,7 hPa 0,0 mm 0,0 km/h (0 Bft) S-SW 211 ° 0 min 0,000 mm 1,0 UV-I 178 W/m² 6,1 °C 7,3 °C 0,0 km/h (0 Bft)
20.05.2017 07:51 7,4 °C 7,4 °C 90 % 1019,7 hPa 0,0 mm 3,2 km/h (1 Bft) S 172 ° 0 min 0,000 mm 1,2 UV-I 232 W/m² 5,9 °C 7,4 °C 4,8 km/h (1 Bft)
20.05.2017 07:52 7,6 °C 7,6 °C 87 % 1019,7 hPa 0,0 mm 2,6 km/h (1 Bft) S-SW 192 ° 0 min 0,000 mm 1,3 UV-I 244 W/m² 5,6 °C 7,6 °C 4,8 km/h (1 Bft)
20.05.2017 07:53 7,7 °C 7,7 °C 90 % 1019,7 hPa 0,0 mm 1,3 km/h (1 Bft) S-SW 192 ° 0 min 0,000 mm 1,3 UV-I 255 W/m² 6,2 °C 7,7 °C 4,8 km/h (1 Bft)
20.05.2017 07:54 7,8 °C 7,8 °C 87 % 1019,8 hPa 0,0 mm 4,0 km/h (1 Bft) S-SW 192 ° 0 min 0,000 mm 1,3 UV-I 260 W/m² 5,8 °C 7,8 °C 4,8 km/h (1 Bft)
20.05.2017 07:55 7,9 °C 7,9 °C 87 % 1019,8 hPa 0,0 mm 4,8 km/h (1 Bft) S-SW 200 ° 0 min 0,000 mm 1,3 UV-I 230 W/m² 5,9 °C 7,4 °C 6,4 km/h (2 Bft)
20.05.2017 07:56 8,1 °C 8,1 °C 87 % 1019,8 hPa 0,0 mm 4,6 km/h (1 Bft) S 188 ° 0 min 0,000 mm 1,2 UV-I 139 W/m² 6,1 °C 7,7 °C 8,0 km/h (2 Bft)
20.05.2017 07:57 8,1 °C 8,1 °C 86 % 1019,8 hPa 0,0 mm 6,2 km/h (2 Bft) S 174 ° 0 min 0,000 mm 1,1 UV-I 158 W/m² 5,9 °C 7,2 °C 9,7 km/h (2 Bft)
20.05.2017 07:58 8,1 °C 8,1 °C 84 % 1019,8 hPa 0,0 mm 3,2 km/h (1 Bft) S 174 ° 0 min 0,000 mm 1,0 UV-I 116 W/m² 5,6 °C 8,1 °C 4,8 km/h (1 Bft)
20.05.2017 07:59 8,0 °C 8,1 °C 86 % 1019,8 hPa 0,0 mm 1,7 km/h (1 Bft) S 174 ° 0 min 0,000 mm 1,0 UV-I 116 W/m² 5,8 °C 8,0 °C 3,2 km/h (1 Bft)
20.05.2017 08:00 7,9 °C 8,0 °C 85 % 1019,8 hPa 0,0 mm 0,6 km/h (0 Bft) S 174 ° 0 min 0,051 mm 1,1 UV-I 118 W/m² 5,5 °C 7,9 °C 1,6 km/h (1 Bft)
20.05.2017 08:01 7,9 °C 7,9 °C 87 % 1019,8 hPa 0,0 mm 0,0 km/h (0 Bft) S 174 ° 0 min 0,000 mm 1,2 UV-I 155 W/m² 5,9 °C 7,9 °C 0,0 km/h (0 Bft)
20.05.2017 08:02 7,9 °C 7,9 °C 86 % 1019,8 hPa 0,0 mm 0,0 km/h (0 Bft) S 174 ° 0 min 0,000 mm 1,4 UV-I 260 W/m² 5,7 °C 7,9 °C 0,0 km/h (0 Bft)
20.05.2017 08:03 7,9 °C 7,9 °C 84 % 1019,8 hPa 0,0 mm 2,5 km/h (1 Bft) S 183 ° 0 min 0,000 mm 1,3 UV-I 193 W/m² 5,4 °C 7,9 °C 6,4 km/h (2 Bft)
20.05.2017 08:04 7,9 °C 7,9 °C 83 % 1019,8 hPa 0,0 mm 2,2 km/h (1 Bft) S 181 ° 0 min 0,000 mm 1,3 UV-I 195 W/m² 5,2 °C 7,9 °C 4,8 km/h (1 Bft)
20.05.2017 08:05 7,9 °C 7,9 °C 84 % 1019,8 hPa 0,0 mm 4,0 km/h (1 Bft) S 183 ° 0 min 0,000 mm 1,3 UV-I 188 W/m² 5,4 °C 7,9 °C 6,4 km/h (2 Bft)
20.05.2017 08:06 8,1 °C 8,1 °C 84 % 1019,9 hPa 0,0 mm 4,5 km/h (1 Bft) S-SW 209 ° 0 min 0,000 mm 1,6 UV-I 188 W/m² 5,6 °C 8,1 °C 6,4 km/h (2 Bft)
20.05.2017 08:07 8,2 °C 8,2 °C 86 % 1019,9 hPa 0,0 mm 3,8 km/h (1 Bft) SW 214 ° 1 min 0,000 mm 1,6 UV-I 330 W/m² 6,0 °C 8,2 °C 8,0 km/h (2 Bft)
20.05.2017 08:08 8,3 °C 8,3 °C 84 % 1019,9 hPa 0,0 mm 6,6 km/h (2 Bft) S-SW 196 ° 1 min 0,000 mm 1,6 UV-I 341 W/m² 5,8 °C 7,4 °C 9,7 km/h (2 Bft)
20.05.2017 08:09 8,4 °C 8,4 °C 82 % 1019,9 hPa 0,0 mm 6,8 km/h (2 Bft) S 189 ° 1 min 0,000 mm 1,6 UV-I 341 W/m² 5,5 °C 7,4 °C 9,7 km/h (2 Bft)
20.05.2017 08:10 8,4 °C 8,4 °C 82 % 1019,9 hPa 0,0 mm 4,7 km/h (1 Bft) S 188 ° 1 min 0,000 mm 1,6 UV-I 345 W/m² 5,5 °C 8,0 °C 8,0 km/h (2 Bft)
20.05.2017 08:11 8,5 °C 8,5 °C 81 % 1019,9 hPa 0,0 mm 2,3 km/h (1 Bft) S 188 ° 1 min 0,000 mm 1,6 UV-I 357 W/m² 5,4 °C 8,5 °C 8,0 km/h (2 Bft)
20.05.2017 08:12 8,6 °C 8,6 °C 81 % 1019,9 hPa 0,0 mm 5,4 km/h (1 Bft) S 185 ° 1 min 0,000 mm 1,6 UV-I 327 W/m² 5,5 °C 8,0 °C 8,0 km/h (2 Bft)
20.05.2017 08:13 8,7 °C 8,7 °C 84 % 1019,9 hPa 0,0 mm 3,5 km/h (1 Bft) S 185 ° 1 min 0,000 mm 1,6 UV-I 327 W/m² 6,2 °C 8,7 °C 6,4 km/h (2 Bft)
20.05.2017 08:14 8,7 °C 8,7 °C 83 % 1019,9 hPa 0,0 mm 1,9 km/h (1 Bft) S-SW 194 ° 1 min 0,000 mm 1,6 UV-I 332 W/m² 6,0 °C 8,7 °C 6,4 km/h (2 Bft)
20.05.2017 08:15 8,7 °C 8,7 °C 82 % 1019,9 hPa 0,0 mm 2,8 km/h (1 Bft) S 188 ° 1 min 0,000 mm 1,7 UV-I 353 W/m² 5,8 °C 8,7 °C 3,2 km/h (1 Bft)
20.05.2017 08:16 8,8 °C 8,8 °C 82 % 1019,9 hPa 0,0 mm 3,0 km/h (1 Bft) S-SW 200 ° 1 min 0,000 mm 1,7 UV-I 338 W/m² 5,9 °C 8,8 °C 4,8 km/h (1 Bft)
20.05.2017 08:17 8,9 °C 8,9 °C 81 % 1019,9 hPa 0,0 mm 0,3 km/h (0 Bft) S-SW 200 ° 1 min 0,000 mm 1,7 UV-I 348 W/m² 5,8 °C 8,9 °C 1,6 km/h (1 Bft)
20.05.2017 08:18 9,0 °C 9,0 °C 85 % 1019,9 hPa 0,0 mm 0,9 km/h (0 Bft) S-SW 200 ° 1 min 0,000 mm 1,8 UV-I 385 W/m² 6,6 °C 9,0 °C 3,2 km/h (1 Bft)
20.05.2017 08:19 9,1 °C 9,1 °C 85 % 1019,9 hPa 0,0 mm 0,0 km/h (0 Bft) S-SW 200 ° 1 min 0,000 mm 1,8 UV-I 392 W/m² 6,7 °C 9,1 °C 0,0 km/h (0 Bft)
20.05.2017 08:20 9,2 °C 9,2 °C 82 % 1019,9 hPa 0,0 mm 2,1 km/h (1 Bft) W-SW 251 ° 1 min 0,000 mm 1,8 UV-I 352 W/m² 6,3 °C 9,2 °C 4,8 km/h (1 Bft)
20.05.2017 08:21 9,2 °C 9,3 °C 84 % 1019,9 hPa 0,0 mm 2,1 km/h (1 Bft) W-SW 251 ° 1 min 0,000 mm 1,9 UV-I 397 W/m² 6,6 °C 9,2 °C 3,2 km/h (1 Bft)
20.05.2017 08:22 9,3 °C 9,3 °C 84 % 1019,9 hPa 0,0 mm 3,1 km/h (1 Bft) W-SW 251 ° 1 min 0,000 mm 1,9 UV-I 399 W/m² 6,7 °C 9,3 °C 4,8 km/h (1 Bft)
20.05.2017 08:23 9,4 °C 9,4 °C 86 % 1019,9 hPa 0,0 mm 1,9 km/h (1 Bft) W-SW 251 ° 1 min 0,000 mm 1,9 UV-I 403 W/m² 7,2 °C 9,4 °C 3,2 km/h (1 Bft)
20.05.2017 08:24 9,6 °C 9,6 °C 81 % 1020,0 hPa 0,0 mm 2,3 km/h (1 Bft) W-SW 238 ° 1 min 0,000 mm 1,9 UV-I 404 W/m² 6,5 °C 9,6 °C 4,8 km/h (1 Bft)
20.05.2017 08:25 9,6 °C 9,6 °C 80 % 1020,0 hPa 0,0 mm 2,7 km/h (1 Bft) W-SW 239 ° 1 min 0,000 mm 2,0 UV-I 403 W/m² 6,3 °C 9,6 °C 4,8 km/h (1 Bft)
20.05.2017 08:26 9,6 °C 9,6 °C 81 % 1019,9 hPa 0,0 mm 1,0 km/h (0 Bft) W-SW 239 ° 1 min 0,000 mm 2,0 UV-I 401 W/m² 6,5 °C 9,6 °C 3,2 km/h (1 Bft)
20.05.2017 08:27 9,7 °C 9,7 °C 83 % 1020,0 hPa 0,0 mm 3,7 km/h (1 Bft) SW 234 ° 1 min 0,000 mm 2,0 UV-I 411 W/m² 7,0 °C 9,7 °C 6,4 km/h (2 Bft)
20.05.2017 08:28 9,8 °C 9,8 °C 82 % 1020,0 hPa 0,0 mm 3,2 km/h (1 Bft) W 267 ° 1 min 0,000 mm 2,0 UV-I 387 W/m² 6,9 °C 9,8 °C 4,8 km/h (1 Bft)
20.05.2017 08:29 9,9 °C 9,9 °C 82 % 1020,0 hPa 0,0 mm 3,4 km/h (1 Bft) W 277 ° 1 min 0,000 mm 2,0 UV-I 403 W/m² 7,0 °C 9,9 °C 6,4 km/h (2 Bft)
20.05.2017 08:30 9,9 °C 9,9 °C 81 % 1020,0 hPa 0,0 mm 2,7 km/h (1 Bft) W-SW 255 ° 1 min 0,000 mm 1,9 UV-I 373 W/m² 6,8 °C 9,9 °C 4,8 km/h (1 Bft)
20.05.2017 08:31 10,0 °C 10,0 °C 81 % 1020,0 hPa 0,0 mm 3,1 km/h (1 Bft) W 260 ° 1 min 0,000 mm 2,0 UV-I 406 W/m² 6,9 °C 10,0 °C 6,4 km/h (2 Bft)
20.05.2017 08:32 10,0 °C 10,0 °C 81 % 1019,9 hPa 0,0 mm 5,9 km/h (2 Bft) W-SW 252 ° 1 min 0,000 mm 2,1 UV-I 406 W/m² 6,9 °C 9,5 °C 6,4 km/h (2 Bft)
20.05.2017 08:33 9,9 °C 10,0 °C 82 % 1020,0 hPa 0,0 mm 4,8 km/h (1 Bft) W 270 ° 1 min 0,000 mm 2,2 UV-I 429 W/m² 7,0 °C 9,7 °C 4,8 km/h (1 Bft)
20.05.2017 08:34 9,9 °C 9,9 °C 78 % 1020,0 hPa 0,0 mm 3,2 km/h (1 Bft) W 270 ° 1 min 0,000 mm 2,1 UV-I 403 W/m² 6,2 °C 9,9 °C 6,4 km/h (2 Bft)
20.05.2017 08:35 9,9 °C 9,9 °C 78 % 1019,9 hPa 0,0 mm 3,2 km/h (1 Bft) W 270 ° 1 min 0,000 mm 2,1 UV-I 401 W/m² 6,2 °C 9,9 °C 4,8 km/h (1 Bft)
20.05.2017 08:36 9,9 °C 9,9 °C 81 % 1019,9 hPa 0,0 mm 4,8 km/h (1 Bft) W 270 ° 1 min 0,000 mm 2,1 UV-I 385 W/m² 6,8 °C 9,7 °C 6,4 km/h (2 Bft)
20.05.2017 08:37 10,0 °C 10,0 °C 81 % 1020,0 hPa 0,0 mm 4,8 km/h (1 Bft) W 270 ° 1 min 0,000 mm 2,1 UV-I 383 W/m² 6,9 °C 9,8 °C 6,4 km/h (2 Bft)
20.05.2017 08:38 10,1 °C 10,1 °C 82 % 1020,0 hPa 0,0 mm 3,2 km/h (1 Bft) W 270 ° 1 min 0,000 mm 2,1 UV-I 378 W/m² 7,2 °C 10,1 °C 4,8 km/h (1 Bft)
20.05.2017 08:39 10,1 °C 10,1 °C 82 % 1020,0 hPa 0,0 mm 4,8 km/h (1 Bft) W-NW 292 ° 1 min 0,000 mm 2,1 UV-I 376 W/m² 7,2 °C 10,1 °C 9,7 km/h (2 Bft)
20.05.2017 08:40 10,1 °C 10,1 °C 76 % 1020,0 hPa 0,0 mm 4,8 km/h (1 Bft) NW 315 ° 1 min 0,000 mm 2,1 UV-I 348 W/m² 6,1 °C 10,1 °C 6,4 km/h (2 Bft)
20.05.2017 08:41 10,1 °C 10,1 °C 75 % 1020,0 hPa 0,0 mm 1,6 km/h (1 Bft) NW 315 ° 1 min 0,000 mm 2,0 UV-I 323 W/m² 5,9 °C 10,1 °C 4,8 km/h (1 Bft)
20.05.2017 08:42 10,1 °C 10,1 °C 75 % 1020,0 hPa 0,0 mm 1,6 km/h (1 Bft) W-NW 292 ° 1 min 0,000 mm 2,2 UV-I 417 W/m² 5,9 °C 10,1 °C 3,2 km/h (1 Bft)
20.05.2017 08:44 10,0 °C 10,1 °C 75 % 1020,0 hPa 0,0 mm 0,0 km/h (0 Bft) W-NW 300 ° 2 min 0,000 mm 2,3 UV-I 415 W/m² 5,8 °C 10,0 °C 0,0 km/h (0 Bft)
20.05.2017 08:45 10,1 °C 10,1 °C 77 % 1020,0 hPa 0,0 mm 0,0 km/h (0 Bft) W-NW 300 ° 1 min 0,000 mm 2,3 UV-I 432 W/m² 6,3 °C 10,1 °C 0,0 km/h (0 Bft)
20.05.2017 08:46 10,1 °C 10,1 °C 77 % 1020,0 hPa 0,0 mm 0,8 km/h (0 Bft) W-NW 300 ° 1 min 0,000 mm 2,1 UV-I 338 W/m² 6,3 °C 10,1 °C 3,2 km/h (1 Bft)
20.05.2017 08:47 10,1 °C 10,1 °C 76 % 1020,0 hPa 0,0 mm 4,0 km/h (1 Bft) NW 304 ° 1 min 0,000 mm 2,4 UV-I 338 W/m² 6,1 °C 10,1 °C 4,8 km/h (1 Bft)
20.05.2017 08:48 10,1 °C 10,1 °C 75 % 1020,0 hPa 0,0 mm 4,7 km/h (1 Bft) W 279 ° 1 min 0,000 mm 2,4 UV-I 443 W/m² 5,9 °C 10,1 °C 6,4 km/h (2 Bft)
20.05.2017 08:49 10,1 °C 10,1 °C 77 % 1020,0 hPa 0,0 mm 4,0 km/h (1 Bft) W 263 ° 1 min 0,000 mm 2,3 UV-I 403 W/m² 6,3 °C 10,1 °C 6,4 km/h (2 Bft)
20.05.2017 08:50 10,2 °C 10,2 °C 78 % 1020,0 hPa 0,0 mm 6,3 km/h (2 Bft) W-SW 249 ° 1 min 0,000 mm 2,4 UV-I 390 W/m² 6,5 °C 10,2 °C 8,0 km/h (2 Bft)
20.05.2017 08:51 10,2 °C 10,2 °C 79 % 1020,0 hPa 0,0 mm 1,7 km/h (1 Bft) W-SW 249 ° 1 min 0,000 mm 2,5 UV-I 468 W/m² 6,7 °C 10,2 °C 4,8 km/h (1 Bft)
20.05.2017 08:52 10,2 °C 10,2 °C 77 % 1020,0 hPa 0,0 mm 2,9 km/h (1 Bft) W-SW 249 ° 1 min 0,000 mm 2,5 UV-I 459 W/m² 6,4 °C 10,2 °C 3,2 km/h (1 Bft)
20.05.2017 08:53 10,3 °C 10,3 °C 78 % 1020,0 hPa 0,0 mm 4,3 km/h (1 Bft) W 263 ° 1 min 0,000 mm 2,6 UV-I 459 W/m² 6,6 °C 10,3 °C 6,4 km/h (2 Bft)
20.05.2017 08:54 10,3 °C 10,3 °C 76 % 1020,0 hPa 0,0 mm 4,4 km/h (1 Bft) W 263 ° 1 min 0,000 mm 2,6 UV-I 489 W/m² 6,3 °C 10,3 °C 6,4 km/h (2 Bft)
20.05.2017 08:55 10,4 °C 10,4 °C 78 % 1020,0 hPa 0,0 mm 4,0 km/h (1 Bft) W 263 ° 1 min 0,000 mm 2,7 UV-I 497 W/m² 6,7 °C 10,4 °C 4,8 km/h (1 Bft)
20.05.2017 08:56 10,4 °C 10,4 °C 72 % 1020,0 hPa 0,0 mm 1,4 km/h (1 Bft) W 263 ° 1 min 0,000 mm 2,7 UV-I 492 W/m² 5,6 °C 10,4 °C 1,6 km/h (1 Bft)
20.05.2017 08:57 10,5 °C 10,5 °C 73 % 1020,0 hPa 0,0 mm 3,3 km/h (1 Bft) N-NW 329 ° 1 min 0,000 mm 2,8 UV-I 520 W/m² 5,9 °C 10,5 °C 8,0 km/h (2 Bft)
20.05.2017 08:58 10,6 °C 10,6 °C 69 % 1020,0 hPa 0,0 mm 5,6 km/h (1 Bft) NW 306 ° 1 min 0,000 mm 2,9 UV-I 529 W/m² 5,2 °C 10,6 °C 9,7 km/h (2 Bft)
20.05.2017 08:59 10,7 °C 10,7 °C 69 % 1020,0 hPa 0,0 mm 3,7 km/h (1 Bft) NW 321 ° 1 min 0,000 mm 2,9 UV-I 536 W/m² 5,2 °C 10,7 °C 6,4 km/h (2 Bft)
20.05.2017 09:00 10,7 °C 10,7 °C 66 % 1020,0 hPa 0,0 mm 5,7 km/h (1 Bft) W-NW 294 ° 1 min 0,178 mm 2,9 UV-I 550 W/m² 4,6 °C 10,7 °C 9,7 km/h (2 Bft)
20.05.2017 09:01 10,7 °C 10,7 °C 65 % 1020,1 hPa 0,0 mm 5,1 km/h (1 Bft) W-NW 294 ° 1 min 0,000 mm 3,0 UV-I 561 W/m² 4,4 °C 10,7 °C 6,4 km/h (2 Bft)
20.05.2017 09:02 10,7 °C 10,7 °C 65 % 1020,1 hPa 0,0 mm 2,9 km/h (1 Bft) W-NW 286 ° 1 min 0,000 mm 3,0 UV-I 570 W/m² 4,4 °C 10,7 °C 4,8 km/h (1 Bft)
20.05.2017 09:03 10,7 °C 10,7 °C 70 % 1020,1 hPa 0,0 mm 4,4 km/h (1 Bft) W-NW 303 ° 1 min 0,000 mm 3,0 UV-I 526 W/m² 5,5 °C 10,7 °C 6,4 km/h (2 Bft)
20.05.2017 09:04 10,7 °C 10,7 °C 67 % 1020,1 hPa 0,0 mm 4,1 km/h (1 Bft) W-NW 291 ° 1 min 0,000 mm 3,1 UV-I 591 W/m² 4,8 °C 10,7 °C 6,4 km/h (2 Bft)
20.05.2017 09:05 10,7 °C 10,7 °C 71 % 1020,1 hPa 0,0 mm 1,3 km/h (1 Bft) NW 309 ° 1 min 0,000 mm 3,1 UV-I 587 W/m² 5,7 °C 10,7 °C 3,2 km/h (1 Bft)
20.05.2017 09:06 10,8 °C 10,8 °C 70 % 1020,1 hPa 0,0 mm 1,6 km/h (1 Bft) W-NW 298 ° 1 min 0,000 mm 3,1 UV-I 580 W/m² 5,6 °C 10,8 °C 4,8 km/h (1 Bft)
20.05.2017 09:07 10,8 °C 10,8 °C 69 % 1020,1 hPa 0,0 mm 7,0 km/h (2 Bft) W-NW 286 ° 1 min 0,000 mm 3,2 UV-I 585 W/m² 5,3 °C 10,8 °C 11,3 km/h (2 Bft)
20.05.2017 09:08 10,8 °C 10,9 °C 66 % 1020,1 hPa 0,0 mm 8,9 km/h (2 Bft) W 265 ° 1 min 0,000 mm 3,2 UV-I 587 W/m² 4,7 °C 10,8 °C 11,3 km/h (2 Bft)
20.05.2017 09:09 10,8 °C 10,8 °C 67 % 1020,1 hPa 0,0 mm 5,8 km/h (2 Bft) W-NW 298 ° 1 min 0,000 mm 3,2 UV-I 585 W/m² 4,9 °C 10,8 °C 11,3 km/h (2 Bft)
20.05.2017 09:10 10,8 °C 10,9 °C 67 % 1020,1 hPa 0,0 mm 6,5 km/h (2 Bft) NW 321 ° 1 min 0,000 mm 3,2 UV-I 584 W/m² 4,9 °C 10,8 °C 11,3 km/h (2 Bft)
20.05.2017 09:11 10,9 °C 10,9 °C 66 % 1020,1 hPa 0,0 mm 6,4 km/h (2 Bft) NW 314 ° 1 min 0,000 mm 3,3 UV-I 584 W/m² 4,8 °C 10,9 °C 9,7 km/h (2 Bft)
20.05.2017 09:12 10,9 °C 10,9 °C 61 % 1020,1 hPa 0,0 mm 6,0 km/h (2 Bft) NW 320 ° 1 min 0,000 mm 3,3 UV-I 557 W/m² 3,7 °C 10,9 °C 11,3 km/h (2 Bft)
20.05.2017 09:13 10,8 °C 10,9 °C 61 % 1020,1 hPa 0,0 mm 3,8 km/h (1 Bft) W-NW 296 ° 1 min 0,000 mm 2,9 UV-I 466 W/m² 3,6 °C 10,8 °C 6,4 km/h (2 Bft)
20.05.2017 09:14 10,8 °C 10,8 °C 59 % 1020,1 hPa 0,0 mm 4,9 km/h (1 Bft) W 261 ° 1 min 0,000 mm 3,1 UV-I 520 W/m² 3,1 °C 10,8 °C 11,3 km/h (2 Bft)
20.05.2017 09:15 10,8 °C 10,8 °C 65 % 1020,2 hPa 0,0 mm 9,2 km/h (2 Bft) NW 311 ° 1 min 0,000 mm 3,0 UV-I 503 W/m² 4,5 °C 10,8 °C 12,9 km/h (3 Bft)
20.05.2017 09:16 10,7 °C 10,8 °C 62 % 1020,1 hPa 0,0 mm 4,0 km/h (1 Bft) W 259 ° 1 min 0,000 mm 3,0 UV-I 459 W/m² 3,7 °C 10,7 °C 6,4 km/h (2 Bft)
20.05.2017 09:17 10,6 °C 10,7 °C 62 % 1020,1 hPa 0,0 mm 3,0 km/h (1 Bft) W 266 ° 0 min 0,000 mm 2,4 UV-I 287 W/m² 3,6 °C 10,6 °C 4,8 km/h (1 Bft)
20.05.2017 09:18 10,5 °C 10,6 °C 67 % 1020,1 hPa 0,0 mm 0,4 km/h (0 Bft) W 266 ° 1 min 0,000 mm 2,4 UV-I 304 W/m² 4,6 °C 10,5 °C 1,6 km/h (1 Bft)
20.05.2017 09:19 10,5 °C 10,5 °C 69 % 1020,1 hPa 0,0 mm 2,6 km/h (1 Bft) W 266 ° 1 min 0,000 mm 2,8 UV-I 360 W/m² 5,1 °C 10,5 °C 4,8 km/h (1 Bft)
20.05.2017 09:20 10,5 °C 10,6 °C 69 % 1020,3 hPa 0,0 mm 2,7 km/h (1 Bft) N-NW 343 ° 1 min 0,000 mm 2,7 UV-I 369 W/m² 5,1 °C 10,5 °C 6,4 km/h (2 Bft)
20.05.2017 09:21 10,6 °C 10,6 °C 65 % 1020,1 hPa 0,0 mm 4,9 km/h (1 Bft) N-NW 345 ° 1 min 0,000 mm 2,7 UV-I 357 W/m² 4,3 °C 10,6 °C 6,4 km/h (2 Bft)
20.05.2017 09:22 10,6 °C 10,6 °C 65 % 1020,2 hPa 0,0 mm 4,8 km/h (1 Bft) N-NW 342 ° 1 min 0,000 mm 2,9 UV-I 406 W/m² 4,3 °C 10,6 °C 6,4 km/h (2 Bft)
20.05.2017 09:23 10,6 °C 10,7 °C 68 % 1020,2 hPa 0,0 mm 5,2 km/h (1 Bft) NW 316 ° 1 min 0,000 mm 3,0 UV-I 394 W/m² 4,9 °C 10,6 °C 8,0 km/h (2 Bft)
20.05.2017 09:24 10,7 °C 10,7 °C 69 % 1020,2 hPa 0,0 mm 4,8 km/h (1 Bft) NW 315 ° 1 min 0,000 mm 2,7 UV-I 438 W/m² 5,2 °C 10,7 °C 8,0 km/h (2 Bft)
20.05.2017 09:25 10,7 °C 10,7 °C 66 % 1020,2 hPa 0,0 mm 4,4 km/h (1 Bft) NW 313 ° 1 min 0,000 mm 2,6 UV-I 339 W/m² 4,6 °C 10,7 °C 6,4 km/h (2 Bft)
20.05.2017 09:26 10,6 °C 10,7 °C 65 % 1020,3 hPa 0,0 mm 3,2 km/h (1 Bft) NW 311 ° 0 min 0,000 mm 2,5 UV-I 288 W/m² 4,3 °C 10,6 °C 4,8 km/h (1 Bft)
20.05.2017 09:27 10,6 °C 10,6 °C 64 % 1020,2 hPa 0,0 mm 4,6 km/h (1 Bft) W 268 ° 0 min 0,000 mm 2,4 UV-I 287 W/m² 4,1 °C 10,6 °C 6,4 km/h (2 Bft)
20.05.2017 09:28 10,5 °C 10,6 °C 69 % 1020,2 hPa 0,0 mm 1,9 km/h (1 Bft) W 268 ° 0 min 0,000 mm 2,5 UV-I 269 W/m² 5,1 °C 10,5 °C 3,2 km/h (1 Bft)
20.05.2017 09:29 10,6 °C 10,6 °C 68 % 1020,2 hPa 0,0 mm 3,9 km/h (1 Bft) W 265 ° 1 min 0,000 mm 2,9 UV-I 413 W/m² 4,9 °C 10,6 °C 4,8 km/h (1 Bft)
20.05.2017 09:30 10,6 °C 10,6 °C 67 % 1020,2 hPa 0,0 mm 5,9 km/h (2 Bft) W 267 ° 1 min 0,000 mm 3,0 UV-I 454 W/m² 4,7 °C 10,6 °C 9,7 km/h (2 Bft)
20.05.2017 09:31 10,7 °C 10,7 °C 67 % 1020,2 hPa 0,0 mm 7,6 km/h (2 Bft) W-SW 256 ° 1 min 0,000 mm 3,1 UV-I 499 W/m² 4,8 °C 10,7 °C 9,7 km/h (2 Bft)
20.05.2017 09:32 10,7 °C 10,7 °C 67 % 1020,2 hPa 0,0 mm 5,6 km/h (1 Bft) W-SW 241 ° 1 min 0,000 mm 3,2 UV-I 450 W/m² 4,8 °C 10,7 °C 11,3 km/h (2 Bft)
20.05.2017 09:33 10,7 °C 10,7 °C 63 % 1020,3 hPa 0,0 mm 5,8 km/h (2 Bft) W 279 ° 1 min 0,000 mm 3,2 UV-I 390 W/m² 3,9 °C 10,7 °C 9,7 km/h (2 Bft)
20.05.2017 09:34 10,7 °C 10,8 °C 63 % 1020,2 hPa 0,0 mm 2,3 km/h (1 Bft) W-NW 290 ° 1 min 0,000 mm 2,7 UV-I 334 W/m² 3,9 °C 10,7 °C 6,4 km/h (2 Bft)
20.05.2017 09:35 10,7 °C 10,7 °C 64 % 1020,3 hPa 0,0 mm 5,1 km/h (1 Bft) W 275 ° 1 min 0,000 mm 2,8 UV-I 341 W/m² 4,2 °C 10,7 °C 6,4 km/h (2 Bft)
20.05.2017 09:36 10,7 °C 10,7 °C 67 % 1020,3 hPa 0,0 mm 2,6 km/h (1 Bft) W-NW 287 ° 1 min 0,000 mm 2,9 UV-I 388 W/m² 4,8 °C 10,7 °C 3,2 km/h (1 Bft)
20.05.2017 09:37 10,8 °C 10,8 °C 69 % 1020,3 hPa 0,0 mm 3,6 km/h (1 Bft) W 263 ° 1 min 0,000 mm 2,9 UV-I 399 W/m² 5,3 °C 10,8 °C 4,8 km/h (1 Bft)
20.05.2017 09:38 10,7 °C 10,8 °C 64 % 1020,3 hPa 0,0 mm 5,0 km/h (1 Bft) W-SW 252 ° 1 min 0,000 mm 3,2 UV-I 443 W/m² 4,2 °C 10,7 °C 8,0 km/h (2 Bft)
20.05.2017 09:39 10,7 °C 10,7 °C 67 % 1020,3 hPa 0,0 mm 3,8 km/h (1 Bft) W-SW 252 ° 1 min 0,000 mm 3,0 UV-I 420 W/m² 4,8 °C 10,7 °C 4,8 km/h (1 Bft)
20.05.2017 09:40 10,7 °C 10,7 °C 68 % 1020,3 hPa 0,0 mm 4,5 km/h (1 Bft) W-SW 245 ° 1 min 0,000 mm 2,9 UV-I 401 W/m² 5,0 °C 10,7 °C 6,4 km/h (2 Bft)
20.05.2017 09:41 10,8 °C 10,8 °C 69 % 1020,3 hPa 0,0 mm 5,0 km/h (1 Bft) N-NW 327 ° 1 min 0,000 mm 3,5 UV-I 575 W/m² 5,3 °C 10,8 °C 6,4 km/h (2 Bft)
20.05.2017 09:42 10,9 °C 10,9 °C 67 % 1020,3 hPa 0,0 mm 3,8 km/h (1 Bft) W-NW 301 ° 1 min 0,000 mm 3,7 UV-I 628 W/m² 5,0 °C 10,9 °C 4,8 km/h (1 Bft)
20.05.2017 09:43 11,1 °C 11,1 °C 74 % 1020,3 hPa 0,0 mm 2,1 km/h (1 Bft) W-NW 294 ° 1 min 0,000 mm 3,1 UV-I 628 W/m² 6,6 °C 11,1 °C 4,8 km/h (1 Bft)
20.05.2017 09:44 11,2 °C 11,2 °C 67 % 1020,4 hPa 0,0 mm 2,7 km/h (1 Bft) W-NW 285 ° 1 min 0,000 mm 2,8 UV-I 628 W/m² 5,3 °C 11,2 °C 4,8 km/h (1 Bft)
20.05.2017 09:45 11,1 °C 11,2 °C 67 % 1020,3 hPa 0,0 mm 2,4 km/h (1 Bft) NW 320 ° 1 min 0,000 mm 2,9 UV-I 352 W/m² 5,2 °C 11,1 °C 4,8 km/h (1 Bft)
20.05.2017 09:46 11,0 °C 11,2 °C 63 % 1020,3 hPa 0,0 mm 2,8 km/h (1 Bft) NW 309 ° 1 min 0,000 mm 2,9 UV-I 404 W/m² 4,2 °C 11,0 °C 4,8 km/h (1 Bft)
20.05.2017 09:47 11,0 °C 11,0 °C 63 % 1020,4 hPa 0,0 mm 5,8 km/h (2 Bft) W-SW 249 ° 1 min 0,000 mm 3,1 UV-I 432 W/m² 4,2 °C 11,0 °C 11,3 km/h (2 Bft)
20.05.2017 09:48 11,0 °C 11,0 °C 66 % 1020,4 hPa 0,0 mm 6,4 km/h (2 Bft) W-SW 254 ° 1 min 0,000 mm 3,5 UV-I 499 W/m² 4,9 °C 11,0 °C 11,3 km/h (2 Bft)
20.05.2017 09:49 10,9 °C 11,0 °C 63 % 1020,5 hPa 0,0 mm 4,5 km/h (1 Bft) W-SW 254 ° 1 min 0,000 mm 3,6 UV-I 555 W/m² 4,1 °C 10,9 °C 8,0 km/h (2 Bft)
20.05.2017 09:50 10,9 °C 10,9 °C 67 % 1020,5 hPa 0,0 mm 5,6 km/h (1 Bft) W 263 ° 1 min 0,000 mm 3,3 UV-I 504 W/m² 5,0 °C 10,9 °C 9,7 km/h (2 Bft)
20.05.2017 09:51 11,0 °C 11,0 °C 66 % 1020,5 hPa 0,0 mm 3,7 km/h (1 Bft) W 267 ° 1 min 0,000 mm 3,2 UV-I 457 W/m² 4,9 °C 11,0 °C 6,4 km/h (2 Bft)
20.05.2017 09:52 10,9 °C 11,0 °C 64 % 1020,5 hPa 0,0 mm 2,7 km/h (1 Bft) W 267 ° 1 min 0,000 mm 3,2 UV-I 466 W/m² 4,4 °C 10,9 °C 4,8 km/h (1 Bft)
20.05.2017 09:53 10,9 °C 10,9 °C 61 % 1020,5 hPa 0,0 mm 3,9 km/h (1 Bft) W 275 ° 1 min 0,000 mm 3,3 UV-I 476 W/m² 3,7 °C 10,9 °C 9,7 km/h (2 Bft)
20.05.2017 09:54 10,9 °C 10,9 °C 66 % 1020,5 hPa 0,0 mm 5,1 km/h (1 Bft) W-NW 294 ° 1 min 0,000 mm 3,3 UV-I 483 W/m² 4,8 °C 10,9 °C 9,7 km/h (2 Bft)
20.05.2017 09:55 10,9 °C 10,9 °C 64 % 1020,5 hPa 0,0 mm 5,8 km/h (2 Bft) W-NW 294 ° 1 min 0,000 mm 3,3 UV-I 471 W/m² 4,4 °C 10,9 °C 11,3 km/h (2 Bft)
20.05.2017 09:56 10,9 °C 10,9 °C 64 % 1020,5 hPa 0,0 mm 5,3 km/h (1 Bft) N-NW 329 ° 1 min 0,000 mm 3,1 UV-I 441 W/m² 4,4 °C 10,9 °C 8,0 km/h (2 Bft)
20.05.2017 09:57 10,9 °C 10,9 °C 65 % 1020,5 hPa 0,0 mm 4,4 km/h (1 Bft) NW 319 ° 1 min 0,000 mm 3,1 UV-I 422 W/m² 4,6 °C 10,9 °C 6,4 km/h (2 Bft)
20.05.2017 09:58 10,9 °C 10,9 °C 61 % 1020,5 hPa 0,0 mm 6,7 km/h (2 Bft) W-NW 292 ° 1 min 0,000 mm 3,0 UV-I 410 W/m² 3,7 °C 10,9 °C 11,3 km/h (2 Bft)
20.05.2017 09:59 10,8 °C 10,9 °C 61 % 1020,5 hPa 0,0 mm 5,0 km/h (1 Bft) W-NW 303 ° 1 min 0,000 mm 3,0 UV-I 411 W/m² 3,6 °C 10,8 °C 8,0 km/h (2 Bft)
20.05.2017 10:00 10,8 °C 10,8 °C 62 % 1020,5 hPa 0,0 mm 4,4 km/h (1 Bft) W 267 ° 1 min 0,229 mm 3,0 UV-I 415 W/m² 3,8 °C 10,8 °C 4,8 km/h (1 Bft)
20.05.2017 10:01 10,8 °C 10,8 °C 64 % 1020,6 hPa 0,0 mm 5,8 km/h (2 Bft) W-SW 246 ° 1 min 0,000 mm 3,0 UV-I 411 W/m² 4,3 °C 10,8 °C 11,3 km/h (2 Bft)
20.05.2017 10:02 10,8 °C 10,8 °C 61 % 1020,6 hPa 0,0 mm 3,2 km/h (1 Bft) W 275 ° 1 min 0,000 mm 2,9 UV-I 397 W/m² 3,6 °C 10,8 °C 4,8 km/h (1 Bft)
20.05.2017 10:03 10,8 °C 10,8 °C 67 % 1020,6 hPa 0,0 mm 4,8 km/h (1 Bft) W-NW 294 ° 1 min 0,000 mm 2,9 UV-I 383 W/m² 4,9 °C 10,8 °C 6,4 km/h (2 Bft)
20.05.2017 10:04 10,9 °C 10,9 °C 65 % 1020,6 hPa 0,0 mm 3,3 km/h (1 Bft) W 260 ° 1 min 0,000 mm 2,8 UV-I 359 W/m² 4,6 °C 10,9 °C 6,4 km/h (2 Bft)
20.05.2017 10:05 10,9 °C 10,9 °C 69 % 1020,6 hPa 0,0 mm 8,4 km/h (2 Bft) W-SW 258 ° 1 min 0,000 mm 2,7 UV-I 352 W/m² 5,4 °C 10,9 °C 11,3 km/h (2 Bft)
20.05.2017 10:06 10,9 °C 10,9 °C 64 % 1020,6 hPa 0,0 mm 7,2 km/h (2 Bft) W 263 ° 1 min 0,000 mm 2,6 UV-I 341 W/m² 4,4 °C 10,9 °C 9,7 km/h (2 Bft)
20.05.2017 10:07 10,9 °C 10,9 °C 67 % 1020,6 hPa 0,0 mm 2,7 km/h (1 Bft) W 260 ° 1 min 0,000 mm 2,6 UV-I 332 W/m² 5,0 °C 10,9 °C 4,8 km/h (1 Bft)
20.05.2017 10:08 10,8 °C 10,9 °C 63 % 1020,6 hPa 0,0 mm 0,3 km/h (0 Bft) W 260 ° 1 min 0,000 mm 2,6 UV-I 329 W/m² 4,0 °C 10,8 °C 1,6 km/h (1 Bft)
20.05.2017 10:09 10,8 °C 10,8 °C 66 % 1020,6 hPa 0,0 mm 1,7 km/h (1 Bft) W 260 ° 1 min 0,000 mm 2,6 UV-I 325 W/m² 4,7 °C 10,8 °C 3,2 km/h (1 Bft)
20.05.2017 10:10 10,7 °C 10,8 °C 63 % 1020,6 hPa 0,0 mm 1,7 km/h (1 Bft) W 260 ° 1 min 0,000 mm 2,6 UV-I 325 W/m² 3,9 °C 10,7 °C 3,2 km/h (1 Bft)
20.05.2017 10:11 10,7 °C 10,7 °C 65 % 1020,7 hPa 0,0 mm 1,3 km/h (1 Bft) W 261 ° 1 min 0,000 mm 2,6 UV-I 322 W/m² 4,4 °C 10,7 °C 4,8 km/h (1 Bft)
20.05.2017 10:12 10,7 °C 10,7 °C 65 % 1020,6 hPa 0,0 mm 4,1 km/h (1 Bft) NW 315 ° 1 min 0,000 mm 2,6 UV-I 322 W/m² 4,4 °C 10,7 °C 8,0 km/h (2 Bft)
20.05.2017 10:13 10,8 °C 10,8 °C 67 % 1020,7 hPa 0,0 mm 6,0 km/h (2 Bft) N-NO 12 ° 1 min 0,000 mm 2,6 UV-I 323 W/m² 4,9 °C 10,8 °C 11,3 km/h (2 Bft)
20.05.2017 10:14 10,8 °C 10,8 °C 63 % 1020,7 hPa 0,0 mm 10,3 km/h (2 Bft) N-NO 18 ° 1 min 0,000 mm 2,6 UV-I 323 W/m² 4,0 °C 10,8 °C 12,9 km/h (3 Bft)
20.05.2017 10:15 10,8 °C 10,8 °C 60 % 1020,7 hPa 0,0 mm 7,4 km/h (2 Bft) N-NO 29 ° 1 min 0,000 mm 2,6 UV-I 323 W/m² 3,4 °C 10,8 °C 11,3 km/h (2 Bft)
20.05.2017 10:16 10,7 °C 10,8 °C 63 % 1020,7 hPa 0,0 mm 4,4 km/h (1 Bft) NW 315 ° 1 min 0,000 mm 2,5 UV-I 315 W/m² 3,9 °C 10,7 °C 6,4 km/h (2 Bft)
20.05.2017 10:17 10,8 °C 10,8 °C 65 % 1020,7 hPa 0,0 mm 2,7 km/h (1 Bft) NW 315 ° 1 min 0,000 mm 2,4 UV-I 308 W/m² 4,5 °C 10,8 °C 4,8 km/h (1 Bft)
20.05.2017 10:18 10,9 °C 10,9 °C 67 % 1020,7 hPa 0,0 mm 4,2 km/h (1 Bft) NW 325 ° 1 min 0,000 mm 2,4 UV-I 304 W/m² 5,0 °C 10,9 °C 6,4 km/h (2 Bft)
20.05.2017 10:19 11,1 °C 11,1 °C 69 % 1020,7 hPa 0,0 mm 5,7 km/h (1 Bft) N-NW 336 ° 1 min 0,000 mm 2,4 UV-I 304 W/m² 5,6 °C 11,1 °C 9,7 km/h (2 Bft)
20.05.2017 10:20 11,1 °C 11,1 °C 67 % 1020,7 hPa 0,0 mm 5,3 km/h (1 Bft) NW 311 ° 1 min 0,000 mm 2,4 UV-I 304 W/m² 5,2 °C 11,1 °C 6,4 km/h (2 Bft)
20.05.2017 10:21 11,1 °C 11,1 °C 64 % 1020,7 hPa 0,0 mm 4,1 km/h (1 Bft) N-NW 335 ° 1 min 0,000 mm 2,4 UV-I 308 W/m² 4,6 °C 11,1 °C 8,0 km/h (2 Bft)
20.05.2017 10:22 11,0 °C 11,1 °C 65 % 1020,7 hPa 0,0 mm 5,2 km/h (1 Bft) N-NW 346 ° 1 min 0,000 mm 2,4 UV-I 308 W/m² 4,7 °C 11,0 °C 8,0 km/h (2 Bft)
20.05.2017 10:23 10,9 °C 11,0 °C 65 % 1020,7 hPa 0,0 mm 3,8 km/h (1 Bft) N 9 ° 1 min 0,000 mm 2,4 UV-I 308 W/m² 4,6 °C 10,9 °C 6,4 km/h (2 Bft)
20.05.2017 10:24 10,9 °C 10,9 °C 64 % 1020,7 hPa 0,0 mm 5,1 km/h (1 Bft) N-NO 20 ° 1 min 0,000 mm 2,4 UV-I 308 W/m² 4,4 °C 10,9 °C 6,4 km/h (2 Bft)
20.05.2017 10:25 10,9 °C 10,9 °C 66 % 1020,7 hPa 0,0 mm 6,6 km/h (2 Bft) N-NW 328 ° 1 min 0,000 mm 2,4 UV-I 308 W/m² 4,8 °C 10,9 °C 8,0 km/h (2 Bft)
20.05.2017 10:26 10,9 °C 10,9 °C 61 % 1020,7 hPa 0,0 mm 4,2 km/h (1 Bft) N-NW 327 ° 1 min 0,000 mm 2,3 UV-I 302 W/m² 3,7 °C 10,9 °C 6,4 km/h (2 Bft)
20.05.2017 10:27 10,8 °C 10,9 °C 63 % 1020,7 hPa 0,0 mm 3,1 km/h (1 Bft) NW 316 ° 1 min 0,000 mm 2,3 UV-I 297 W/m² 4,0 °C 10,8 °C 6,4 km/h (2 Bft)
20.05.2017 10:28 10,9 °C 10,9 °C 62 % 1020,7 hPa 0,0 mm 4,5 km/h (1 Bft) NW 323 ° 1 min 0,000 mm 2,3 UV-I 299 W/m² 3,9 °C 10,9 °C 8,0 km/h (2 Bft)
20.05.2017 10:29 10,9 °C 10,9 °C 65 % 1020,7 hPa 0,0 mm 1,9 km/h (1 Bft) NW 323 ° 1 min 0,000 mm 2,3 UV-I 301 W/m² 4,6 °C 10,9 °C 3,2 km/h (1 Bft)
20.05.2017 10:30 11,0 °C 11,0 °C 65 % 1020,7 hPa 0,0 mm 1,3 km/h (1 Bft) NW 324 ° 1 min 0,000 mm 2,3 UV-I 306 W/m² 4,7 °C 11,0 °C 3,2 km/h (1 Bft)
20.05.2017 10:31 11,1 °C 11,1 °C 66 % 1020,8 hPa 0,0 mm 1,1 km/h (1 Bft) NW 315 ° 1 min 0,000 mm 2,4 UV-I 311 W/m² 5,0 °C 11,1 °C 6,4 km/h (2 Bft)
20.05.2017 10:32 11,0 °C 11,1 °C 63 % 1020,8 hPa 0,0 mm 4,6 km/h (1 Bft) NW 309 ° 1 min 0,000 mm 2,4 UV-I 316 W/m² 4,2 °C 11,0 °C 6,4 km/h (2 Bft)
20.05.2017 10:33 10,9 °C 11,0 °C 62 % 1020,8 hPa 0,0 mm 2,7 km/h (1 Bft) NW 309 ° 1 min 0,000 mm 2,4 UV-I 322 W/m² 3,9 °C 10,9 °C 3,2 km/h (1 Bft)
20.05.2017 10:34 10,9 °C 10,9 °C 65 % 1020,8 hPa 0,0 mm 3,8 km/h (1 Bft) N 355 ° 1 min 0,000 mm 2,4 UV-I 336 W/m² 4,6 °C 10,9 °C 6,4 km/h (2 Bft)
20.05.2017 10:35 10,9 °C 10,9 °C 63 % 1020,8 hPa 0,0 mm 6,2 km/h (2 Bft) N-NO 26 ° 1 min 0,000 mm 2,5 UV-I 338 W/m² 4,1 °C 10,9 °C 8,0 km/h (2 Bft)
20.05.2017 10:36 10,9 °C 10,9 °C 64 % 1020,9 hPa 0,0 mm 5,9 km/h (2 Bft) N-NO 21 ° 1 min 0,000 mm 2,5 UV-I 339 W/m² 4,4 °C 10,9 °C 8,0 km/h (2 Bft)
20.05.2017 10:37 10,9 °C 11,0 °C 65 % 1020,9 hPa 0,0 mm 5,8 km/h (2 Bft) N-NW 338 ° 1 min 0,000 mm 2,5 UV-I 341 W/m² 4,6 °C 10,9 °C 8,0 km/h (2 Bft)
20.05.2017 10:38 11,0 °C 11,0 °C 63 % 1020,8 hPa 0,0 mm 4,6 km/h (1 Bft) NW 324 ° 1 min 0,000 mm 2,5 UV-I 341 W/m² 4,2 °C 11,0 °C 6,4 km/h (2 Bft)
20.05.2017 10:39 10,9 °C 11,0 °C 64 % 1020,8 hPa 0,0 mm 2,7 km/h (1 Bft) N 5 ° 1 min 0,000 mm 2,5 UV-I 334 W/m² 4,4 °C 10,9 °C 4,8 km/h (1 Bft)
20.05.2017 10:40 10,9 °C 10,9 °C 64 % 1020,8 hPa 0,0 mm 1,8 km/h (1 Bft) N 5 ° 1 min 0,000 mm 2,5 UV-I 323 W/m² 4,4 °C 10,9 °C 4,8 km/h (1 Bft)
20.05.2017 10:41 10,9 °C 10,9 °C 67 % 1020,9 hPa 0,0 mm 2,8 km/h (1 Bft) N-NW 329 ° 1 min 0,000 mm 2,4 UV-I 320 W/m² 5,0 °C 10,9 °C 4,8 km/h (1 Bft)
20.05.2017 10:42 11,0 °C 11,0 °C 65 % 1020,9 hPa 0,0 mm 3,9 km/h (1 Bft) N-NW 337 ° 1 min 0,000 mm 2,4 UV-I 323 W/m² 4,7 °C 11,0 °C 4,8 km/h (1 Bft)
20.05.2017 10:43 11,0 °C 11,1 °C 64 % 1020,8 hPa 0,0 mm 2,7 km/h (1 Bft) W-SW 239 ° 1 min 0,000 mm 2,4 UV-I 323 W/m² 4,5 °C 11,0 °C 8,0 km/h (2 Bft)
20.05.2017 10:44 10,9 °C 11,0 °C 62 % 1020,9 hPa 0,0 mm 3,6 km/h (1 Bft) SW 217 ° 1 min 0,000 mm 2,5 UV-I 327 W/m² 3,9 °C 10,9 °C 6,4 km/h (2 Bft)
20.05.2017 10:45 10,9 °C 10,9 °C 66 % 1020,9 hPa 0,0 mm 0,0 km/h (0 Bft) SW 217 ° 1 min 0,000 mm 2,5 UV-I 343 W/m² 4,8 °C 10,9 °C 0,0 km/h (0 Bft)
20.05.2017 10:46 10,9 °C 10,9 °C 68 % 1020,9 hPa 0,0 mm 1,3 km/h (1 Bft) NW 306 ° 1 min 0,000 mm 2,6 UV-I 343 W/m² 5,2 °C 10,9 °C 4,8 km/h (1 Bft)
20.05.2017 10:47 10,9 °C 10,9 °C 66 % 1020,9 hPa 0,0 mm 4,3 km/h (1 Bft) NW 323 ° 1 min 0,000 mm 2,7 UV-I 357 W/m² 4,8 °C 10,9 °C 6,4 km/h (2 Bft)
20.05.2017 10:48 11,0 °C 11,0 °C 66 % 1020,9 hPa 0,0 mm 2,4 km/h (1 Bft) N-NW 333 ° 1 min 0,000 mm 2,8 UV-I 364 W/m² 4,9 °C 11,0 °C 4,8 km/h (1 Bft)
20.05.2017 10:49 11,1 °C 11,1 °C 68 % 1020,9 hPa 0,0 mm 7,3 km/h (2 Bft) W-NW 286 ° 1 min 0,000 mm 2,9 UV-I 371 W/m² 5,4 °C 11,1 °C 11,3 km/h (2 Bft)
20.05.2017 10:50 11,2 °C 11,2 °C 66 % 1020,9 hPa 0,0 mm 5,5 km/h (1 Bft) NW 312 ° 1 min 0,000 mm 2,9 UV-I 378 W/m² 5,1 °C 11,2 °C 6,4 km/h (2 Bft)
20.05.2017 10:51 11,2 °C 11,2 °C 67 % 1020,9 hPa 0,0 mm 3,9 km/h (1 Bft) N-NW 345 ° 1 min 0,000 mm 3,0 UV-I 396 W/m² 5,3 °C 11,2 °C 8,0 km/h (2 Bft)
20.05.2017 10:52 11,2 °C 11,3 °C 71 % 1020,9 hPa 0,0 mm 4,2 km/h (1 Bft) W-NW 294 ° 1 min 0,000 mm 3,1 UV-I 404 W/m² 6,1 °C 11,2 °C 4,8 km/h (1 Bft)
20.05.2017 10:53 11,3 °C 11,3 °C 66 % 1020,9 hPa 0,0 mm 5,1 km/h (1 Bft) NW 320 ° 1 min 0,000 mm 3,2 UV-I 415 W/m² 5,2 °C 11,3 °C 6,4 km/h (2 Bft)
20.05.2017 10:54 11,2 °C 11,3 °C 65 % 1020,9 hPa 0,0 mm 6,5 km/h (2 Bft) W-NW 303 ° 1 min 0,000 mm 3,2 UV-I 425 W/m² 4,9 °C 11,2 °C 8,0 km/h (2 Bft)
20.05.2017 10:55 11,3 °C 11,3 °C 66 % 1020,9 hPa 0,0 mm 6,3 km/h (2 Bft) W 278 ° 1 min 0,000 mm 3,2 UV-I 417 W/m² 5,2 °C 11,3 °C 12,9 km/h (3 Bft)
20.05.2017 10:56 11,2 °C 11,3 °C 66 % 1020,9 hPa 0,0 mm 5,5 km/h (1 Bft) W 276 ° 1 min 0,000 mm 3,2 UV-I 408 W/m² 5,1 °C 11,2 °C 9,7 km/h (2 Bft)
20.05.2017 10:57 11,1 °C 11,2 °C 65 % 1020,9 hPa 0,0 mm 5,2 km/h (1 Bft) W-NW 285 ° 1 min 0,000 mm 3,2 UV-I 417 W/m² 4,8 °C 11,1 °C 6,4 km/h (2 Bft)
20.05.2017 10:58 11,2 °C 11,2 °C 69 % 1020,9 hPa 0,0 mm 5,1 km/h (1 Bft) W-NW 296 ° 1 min 0,000 mm 3,6 UV-I 445 W/m² 5,7 °C 11,2 °C 6,4 km/h (2 Bft)
20.05.2017 10:59 11,2 °C 11,2 °C 66 % 1020,9 hPa 0,0 mm 5,6 km/h (1 Bft) NW 319 ° 1 min 0,000 mm 3,4 UV-I 455 W/m² 5,1 °C 11,2 °C 9,7 km/h (2 Bft)
20.05.2017 11:00 11,2 °C 11,2 °C 65 % 1020,9 hPa 0,0 mm 4,0 km/h (1 Bft) W-NW 302 ° 1 min 0,177 mm 3,2 UV-I 403 W/m² 4,9 °C 11,2 °C 8,0 km/h (2 Bft)
20.05.2017 11:01 11,2 °C 11,2 °C 68 % 1020,9 hPa 0,0 mm 4,0 km/h (1 Bft) W 262 ° 1 min 0,000 mm 3,1 UV-I 403 W/m² 5,5 °C 11,2 °C 8,0 km/h (2 Bft)
20.05.2017 11:02 11,2 °C 11,2 °C 66 % 1020,9 hPa 0,0 mm 4,9 km/h (1 Bft) W-NW 294 ° 1 min 0,000 mm 3,1 UV-I 378 W/m² 5,1 °C 11,2 °C 6,4 km/h (2 Bft)
20.05.2017 11:03 11,1 °C 11,2 °C 67 % 1020,9 hPa 0,0 mm 5,2 km/h (1 Bft) W 266 ° 1 min 0,000 mm 3,1 UV-I 369 W/m² 5,2 °C 11,1 °C 9,7 km/h (2 Bft)
20.05.2017 11:04 11,2 °C 11,2 °C 73 % 1021,0 hPa 0,0 mm 3,1 km/h (1 Bft) W 266 ° 1 min 0,000 mm 3,1 UV-I 371 W/m² 6,5 °C 11,2 °C 4,8 km/h (1 Bft)
20.05.2017 11:05 11,2 °C 11,2 °C 70 % 1021,0 hPa 0,0 mm 2,7 km/h (1 Bft) W 262 ° 1 min 0,000 mm 3,1 UV-I 373 W/m² 5,9 °C 11,2 °C 4,8 km/h (1 Bft)
20.05.2017 11:06 11,2 °C 11,2 °C 66 % 1021,0 hPa 0,0 mm 2,5 km/h (1 Bft) W 262 ° 1 min 0,000 mm 3,1 UV-I 378 W/m² 5,1 °C 11,2 °C 4,8 km/h (1 Bft)
20.05.2017 11:07 11,1 °C 11,2 °C 66 % 1020,9 hPa 0,0 mm 1,7 km/h (1 Bft) W 261 ° 1 min 0,000 mm 3,2 UV-I 388 W/m² 5,0 °C 11,1 °C 3,2 km/h (1 Bft)
20.05.2017 11:08 11,0 °C 11,1 °C 69 % 1021,0 hPa 0,0 mm 1,9 km/h (1 Bft) N-NW 348 ° 1 min 0,000 mm 3,4 UV-I 408 W/m² 5,5 °C 11,0 °C 6,4 km/h (2 Bft)
20.05.2017 11:09 11,1 °C 11,1 °C 67 % 1021,0 hPa 0,0 mm 5,2 km/h (1 Bft) NW 316 ° 1 min 0,000 mm 3,4 UV-I 420 W/m² 5,2 °C 11,1 °C 6,4 km/h (2 Bft)
20.05.2017 11:10 11,2 °C 11,2 °C 66 % 1020,9 hPa 0,0 mm 5,0 km/h (1 Bft) N 355 ° 1 min 0,000 mm 3,4 UV-I 424 W/m² 5,1 °C 11,2 °C 6,4 km/h (2 Bft)
20.05.2017 11:11 11,3 °C 11,3 °C 67 % 1021,0 hPa 0,0 mm 4,6 km/h (1 Bft) N-NW 348 ° 1 min 0,000 mm 3,4 UV-I 418 W/m² 5,4 °C 11,3 °C 6,4 km/h (2 Bft)
20.05.2017 11:12 11,3 °C 11,3 °C 68 % 1020,9 hPa 0,0 mm 5,0 km/h (1 Bft) NW 324 ° 1 min 0,000 mm 3,4 UV-I 413 W/m² 5,6 °C 11,3 °C 8,0 km/h (2 Bft)
20.05.2017 11:13 11,4 °C 11,4 °C 66 % 1020,9 hPa 0,0 mm 6,1 km/h (2 Bft) NW 315 ° 1 min 0,000 mm 3,4 UV-I 411 W/m² 5,3 °C 11,4 °C 12,9 km/h (3 Bft)
20.05.2017 11:14 11,4 °C 11,5 °C 64 % 1021,0 hPa 0,0 mm 4,2 km/h (1 Bft) N-NW 346 ° 1 min 0,000 mm 3,4 UV-I 410 W/m² 4,8 °C 11,4 °C 6,4 km/h (2 Bft)
20.05.2017 11:15 11,4 °C 11,5 °C 64 % 1021,0 hPa 0,0 mm 5,5 km/h (1 Bft) NW 322 ° 1 min 0,000 mm 3,3 UV-I 408 W/m² 4,8 °C 11,4 °C 8,0 km/h (2 Bft)
20.05.2017 11:16 11,5 °C 11,5 °C 65 % 1021,0 hPa 0,0 mm 6,8 km/h (2 Bft) N-NW 333 ° 1 min 0,000 mm 3,4 UV-I 417 W/m² 5,2 °C 11,5 °C 9,7 km/h (2 Bft)
20.05.2017 11:17 11,5 °C 11,5 °C 65 % 1021,0 hPa 0,0 mm 2,4 km/h (1 Bft) W-SW 257 ° 1 min 0,000 mm 3,5 UV-I 432 W/m² 5,2 °C 11,5 °C 4,8 km/h (1 Bft)
20.05.2017 11:18 11,3 °C 11,5 °C 64 % 1021,0 hPa 0,0 mm 1,0 km/h (0 Bft) W-NW 297 ° 1 min 0,000 mm 3,5 UV-I 441 W/m² 4,7 °C 11,3 °C 3,2 km/h (1 Bft)
20.05.2017 11:19 11,3 °C 11,3 °C 68 % 1021,0 hPa 0,0 mm 3,7 km/h (1 Bft) W-NW 285 ° 1 min 0,000 mm 3,5 UV-I 443 W/m² 5,6 °C 11,3 °C 4,8 km/h (1 Bft)
20.05.2017 11:20 11,4 °C 11,4 °C 68 % 1021,0 hPa 0,0 mm 3,7 km/h (1 Bft) W-NW 298 ° 1 min 0,000 mm 3,5 UV-I 438 W/m² 5,7 °C 11,4 °C 4,8 km/h (1 Bft)
20.05.2017 11:21 11,6 °C 11,6 °C 68 % 1021,0 hPa 0,0 mm 7,8 km/h (2 Bft) W 280 ° 1 min 0,000 mm 3,5 UV-I 436 W/m² 5,9 °C 11,6 °C 11,3 km/h (2 Bft)
20.05.2017 11:22 11,6 °C 11,6 °C 62 % 1021,0 hPa 0,0 mm 4,5 km/h (1 Bft) W-NW 290 ° 1 min 0,000 mm 3,5 UV-I 439 W/m² 4,6 °C 11,6 °C 6,4 km/h (2 Bft)
20.05.2017 11:23 11,5 °C 11,6 °C 64 % 1021,0 hPa 0,0 mm 3,5 km/h (1 Bft) W-NW 302 ° 1 min 0,000 mm 3,5 UV-I 445 W/m² 4,9 °C 11,5 °C 4,8 km/h (1 Bft)
20.05.2017 11:24 11,5 °C 11,5 °C 64 % 1021,0 hPa 0,0 mm 1,5 km/h (1 Bft) W-NW 302 ° 1 min 0,000 mm 3,5 UV-I 445 W/m² 4,9 °C 11,5 °C 3,2 km/h (1 Bft)
20.05.2017 11:25 11,5 °C 11,5 °C 64 % 1021,0 hPa 0,0 mm 3,5 km/h (1 Bft) NW 321 ° 1 min 0,000 mm 3,6 UV-I 445 W/m² 4,9 °C 11,5 °C 6,4 km/h (2 Bft)
20.05.2017 11:26 11,6 °C 11,6 °C 64 % 1021,1 hPa 0,0 mm 2,3 km/h (1 Bft) NW 321 ° 1 min 0,000 mm 3,6 UV-I 446 W/m² 5,0 °C 11,6 °C 4,8 km/h (1 Bft)
20.05.2017 11:27 11,6 °C 11,6 °C 66 % 1021,0 hPa 0,0 mm 5,8 km/h (2 Bft) N 360 ° 1 min 0,000 mm 3,6 UV-I 455 W/m² 5,5 °C 11,6 °C 9,7 km/h (2 Bft)
20.05.2017 11:28 11,6 °C 11,6 °C 62 % 1021,1 hPa 0,0 mm 3,4 km/h (1 Bft) NW 325 ° 1 min 0,000 mm 3,7 UV-I 464 W/m² 4,6 °C 11,6 °C 4,8 km/h (1 Bft)
20.05.2017 11:29 11,7 °C 11,7 °C 66 % 1021,1 hPa 0,0 mm 3,6 km/h (1 Bft) NW 326 ° 1 min 0,000 mm 3,7 UV-I 471 W/m² 5,6 °C 11,7 °C 4,8 km/h (1 Bft)
20.05.2017 11:30 11,7 °C 11,8 °C 61 % 1021,1 hPa 0,0 mm 4,2 km/h (1 Bft) NW 306 ° 1 min 0,000 mm 3,8 UV-I 478 W/m² 4,4 °C 11,7 °C 6,4 km/h (2 Bft)
20.05.2017 11:31 11,7 °C 11,7 °C 61 % 1021,1 hPa 0,0 mm 4,0 km/h (1 Bft) N-NW 327 ° 1 min 0,000 mm 3,8 UV-I 476 W/m² 4,4 °C 11,7 °C 6,4 km/h (2 Bft)
20.05.2017 11:32 11,7 °C 11,7 °C 61 % 1021,1 hPa 0,0 mm 7,0 km/h (2 Bft) N-NW 330 ° 1 min 0,000 mm 3,7 UV-I 461 W/m² 4,4 °C 11,7 °C 9,7 km/h (2 Bft)
20.05.2017 11:33 11,7 °C 11,7 °C 63 % 1021,1 hPa 0,0 mm 4,7 km/h (1 Bft) N-NW 338 ° 1 min 0,000 mm 3,7 UV-I 454 W/m² 4,9 °C 11,7 °C 6,4 km/h (2 Bft)
20.05.2017 11:34 11,7 °C 11,8 °C 63 % 1021,1 hPa 0,0 mm 3,0 km/h (1 Bft) N 355 ° 1 min 0,000 mm 3,6 UV-I 450 W/m² 4,9 °C 11,7 °C 4,8 km/h (1 Bft)
20.05.2017 11:35 11,7 °C 11,8 °C 63 % 1021,1 hPa 0,0 mm 1,1 km/h (1 Bft) NW 322 ° 1 min 0,000 mm 3,6 UV-I 445 W/m² 4,9 °C 11,7 °C 8,0 km/h (2 Bft)
20.05.2017 11:36 11,7 °C 11,7 °C 60 % 1021,1 hPa 0,0 mm 4,5 km/h (1 Bft) NW 323 ° 1 min 0,000 mm 3,6 UV-I 441 W/m² 4,2 °C 11,7 °C 8,0 km/h (2 Bft)
20.05.2017 11:37 11,6 °C 11,7 °C 60 % 1021,1 hPa 0,0 mm 0,6 km/h (0 Bft) N-NW 334 ° 1 min 0,000 mm 3,5 UV-I 439 W/m² 4,1 °C 11,6 °C 3,2 km/h (1 Bft)
20.05.2017 11:38 11,5 °C 11,6 °C 63 % 1021,1 hPa 0,0 mm 1,7 km/h (1 Bft) N-NW 334 ° 1 min 0,000 mm 3,5 UV-I 434 W/m² 4,7 °C 11,5 °C 3,2 km/h (1 Bft)
20.05.2017 11:39 11,4 °C 11,5 °C 60 % 1021,1 hPa 0,0 mm 2,2 km/h (1 Bft) N 360 ° 1 min 0,000 mm 3,5 UV-I 431 W/m² 3,9 °C 11,4 °C 3,2 km/h (1 Bft)
20.05.2017 11:40 11,3 °C 11,4 °C 59 % 1021,1 hPa 0,0 mm 2,7 km/h (1 Bft) NO 51 ° 1 min 0,000 mm 3,5 UV-I 429 W/m² 3,6 °C 11,3 °C 4,8 km/h (1 Bft)
20.05.2017 11:41 11,3 °C 11,3 °C 62 % 1021,2 hPa 0,0 mm 1,0 km/h (0 Bft) N-NO 32 ° 1 min 0,000 mm 3,5 UV-I 427 W/m² 4,3 °C 11,3 °C 3,2 km/h (1 Bft)
20.05.2017 11:42 11,3 °C 11,3 °C 63 % 1021,2 hPa 0,0 mm 3,2 km/h (1 Bft) N-NO 13 ° 1 min 0,000 mm 3,5 UV-I 427 W/m² 4,5 °C 11,3 °C 6,4 km/h (2 Bft)
20.05.2017 11:43 11,3 °C 11,3 °C 61 % 1021,2 hPa 0,0 mm 1,0 km/h (0 Bft) N-NO 13 ° 1 min 0,000 mm 3,4 UV-I 425 W/m² 4,1 °C 11,3 °C 4,8 km/h (1 Bft)
20.05.2017 11:44 11,5 °C 11,5 °C 63 % 1021,2 hPa 0,0 mm 1,9 km/h (1 Bft) N-NO 13 ° 1 min 0,000 mm 3,4 UV-I 425 W/m² 4,7 °C 11,5 °C 4,8 km/h (1 Bft)
20.05.2017 11:45 11,5 °C 11,5 °C 64 % 1021,2 hPa 0,0 mm 2,9 km/h (1 Bft) N-NO 13 ° 1 min 0,000 mm 3,4 UV-I 427 W/m² 4,9 °C 11,5 °C 4,8 km/h (1 Bft)
20.05.2017 11:46 11,6 °C 11,6 °C 64 % 1021,2 hPa 0,0 mm 2,9 km/h (1 Bft) N-NO 12 ° 1 min 0,000 mm 3,4 UV-I 432 W/m² 5,0 °C 11,6 °C 4,8 km/h (1 Bft)
20.05.2017 11:47 11,7 °C 11,7 °C 63 % 1021,2 hPa 0,0 mm 2,1 km/h (1 Bft) NW 318 ° 1 min 0,000 mm 3,5 UV-I 438 W/m² 4,9 °C 11,7 °C 4,8 km/h (1 Bft)
20.05.2017 11:48 11,9 °C 11,9 °C 66 % 1021,2 hPa 0,0 mm 6,6 km/h (2 Bft) W-SW 246 ° 1 min 0,000 mm 3,5 UV-I 446 W/m² 5,8 °C 11,9 °C 11,3 km/h (2 Bft)
20.05.2017 11:49 11,9 °C 11,9 °C 59 % 1021,2 hPa 0,0 mm 6,8 km/h (2 Bft) W 276 ° 1 min 0,000 mm 3,6 UV-I 454 W/m² 4,1 °C 11,9 °C 11,3 km/h (2 Bft)
20.05.2017 11:50 11,8 °C 11,9 °C 59 % 1021,2 hPa 0,0 mm 4,8 km/h (1 Bft) W-NW 296 ° 1 min 0,000 mm 3,7 UV-I 466 W/m² 4,1 °C 11,8 °C 8,0 km/h (2 Bft)
20.05.2017 11:51 11,8 °C 11,8 °C 60 % 1021,3 hPa 0,0 mm 4,6 km/h (1 Bft) W 275 ° 1 min 0,000 mm 3,7 UV-I 471 W/m² 4,3 °C 11,8 °C 6,4 km/h (2 Bft)
20.05.2017 11:52 11,7 °C 11,8 °C 59 % 1021,3 hPa 0,0 mm 2,5 km/h (1 Bft) W 275 ° 1 min 0,000 mm 3,8 UV-I 478 W/m² 4,0 °C 11,7 °C 6,4 km/h (2 Bft)
20.05.2017 11:53 11,7 °C 11,7 °C 60 % 1021,3 hPa 0,0 mm 5,0 km/h (1 Bft) W 263 ° 1 min 0,000 mm 3,8 UV-I 487 W/m² 4,2 °C 11,7 °C 11,3 km/h (2 Bft)
20.05.2017 11:54 11,6 °C 11,7 °C 58 % 1021,3 hPa 0,0 mm 4,8 km/h (1 Bft) W 266 ° 1 min 0,000 mm 3,9 UV-I 501 W/m² 3,6 °C 11,6 °C 9,7 km/h (2 Bft)
20.05.2017 11:55 11,6 °C 11,6 °C 62 % 1021,3 hPa 0,0 mm 2,4 km/h (1 Bft) W 266 ° 1 min 0,000 mm 4,0 UV-I 513 W/m² 4,6 °C 11,6 °C 9,7 km/h (2 Bft)
20.05.2017 11:56 11,6 °C 11,6 °C 62 % 1021,3 hPa 0,0 mm 4,7 km/h (1 Bft) W-SW 247 ° 1 min 0,000 mm 4,0 UV-I 515 W/m² 4,6 °C 11,6 °C 6,4 km/h (2 Bft)
20.05.2017 11:57 11,8 °C 11,8 °C 66 % 1021,3 hPa 0,0 mm 2,4 km/h (1 Bft) W-SW 247 ° 1 min 0,000 mm 4,0 UV-I 515 W/m² 5,7 °C 11,8 °C 3,2 km/h (1 Bft)
20.05.2017 11:58 11,9 °C 11,9 °C 60 % 1021,3 hPa 0,0 mm 0,1 km/h (0 Bft) W-SW 247 ° 1 min 0,000 mm 4,0 UV-I 512 W/m² 4,4 °C 11,9 °C 1,6 km/h (1 Bft)
20.05.2017 11:59 11,9 °C 11,9 °C 65 % 1021,3 hPa 0,0 mm 0,6 km/h (0 Bft) W-SW 247 ° 1 min 0,000 mm 4,0 UV-I 504 W/m² 5,5 °C 11,9 °C 4,8 km/h (1 Bft)
20.05.2017 12:00 12,1 °C 12,1 °C 65 % 1021,3 hPa 0,0 mm 6,2 km/h (2 Bft) SW 232 ° 1 min 0,229 mm 4,1 UV-I 510 W/m² 5,7 °C 12,1 °C 9,7 km/h (2 Bft)
20.05.2017 12:01 12,2 °C 12,2 °C 65 % 1021,3 hPa 0,0 mm 7,8 km/h (2 Bft) W 265 ° 1 min 0,000 mm 4,2 UV-I 524 W/m² 5,8 °C 12,2 °C 11,3 km/h (2 Bft)
20.05.2017 12:02 12,2 °C 12,2 °C 62 % 1021,3 hPa 0,0 mm 8,6 km/h (2 Bft) W 275 ° 1 min 0,000 mm 4,3 UV-I 580 W/m² 5,1 °C 12,2 °C 11,3 km/h (2 Bft)
20.05.2017 12:03 12,3 °C 12,3 °C 67 % 1021,3 hPa 0,0 mm 3,8 km/h (1 Bft) W 262 ° 1 min 0,000 mm 4,6 UV-I 605 W/m² 6,4 °C 12,3 °C 9,7 km/h (2 Bft)
20.05.2017 12:04 12,2 °C 12,3 °C 62 % 1021,3 hPa 0,0 mm 4,0 km/h (1 Bft) S-SW 209 ° 1 min 0,000 mm 4,5 UV-I 578 W/m² 5,1 °C 12,2 °C 4,8 km/h (1 Bft)
20.05.2017 12:05 12,1 °C 12,2 °C 62 % 1021,3 hPa 0,0 mm 1,0 km/h (0 Bft) S-SW 210 ° 1 min 0,000 mm 4,6 UV-I 585 W/m² 5,0 °C 12,1 °C 1,6 km/h (1 Bft)
20.05.2017 12:06 12,1 °C 12,1 °C 59 % 1021,3 hPa 0,0 mm 1,4 km/h (1 Bft) W 260 ° 1 min 0,000 mm 4,4 UV-I 563 W/m² 4,3 °C 12,1 °C 3,2 km/h (1 Bft)
20.05.2017 12:07 12,1 °C 12,1 °C 58 % 1021,3 hPa 0,0 mm 6,0 km/h (2 Bft) W-NW 292 ° 1 min 0,000 mm 4,4 UV-I 531 W/m² 4,1 °C 12,1 °C 8,0 km/h (2 Bft)
20.05.2017 12:08 12,1 °C 12,1 °C 60 % 1021,3 hPa 0,0 mm 7,4 km/h (2 Bft) NW 324 ° 1 min 0,000 mm 4,3 UV-I 527 W/m² 4,6 °C 12,1 °C 9,7 km/h (2 Bft)
20.05.2017 12:09 12,1 °C 12,1 °C 61 % 1021,3 hPa 0,0 mm 6,0 km/h (2 Bft) N 360 ° 1 min 0,000 mm 4,4 UV-I 529 W/m² 4,8 °C 12,1 °C 9,7 km/h (2 Bft)
20.05.2017 12:10 12,1 °C 12,2 °C 61 % 1021,3 hPa 0,0 mm 4,3 km/h (1 Bft) N-NO 13 ° 1 min 0,000 mm 4,5 UV-I 548 W/m² 4,8 °C 12,1 °C 8,0 km/h (2 Bft)
20.05.2017 12:11 12,2 °C 12,2 °C 58 % 1021,2 hPa 0,0 mm 5,9 km/h (2 Bft) NO 34 ° 1 min 0,000 mm 4,7 UV-I 578 W/m² 4,2 °C 12,2 °C 6,4 km/h (2 Bft)
20.05.2017 12:12 12,1 °C 12,2 °C 58 % 1021,2 hPa 0,0 mm 3,4 km/h (1 Bft) W 265 ° 1 min 0,000 mm 4,9 UV-I 612 W/m² 4,1 °C 12,1 °C 6,4 km/h (2 Bft)
20.05.2017 12:13 12,1 °C 12,1 °C 59 % 1021,2 hPa 0,0 mm 2,1 km/h (1 Bft) N 350 ° 1 min 0,000 mm 5,0 UV-I 647 W/m² 4,3 °C 12,1 °C 4,8 km/h (1 Bft)
20.05.2017 12:14 12,1 °C 12,1 °C 58 % 1021,2 hPa 0,0 mm 7,0 km/h (2 Bft) NO 52 ° 1 min 0,000 mm 5,5 UV-I 686 W/m² 4,1 °C 12,1 °C 11,3 km/h (2 Bft)
20.05.2017 12:15 12,0 °C 12,1 °C 55 % 1021,2 hPa 0,0 mm 4,7 km/h (1 Bft) O-NO 66 ° 1 min 0,000 mm 5,6 UV-I 763 W/m² 3,2 °C 12,0 °C 6,4 km/h (2 Bft)
20.05.2017 12:16 11,9 °C 12,0 °C 56 % 1021,2 hPa 0,0 mm 3,3 km/h (1 Bft) N 355 ° 1 min 0,000 mm 5,4 UV-I 691 W/m² 3,4 °C 11,9 °C 6,4 km/h (2 Bft)
20.05.2017 12:17 11,9 °C 11,9 °C 58 % 1021,2 hPa 0,0 mm 6,0 km/h (2 Bft) N 5 ° 1 min 0,000 mm 5,6 UV-I 707 W/m² 3,9 °C 11,9 °C 8,0 km/h (2 Bft)
20.05.2017 12:18 12,0 °C 12,0 °C 59 % 1021,2 hPa 0,0 mm 5,4 km/h (1 Bft) N 355 ° 1 min 0,000 mm 5,7 UV-I 733 W/m² 4,2 °C 12,0 °C 6,4 km/h (2 Bft)
20.05.2017 12:19 12,2 °C 12,2 °C 63 % 1021,2 hPa 0,0 mm 5,9 km/h (2 Bft) N-NO 22 ° 1 min 0,000 mm 5,4 UV-I 664 W/m² 5,4 °C 12,2 °C 8,0 km/h (2 Bft)
20.05.2017 12:20 12,3 °C 12,3 °C 61 % 1021,3 hPa 0,0 mm 5,4 km/h (1 Bft) N 5 ° 1 min 0,000 mm 5,6 UV-I 687 W/m² 5,0 °C 12,3 °C 8,0 km/h (2 Bft)
20.05.2017 12:21 12,4 °C 12,4 °C 59 % 1021,3 hPa 0,0 mm 5,9 km/h (2 Bft) N 350 ° 1 min 0,000 mm 5,4 UV-I 707 W/m² 4,6 °C 12,4 °C 14,5 km/h (3 Bft)
20.05.2017 12:22 12,6 °C 12,6 °C 63 % 1021,3 hPa 0,0 mm 7,0 km/h (2 Bft) NO 38 ° 1 min 0,000 mm 5,5 UV-I 712 W/m² 5,7 °C 12,6 °C 12,9 km/h (3 Bft)
20.05.2017 12:23 12,6 °C 12,6 °C 58 % 1021,3 hPa 0,0 mm 4,9 km/h (1 Bft) N-NO 27 ° 1 min 0,000 mm 5,5 UV-I 712 W/m² 4,6 °C 12,6 °C 8,0 km/h (2 Bft)
20.05.2017 12:24 12,4 °C 12,6 °C 58 % 1021,3 hPa 0,0 mm 6,6 km/h (2 Bft) O-NO 59 ° 1 min 0,000 mm 5,9 UV-I 758 W/m² 4,4 °C 12,4 °C 11,3 km/h (2 Bft)
20.05.2017 12:25 12,4 °C 12,4 °C 59 % 1021,3 hPa 0,0 mm 4,6 km/h (1 Bft) NO 35 ° 1 min 0,000 mm 5,6 UV-I 687 W/m² 4,6 °C 12,4 °C 8,0 km/h (2 Bft)
20.05.2017 12:26 12,4 °C 12,4 °C 59 % 1021,2 hPa 0,0 mm 8,0 km/h (2 Bft) O-NO 61 ° 1 min 0,000 mm 5,1 UV-I 649 W/m² 4,6 °C 12,4 °C 9,7 km/h (2 Bft)
20.05.2017 12:27 12,3 °C 12,4 °C 55 % 1021,3 hPa 0,2 mm 7,0 km/h (2 Bft) O-NO 64 ° 1 min 0,000 mm 4,9 UV-I 631 W/m² 3,5 °C 12,3 °C 8,0 km/h (2 Bft)
20.05.2017 12:28 12,3 °C 12,3 °C 58 % 1021,3 hPa 0,0 mm 3,2 km/h (1 Bft) N-NO 21 ° 1 min 0,000 mm 4,9 UV-I 619 W/m² 4,3 °C 12,3 °C 4,8 km/h (1 Bft)
20.05.2017 12:29 12,4 °C 12,4 °C 63 % 1021,3 hPa 0,0 mm 5,3 km/h (1 Bft) N 355 ° 1 min 0,000 mm 4,8 UV-I 603 W/m² 5,6 °C 12,4 °C 6,4 km/h (2 Bft)
20.05.2017 12:30 12,4 °C 12,5 °C 58 % 1021,3 hPa 0,0 mm 3,9 km/h (1 Bft) N 355 ° 1 min 0,000 mm 4,7 UV-I 585 W/m² 4,4 °C 12,4 °C 4,8 km/h (1 Bft)
20.05.2017 12:31 12,4 °C 12,4 °C 57 % 1021,3 hPa 0,0 mm 2,5 km/h (1 Bft) N-NW 346 ° 1 min 0,000 mm 4,6 UV-I 577 W/m² 4,1 °C 12,4 °C 4,8 km/h (1 Bft)
20.05.2017 12:32 12,4 °C 12,4 °C 62 % 1021,3 hPa 0,0 mm 0,9 km/h (0 Bft) N-NO 29 ° 1 min 0,000 mm 4,4 UV-I 566 W/m² 5,3 °C 12,4 °C 3,2 km/h (1 Bft)
20.05.2017 12:33 12,4 °C 12,4 °C 58 % 1021,3 hPa 0,0 mm 0,7 km/h (0 Bft) N-NO 29 ° 1 min 0,000 mm 4,2 UV-I 550 W/m² 4,4 °C 12,4 °C 3,2 km/h (1 Bft)
20.05.2017 12:34 12,4 °C 12,5 °C 60 % 1021,2 hPa 0,0 mm 3,3 km/h (1 Bft) N 360 ° 1 min 0,000 mm 4,0 UV-I 497 W/m² 4,9 °C 12,4 °C 8,0 km/h (2 Bft)
20.05.2017 12:35 12,6 °C 12,6 °C 60 % 1021,3 hPa 0,0 mm 6,8 km/h (2 Bft) N-NW 333 ° 1 min 0,000 mm 3,9 UV-I 471 W/m² 5,0 °C 12,6 °C 14,5 km/h (3 Bft)
20.05.2017 12:36 12,6 °C 12,6 °C 58 % 1021,3 hPa 0,0 mm 11,3 km/h (2 Bft) N-NW 330 ° 1 min 0,000 mm 3,8 UV-I 455 W/m² 4,6 °C 12,6 °C 16,1 km/h (3 Bft)
20.05.2017 12:37 12,6 °C 12,7 °C 60 % 1021,3 hPa 0,0 mm 2,1 km/h (1 Bft) N-NW 329 ° 1 min 0,000 mm 3,8 UV-I 439 W/m² 5,0 °C 12,6 °C 6,4 km/h (2 Bft)
20.05.2017 12:38 12,5 °C 12,6 °C 55 % 1021,3 hPa 0,0 mm 6,1 km/h (2 Bft) N-NW 347 ° 1 min 0,000 mm 3,8 UV-I 436 W/m² 3,7 °C 12,5 °C 12,9 km/h (3 Bft)
20.05.2017 12:39 12,4 °C 12,5 °C 56 % 1021,2 hPa 0,0 mm 5,1 km/h (1 Bft) NO 52 ° 1 min 0,000 mm 3,8 UV-I 436 W/m² 3,9 °C 12,4 °C 6,4 km/h (2 Bft)
20.05.2017 12:40 12,4 °C 12,5 °C 56 % 1021,3 hPa 0,0 mm 5,7 km/h (1 Bft) NO 49 ° 1 min 0,000 mm 3,8 UV-I 438 W/m² 3,9 °C 12,4 °C 9,7 km/h (2 Bft)
20.05.2017 12:41 12,4 °C 12,4 °C 60 % 1021,3 hPa 0,0 mm 4,4 km/h (1 Bft) N-NW 347 ° 1 min 0,000 mm 3,9 UV-I 438 W/m² 4,9 °C 12,4 °C 8,0 km/h (2 Bft)
20.05.2017 12:42 12,5 °C 12,5 °C 59 % 1021,3 hPa 0,0 mm 9,7 km/h (2 Bft) N-NO 23 ° 1 min 0,000 mm 3,9 UV-I 436 W/m² 4,7 °C 12,5 °C 14,5 km/h (3 Bft)
20.05.2017 12:43 12,5 °C 12,6 °C 57 % 1021,3 hPa 0,0 mm 3,9 km/h (1 Bft) N-NO 31 ° 1 min 0,000 mm 3,8 UV-I 434 W/m² 4,2 °C 12,5 °C 9,7 km/h (2 Bft)
20.05.2017 12:44 12,4 °C 12,5 °C 59 % 1021,3 hPa 0,0 mm 1,2 km/h (1 Bft) W 271 ° 1 min 0,000 mm 3,8 UV-I 434 W/m² 4,6 °C 12,4 °C 3,2 km/h (1 Bft)
20.05.2017 12:45 12,4 °C 12,4 °C 60 % 1021,3 hPa 0,0 mm 2,8 km/h (1 Bft) N-NW 333 ° 1 min 0,000 mm 3,9 UV-I 439 W/m² 4,9 °C 12,4 °C 4,8 km/h (1 Bft)
20.05.2017 12:46 12,4 °C 12,4 °C 60 % 1021,3 hPa 0,0 mm 4,0 km/h (1 Bft) N-NW 332 ° 1 min 0,000 mm 3,9 UV-I 441 W/m² 4,9 °C 12,4 °C 6,4 km/h (2 Bft)
20.05.2017 12:47 12,4 °C 12,4 °C 58 % 1021,3 hPa 0,0 mm 2,3 km/h (1 Bft) N-NW 332 ° 1 min 0,000 mm 3,9 UV-I 441 W/m² 4,4 °C 12,4 °C 3,2 km/h (1 Bft)
20.05.2017 12:48 12,4 °C 12,5 °C 57 % 1021,3 hPa 0,0 mm 4,4 km/h (1 Bft) W-NW 302 ° 1 min 0,000 mm 3,8 UV-I 443 W/m² 4,1 °C 12,4 °C 11,3 km/h (2 Bft)
20.05.2017 12:49 12,4 °C 12,4 °C 59 % 1021,4 hPa 0,0 mm 7,3 km/h (2 Bft) N 351 ° 1 min 0,000 mm 3,8 UV-I 443 W/m² 4,6 °C 12,4 °C 9,7 km/h (2 Bft)
20.05.2017 12:50 12,5 °C 12,5 °C 60 % 1021,4 hPa 0,0 mm 6,0 km/h (2 Bft) N-NW 343 ° 1 min 0,000 mm 3,8 UV-I 439 W/m² 5,0 °C 12,5 °C 9,7 km/h (2 Bft)
20.05.2017 12:51 12,5 °C 12,6 °C 60 % 1021,4 hPa 0,0 mm 4,6 km/h (1 Bft) N-NW 348 ° 1 min 0,000 mm 3,8 UV-I 438 W/m² 5,0 °C 12,5 °C 8,0 km/h (2 Bft)
20.05.2017 12:52 12,5 °C 12,6 °C 60 % 1021,4 hPa 0,0 mm 5,0 km/h (1 Bft) NO 35 ° 1 min 0,000 mm 3,7 UV-I 436 W/m² 5,0 °C 12,5 °C 8,0 km/h (2 Bft)
20.05.2017 12:53 12,6 °C 12,6 °C 59 % 1021,4 hPa 0,0 mm 6,2 km/h (2 Bft) N-NO 12 ° 1 min 0,000 mm 3,7 UV-I 434 W/m² 4,8 °C 12,6 °C 8,0 km/h (2 Bft)
20.05.2017 12:54 12,5 °C 12,6 °C 58 % 1021,4 hPa 0,0 mm 2,1 km/h (1 Bft) NW 312 ° 1 min 0,000 mm 3,7 UV-I 441 W/m² 4,5 °C 12,5 °C 6,4 km/h (2 Bft)
20.05.2017 12:55 12,5 °C 12,5 °C 59 % 1021,4 hPa 0,0 mm 8,6 km/h (2 Bft) W-NW 299 ° 1 min 0,000 mm 3,8 UV-I 448 W/m² 4,7 °C 12,5 °C 12,9 km/h (3 Bft)
20.05.2017 12:56 12,5 °C 12,5 °C 60 % 1021,4 hPa 0,0 mm 5,8 km/h (2 Bft) NW 323 ° 1 min 0,000 mm 3,9 UV-I 457 W/m² 5,0 °C 12,5 °C 9,7 km/h (2 Bft)
20.05.2017 12:57 12,6 °C 12,6 °C 60 % 1021,4 hPa 0,0 mm 6,7 km/h (2 Bft) NW 305 ° 1 min 0,000 mm 4,0 UV-I 473 W/m² 5,0 °C 12,6 °C 9,7 km/h (2 Bft)
20.05.2017 12:58 12,6 °C 12,6 °C 60 % 1021,4 hPa 0,0 mm 7,4 km/h (2 Bft) NW 305 ° 1 min 0,000 mm 4,1 UV-I 489 W/m² 5,0 °C 12,6 °C 11,3 km/h (2 Bft)
20.05.2017 12:59 12,6 °C 12,6 °C 60 % 1021,4 hPa 0,0 mm 7,2 km/h (2 Bft) NW 311 ° 1 min 0,000 mm 4,1 UV-I 489 W/m² 5,0 °C 12,6 °C 9,7 km/h (2 Bft)
20.05.2017 13:00 12,6 °C 12,7 °C 58 % 1021,4 hPa 0,0 mm 5,1 km/h (1 Bft) NW 321 ° 1 min 0,305 mm 4,0 UV-I 503 W/m² 4,6 °C 12,6 °C 9,7 km/h (2 Bft)
20.05.2017 13:01 12,5 °C 12,6 °C 58 % 1021,4 hPa 0,0 mm 6,7 km/h (2 Bft) N-NW 327 ° 1 min 0,000 mm 4,0 UV-I 466 W/m² 4,5 °C 12,5 °C 12,9 km/h (3 Bft)
20.05.2017 13:02 12,5 °C 12,5 °C 60 % 1021,4 hPa 0,0 mm 8,6 km/h (2 Bft) N 355 ° 1 min 0,000 mm 4,0 UV-I 478 W/m² 5,0 °C 12,5 °C 12,9 km/h (3 Bft)
20.05.2017 13:03 12,7 °C 12,7 °C 59 % 1021,4 hPa 0,0 mm 10,7 km/h (2 Bft) N 360 ° 1 min 0,000 mm 4,7 UV-I 510 W/m² 4,9 °C 12,7 °C 16,1 km/h (3 Bft)
20.05.2017 13:04 12,6 °C 12,7 °C 59 % 1021,4 hPa 0,0 mm 7,5 km/h (2 Bft) N-NW 343 ° 1 min 0,000 mm 3,5 UV-I 417 W/m² 4,8 °C 12,6 °C 12,9 km/h (3 Bft)
20.05.2017 13:05 12,6 °C 12,6 °C 58 % 1021,4 hPa 0,0 mm 4,4 km/h (1 Bft) N-NW 338 ° 1 min 0,000 mm 3,5 UV-I 385 W/m² 4,6 °C 12,6 °C 8,0 km/h (2 Bft)
20.05.2017 13:06 12,5 °C 12,6 °C 58 % 1021,4 hPa 0,0 mm 4,1 km/h (1 Bft) N-NW 344 ° 1 min 0,000 mm 3,5 UV-I 413 W/m² 4,5 °C 12,5 °C 6,4 km/h (2 Bft)
20.05.2017 13:07 12,4 °C 12,5 °C 58 % 1021,4 hPa 0,0 mm 3,2 km/h (1 Bft) N-NO 22 ° 1 min 0,000 mm 3,5 UV-I 411 W/m² 4,4 °C 12,4 °C 4,8 km/h (1 Bft)
20.05.2017 13:08 12,5 °C 12,5 °C 60 % 1021,4 hPa 0,0 mm 5,0 km/h (1 Bft) N-NO 24 ° 1 min 0,000 mm 3,3 UV-I 385 W/m² 5,0 °C 12,5 °C 8,0 km/h (2 Bft)
20.05.2017 13:09 12,6 °C 12,6 °C 60 % 1021,4 hPa 0,0 mm 5,2 km/h (1 Bft) N 355 ° 1 min 0,000 mm 3,2 UV-I 374 W/m² 5,0 °C 12,6 °C 6,4 km/h (2 Bft)
20.05.2017 13:10 12,7 °C 12,7 °C 60 % 1021,4 hPa 0,0 mm 7,1 km/h (2 Bft) NW 320 ° 1 min 0,000 mm 3,2 UV-I 369 W/m² 5,1 °C 12,7 °C 12,9 km/h (3 Bft)
20.05.2017 13:11 12,7 °C 12,7 °C 60 % 1021,5 hPa 0,0 mm 4,0 km/h (1 Bft) N-NW 327 ° 1 min 0,000 mm 3,2 UV-I 364 W/m² 5,1 °C 12,7 °C 8,0 km/h (2 Bft)
20.05.2017 13:12 12,7 °C 12,7 °C 63 % 1021,4 hPa 0,0 mm 6,4 km/h (2 Bft) NW 309 ° 1 min 0,000 mm 3,1 UV-I 355 W/m² 5,8 °C 12,7 °C 8,0 km/h (2 Bft)
20.05.2017 13:13 12,7 °C 12,7 °C 58 % 1021,5 hPa 0,0 mm 4,8 km/h (1 Bft) NW 325 ° 1 min 0,000 mm 3,0 UV-I 350 W/m² 4,7 °C 12,7 °C 9,7 km/h (2 Bft)
20.05.2017 13:14 12,6 °C 12,7 °C 59 % 1021,5 hPa 0,0 mm 10,3 km/h (2 Bft) NW 321 ° 1 min 0,000 mm 3,0 UV-I 345 W/m² 4,8 °C 12,6 °C 14,5 km/h (3 Bft)
20.05.2017 13:15 12,6 °C 12,6 °C 57 % 1021,5 hPa 0,0 mm 5,9 km/h (2 Bft) NW 323 ° 1 min 0,000 mm 3,0 UV-I 341 W/m² 4,3 °C 12,6 °C 12,9 km/h (3 Bft)
20.05.2017 13:16 12,5 °C 12,6 °C 60 % 1021,5 hPa 0,0 mm 6,0 km/h (2 Bft) NW 321 ° 1 min 0,000 mm 2,9 UV-I 338 W/m² 5,0 °C 12,5 °C 9,7 km/h (2 Bft)
20.05.2017 13:17 12,4 °C 12,5 °C 56 % 1021,5 hPa 0,0 mm 1,7 km/h (1 Bft) NW 321 ° 1 min 0,000 mm 2,9 UV-I 336 W/m² 3,9 °C 12,4 °C 3,2 km/h (1 Bft)
20.05.2017 13:18 12,4 °C 12,4 °C 58 % 1021,5 hPa 0,0 mm 2,5 km/h (1 Bft) N-NW 332 ° 1 min 0,000 mm 2,9 UV-I 332 W/m² 4,4 °C 12,4 °C 6,4 km/h (2 Bft)
20.05.2017 13:19 12,3 °C 12,4 °C 56 % 1021,5 hPa 0,0 mm 0,3 km/h (0 Bft) N-NW 332 ° 1 min 0,000 mm 2,9 UV-I 332 W/m² 3,8 °C 12,3 °C 1,6 km/h (1 Bft)
20.05.2017 13:20 12,2 °C 12,3 °C 58 % 1021,5 hPa 0,0 mm 1,9 km/h (1 Bft) SW 225 ° 1 min 0,000 mm 2,9 UV-I 330 W/m² 4,2 °C 12,2 °C 3,2 km/h (1 Bft)
20.05.2017 13:21 12,1 °C 12,2 °C 59 % 1021,5 hPa 0,0 mm 2,5 km/h (1 Bft) SW 225 ° 1 min 0,000 mm 2,9 UV-I 330 W/m² 4,3 °C 12,1 °C 4,8 km/h (1 Bft)
20.05.2017 13:22 12,1 °C 12,1 °C 55 % 1021,5 hPa 0,0 mm 0,6 km/h (0 Bft) W-SW 254 ° 1 min 0,000 mm 2,8 UV-I 329 W/m² 3,3 °C 12,1 °C 1,6 km/h (1 Bft)
20.05.2017 13:23 12,1 °C 12,1 °C 58 % 1021,5 hPa 0,0 mm 2,1 km/h (1 Bft) NW 304 ° 1 min 0,000 mm 2,8 UV-I 325 W/m² 4,1 °C 12,1 °C 4,8 km/h (1 Bft)
20.05.2017 13:24 12,2 °C 12,2 °C 60 % 1021,5 hPa 0,0 mm 3,0 km/h (1 Bft) W-NW 299 ° 1 min 0,000 mm 2,8 UV-I 318 W/m² 4,7 °C 12,2 °C 6,4 km/h (2 Bft)
20.05.2017 13:25 12,3 °C 12,3 °C 60 % 1021,5 hPa 0,0 mm 5,0 km/h (1 Bft) N-NW 328 ° 1 min 0,000 mm 2,8 UV-I 318 W/m² 4,8 °C 12,3 °C 8,0 km/h (2 Bft)
20.05.2017 13:26 12,4 °C 12,4 °C 61 % 1021,5 hPa 0,0 mm 3,5 km/h (1 Bft) N 10 ° 1 min 0,000 mm 2,8 UV-I 318 W/m² 5,1 °C 12,4 °C 4,8 km/h (1 Bft)
20.05.2017 13:27 12,4 °C 12,4 °C 60 % 1021,5 hPa 0,0 mm 4,2 km/h (1 Bft) N 11 ° 1 min 0,000 mm 2,8 UV-I 320 W/m² 4,9 °C 12,4 °C 6,4 km/h (2 Bft)
20.05.2017 13:28 12,4 °C 12,4 °C 57 % 1021,5 hPa 0,0 mm 4,2 km/h (1 Bft) N-NO 15 ° 1 min 0,000 mm 2,8 UV-I 322 W/m² 4,1 °C 12,4 °C 4,8 km/h (1 Bft)
20.05.2017 13:29 12,4 °C 12,4 °C 58 % 1021,5 hPa 0,0 mm 2,4 km/h (1 Bft) NW 324 ° 1 min 0,000 mm 2,9 UV-I 327 W/m² 4,4 °C 12,4 °C 4,8 km/h (1 Bft)
20.05.2017 13:30 12,6 °C 12,6 °C 60 % 1021,5 hPa 0,0 mm 5,8 km/h (2 Bft) N 360 ° 1 min 0,000 mm 2,9 UV-I 329 W/m² 5,0 °C 12,6 °C 8,0 km/h (2 Bft)
20.05.2017 13:31 12,6 °C 12,6 °C 54 % 1021,5 hPa 0,0 mm 4,3 km/h (1 Bft) N 355 ° 1 min 0,000 mm 2,9 UV-I 330 W/m² 3,5 °C 12,6 °C 6,4 km/h (2 Bft)
20.05.2017 13:32 12,6 °C 12,6 °C 55 % 1021,5 hPa 0,0 mm 3,4 km/h (1 Bft) W-NW 303 ° 1 min 0,000 mm 2,9 UV-I 334 W/m² 3,8 °C 12,6 °C 6,4 km/h (2 Bft)
20.05.2017 13:33 12,6 °C 12,6 °C 57 % 1021,5 hPa 0,0 mm 4,5 km/h (1 Bft) NW 323 ° 1 min 0,000 mm 2,9 UV-I 336 W/m² 4,3 °C 12,6 °C 6,4 km/h (2 Bft)
20.05.2017 13:34 12,6 °C 12,6 °C 61 % 1021,5 hPa 0,0 mm 8,6 km/h (2 Bft) W-NW 290 ° 1 min 0,000 mm 2,9 UV-I 332 W/m² 5,3 °C 12,6 °C 12,9 km/h (3 Bft)
20.05.2017 13:35 12,6 °C 12,7 °C 56 % 1021,5 hPa 0,0 mm 6,3 km/h (2 Bft) W 274 ° 1 min 0,000 mm 2,9 UV-I 318 W/m² 4,1 °C 12,6 °C 8,0 km/h (2 Bft)
20.05.2017 13:36 12,5 °C 12,6 °C 54 % 1021,5 hPa 0,0 mm 5,4 km/h (1 Bft) N-NW 336 ° 1 min 0,000 mm 2,7 UV-I 313 W/m² 3,5 °C 12,5 °C 8,0 km/h (2 Bft)
20.05.2017 13:37 12,4 °C 12,5 °C 58 % 1021,5 hPa 0,0 mm 4,3 km/h (1 Bft) N-NW 327 ° 1 min 0,000 mm 2,7 UV-I 309 W/m² 4,4 °C 12,4 °C 6,4 km/h (2 Bft)
20.05.2017 13:38 12,5 °C 12,5 °C 57 % 1021,5 hPa 0,0 mm 3,7 km/h (1 Bft) NW 318 ° 1 min 0,000 mm 2,7 UV-I 302 W/m² 4,2 °C 12,5 °C 6,4 km/h (2 Bft)
20.05.2017 13:39 12,5 °C 12,5 °C 57 % 1021,6 hPa 0,0 mm 3,4 km/h (1 Bft) N 5 ° 1 min 0,000 mm 2,6 UV-I 294 W/m² 4,2 °C 12,5 °C 6,4 km/h (2 Bft)
20.05.2017 13:40 12,4 °C 12,5 °C 59 % 1021,5 hPa 0,0 mm 3,3 km/h (1 Bft) NO 35 ° 0 min 0,000 mm 2,5 UV-I 283 W/m² 4,6 °C 12,4 °C 4,8 km/h (1 Bft)
20.05.2017 13:41 12,4 °C 12,5 °C 54 % 1021,5 hPa 0,0 mm 3,0 km/h (1 Bft) NO 39 ° 0 min 0,000 mm 2,5 UV-I 274 W/m² 3,4 °C 12,4 °C 4,8 km/h (1 Bft)
20.05.2017 13:42 12,4 °C 12,4 °C 57 % 1021,5 hPa 0,0 mm 1,1 km/h (1 Bft) NO 39 ° 0 min 0,000 mm 2,5 UV-I 279 W/m² 4,1 °C 12,4 °C 3,2 km/h (1 Bft)
20.05.2017 13:43 12,4 °C 12,4 °C 58 % 1021,4 hPa 0,0 mm 0,7 km/h (0 Bft) NO 39 ° 0 min 0,000 mm 2,5 UV-I 281 W/m² 4,4 °C 12,4 °C 3,2 km/h (1 Bft)
20.05.2017 13:44 12,4 °C 12,4 °C 54 % 1021,5 hPa 0,0 mm 1,1 km/h (1 Bft) NO 39 ° 0 min 0,000 mm 2,4 UV-I 276 W/m² 3,4 °C 12,4 °C 3,2 km/h (1 Bft)
20.05.2017 13:45 12,4 °C 12,4 °C 56 % 1021,5 hPa 0,0 mm 2,7 km/h (1 Bft) W-NW 292 ° 0 min 0,000 mm 2,3 UV-I 269 W/m² 3,9 °C 12,4 °C 6,4 km/h (2 Bft)
20.05.2017 13:46 12,4 °C 12,4 °C 57 % 1021,5 hPa 0,0 mm 4,9 km/h (1 Bft) NW 323 ° 0 min 0,000 mm 2,3 UV-I 260 W/m² 4,1 °C 12,4 °C 6,4 km/h (2 Bft)
20.05.2017 13:47 12,4 °C 12,4 °C 57 % 1021,5 hPa 0,0 mm 2,7 km/h (1 Bft) NW 323 ° 0 min 0,000 mm 2,2 UV-I 243 W/m² 4,1 °C 12,4 °C 4,8 km/h (1 Bft)
20.05.2017 13:48 12,4 °C 12,4 °C 59 % 1021,5 hPa 0,0 mm 1,1 km/h (1 Bft) NW 323 ° 0 min 0,000 mm 2,1 UV-I 236 W/m² 4,6 °C 12,4 °C 3,2 km/h (1 Bft)
20.05.2017 13:49 12,5 °C 12,5 °C 58 % 1021,5 hPa 0,0 mm 2,2 km/h (1 Bft) N-NW 327 ° 0 min 0,000 mm 2,0 UV-I 232 W/m² 4,5 °C 12,5 °C 6,4 km/h (2 Bft)
20.05.2017 13:50 12,5 °C 12,6 °C 60 % 1021,5 hPa 0,0 mm 5,8 km/h (2 Bft) W-SW 245 ° 0 min 0,000 mm 2,0 UV-I 227 W/m² 5,0 °C 12,5 °C 8,0 km/h (2 Bft)
20.05.2017 13:51 12,5 °C 12,6 °C 60 % 1021,5 hPa 0,0 mm 6,0 km/h (2 Bft) W 261 ° 0 min 0,000 mm 2,0 UV-I 223 W/m² 5,0 °C 12,5 °C 9,7 km/h (2 Bft)
20.05.2017 13:52 12,4 °C 12,5 °C 59 % 1021,5 hPa 0,0 mm 4,6 km/h (1 Bft) W 270 ° 0 min 0,000 mm 1,9 UV-I 220 W/m² 4,6 °C 12,4 °C 6,4 km/h (2 Bft)
20.05.2017 13:53 12,4 °C 12,4 °C 61 % 1021,5 hPa 0,0 mm 3,4 km/h (1 Bft) W-NW 294 ° 0 min 0,000 mm 1,9 UV-I 209 W/m² 5,1 °C 12,4 °C 4,8 km/h (1 Bft)
20.05.2017 13:54 12,3 °C 12,4 °C 62 % 1021,5 hPa 0,0 mm 4,2 km/h (1 Bft) W-NW 290 ° 0 min 0,000 mm 1,8 UV-I 206 W/m² 5,2 °C 12,3 °C 6,4 km/h (2 Bft)
20.05.2017 13:55 12,3 °C 12,3 °C 62 % 1021,5 hPa 0,0 mm 4,2 km/h (1 Bft) W-NW 290 ° 0 min 0,000 mm 1,8 UV-I 202 W/m² 5,2 °C 12,3 °C 6,4 km/h (2 Bft)
20.05.2017 13:56 12,2 °C 12,3 °C 62 % 1021,5 hPa 0,0 mm 2,7 km/h (1 Bft) W-NW 290 ° 0 min 0,000 mm 1,7 UV-I 197 W/m² 5,1 °C 12,2 °C 4,8 km/h (1 Bft)
20.05.2017 13:57 12,2 °C 12,2 °C 65 % 1021,5 hPa 0,0 mm 2,9 km/h (1 Bft) W-NW 298 ° 0 min 0,000 mm 1,7 UV-I 195 W/m² 5,8 °C 12,2 °C 4,8 km/h (1 Bft)
20.05.2017 13:58 12,2 °C 12,2 °C 63 % 1021,5 hPa 0,0 mm 4,0 km/h (1 Bft) W-NW 300 ° 0 min 0,000 mm 1,6 UV-I 193 W/m² 5,4 °C 12,2 °C 4,8 km/h (1 Bft)
20.05.2017 13:59 12,2 °C 12,2 °C 61 % 1021,5 hPa 0,0 mm 4,1 km/h (1 Bft) W 261 ° 0 min 0,000 mm 1,6 UV-I 186 W/m² 4,9 °C 12,2 °C 9,7 km/h (2 Bft)
20.05.2017 14:00 12,2 °C 12,2 °C 62 % 1021,4 hPa 0,0 mm 5,2 km/h (1 Bft) W-NW 287 ° 0 min 0,178 mm 1,6 UV-I 185 W/m² 5,1 °C 12,2 °C 6,4 km/h (2 Bft)
20.05.2017 14:01 12,1 °C 12,2 °C 61 % 1021,5 hPa 0,0 mm 4,2 km/h (1 Bft) W-NW 292 ° 0 min 0,000 mm 1,5 UV-I 185 W/m² 4,8 °C 12,1 °C 6,4 km/h (2 Bft)
20.05.2017 14:02 12,1 °C 12,2 °C 63 % 1021,5 hPa 0,0 mm 3,4 km/h (1 Bft) W-NW 291 ° 0 min 0,000 mm 1,5 UV-I 185 W/m² 5,3 °C 12,1 °C 4,8 km/h (1 Bft)
20.05.2017 14:03 12,2 °C 12,2 °C 65 % 1021,5 hPa 0,0 mm 4,8 km/h (1 Bft) W-NW 286 ° 0 min 0,000 mm 1,5 UV-I 185 W/m² 5,8 °C 12,2 °C 8,0 km/h (2 Bft)
20.05.2017 14:04 12,1 °C 12,2 °C 63 % 1021,5 hPa 0,0 mm 5,0 km/h (1 Bft) W-NW 287 ° 0 min 0,000 mm 1,5 UV-I 186 W/m² 5,3 °C 12,1 °C 6,4 km/h (2 Bft)
20.05.2017 14:05 12,1 °C 12,2 °C 62 % 1021,5 hPa 0,0 mm 6,7 km/h (2 Bft) W 278 ° 0 min 0,000 mm 1,5 UV-I 188 W/m² 5,0 °C 12,1 °C 11,3 km/h (2 Bft)
20.05.2017 14:06 12,1 °C 12,1 °C 61 % 1021,5 hPa 0,0 mm 2,9 km/h (1 Bft) W-NW 289 ° 0 min 0,000 mm 1,6 UV-I 190 W/m² 4,8 °C 12,1 °C 4,8 km/h (1 Bft)
20.05.2017 14:07 12,1 °C 12,1 °C 60 % 1021,5 hPa 0,0 mm 4,7 km/h (1 Bft) W 264 ° 0 min 0,000 mm 1,6 UV-I 190 W/m² 4,6 °C 12,1 °C 6,4 km/h (2 Bft)
20.05.2017 14:08 12,1 °C 12,1 °C 61 % 1021,5 hPa 0,0 mm 5,8 km/h (2 Bft) W-NW 288 ° 0 min 0,000 mm 1,6 UV-I 190 W/m² 4,8 °C 12,1 °C 8,0 km/h (2 Bft)
20.05.2017 14:09 12,1 °C 12,1 °C 63 % 1021,5 hPa 0,0 mm 3,5 km/h (1 Bft) W-NW 288 ° 0 min 0,000 mm 1,6 UV-I 190 W/m² 5,3 °C 12,1 °C 6,4 km/h (2 Bft)
20.05.2017 14:10 12,0 °C 12,1 °C 62 % 1021,6 hPa 0,0 mm 2,7 km/h (1 Bft) W 279 ° 0 min 0,000 mm 1,6 UV-I 193 W/m² 4,9 °C 12,0 °C 6,4 km/h (2 Bft)
20.05.2017 14:11 12,1 °C 12,1 °C 65 % 1021,5 hPa 0,0 mm 5,1 km/h (1 Bft) W 277 ° 0 min 0,000 mm 1,6 UV-I 193 W/m² 5,7 °C 12,1 °C 9,7 km/h (2 Bft)
20.05.2017 14:12 12,0 °C 12,1 °C 62 % 1021,5 hPa 0,0 mm 4,5 km/h (1 Bft) W 274 ° 0 min 0,000 mm 1,7 UV-I 195 W/m² 4,9 °C 12,0 °C 9,7 km/h (2 Bft)
20.05.2017 14:13 12,0 °C 12,1 °C 62 % 1021,6 hPa 0,0 mm 4,3 km/h (1 Bft) W-NW 289 ° 0 min 0,000 mm 1,7 UV-I 195 W/m² 4,9 °C 12,0 °C 6,4 km/h (2 Bft)
20.05.2017 14:14 12,0 °C 12,0 °C 62 % 1021,6 hPa 0,0 mm 3,4 km/h (1 Bft) W 279 ° 0 min 0,000 mm 1,7 UV-I 199 W/m² 4,9 °C 12,0 °C 4,8 km/h (1 Bft)
20.05.2017 14:15 12,0 °C 12,0 °C 61 % 1021,6 hPa 0,0 mm 3,0 km/h (1 Bft) W 279 ° 0 min 0,000 mm 1,7 UV-I 199 W/m² 4,7 °C 12,0 °C 4,8 km/h (1 Bft)
20.05.2017 14:16 11,9 °C 12,0 °C 65 % 1021,7 hPa 0,0 mm 4,5 km/h (1 Bft) W-NW 300 ° 0 min 0,000 mm 1,7 UV-I 200 W/m² 5,5 °C 11,9 °C 6,4 km/h (2 Bft)
20.05.2017 14:17 12,1 °C 12,1 °C 64 % 1021,6 hPa 0,0 mm 3,7 km/h (1 Bft) NW 324 ° 0 min 0,000 mm 1,7 UV-I 199 W/m² 5,5 °C 12,1 °C 6,4 km/h (2 Bft)
20.05.2017 14:18 12,1 °C 12,1 °C 61 % 1021,6 hPa 0,0 mm 4,2 km/h (1 Bft) NW 322 ° 0 min 0,000 mm 1,7 UV-I 200 W/m² 4,8 °C 12,1 °C 8,0 km/h (2 Bft)
20.05.2017 14:19 12,1 °C 12,1 °C 61 % 1021,7 hPa 0,0 mm 3,6 km/h (1 Bft) NW 322 ° 0 min 0,000 mm 1,7 UV-I 202 W/m² 4,8 °C 12,1 °C 6,4 km/h (2 Bft)
20.05.2017 14:20 12,1 °C 12,1 °C 61 % 1021,6 hPa 0,0 mm 5,6 km/h (1 Bft) NW 320 ° 0 min 0,000 mm 1,7 UV-I 204 W/m² 4,8 °C 12,1 °C 9,7 km/h (2 Bft)
20.05.2017 14:21 12,1 °C 12,1 °C 61 % 1021,7 hPa 0,0 mm 3,6 km/h (1 Bft) N-NW 329 ° 0 min 0,000 mm 1,7 UV-I 204 W/m² 4,8 °C 12,1 °C 8,0 km/h (2 Bft)
20.05.2017 14:22 12,1 °C 12,1 °C 63 % 1021,7 hPa 0,0 mm 3,9 km/h (1 Bft) W 277 ° 0 min 0,000 mm 1,7 UV-I 209 W/m² 5,3 °C 12,1 °C 6,4 km/h (2 Bft)
20.05.2017 14:23 12,2 °C 12,2 °C 65 % 1021,7 hPa 0,0 mm 5,6 km/h (1 Bft) W-NW 287 ° 0 min 0,000 mm 1,8 UV-I 211 W/m² 5,8 °C 12,2 °C 9,7 km/h (2 Bft)
20.05.2017 14:24 12,2 °C 12,2 °C 62 % 1021,7 hPa 0,0 mm 4,4 km/h (1 Bft) NW 322 ° 0 min 0,000 mm 1,8 UV-I 211 W/m² 5,1 °C 12,2 °C 6,4 km/h (2 Bft)
20.05.2017 14:25 12,1 °C 12,2 °C 63 % 1021,6 hPa 0,0 mm 3,8 km/h (1 Bft) W-NW 301 ° 0 min 0,000 mm 1,8 UV-I 211 W/m² 5,3 °C 12,1 °C 4,8 km/h (1 Bft)
20.05.2017 14:26 12,1 °C 12,1 °C 61 % 1021,7 hPa 0,0 mm 3,2 km/h (1 Bft) W 267 ° 0 min 0,000 mm 1,8 UV-I 211 W/m² 4,8 °C 12,1 °C 4,8 km/h (1 Bft)
20.05.2017 14:27 12,1 °C 12,1 °C 62 % 1021,6 hPa 0,0 mm 3,6 km/h (1 Bft) W-NW 296 ° 0 min 0,000 mm 1,8 UV-I 211 W/m² 5,0 °C 12,1 °C 4,8 km/h (1 Bft)
20.05.2017 14:28 12,0 °C 12,1 °C 62 % 1021,7 hPa 0,0 mm 4,2 km/h (1 Bft) W-NW 296 ° 0 min 0,000 mm 1,8 UV-I 214 W/m² 4,9 °C 12,0 °C 6,4 km/h (2 Bft)
20.05.2017 14:29 12,1 °C 12,1 °C 62 % 1021,7 hPa 0,0 mm 6,6 km/h (2 Bft) W-NW 287 ° 0 min 0,000 mm 1,9 UV-I 218 W/m² 5,0 °C 12,1 °C 11,3 km/h (2 Bft)
20.05.2017 14:30 12,1 °C 12,1 °C 64 % 1021,7 hPa 0,0 mm 7,6 km/h (2 Bft) W-NW 285 ° 0 min 0,000 mm 1,9 UV-I 218 W/m² 5,5 °C 12,1 °C 9,7 km/h (2 Bft)
20.05.2017 14:31 12,1 °C 12,1 °C 60 % 1021,7 hPa 0,0 mm 3,7 km/h (1 Bft) W-NW 298 ° 0 min 0,000 mm 1,9 UV-I 220 W/m² 4,6 °C 12,1 °C 6,4 km/h (2 Bft)
20.05.2017 14:32 12,0 °C 12,1 °C 63 % 1021,7 hPa 0,0 mm 4,0 km/h (1 Bft) W-NW 299 ° 0 min 0,000 mm 1,9 UV-I 220 W/m² 5,2 °C 12,0 °C 6,4 km/h (2 Bft)
20.05.2017 14:33 12,0 °C 12,1 °C 63 % 1021,7 hPa 0,0 mm 4,0 km/h (1 Bft) NW 310 ° 0 min 0,000 mm 1,9 UV-I 220 W/m² 5,2 °C 12,0 °C 6,4 km/h (2 Bft)
20.05.2017 14:34 12,1 °C 12,1 °C 65 % 1021,7 hPa 0,0 mm 3,1 km/h (1 Bft) W 281 ° 0 min 0,000 mm 1,8 UV-I 218 W/m² 5,7 °C 12,1 °C 6,4 km/h (2 Bft)
20.05.2017 14:35 12,2 °C 12,2 °C 64 % 1021,8 hPa 0,0 mm 6,4 km/h (2 Bft) W-NW 298 ° 0 min 0,000 mm 1,8 UV-I 218 W/m² 5,6 °C 12,2 °C 11,3 km/h (2 Bft)
20.05.2017 14:36 12,2 °C 12,2 °C 62 % 1021,7 hPa 0,0 mm 4,2 km/h (1 Bft) W-NW 302 ° 0 min 0,000 mm 1,8 UV-I 214 W/m² 5,1 °C 12,2 °C 8,0 km/h (2 Bft)
20.05.2017 14:37 12,1 °C 12,2 °C 61 % 1021,8 hPa 0,0 mm 4,0 km/h (1 Bft) W-NW 298 ° 0 min 0,000 mm 1,8 UV-I 211 W/m² 4,8 °C 12,1 °C 6,4 km/h (2 Bft)
20.05.2017 14:38 12,1 °C 12,1 °C 61 % 1021,8 hPa 0,0 mm 2,4 km/h (1 Bft) W-NW 299 ° 0 min 0,000 mm 1,8 UV-I 211 W/m² 4,8 °C 12,1 °C 4,8 km/h (1 Bft)
20.05.2017 14:39 12,2 °C 12,2 °C 64 % 1021,7 hPa 0,0 mm 1,6 km/h (1 Bft) W-NW 298 ° 0 min 0,000 mm 1,8 UV-I 207 W/m² 5,6 °C 12,2 °C 4,8 km/h (1 Bft)
20.05.2017 14:40 12,2 °C 12,2 °C 62 % 1021,8 hPa 0,0 mm 2,3 km/h (1 Bft) W-NW 298 ° 0 min 0,000 mm 1,7 UV-I 206 W/m² 5,1 °C 12,2 °C 3,2 km/h (1 Bft)
20.05.2017 14:41 12,3 °C 12,3 °C 63 % 1021,8 hPa 0,0 mm 1,5 km/h (1 Bft) W-NW 298 ° 0 min 0,000 mm 1,7 UV-I 207 W/m² 5,5 °C 12,3 °C 3,2 km/h (1 Bft)
20.05.2017 14:42 12,6 °C 12,6 °C 65 % 1021,8 hPa 0,0 mm 0,9 km/h (0 Bft) W-NW 298 ° 0 min 0,000 mm 1,7 UV-I 207 W/m² 6,2 °C 12,6 °C 3,2 km/h (1 Bft)
20.05.2017 14:43 12,6 °C 12,6 °C 61 % 1021,8 hPa 0,0 mm 3,2 km/h (1 Bft) W 279 ° 0 min 0,000 mm 1,7 UV-I 207 W/m² 5,3 °C 12,6 °C 6,4 km/h (2 Bft)
20.05.2017 14:44 12,5 °C 12,6 °C 61 % 1021,8 hPa 0,0 mm 6,2 km/h (2 Bft) W 276 ° 0 min 0,000 mm 1,7 UV-I 207 W/m² 5,2 °C 12,5 °C 9,7 km/h (2 Bft)
20.05.2017 14:45 12,4 °C 12,5 °C 63 % 1021,8 hPa 0,0 mm 5,4 km/h (1 Bft) W-NW 294 ° 0 min 0,000 mm 1,8 UV-I 209 W/m² 5,6 °C 12,4 °C 8,0 km/h (2 Bft)
20.05.2017 14:46 12,4 °C 12,4 °C 61 % 1021,8 hPa 0,0 mm 6,4 km/h (2 Bft) W-NW 294 ° 0 min 0,000 mm 1,8 UV-I 213 W/m² 5,1 °C 12,4 °C 8,0 km/h (2 Bft)
20.05.2017 14:47 12,3 °C 12,4 °C 62 % 1021,7 hPa 0,0 mm 4,4 km/h (1 Bft) W-NW 293 ° 0 min 0,000 mm 1,8 UV-I 213 W/m² 5,2 °C 12,3 °C 4,8 km/h (1 Bft)
20.05.2017 14:48 12,3 °C 12,3 °C 60 % 1021,7 hPa 0,0 mm 3,6 km/h (1 Bft) W-NW 291 ° 0 min 0,000 mm 1,8 UV-I 216 W/m² 4,8 °C 12,3 °C 4,8 km/h (1 Bft)
20.05.2017 14:49 12,2 °C 12,3 °C 60 % 1021,8 hPa 0,0 mm 2,3 km/h (1 Bft) W-NW 291 ° 0 min 0,000 mm 1,8 UV-I 218 W/m² 4,7 °C 12,2 °C 4,8 km/h (1 Bft)
20.05.2017 14:50 12,2 °C 12,2 °C 61 % 1021,7 hPa 0,0 mm 1,6 km/h (1 Bft) W-NW 291 ° 0 min 0,000 mm 1,8 UV-I 220 W/m² 4,9 °C 12,2 °C 3,2 km/h (1 Bft)
20.05.2017 14:51 12,2 °C 12,2 °C 63 % 1021,7 hPa 0,0 mm 4,2 km/h (1 Bft) W-NW 291 ° 0 min 0,000 mm 1,8 UV-I 221 W/m² 5,4 °C 12,2 °C 6,4 km/h (2 Bft)
20.05.2017 14:52 12,2 °C 12,2 °C 65 % 1021,8 hPa 0,0 mm 4,5 km/h (1 Bft) W-NW 291 ° 0 min 0,000 mm 1,8 UV-I 225 W/m² 5,8 °C 12,2 °C 6,4 km/h (2 Bft)
20.05.2017 14:53 12,2 °C 12,2 °C 62 % 1021,8 hPa 0,0 mm 4,8 km/h (1 Bft) NW 309 ° 0 min 0,000 mm 1,9 UV-I 229 W/m² 5,1 °C 12,2 °C 6,4 km/h (2 Bft)
20.05.2017 14:54 12,2 °C 12,2 °C 63 % 1021,7 hPa 0,0 mm 2,9 km/h (1 Bft) NW 309 ° 0 min 0,000 mm 1,9 UV-I 234 W/m² 5,4 °C 12,2 °C 4,8 km/h (1 Bft)
20.05.2017 14:55 12,3 °C 12,3 °C 63 % 1021,8 hPa 0,0 mm 4,8 km/h (1 Bft) W 265 ° 0 min 0,000 mm 1,9 UV-I 239 W/m² 5,5 °C 12,3 °C 9,7 km/h (2 Bft)
20.05.2017 14:56 12,3 °C 12,3 °C 65 % 1021,7 hPa 0,0 mm 1,9 km/h (1 Bft) W 265 ° 0 min 0,000 mm 2,0 UV-I 243 W/m² 5,9 °C 12,3 °C 3,2 km/h (1 Bft)
20.05.2017 14:57 12,3 °C 12,3 °C 63 % 1021,7 hPa 0,0 mm 2,6 km/h (1 Bft) W 281 ° 0 min 0,000 mm 2,0 UV-I 244 W/m² 5,5 °C 12,3 °C 4,8 km/h (1 Bft)
20.05.2017 14:58 12,3 °C 12,3 °C 62 % 1021,7 hPa 0,0 mm 3,6 km/h (1 Bft) NW 307 ° 0 min 0,000 mm 2,0 UV-I 244 W/m² 5,2 °C 12,3 °C 6,4 km/h (2 Bft)
20.05.2017 14:59 12,3 °C 12,3 °C 62 % 1021,7 hPa 0,0 mm 4,0 km/h (1 Bft) W 261 ° 0 min 0,000 mm 1,9 UV-I 243 W/m² 5,2 °C 12,3 °C 6,4 km/h (2 Bft)
20.05.2017 15:00 12,2 °C 12,3 °C 60 % 1021,7 hPa 0,0 mm 4,4 km/h (1 Bft) W 269 ° 0 min 0,127 mm 1,9 UV-I 241 W/m² 4,7 °C 12,2 °C 6,4 km/h (2 Bft)
20.05.2017 15:01 12,2 °C 12,2 °C 65 % 1021,8 hPa 0,0 mm 3,6 km/h (1 Bft) W 262 ° 0 min 0,000 mm 1,9 UV-I 241 W/m² 5,8 °C 12,2 °C 6,4 km/h (2 Bft)
20.05.2017 15:02 12,3 °C 12,3 °C 64 % 1021,8 hPa 0,0 mm 3,3 km/h (1 Bft) W-NW 291 ° 0 min 0,000 mm 1,9 UV-I 241 W/m² 5,7 °C 12,3 °C 4,8 km/h (1 Bft)
20.05.2017 15:03 12,2 °C 12,3 °C 61 % 1021,8 hPa 0,0 mm 1,8 km/h (1 Bft) W-NW 291 ° 0 min 0,000 mm 2,0 UV-I 243 W/m² 4,9 °C 12,2 °C 3,2 km/h (1 Bft)
20.05.2017 15:04 12,3 °C 12,3 °C 63 % 1021,8 hPa 0,0 mm 2,3 km/h (1 Bft) W-NW 291 ° 0 min 0,000 mm 2,0 UV-I 244 W/m² 5,5 °C 12,3 °C 3,2 km/h (1 Bft)
20.05.2017 15:05 12,3 °C 12,3 °C 62 % 1021,8 hPa 0,0 mm 2,7 km/h (1 Bft) W-NW 291 ° 0 min 0,000 mm 2,0 UV-I 246 W/m² 5,2 °C 12,3 °C 3,2 km/h (1 Bft)
20.05.2017 15:06 12,3 °C 12,3 °C 64 % 1021,8 hPa 0,0 mm 2,3 km/h (1 Bft) N-NO 18 ° 0 min 0,000 mm 2,1 UV-I 251 W/m² 5,7 °C 12,3 °C 4,8 km/h (1 Bft)
20.05.2017 15:07 12,3 °C 12,3 °C 65 % 1021,8 hPa 0,0 mm 4,4 km/h (1 Bft) NW 320 ° 0 min 0,000 mm 2,1 UV-I 258 W/m² 5,9 °C 12,3 °C 8,0 km/h (2 Bft)
20.05.2017 15:08 12,4 °C 12,4 °C 62 % 1021,8 hPa 0,0 mm 4,1 km/h (1 Bft) NW 319 ° 0 min 0,000 mm 2,1 UV-I 264 W/m² 5,3 °C 12,4 °C 6,4 km/h (2 Bft)
20.05.2017 15:09 12,3 °C 12,4 °C 61 % 1021,8 hPa 0,0 mm 4,4 km/h (1 Bft) NW 311 ° 0 min 0,000 mm 2,2 UV-I 279 W/m² 5,0 °C 12,3 °C 6,4 km/h (2 Bft)
20.05.2017 15:10 12,3 °C 12,4 °C 61 % 1021,8 hPa 0,0 mm 3,5 km/h (1 Bft) NW 313 ° 1 min 0,000 mm 2,3 UV-I 295 W/m² 5,0 °C 12,3 °C 4,8 km/h (1 Bft)
20.05.2017 15:11 12,3 °C 12,4 °C 61 % 1021,8 hPa 0,0 mm 2,8 km/h (1 Bft) NW 313 ° 1 min 0,000 mm 2,5 UV-I 360 W/m² 5,0 °C 12,3 °C 4,8 km/h (1 Bft)
20.05.2017 15:12 12,3 °C 12,3 °C 60 % 1021,8 hPa 0,0 mm 0,1 km/h (0 Bft) NW 313 ° 1 min 0,000 mm 2,4 UV-I 316 W/m² 4,8 °C 12,3 °C 1,6 km/h (1 Bft)
20.05.2017 15:13 12,4 °C 12,4 °C 64 % 1021,8 hPa 0,0 mm 0,7 km/h (0 Bft) NW 313 ° 1 min 0,000 mm 2,4 UV-I 322 W/m² 5,8 °C 12,4 °C 1,6 km/h (1 Bft)
20.05.2017 15:14 12,4 °C 12,4 °C 60 % 1021,8 hPa 0,0 mm 0,0 km/h (0 Bft) NW 313 ° 1 min 0,000 mm 2,3 UV-I 299 W/m² 4,9 °C 12,4 °C 0,0 km/h (0 Bft)
20.05.2017 15:15 12,3 °C 12,4 °C 59 % 1021,8 hPa 0,0 mm 0,2 km/h (0 Bft) NW 313 ° 0 min 0,000 mm 2,2 UV-I 281 W/m² 4,5 °C 12,3 °C 1,6 km/h (1 Bft)
20.05.2017 15:16 12,3 °C 12,4 °C 61 % 1021,8 hPa 0,0 mm 0,5 km/h (0 Bft) NW 313 ° 0 min 0,000 mm 2,2 UV-I 285 W/m² 5,0 °C 12,3 °C 1,6 km/h (1 Bft)
20.05.2017 15:17 12,3 °C 12,3 °C 62 % 1021,8 hPa 0,0 mm 1,8 km/h (1 Bft) NW 313 ° 0 min 0,000 mm 2,2 UV-I 287 W/m² 5,2 °C 12,3 °C 3,2 km/h (1 Bft)
20.05.2017 15:18 12,3 °C 12,3 °C 60 % 1021,8 hPa 0,0 mm 2,7 km/h (1 Bft) NW 313 ° 0 min 0,000 mm 2,2 UV-I 287 W/m² 4,8 °C 12,3 °C 4,8 km/h (1 Bft)
20.05.2017 15:19 12,3 °C 12,3 °C 59 % 1021,8 hPa 0,0 mm 3,4 km/h (1 Bft) N-NW 329 ° 1 min 0,000 mm 2,3 UV-I 292 W/m² 4,5 °C 12,3 °C 8,0 km/h (2 Bft)
20.05.2017 15:20 12,4 °C 12,4 °C 60 % 1021,8 hPa 0,0 mm 5,0 km/h (1 Bft) NW 315 ° 1 min 0,000 mm 2,3 UV-I 294 W/m² 4,9 °C 12,4 °C 6,4 km/h (2 Bft)
20.05.2017 15:21 12,4 °C 12,4 °C 60 % 1021,8 hPa 0,0 mm 1,8 km/h (1 Bft) NW 315 ° 0 min 0,000 mm 2,2 UV-I 274 W/m² 4,9 °C 12,4 °C 3,2 km/h (1 Bft)
20.05.2017 15:22 12,5 °C 12,5 °C 61 % 1021,8 hPa 0,0 mm 3,0 km/h (1 Bft) NW 318 ° 0 min 0,000 mm 2,0 UV-I 255 W/m² 5,2 °C 12,5 °C 4,8 km/h (1 Bft)
20.05.2017 15:23 12,5 °C 12,5 °C 59 % 1021,8 hPa 0,0 mm 3,8 km/h (1 Bft) NW 318 ° 0 min 0,000 mm 1,9 UV-I 246 W/m² 4,7 °C 12,5 °C 4,8 km/h (1 Bft)
20.05.2017 15:24 12,6 °C 12,6 °C 60 % 1021,8 hPa 0,0 mm 4,2 km/h (1 Bft) W-NW 284 ° 0 min 0,000 mm 1,9 UV-I 246 W/m² 5,0 °C 12,6 °C 6,4 km/h (2 Bft)
20.05.2017 15:25 12,5 °C 12,6 °C 63 % 1021,8 hPa 0,0 mm 4,3 km/h (1 Bft) W-NW 284 ° 0 min 0,000 mm 1,9 UV-I 244 W/m² 5,7 °C 12,5 °C 4,8 km/h (1 Bft)
20.05.2017 15:26 12,6 °C 12,6 °C 67 % 1021,8 hPa 0,0 mm 4,2 km/h (1 Bft) W-NW 284 ° 0 min 0,000 mm 1,9 UV-I 244 W/m² 6,6 °C 12,6 °C 4,8 km/h (1 Bft)
20.05.2017 15:27 12,6 °C 12,6 °C 63 % 1021,8 hPa 0,0 mm 4,5 km/h (1 Bft) W-NW 284 ° 0 min 0,000 mm 1,9 UV-I 246 W/m² 5,7 °C 12,6 °C 4,8 km/h (1 Bft)
20.05.2017 15:28 12,5 °C 12,6 °C 58 % 1021,8 hPa 0,0 mm 4,3 km/h (1 Bft) W 263 ° 0 min 0,000 mm 1,9 UV-I 248 W/m² 4,5 °C 12,5 °C 6,4 km/h (2 Bft)
20.05.2017 15:29 12,4 °C 12,5 °C 59 % 1021,8 hPa 0,0 mm 5,1 km/h (1 Bft) W 262 ° 0 min 0,000 mm 1,9 UV-I 250 W/m² 4,6 °C 12,4 °C 6,4 km/h (2 Bft)
20.05.2017 15:30 12,4 °C 12,4 °C 63 % 1021,8 hPa 0,0 mm 2,8 km/h (1 Bft) W 263 ° 0 min 0,000 mm 1,9 UV-I 250 W/m² 5,6 °C 12,4 °C 4,8 km/h (1 Bft)
20.05.2017 15:31 12,4 °C 12,4 °C 62 % 1021,9 hPa 0,0 mm 3,2 km/h (1 Bft) W 262 ° 0 min 0,000 mm 1,9 UV-I 248 W/m² 5,3 °C 12,4 °C 4,8 km/h (1 Bft)
20.05.2017 15:32 12,4 °C 12,4 °C 61 % 1021,8 hPa 0,0 mm 2,3 km/h (1 Bft) W 262 ° 0 min 0,000 mm 1,9 UV-I 246 W/m² 5,1 °C 12,4 °C 3,2 km/h (1 Bft)
20.05.2017 15:33 12,4 °C 12,4 °C 62 % 1021,8 hPa 0,0 mm 2,1 km/h (1 Bft) W 262 ° 0 min 0,000 mm 1,9 UV-I 244 W/m² 5,3 °C 12,4 °C 3,2 km/h (1 Bft)
20.05.2017 15:34 12,3 °C 12,4 °C 59 % 1021,8 hPa 0,0 mm 3,1 km/h (1 Bft) W-SW 249 ° 0 min 0,000 mm 1,9 UV-I 244 W/m² 4,5 °C 12,3 °C 4,8 km/h (1 Bft)
20.05.2017 15:35 12,3 °C 12,3 °C 57 % 1021,8 hPa 0,0 mm 0,8 km/h (0 Bft) W-SW 249 ° 0 min 0,000 mm 1,9 UV-I 241 W/m² 4,0 °C 12,3 °C 3,2 km/h (1 Bft)
20.05.2017 15:36 12,3 °C 12,3 °C 57 % 1021,8 hPa 0,0 mm 0,0 km/h (0 Bft) W-SW 249 ° 0 min 0,000 mm 1,9 UV-I 239 W/m² 4,0 °C 12,3 °C 0,0 km/h (0 Bft)
20.05.2017 15:37 12,2 °C 12,3 °C 57 % 1021,7 hPa 0,0 mm 1,0 km/h (0 Bft) W 273 ° 0 min 0,000 mm 1,9 UV-I 236 W/m² 3,9 °C 12,2 °C 4,8 km/h (1 Bft)
20.05.2017 15:38 12,3 °C 12,3 °C 59 % 1021,8 hPa 0,0 mm 5,3 km/h (1 Bft) W 267 ° 0 min 0,000 mm 1,9 UV-I 241 W/m² 4,5 °C 12,3 °C 8,0 km/h (2 Bft)
20.05.2017 15:39 12,3 °C 12,3 °C 61 % 1021,8 hPa 0,0 mm 3,0 km/h (1 Bft) W 263 ° 0 min 0,000 mm 1,9 UV-I 244 W/m² 5,0 °C 12,3 °C 4,8 km/h (1 Bft)
20.05.2017 15:40 12,3 °C 12,4 °C 64 % 1021,8 hPa 0,0 mm 2,7 km/h (1 Bft) NW 307 ° 0 min 0,000 mm 1,9 UV-I 248 W/m² 5,7 °C 12,3 °C 4,8 km/h (1 Bft)
20.05.2017 15:41 12,4 °C 12,4 °C 63 % 1021,8 hPa 0,0 mm 2,5 km/h (1 Bft) NW 308 ° 0 min 0,000 mm 1,9 UV-I 251 W/m² 5,6 °C 12,4 °C 3,2 km/h (1 Bft)
20.05.2017 15:42 12,5 °C 12,6 °C 61 % 1021,8 hPa 0,0 mm 2,3 km/h (1 Bft) NW 308 ° 0 min 0,000 mm 1,9 UV-I 253 W/m² 5,2 °C 12,5 °C 3,2 km/h (1 Bft)
20.05.2017 15:43 12,6 °C 12,6 °C 60 % 1021,8 hPa 0,0 mm 3,0 km/h (1 Bft) W-NW 284 ° 0 min 0,000 mm 1,9 UV-I 253 W/m² 5,0 °C 12,6 °C 4,8 km/h (1 Bft)
20.05.2017 15:44 12,5 °C 12,6 °C 60 % 1021,8 hPa 0,0 mm 3,2 km/h (1 Bft) W-NW 284 ° 0 min 0,000 mm 1,9 UV-I 251 W/m² 5,0 °C 12,5 °C 4,8 km/h (1 Bft)
20.05.2017 15:45 12,6 °C 12,6 °C 65 % 1021,8 hPa 0,0 mm 4,0 km/h (1 Bft) W-NW 284 ° 0 min 0,000 mm 1,9 UV-I 244 W/m² 6,2 °C 12,6 °C 4,8 km/h (1 Bft)
20.05.2017 15:46 12,5 °C 12,6 °C 63 % 1021,8 hPa 0,0 mm 3,0 km/h (1 Bft) W-NW 284 ° 0 min 0,000 mm 1,8 UV-I 236 W/m² 5,7 °C 12,5 °C 4,8 km/h (1 Bft)
20.05.2017 15:47 12,6 °C 12,6 °C 61 % 1021,8 hPa 0,0 mm 3,1 km/h (1 Bft) W-NW 284 ° 0 min 0,000 mm 1,8 UV-I 230 W/m² 5,3 °C 12,6 °C 4,8 km/h (1 Bft)
20.05.2017 15:48 12,5 °C 12,6 °C 63 % 1021,8 hPa 0,0 mm 4,4 km/h (1 Bft) W-NW 284 ° 0 min 0,000 mm 1,8 UV-I 225 W/m² 5,7 °C 12,5 °C 4,8 km/h (1 Bft)
20.05.2017 15:49 12,6 °C 12,6 °C 60 % 1021,8 hPa 0,0 mm 3,5 km/h (1 Bft) W 278 ° 0 min 0,000 mm 1,8 UV-I 225 W/m² 5,0 °C 12,6 °C 4,8 km/h (1 Bft)
20.05.2017 15:50 12,5 °C 12,6 °C 62 % 1021,8 hPa 0,0 mm 3,6 km/h (1 Bft) W-NW 282 ° 0 min 0,000 mm 1,8 UV-I 225 W/m² 5,4 °C 12,5 °C 4,8 km/h (1 Bft)
20.05.2017 15:51 12,5 °C 12,5 °C 63 % 1021,8 hPa 0,0 mm 3,3 km/h (1 Bft) W 275 ° 0 min 0,000 mm 1,8 UV-I 227 W/m² 5,7 °C 12,5 °C 4,8 km/h (1 Bft)
20.05.2017 15:52 12,5 °C 12,5 °C 61 % 1021,8 hPa 0,0 mm 4,4 km/h (1 Bft) W 275 ° 0 min 0,000 mm 1,8 UV-I 225 W/m² 5,2 °C 12,5 °C 6,4 km/h (2 Bft)
20.05.2017 15:53 12,5 °C 12,5 °C 61 % 1021,8 hPa 0,0 mm 0,8 km/h (0 Bft) W 275 ° 0 min 0,000 mm 1,8 UV-I 225 W/m² 5,2 °C 12,5 °C 1,6 km/h (1 Bft)
20.05.2017 15:54 12,5 °C 12,5 °C 61 % 1021,8 hPa 0,0 mm 0,3 km/h (0 Bft) W 275 ° 0 min 0,000 mm 1,7 UV-I 221 W/m² 5,2 °C 12,5 °C 1,6 km/h (1 Bft)
20.05.2017 15:55 12,6 °C 12,6 °C 65 % 1021,8 hPa 0,0 mm 1,7 km/h (1 Bft) W 275 ° 0 min 0,000 mm 1,7 UV-I 220 W/m² 6,2 °C 12,6 °C 3,2 km/h (1 Bft)
20.05.2017 15:56 12,6 °C 12,6 °C 62 % 1021,9 hPa 0,0 mm 1,9 km/h (1 Bft) W 275 ° 0 min 0,000 mm 1,7 UV-I 218 W/m² 5,5 °C 12,6 °C 3,2 km/h (1 Bft)
20.05.2017 15:57 12,6 °C 12,6 °C 63 % 1021,9 hPa 0,0 mm 1,7 km/h (1 Bft) W 275 ° 0 min 0,000 mm 1,7 UV-I 218 W/m² 5,7 °C 12,6 °C 3,2 km/h (1 Bft)
20.05.2017 15:58 12,6 °C 12,6 °C 65 % 1021,9 hPa 0,0 mm 0,7 km/h (0 Bft) W 275 ° 0 min 0,000 mm 1,7 UV-I 220 W/m² 6,2 °C 12,6 °C 3,2 km/h (1 Bft)
20.05.2017 15:59 12,6 °C 12,6 °C 59 % 1021,9 hPa 0,0 mm 0,0 km/h (0 Bft) W 275 ° 0 min 0,000 mm 1,7 UV-I 220 W/m² 4,8 °C 12,6 °C 0,0 km/h (0 Bft)
20.05.2017 16:00 12,5 °C 12,6 °C 61 % 1021,9 hPa 0,0 mm 0,0 km/h (0 Bft) W 275 ° 0 min 0,127 mm 1,7 UV-I 221 W/m² 5,2 °C 12,5 °C 0,0 km/h (0 Bft)
20.05.2017 16:01 12,6 °C 12,6 °C 67 % 1021,9 hPa 0,0 mm 0,0 km/h (0 Bft) W 275 ° 0 min 0,000 mm 1,7 UV-I 225 W/m² 6,6 °C 12,6 °C 0,0 km/h (0 Bft)
20.05.2017 16:02 12,6 °C 12,6 °C 59 % 1021,9 hPa 0,0 mm 0,0 km/h (0 Bft) W 275 ° 0 min 0,000 mm 1,8 UV-I 230 W/m² 4,8 °C 12,6 °C 0,0 km/h (0 Bft)
20.05.2017 16:03 12,6 °C 12,6 °C 60 % 1021,9 hPa 0,0 mm 0,0 km/h (0 Bft) W 275 ° 0 min 0,000 mm 1,8 UV-I 232 W/m² 5,0 °C 12,6 °C 0,0 km/h (0 Bft)
20.05.2017 16:04 12,6 °C 12,6 °C 57 % 1021,9 hPa 0,0 mm 0,9 km/h (0 Bft) W 275 ° 0 min 0,000 mm 1,8 UV-I 236 W/m² 4,3 °C 12,6 °C 3,2 km/h (1 Bft)
20.05.2017 16:05 12,6 °C 12,6 °C 58 % 1021,9 hPa 0,0 mm 0,4 km/h (0 Bft) W 275 ° 0 min 0,000 mm 1,8 UV-I 237 W/m² 4,6 °C 12,6 °C 1,6 km/h (1 Bft)
20.05.2017 16:06 12,6 °C 12,6 °C 62 % 1021,9 hPa 0,0 mm 1,8 km/h (1 Bft) W 275 ° 0 min 0,000 mm 1,8 UV-I 237 W/m² 5,5 °C 12,6 °C 3,2 km/h (1 Bft)
20.05.2017 16:07 12,6 °C 12,6 °C 63 % 1022,0 hPa 0,0 mm 2,9 km/h (1 Bft) W 275 ° 0 min 0,000 mm 1,8 UV-I 236 W/m² 5,7 °C 12,6 °C 4,8 km/h (1 Bft)
20.05.2017 16:08 12,6 °C 12,6 °C 63 % 1021,9 hPa 0,0 mm 2,5 km/h (1 Bft) W 275 ° 0 min 0,000 mm 1,8 UV-I 236 W/m² 5,7 °C 12,6 °C 3,2 km/h (1 Bft)
20.05.2017 16:09 12,6 °C 12,6 °C 58 % 1021,9 hPa 0,0 mm 0,6 km/h (0 Bft) W 275 ° 0 min 0,000 mm 1,8 UV-I 237 W/m² 4,6 °C 12,6 °C 3,2 km/h (1 Bft)
20.05.2017 16:10 12,6 °C 12,6 °C 56 % 1022,0 hPa 0,0 mm 0,0 km/h (0 Bft) W 275 ° 0 min 0,000 mm 1,8 UV-I 239 W/m² 4,1 °C 12,6 °C 0,0 km/h (0 Bft)
20.05.2017 16:11 12,6 °C 12,6 °C 61 % 1022,0 hPa 0,0 mm 2,0 km/h (1 Bft) W 275 ° 0 min 0,000 mm 1,9 UV-I 243 W/m² 5,3 °C 12,6 °C 6,4 km/h (2 Bft)
20.05.2017 16:12 12,6 °C 12,6 °C 61 % 1022,0 hPa 0,0 mm 4,0 km/h (1 Bft) W 275 ° 0 min 0,000 mm 1,9 UV-I 248 W/m² 5,3 °C 12,6 °C 6,4 km/h (2 Bft)
20.05.2017 16:13 12,7 °C 12,7 °C 61 % 1021,9 hPa 0,0 mm 3,0 km/h (1 Bft) W 275 ° 0 min 0,000 mm 1,9 UV-I 253 W/m² 5,4 °C 12,7 °C 4,8 km/h (1 Bft)
20.05.2017 16:14 12,7 °C 12,7 °C 62 % 1022,0 hPa 0,0 mm 3,5 km/h (1 Bft) W 279 ° 0 min 0,000 mm 2,0 UV-I 267 W/m² 5,6 °C 12,7 °C 4,8 km/h (1 Bft)
20.05.2017 16:15 12,7 °C 12,7 °C 57 % 1022,0 hPa 0,0 mm 3,6 km/h (1 Bft) W 279 ° 0 min 0,000 mm 2,1 UV-I 272 W/m² 4,4 °C 12,7 °C 4,8 km/h (1 Bft)
20.05.2017 16:16 12,7 °C 12,7 °C 59 % 1022,0 hPa 0,0 mm 2,1 km/h (1 Bft) W 279 ° 0 min 0,000 mm 2,1 UV-I 278 W/m² 4,9 °C 12,7 °C 4,8 km/h (1 Bft)
20.05.2017 16:17 12,7 °C 12,8 °C 60 % 1022,0 hPa 0,0 mm 1,7 km/h (1 Bft) W 279 ° 0 min 0,000 mm 2,1 UV-I 281 W/m² 5,1 °C 12,7 °C 3,2 km/h (1 Bft)
20.05.2017 16:18 12,8 °C 12,8 °C 61 % 1022,0 hPa 0,0 mm 0,6 km/h (0 Bft) W 279 ° 0 min 0,000 mm 2,1 UV-I 287 W/m² 5,5 °C 12,8 °C 1,6 km/h (1 Bft)
20.05.2017 16:19 12,9 °C 12,9 °C 60 % 1022,0 hPa 0,0 mm 1,1 km/h (1 Bft) W 279 ° 1 min 0,000 mm 2,1 UV-I 294 W/m² 5,3 °C 12,9 °C 3,2 km/h (1 Bft)
20.05.2017 16:20 12,9 °C 12,9 °C 68 % 1022,0 hPa 0,0 mm 3,8 km/h (1 Bft) W 271 ° 1 min 0,000 mm 2,1 UV-I 294 W/m² 7,1 °C 12,9 °C 6,4 km/h (2 Bft)
20.05.2017 16:21 12,9 °C 13,0 °C 59 % 1022,0 hPa 0,0 mm 1,4 km/h (1 Bft) W 271 ° 1 min 0,000 mm 2,1 UV-I 290 W/m² 5,1 °C 12,9 °C 3,2 km/h (1 Bft)
20.05.2017 16:22 12,9 °C 12,9 °C 60 % 1022,1 hPa 0,0 mm 1,4 km/h (1 Bft) W 271 ° 1 min 0,000 mm 2,1 UV-I 290 W/m² 5,3 °C 12,9 °C 4,8 km/h (1 Bft)
20.05.2017 16:23 12,9 °C 12,9 °C 62 % 1022,1 hPa 0,0 mm 3,3 km/h (1 Bft) W 271 ° 0 min 0,000 mm 2,0 UV-I 276 W/m² 5,8 °C 12,9 °C 4,8 km/h (1 Bft)
20.05.2017 16:24 12,9 °C 12,9 °C 65 % 1022,1 hPa 0,0 mm 3,6 km/h (1 Bft) W 271 ° 0 min 0,000 mm 1,9 UV-I 265 W/m² 6,5 °C 12,9 °C 6,4 km/h (2 Bft)
20.05.2017 16:25 12,9 °C 12,9 °C 62 % 1022,1 hPa 0,0 mm 3,2 km/h (1 Bft) W 271 ° 0 min 0,000 mm 1,8 UV-I 239 W/m² 5,8 °C 12,9 °C 4,8 km/h (1 Bft)
20.05.2017 16:26 12,9 °C 13,0 °C 62 % 1022,1 hPa 0,0 mm 3,1 km/h (1 Bft) W 271 ° 0 min 0,000 mm 1,7 UV-I 227 W/m² 5,8 °C 12,9 °C 3,2 km/h (1 Bft)
20.05.2017 16:27 12,9 °C 13,0 °C 59 % 1022,1 hPa 0,0 mm 0,3 km/h (0 Bft) W 271 ° 0 min 0,000 mm 1,6 UV-I 214 W/m² 5,1 °C 12,9 °C 1,6 km/h (1 Bft)
20.05.2017 16:28 12,9 °C 12,9 °C 59 % 1022,1 hPa 0,0 mm 0,0 km/h (0 Bft) W 271 ° 0 min 0,000 mm 1,5 UV-I 202 W/m² 5,1 °C 12,9 °C 0,0 km/h (0 Bft)
20.05.2017 16:29 12,8 °C 12,9 °C 66 % 1022,1 hPa 0,0 mm 0,1 km/h (0 Bft) W 271 ° 0 min 0,000 mm 1,5 UV-I 192 W/m² 6,6 °C 12,8 °C 1,6 km/h (1 Bft)
20.05.2017 16:30 12,8 °C 12,8 °C 57 % 1022,1 hPa 0,0 mm 1,4 km/h (1 Bft) W 271 ° 0 min 0,000 mm 1,4 UV-I 183 W/m² 4,5 °C 12,8 °C 3,2 km/h (1 Bft)
20.05.2017 16:31 12,8 °C 12,8 °C 60 % 1022,1 hPa 0,0 mm 0,7 km/h (0 Bft) W 271 ° 0 min 0,000 mm 1,4 UV-I 171 W/m² 5,2 °C 12,8 °C 3,2 km/h (1 Bft)
20.05.2017 16:32 12,7 °C 12,8 °C 60 % 1022,1 hPa 0,0 mm 1,5 km/h (1 Bft) W 271 ° 0 min 0,000 mm 1,3 UV-I 169 W/m² 5,1 °C 12,7 °C 3,2 km/h (1 Bft)
20.05.2017 16:33 12,6 °C 12,7 °C 56 % 1022,1 hPa 0,0 mm 1,9 km/h (1 Bft) W 271 ° 0 min 0,000 mm 1,3 UV-I 167 W/m² 4,1 °C 12,6 °C 3,2 km/h (1 Bft)
20.05.2017 16:34 12,6 °C 12,6 °C 61 % 1022,1 hPa 0,0 mm 0,3 km/h (0 Bft) W 271 ° 0 min 0,000 mm 1,3 UV-I 167 W/m² 5,3 °C 12,6 °C 1,6 km/h (1 Bft)
20.05.2017 16:35 12,5 °C 12,6 °C 58 % 1022,1 hPa 0,0 mm 0,0 km/h (0 Bft) W 271 ° 0 min 0,000 mm 1,3 UV-I 169 W/m² 4,5 °C 12,5 °C 0,0 km/h (0 Bft)
20.05.2017 16:36 12,5 °C 12,6 °C 57 % 1022,1 hPa 0,0 mm 0,0 km/h (0 Bft) W 271 ° 0 min 0,000 mm 1,3 UV-I 171 W/m² 4,2 °C 12,5 °C 0,0 km/h (0 Bft)
20.05.2017 16:37 12,5 °C 12,5 °C 63 % 1022,1 hPa 0,0 mm 0,0 km/h (0 Bft) W 271 ° 0 min 0,000 mm 1,4 UV-I 178 W/m² 5,7 °C 12,5 °C 0,0 km/h (0 Bft)
20.05.2017 16:38 12,5 °C 12,6 °C 61 % 1022,1 hPa 0,0 mm 0,0 km/h (0 Bft) W 271 ° 0 min 0,000 mm 1,3 UV-I 176 W/m² 5,2 °C 12,5 °C 0,0 km/h (0 Bft)
20.05.2017 16:39 12,6 °C 12,6 °C 64 % 1022,1 hPa 0,0 mm 1,4 km/h (1 Bft) W 271 ° 0 min 0,000 mm 1,3 UV-I 169 W/m² 6,0 °C 12,6 °C 3,2 km/h (1 Bft)
20.05.2017 16:40 12,6 °C 12,6 °C 61 % 1022,1 hPa 0,0 mm 0,5 km/h (0 Bft) W 271 ° 0 min 0,000 mm 1,2 UV-I 156 W/m² 5,3 °C 12,6 °C 1,6 km/h (1 Bft)
20.05.2017 16:41 12,6 °C 12,6 °C 62 % 1022,1 hPa 0,0 mm 2,0 km/h (1 Bft) W 274 ° 0 min 0,000 mm 1,1 UV-I 144 W/m² 5,5 °C 12,6 °C 3,2 km/h (1 Bft)
20.05.2017 16:42 12,7 °C 12,7 °C 64 % 1022,2 hPa 0,0 mm 1,8 km/h (1 Bft) W 274 ° 0 min 0,000 mm 1,0 UV-I 135 W/m² 6,1 °C 12,7 °C 4,8 km/h (1 Bft)
20.05.2017 16:43 12,7 °C 12,7 °C 64 % 1022,2 hPa 0,0 mm 1,9 km/h (1 Bft) W 274 ° 0 min 0,000 mm 1,0 UV-I 123 W/m² 6,1 °C 12,7 °C 4,8 km/h (1 Bft)
20.05.2017 16:44 12,7 °C 12,7 °C 64 % 1022,2 hPa 0,0 mm 2,9 km/h (1 Bft) W 274 ° 0 min 0,000 mm 0,9 UV-I 120 W/m² 6,1 °C 12,7 °C 4,8 km/h (1 Bft)
20.05.2017 16:45 12,7 °C 12,7 °C 63 % 1022,2 hPa 0,0 mm 2,7 km/h (1 Bft) W-SW 255 ° 0 min 0,000 mm 0,9 UV-I 116 W/m² 5,8 °C 12,7 °C 4,8 km/h (1 Bft)
20.05.2017 16:46 12,7 °C 12,7 °C 62 % 1022,2 hPa 0,0 mm 2,1 km/h (1 Bft) W-SW 255 ° 0 min 0,000 mm 0,9 UV-I 113 W/m² 5,6 °C 12,7 °C 4,8 km/h (1 Bft)
20.05.2017 16:47 12,6 °C 12,7 °C 63 % 1022,2 hPa 0,0 mm 2,7 km/h (1 Bft) W-SW 255 ° 0 min 0,000 mm 0,8 UV-I 109 W/m² 5,7 °C 12,6 °C 4,8 km/h (1 Bft)
20.05.2017 16:48 12,6 °C 12,6 °C 60 % 1022,3 hPa 0,0 mm 1,0 km/h (0 Bft) W-SW 255 ° 0 min 0,000 mm 0,8 UV-I 102 W/m² 5,0 °C 12,6 °C 3,2 km/h (1 Bft)
20.05.2017 16:49 12,5 °C 12,6 °C 60 % 1022,4 hPa 0,0 mm 3,0 km/h (1 Bft) W-SW 255 ° 0 min 0,000 mm 0,7 UV-I 88 W/m² 5,0 °C 12,5 °C 4,8 km/h (1 Bft)
20.05.2017 16:50 12,4 °C 12,5 °C 63 % 1022,4 hPa 0,0 mm 0,9 km/h (0 Bft) W-SW 255 ° 0 min 0,000 mm 0,6 UV-I 81 W/m² 5,6 °C 12,4 °C 3,2 km/h (1 Bft)
20.05.2017 16:51 12,4 °C 12,4 °C 62 % 1022,4 hPa 0,0 mm 3,9 km/h (1 Bft) W-SW 255 ° 0 min 0,000 mm 0,6 UV-I 77 W/m² 5,3 °C 12,4 °C 4,8 km/h (1 Bft)
20.05.2017 16:52 12,4 °C 12,4 °C 65 % 1022,4 hPa 0,0 mm 1,3 km/h (1 Bft) W-SW 255 ° 0 min 0,000 mm 0,6 UV-I 74 W/m² 6,0 °C 12,4 °C 3,2 km/h (1 Bft)
20.05.2017 16:53 12,3 °C 12,4 °C 66 % 1022,4 hPa 0,0 mm 0,7 km/h (0 Bft) W-SW 255 ° 0 min 0,000 mm 0,5 UV-I 72 W/m² 6,1 °C 12,3 °C 1,6 km/h (1 Bft)
20.05.2017 16:54 12,3 °C 12,3 °C 66 % 1022,4 hPa 0,0 mm 0,0 km/h (0 Bft) W-SW 255 ° 0 min 0,000 mm 0,5 UV-I 72 W/m² 6,1 °C 12,3 °C 0,0 km/h (0 Bft)
20.05.2017 16:55 12,3 °C 12,3 °C 62 % 1022,4 hPa 0,0 mm 0,8 km/h (0 Bft) W-SW 254 ° 0 min 0,000 mm 0,6 UV-I 74 W/m² 5,2 °C 12,3 °C 1,6 km/h (1 Bft)
20.05.2017 16:56 12,2 °C 12,3 °C 64 % 1022,4 hPa 0,0 mm 2,3 km/h (1 Bft) W-SW 248 ° 0 min 0,000 mm 0,6 UV-I 77 W/m² 5,6 °C 12,2 °C 6,4 km/h (2 Bft)
20.05.2017 16:57 12,2 °C 12,2 °C 67 % 1022,4 hPa 0,0 mm 4,2 km/h (1 Bft) W-SW 249 ° 0 min 0,000 mm 0,6 UV-I 81 W/m² 6,3 °C 12,2 °C 6,4 km/h (2 Bft)
20.05.2017 16:58 12,2 °C 12,2 °C 68 % 1022,4 hPa 0,0 mm 3,9 km/h (1 Bft) W-SW 251 ° 0 min 0,000 mm 0,6 UV-I 83 W/m² 6,5 °C 12,2 °C 6,4 km/h (2 Bft)
20.05.2017 16:59 12,2 °C 12,2 °C 66 % 1022,4 hPa 0,0 mm 2,9 km/h (1 Bft) W-SW 251 ° 0 min 0,000 mm 0,6 UV-I 84 W/m² 6,0 °C 12,2 °C 4,8 km/h (1 Bft)
20.05.2017 17:00 12,2 °C 12,2 °C 65 % 1022,4 hPa 0,0 mm 3,8 km/h (1 Bft) W-SW 254 ° 0 min 0,000 mm 0,6 UV-I 79 W/m² 5,8 °C 12,2 °C 4,8 km/h (1 Bft)
20.05.2017 17:01 12,2 °C 12,2 °C 63 % 1022,4 hPa 0,0 mm 2,7 km/h (1 Bft) W 260 ° 0 min 0,101 mm 0,6 UV-I 76 W/m² 5,4 °C 12,2 °C 3,2 km/h (1 Bft)
20.05.2017 17:02 12,2 °C 12,2 °C 63 % 1022,4 hPa 0,0 mm 3,2 km/h (1 Bft) W 260 ° 0 min 0,000 mm 0,5 UV-I 72 W/m² 5,4 °C 12,2 °C 4,8 km/h (1 Bft)
20.05.2017 17:03 12,2 °C 12,2 °C 63 % 1022,5 hPa 0,0 mm 3,2 km/h (1 Bft) W 264 ° 0 min 0,000 mm 0,5 UV-I 69 W/m² 5,4 °C 12,2 °C 4,8 km/h (1 Bft)
20.05.2017 17:04 12,1 °C 12,2 °C 66 % 1022,5 hPa 0,0 mm 3,8 km/h (1 Bft) W 263 ° 0 min 0,000 mm 0,5 UV-I 65 W/m² 5,9 °C 12,1 °C 6,4 km/h (2 Bft)
20.05.2017 17:05 12,1 °C 12,1 °C 69 % 1022,5 hPa 0,0 mm 5,2 km/h (1 Bft) W 271 ° 0 min 0,000 mm 0,5 UV-I 63 W/m² 6,6 °C 12,1 °C 6,4 km/h (2 Bft)
20.05.2017 17:06 12,1 °C 12,1 °C 68 % 1022,5 hPa 0,0 mm 3,6 km/h (1 Bft) W 279 ° 0 min 0,000 mm 0,5 UV-I 60 W/m² 6,4 °C 12,1 °C 4,8 km/h (1 Bft)
20.05.2017 17:07 12,1 °C 12,1 °C 63 % 1022,5 hPa 0,0 mm 3,4 km/h (1 Bft) W 270 ° 0 min 0,000 mm 0,5 UV-I 60 W/m² 5,3 °C 12,1 °C 4,8 km/h (1 Bft)
20.05.2017 17:08 12,1 °C 12,1 °C 63 % 1022,5 hPa 0,0 mm 4,0 km/h (1 Bft) W 262 ° 0 min 0,000 mm 0,5 UV-I 60 W/m² 5,3 °C 12,1 °C 4,8 km/h (1 Bft)
20.05.2017 17:09 12,1 °C 12,1 °C 63 % 1022,5 hPa 0,0 mm 1,6 km/h (1 Bft) W-SW 246 ° 0 min 0,000 mm 0,0 UV-I 60 W/m² 5,3 °C 12,1 °C 3,2 km/h (1 Bft)
20.05.2017 17:10 12,1 °C 12,1 °C 64 % 1022,5 hPa 0,0 mm 0,9 km/h (0 Bft) W 278 ° 0 min 0,000 mm 0,0 UV-I 60 W/m² 5,5 °C 12,1 °C 3,2 km/h (1 Bft)
20.05.2017 17:11 12,1 °C 12,1 °C 64 % 1022,5 hPa 0,0 mm 1,6 km/h (1 Bft) W 278 ° 0 min 0,000 mm 0,0 UV-I 58 W/m² 5,5 °C 12,1 °C 1,6 km/h (1 Bft)
20.05.2017 17:12 12,1 °C 12,1 °C 66 % 1022,5 hPa 0,0 mm 2,9 km/h (1 Bft) W 259 ° 0 min 0,000 mm 0,0 UV-I 58 W/m² 5,9 °C 12,1 °C 4,8 km/h (1 Bft)
20.05.2017 17:13 12,0 °C 12,1 °C 66 % 1022,5 hPa 0,0 mm 2,7 km/h (1 Bft) W 268 ° 0 min 0,000 mm 0,0 UV-I 54 W/m² 5,8 °C 12,0 °C 4,8 km/h (1 Bft)
20.05.2017 17:14 12,0 °C 12,0 °C 68 % 1022,6 hPa 0,0 mm 3,0 km/h (1 Bft) W 261 ° 0 min 0,000 mm 0,0 UV-I 54 W/m² 6,3 °C 12,0 °C 4,8 km/h (1 Bft)
20.05.2017 17:15 12,0 °C 12,0 °C 67 % 1022,6 hPa 0,0 mm 2,9 km/h (1 Bft) W 270 ° 0 min 0,000 mm 0,0 UV-I 54 W/m² 6,1 °C 12,0 °C 4,8 km/h (1 Bft)
20.05.2017 17:16 11,9 °C 12,0 °C 64 % 1022,5 hPa 0,0 mm 4,1 km/h (1 Bft) W 276 ° 0 min 0,000 mm 0,0 UV-I 54 W/m² 5,3 °C 11,9 °C 4,8 km/h (1 Bft)
20.05.2017 17:17 11,9 °C 11,9 °C 64 % 1022,5 hPa 0,0 mm 3,8 km/h (1 Bft) W 277 ° 0 min 0,000 mm 0,0 UV-I 56 W/m² 5,3 °C 11,9 °C 4,8 km/h (1 Bft)
20.05.2017 17:18 11,9 °C 11,9 °C 64 % 1022,6 hPa 0,0 mm 3,4 km/h (1 Bft) W-NW 282 ° 0 min 0,000 mm 0,0 UV-I 60 W/m² 5,3 °C 11,9 °C 4,8 km/h (1 Bft)
20.05.2017 17:19 11,9 °C 12,0 °C 66 % 1022,6 hPa 0,0 mm 2,7 km/h (1 Bft) W-NW 284 ° 0 min 0,000 mm 0,5 UV-I 62 W/m² 5,8 °C 11,9 °C 3,2 km/h (1 Bft)
20.05.2017 17:20 12,0 °C 12,0 °C 67 % 1022,6 hPa 0,0 mm 3,0 km/h (1 Bft) W 268 ° 0 min 0,000 mm 0,5 UV-I 62 W/m² 6,1 °C 12,0 °C 4,8 km/h (1 Bft)
20.05.2017 17:21 11,9 °C 12,0 °C 65 % 1022,5 hPa 0,0 mm 3,8 km/h (1 Bft) W-NW 287 ° 0 min 0,000 mm 0,5 UV-I 62 W/m² 5,5 °C 11,9 °C 4,8 km/h (1 Bft)
20.05.2017 17:22 11,9 °C 11,9 °C 65 % 1022,6 hPa 0,0 mm 1,6 km/h (1 Bft) W-NW 288 ° 0 min 0,000 mm 0,5 UV-I 63 W/m² 5,5 °C 11,9 °C 3,2 km/h (1 Bft)
20.05.2017 17:23 11,9 °C 11,9 °C 65 % 1022,6 hPa 0,0 mm 0,1 km/h (0 Bft) W-NW 289 ° 0 min 0,000 mm 0,5 UV-I 63 W/m² 5,5 °C 11,9 °C 1,6 km/h (1 Bft)
20.05.2017 17:24 11,9 °C 11,9 °C 66 % 1022,6 hPa 0,0 mm 2,6 km/h (1 Bft) W-NW 286 ° 0 min 0,000 mm 0,5 UV-I 63 W/m² 5,8 °C 11,9 °C 4,8 km/h (1 Bft)
20.05.2017 17:25 11,9 °C 11,9 °C 64 % 1022,6 hPa 0,0 mm 2,7 km/h (1 Bft) W-NW 289 ° 0 min 0,000 mm 0,5 UV-I 63 W/m² 5,3 °C 11,9 °C 4,8 km/h (1 Bft)
20.05.2017 17:26 11,9 °C 11,9 °C 64 % 1022,6 hPa 0,0 mm 1,2 km/h (1 Bft) W-NW 288 ° 0 min 0,000 mm 0,5 UV-I 62 W/m² 5,3 °C 11,9 °C 1,6 km/h (1 Bft)
20.05.2017 17:27 11,9 °C 11,9 °C 65 % 1022,6 hPa 0,0 mm 2,3 km/h (1 Bft) W-NW 288 ° 0 min 0,000 mm 0,5 UV-I 62 W/m² 5,5 °C 11,9 °C 3,2 km/h (1 Bft)
20.05.2017 17:28 11,9 °C 11,9 °C 67 % 1022,6 hPa 0,0 mm 2,6 km/h (1 Bft) W-NW 287 ° 0 min 0,000 mm 0,0 UV-I 60 W/m² 6,0 °C 11,9 °C 3,2 km/h (1 Bft)
20.05.2017 17:29 11,8 °C 11,9 °C 67 % 1022,6 hPa 0,0 mm 2,0 km/h (1 Bft) W-NW 287 ° 0 min 0,000 mm 0,0 UV-I 58 W/m² 5,9 °C 11,8 °C 3,2 km/h (1 Bft)
20.05.2017 17:30 11,8 °C 11,8 °C 68 % 1022,6 hPa 0,0 mm 0,4 km/h (0 Bft) W-NW 287 ° 0 min 0,000 mm 0,0 UV-I 56 W/m² 6,1 °C 11,8 °C 1,6 km/h (1 Bft)
20.05.2017 17:31 11,8 °C 11,8 °C 67 % 1022,7 hPa 0,0 mm 0,3 km/h (0 Bft) W-NW 287 ° 0 min 0,000 mm 0,0 UV-I 56 W/m² 5,9 °C 11,8 °C 1,6 km/h (1 Bft)
20.05.2017 17:32 11,8 °C 11,8 °C 69 % 1022,6 hPa 0,0 mm 0,0 km/h (0 Bft) W-NW 287 ° 0 min 0,000 mm 0,0 UV-I 56 W/m² 6,3 °C 11,8 °C 0,0 km/h (0 Bft)
20.05.2017 17:33 11,7 °C 11,8 °C 68 % 1022,7 hPa 0,0 mm 0,0 km/h (0 Bft) W-NW 287 ° 0 min 0,000 mm 0,0 UV-I 56 W/m² 6,0 °C 11,7 °C 0,0 km/h (0 Bft)
20.05.2017 17:34 11,7 °C 11,7 °C 68 % 1022,6 hPa 0,0 mm 0,0 km/h (0 Bft) W-NW 287 ° 0 min 0,000 mm 0,0 UV-I 56 W/m² 6,0 °C 11,7 °C 0,0 km/h (0 Bft)
20.05.2017 17:35 11,7 °C 11,7 °C 67 % 1022,6 hPa 0,0 mm 0,0 km/h (0 Bft) W-NW 287 ° 0 min 0,000 mm 0,0 UV-I 56 W/m² 5,8 °C 11,7 °C 0,0 km/h (0 Bft)
20.05.2017 17:36 11,7 °C 11,7 °C 67 % 1022,7 hPa 0,0 mm 0,4 km/h (0 Bft) W-NW 287 ° 0 min 0,000 mm 0,0 UV-I 54 W/m² 5,8 °C 11,7 °C 1,6 km/h (1 Bft)
20.05.2017 17:37 11,7 °C 11,7 °C 69 % 1022,7 hPa 0,0 mm 2,5 km/h (1 Bft) W-NW 287 ° 0 min 0,000 mm 0,0 UV-I 54 W/m² 6,2 °C 11,7 °C 3,2 km/h (1 Bft)
20.05.2017 17:38 11,7 °C 11,7 °C 69 % 1022,6 hPa 0,0 mm 0,2 km/h (0 Bft) W-NW 287 ° 0 min 0,000 mm 0,0 UV-I 54 W/m² 6,2 °C 11,7 °C 1,6 km/h (1 Bft)
20.05.2017 17:39 11,6 °C 11,7 °C 71 % 1022,7 hPa 0,0 mm 0,0 km/h (0 Bft) W-NW 287 ° 0 min 0,000 mm 0,0 UV-I 53 W/m² 6,5 °C 11,6 °C 0,0 km/h (0 Bft)
20.05.2017 17:40 11,6 °C 11,6 °C 69 % 1022,7 hPa 0,0 mm 1,3 km/h (1 Bft) W-NW 287 ° 0 min 0,000 mm 0,0 UV-I 53 W/m² 6,1 °C 11,6 °C 3,2 km/h (1 Bft)
20.05.2017 17:41 11,6 °C 11,6 °C 69 % 1022,7 hPa 0,0 mm 0,0 km/h (0 Bft) W-NW 287 ° 0 min 0,000 mm 0,0 UV-I 51 W/m² 6,1 °C 11,6 °C 0,0 km/h (0 Bft)
20.05.2017 17:42 11,6 °C 11,6 °C 68 % 1022,6 hPa 0,0 mm 0,0 km/h (0 Bft) W-NW 287 ° 0 min 0,000 mm 0,0 UV-I 51 W/m² 5,9 °C 11,6 °C 0,0 km/h (0 Bft)
20.05.2017 17:43 11,6 °C 11,6 °C 68 % 1022,6 hPa 0,0 mm 0,0 km/h (0 Bft) W-NW 287 ° 0 min 0,000 mm 0,0 UV-I 51 W/m² 5,9 °C 11,6 °C 0,0 km/h (0 Bft)
20.05.2017 17:44 11,6 °C 11,6 °C 70 % 1022,7 hPa 0,0 mm 0,0 km/h (0 Bft) W-NW 287 ° 0 min 0,000 mm 0,0 UV-I 49 W/m² 6,3 °C 11,6 °C 0,0 km/h (0 Bft)
20.05.2017 17:45 11,6 °C 11,6 °C 71 % 1022,7 hPa 0,0 mm 0,0 km/h (0 Bft) W-NW 287 ° 0 min 0,000 mm 0,0 UV-I 49 W/m² 6,5 °C 11,6 °C 0,0 km/h (0 Bft)
20.05.2017 17:46 11,5 °C 11,6 °C 74 % 1022,6 hPa 0,0 mm 0,0 km/h (0 Bft) W-NW 287 ° 0 min 0,000 mm 0,0 UV-I 47 W/m² 7,0 °C 11,5 °C 0,0 km/h (0 Bft)
20.05.2017 17:47 11,5 °C 11,6 °C 70 % 1022,6 hPa 0,0 mm 0,5 km/h (0 Bft) W-NW 287 ° 0 min 0,000 mm 0,0 UV-I 46 W/m² 6,2 °C 11,5 °C 1,6 km/h (1 Bft)
20.05.2017 17:48 11,5 °C 11,5 °C 71 % 1022,6 hPa 0,0 mm 0,8 km/h (0 Bft) W-NW 287 ° 0 min 0,000 mm 0,0 UV-I 46 W/m² 6,4 °C 11,5 °C 1,6 km/h (1 Bft)
20.05.2017 17:49 11,5 °C 11,5 °C 71 % 1022,7 hPa 0,0 mm 0,0 km/h (0 Bft) W-NW 287 ° 0 min 0,000 mm 0,0 UV-I 44 W/m² 6,4 °C 11,5 °C 0,0 km/h (0 Bft)
20.05.2017 17:50 11,4 °C 11,5 °C 69 % 1022,7 hPa 0,0 mm 0,0 km/h (0 Bft) W-NW 287 ° 0 min 0,000 mm 0,0 UV-I 44 W/m² 5,9 °C 11,4 °C 0,0 km/h (0 Bft)
20.05.2017 17:51 11,4 °C 11,4 °C 71 % 1022,7 hPa 0,0 mm 0,0 km/h (0 Bft) W-NW 287 ° 0 min 0,000 mm 0,0 UV-I 44 W/m² 6,3 °C 11,4 °C 0,0 km/h (0 Bft)
20.05.2017 17:52 11,4 °C 11,4 °C 70 % 1022,8 hPa 0,0 mm 0,0 km/h (0 Bft) W-NW 287 ° 0 min 0,000 mm 0,0 UV-I 42 W/m² 6,1 °C 11,4 °C 0,0 km/h (0 Bft)
20.05.2017 17:53 11,4 °C 11,4 °C 71 % 1022,7 hPa 0,0 mm 0,2 km/h (0 Bft) W-NW 287 ° 0 min 0,000 mm 0,0 UV-I 40 W/m² 6,3 °C 11,4 °C 1,6 km/h (1 Bft)
20.05.2017 17:54 11,3 °C 11,4 °C 70 % 1022,7 hPa 0,0 mm 0,6 km/h (0 Bft) W-NW 287 ° 0 min 0,000 mm 0,0 UV-I 40 W/m² 6,0 °C 11,3 °C 1,6 km/h (1 Bft)
20.05.2017 17:55 11,3 °C 11,4 °C 73 % 1022,7 hPa 0,0 mm 1,1 km/h (1 Bft) W-NW 287 ° 0 min 0,000 mm 0,0 UV-I 39 W/m² 6,6 °C 11,3 °C 3,2 km/h (1 Bft)
20.05.2017 17:56 11,3 °C 11,3 °C 72 % 1022,7 hPa 0,0 mm 0,1 km/h (0 Bft) W-NW 287 ° 0 min 0,000 mm 0,0 UV-I 40 W/m² 6,4 °C 11,3 °C 1,6 km/h (1 Bft)
20.05.2017 17:57 11,3 °C 11,3 °C 71 % 1022,7 hPa 0,0 mm 0,3 km/h (0 Bft) W-NW 287 ° 0 min 0,000 mm 0,0 UV-I 40 W/m² 6,2 °C 11,3 °C 1,6 km/h (1 Bft)
20.05.2017 17:58 11,3 °C 11,3 °C 71 % 1022,7 hPa 0,0 mm 1,1 km/h (1 Bft) W-NW 287 ° 0 min 0,000 mm 0,0 UV-I 42 W/m² 6,2 °C 11,3 °C 3,2 km/h (1 Bft)
20.05.2017 17:59 11,3 °C 11,3 °C 70 % 1022,7 hPa 0,0 mm 0,0 km/h (0 Bft) W-NW 287 ° 0 min 0,000 mm 0,0 UV-I 42 W/m² 6,0 °C 11,3 °C 0,0 km/h (0 Bft)
20.05.2017 18:00 11,3 °C 11,3 °C 70 % 1022,7 hPa 0,0 mm 0,0 km/h (0 Bft) W-NW 287 ° 0 min 0,000 mm 0,0 UV-I 42 W/m² 6,0 °C 11,3 °C 0,0 km/h (0 Bft)
20.05.2017 18:01 11,3 °C 11,4 °C 69 % 1022,8 hPa 0,0 mm 0,0 km/h (0 Bft) W-NW 287 ° 0 min 0,026 mm 0,0 UV-I 42 W/m² 5,8 °C 11,3 °C 0,0 km/h (0 Bft)
20.05.2017 18:02 11,4 °C 11,4 °C 71 % 1022,8 hPa 0,0 mm 0,6 km/h (0 Bft) W-NW 286 ° 0 min 0,000 mm 0,0 UV-I 40 W/m² 6,3 °C 11,4 °C 1,6 km/h (1 Bft)
20.05.2017 18:03 11,4 °C 11,4 °C 70 % 1022,8 hPa 0,0 mm 0,2 km/h (0 Bft) W-NW 286 ° 0 min 0,000 mm 0,0 UV-I 40 W/m² 6,1 °C 11,4 °C 1,6 km/h (1 Bft)
20.05.2017 18:04 11,4 °C 11,4 °C 70 % 1022,7 hPa 0,0 mm 0,0 km/h (0 Bft) W-NW 286 ° 0 min 0,000 mm 0,0 UV-I 40 W/m² 6,1 °C 11,4 °C 0,0 km/h (0 Bft)
20.05.2017 18:05 11,4 °C 11,4 °C 68 % 1022,8 hPa 0,0 mm 0,0 km/h (0 Bft) W-NW 286 ° 0 min 0,000 mm 0,0 UV-I 42 W/m² 5,7 °C 11,4 °C 0,0 km/h (0 Bft)
20.05.2017 18:06 11,4 °C 11,4 °C 70 % 1022,7 hPa 0,0 mm 0,0 km/h (0 Bft) W-NW 286 ° 0 min 0,000 mm 0,0 UV-I 40 W/m² 6,1 °C 11,4 °C 0,0 km/h (0 Bft)
20.05.2017 18:07 11,4 °C 11,4 °C 70 % 1022,8 hPa 0,0 mm 0,0 km/h (0 Bft) W-NW 286 ° 0 min 0,000 mm 0,0 UV-I 40 W/m² 6,1 °C 11,4 °C 0,0 km/h (0 Bft)
20.05.2017 18:08 11,3 °C 11,4 °C 70 % 1022,8 hPa 0,0 mm 0,0 km/h (0 Bft) W-NW 286 ° 0 min 0,000 mm 0,0 UV-I 39 W/m² 6,0 °C 11,3 °C 0,0 km/h (0 Bft)
20.05.2017 18:09 11,4 °C 11,4 °C 72 % 1022,8 hPa 0,0 mm 0,0 km/h (0 Bft) W-NW 286 ° 0 min 0,000 mm 0,0 UV-I 37 W/m² 6,5 °C 11,4 °C 0,0 km/h (0 Bft)
20.05.2017 18:10 11,4 °C 11,4 °C 71 % 1022,8 hPa 0,0 mm 0,0 km/h (0 Bft) W-NW 286 ° 0 min 0,000 mm 0,0 UV-I 35 W/m² 6,3 °C 11,4 °C 0,0 km/h (0 Bft)
20.05.2017 18:11 11,3 °C 11,4 °C 70 % 1022,8 hPa 0,0 mm 1,0 km/h (0 Bft) W-NW 286 ° 0 min 0,000 mm 0,0 UV-I 35 W/m² 6,0 °C 11,3 °C 3,2 km/h (1 Bft)
20.05.2017 18:12 11,3 °C 11,3 °C 70 % 1022,8 hPa 0,0 mm 1,1 km/h (1 Bft) W-NW 286 ° 0 min 0,000 mm 0,0 UV-I 33 W/m² 6,0 °C 11,3 °C 3,2 km/h (1 Bft)
20.05.2017 18:13 11,3 °C 11,3 °C 69 % 1022,8 hPa 0,0 mm 0,0 km/h (0 Bft) W-NW 284 ° 0 min 0,000 mm 0,0 UV-I 30 W/m² 5,8 °C 11,3 °C 0,0 km/h (0 Bft)
20.05.2017 18:14 11,3 °C 11,3 °C 70 % 1022,8 hPa 0,0 mm 1,2 km/h (1 Bft) W-NW 283 ° 0 min 0,000 mm 0,0 UV-I 30 W/m² 6,0 °C 11,3 °C 1,6 km/h (1 Bft)
20.05.2017 18:15 11,3 °C 11,3 °C 71 % 1022,8 hPa 0,0 mm 1,7 km/h (1 Bft) W-NW 282 ° 0 min 0,000 mm 0,0 UV-I 28 W/m² 6,2 °C 11,3 °C 3,2 km/h (1 Bft)
20.05.2017 18:16 11,3 °C 11,3 °C 70 % 1022,8 hPa 0,0 mm 0,2 km/h (0 Bft) W-NW 282 ° 0 min 0,000 mm 0,0 UV-I 28 W/m² 6,0 °C 11,3 °C 1,6 km/h (1 Bft)
20.05.2017 18:17 11,3 °C 11,3 °C 70 % 1022,8 hPa 0,0 mm 1,2 km/h (1 Bft) W-NW 282 ° 0 min 0,000 mm 0,0 UV-I 28 W/m² 6,0 °C 11,3 °C 1,6 km/h (1 Bft)
20.05.2017 18:18 11,3 °C 11,3 °C 71 % 1022,8 hPa 0,0 mm 2,1 km/h (1 Bft) W-SW 250 ° 0 min 0,000 mm 0,0 UV-I 28 W/m² 6,2 °C 11,3 °C 3,2 km/h (1 Bft)
20.05.2017 18:19 11,3 °C 11,3 °C 71 % 1022,8 hPa 0,0 mm 1,3 km/h (1 Bft) W-SW 250 ° 0 min 0,000 mm 0,0 UV-I 28 W/m² 6,2 °C 11,3 °C 1,6 km/h (1 Bft)
20.05.2017 18:20 11,3 °C 11,3 °C 71 % 1022,8 hPa 0,0 mm 1,1 km/h (1 Bft) W-SW 250 ° 0 min 0,000 mm 0,0 UV-I 28 W/m² 6,2 °C 11,3 °C 3,2 km/h (1 Bft)
20.05.2017 18:21 11,2 °C 11,3 °C 70 % 1022,8 hPa 0,0 mm 0,2 km/h (0 Bft) W-SW 250 ° 0 min 0,000 mm 0,0 UV-I 28 W/m² 5,9 °C 11,2 °C 1,6 km/h (1 Bft)
20.05.2017 18:22 11,2 °C 11,3 °C 71 % 1022,8 hPa 0,0 mm 0,5 km/h (0 Bft) W-SW 250 ° 0 min 0,000 mm 0,0 UV-I 28 W/m² 6,1 °C 11,2 °C 1,6 km/h (1 Bft)
20.05.2017 18:23 11,2 °C 11,3 °C 69 % 1022,8 hPa 0,0 mm 1,2 km/h (1 Bft) W-SW 250 ° 0 min 0,000 mm 0,0 UV-I 28 W/m² 5,7 °C 11,2 °C 3,2 km/h (1 Bft)
20.05.2017 18:24 11,2 °C 11,3 °C 70 % 1022,9 hPa 0,0 mm 0,8 km/h (0 Bft) W-SW 250 ° 0 min 0,000 mm 0,0 UV-I 30 W/m² 5,9 °C 11,2 °C 3,2 km/h (1 Bft)
20.05.2017 18:25 11,2 °C 11,2 °C 71 % 1022,8 hPa 0,0 mm 0,0 km/h (0 Bft) W-SW 250 ° 0 min 0,000 mm 0,0 UV-I 32 W/m² 6,1 °C 11,2 °C 0,0 km/h (0 Bft)
20.05.2017 18:26 11,2 °C 11,2 °C 71 % 1022,8 hPa 0,0 mm 0,0 km/h (0 Bft) W-SW 250 ° 0 min 0,000 mm 0,0 UV-I 32 W/m² 6,1 °C 11,2 °C 0,0 km/h (0 Bft)
20.05.2017 18:27 11,2 °C 11,2 °C 71 % 1022,8 hPa 0,0 mm 0,0 km/h (0 Bft) W-SW 250 ° 0 min 0,000 mm 0,0 UV-I 39 W/m² 6,1 °C 11,2 °C 0,0 km/h (0 Bft)
20.05.2017 18:28 11,2 °C 11,2 °C 71 % 1022,8 hPa 0,0 mm 0,0 km/h (0 Bft) W-SW 250 ° 0 min 0,000 mm 0,0 UV-I 42 W/m² 6,1 °C 11,2 °C 0,0 km/h (0 Bft)
20.05.2017 18:29 11,2 °C 11,2 °C 71 % 1022,9 hPa 0,0 mm 1,3 km/h (1 Bft) W-SW 250 ° 0 min 0,000 mm 0,0 UV-I 44 W/m² 6,1 °C 11,2 °C 3,2 km/h (1 Bft)
20.05.2017 18:30 11,2 °C 11,2 °C 69 % 1022,9 hPa 0,0 mm 1,8 km/h (1 Bft) W-SW 250 ° 0 min 0,000 mm 0,0 UV-I 44 W/m² 5,7 °C 11,2 °C 3,2 km/h (1 Bft)
20.05.2017 18:31 11,2 °C 11,2 °C 70 % 1022,9 hPa 0,0 mm 1,5 km/h (1 Bft) W-SW 250 ° 0 min 0,000 mm 0,0 UV-I 44 W/m² 5,9 °C 11,2 °C 3,2 km/h (1 Bft)
20.05.2017 18:32 11,2 °C 11,2 °C 70 % 1022,9 hPa 0,0 mm 1,8 km/h (1 Bft) W-SW 250 ° 0 min 0,000 mm 0,0 UV-I 44 W/m² 5,9 °C 11,2 °C 3,2 km/h (1 Bft)
20.05.2017 18:33 11,2 °C 11,2 °C 70 % 1022,9 hPa 0,0 mm 2,0 km/h (1 Bft) W-SW 250 ° 0 min 0,000 mm 0,0 UV-I 44 W/m² 5,9 °C 11,2 °C 3,2 km/h (1 Bft)
20.05.2017 18:34 11,2 °C 11,2 °C 70 % 1022,9 hPa 0,0 mm 1,1 km/h (1 Bft) W-SW 250 ° 0 min 0,000 mm 0,0 UV-I 40 W/m² 5,9 °C 11,2 °C 1,6 km/h (1 Bft)
20.05.2017 18:35 11,3 °C 11,3 °C 70 % 1022,9 hPa 0,0 mm 1,5 km/h (1 Bft) W-SW 250 ° 0 min 0,000 mm 0,0 UV-I 39 W/m² 6,0 °C 11,3 °C 3,2 km/h (1 Bft)
20.05.2017 18:36 11,2 °C 11,3 °C 70 % 1022,9 hPa 0,0 mm 0,8 km/h (0 Bft) W-SW 250 ° 0 min 0,000 mm 0,0 UV-I 39 W/m² 5,9 °C 11,2 °C 1,6 km/h (1 Bft)
20.05.2017 18:37 11,3 °C 11,3 °C 71 % 1022,9 hPa 0,0 mm 1,2 km/h (1 Bft) W-SW 250 ° 0 min 0,000 mm 0,0 UV-I 39 W/m² 6,2 °C 11,3 °C 3,2 km/h (1 Bft)
20.05.2017 18:38 11,2 °C 11,3 °C 71 % 1023,0 hPa 0,0 mm 0,0 km/h (0 Bft) W-SW 250 ° 0 min 0,000 mm 0,0 UV-I 39 W/m² 6,1 °C 11,2 °C 0,0 km/h (0 Bft)
20.05.2017 18:39 11,2 °C 11,2 °C 71 % 1022,9 hPa 0,0 mm 0,5 km/h (0 Bft) W-SW 250 ° 0 min 0,000 mm 0,0 UV-I 39 W/m² 6,1 °C 11,2 °C 3,2 km/h (1 Bft)
20.05.2017 18:40 11,2 °C 11,2 °C 71 % 1022,9 hPa 0,0 mm 1,9 km/h (1 Bft) W-SW 250 ° 0 min 0,000 mm 0,0 UV-I 42 W/m² 6,1 °C 11,2 °C 4,8 km/h (1 Bft)
20.05.2017 18:41 11,2 °C 11,2 °C 70 % 1022,9 hPa 0,0 mm 0,6 km/h (0 Bft) W-SW 250 ° 0 min 0,000 mm 0,0 UV-I 44 W/m² 5,9 °C 11,2 °C 3,2 km/h (1 Bft)
20.05.2017 18:42 11,2 °C 11,2 °C 70 % 1022,9 hPa 0,0 mm 0,0 km/h (0 Bft) W-SW 250 ° 0 min 0,000 mm 0,0 UV-I 46 W/m² 5,9 °C 11,2 °C 0,0 km/h (0 Bft)
20.05.2017 18:43 11,2 °C 11,2 °C 70 % 1023,0 hPa 0,0 mm 0,0 km/h (0 Bft) W-SW 250 ° 0 min 0,000 mm 0,0 UV-I 47 W/m² 5,9 °C 11,2 °C 0,0 km/h (0 Bft)
20.05.2017 18:44 11,2 °C 11,3 °C 70 % 1023,0 hPa 0,0 mm 0,8 km/h (0 Bft) W-SW 250 ° 0 min 0,000 mm 0,0 UV-I 49 W/m² 5,9 °C 11,2 °C 3,2 km/h (1 Bft)
20.05.2017 18:45 11,2 °C 11,2 °C 70 % 1023,0 hPa 0,0 mm 1,6 km/h (1 Bft) W-SW 250 ° 0 min 0,000 mm 0,0 UV-I 51 W/m² 5,9 °C 11,2 °C 3,2 km/h (1 Bft)
20.05.2017 18:46 11,2 °C 11,2 °C 70 % 1023,0 hPa 0,0 mm 2,2 km/h (1 Bft) S-SW 200 ° 0 min 0,000 mm 0,0 UV-I 56 W/m² 5,9 °C 11,2 °C 4,8 km/h (1 Bft)
20.05.2017 18:47 11,2 °C 11,2 °C 70 % 1023,0 hPa 0,0 mm 1,0 km/h (0 Bft) S-SW 200 ° 0 min 0,000 mm 0,0 UV-I 60 W/m² 5,9 °C 11,2 °C 6,4 km/h (2 Bft)
20.05.2017 18:48 11,2 °C 11,2 °C 72 % 1023,0 hPa 0,0 mm 0,7 km/h (0 Bft) S-SW 200 ° 0 min 0,000 mm 0,5 UV-I 63 W/m² 6,3 °C 11,2 °C 4,8 km/h (1 Bft)
20.05.2017 18:49 11,2 °C 11,2 °C 71 % 1023,1 hPa 0,0 mm 2,6 km/h (1 Bft) SW 232 ° 0 min 0,000 mm 0,5 UV-I 69 W/m² 6,1 °C 11,2 °C 4,8 km/h (1 Bft)
20.05.2017 18:50 11,2 °C 11,2 °C 72 % 1023,0 hPa 0,0 mm 4,0 km/h (1 Bft) SW 236 ° 0 min 0,000 mm 0,5 UV-I 74 W/m² 6,3 °C 11,2 °C 8,0 km/h (2 Bft)
20.05.2017 18:51 11,2 °C 11,2 °C 72 % 1023,0 hPa 0,0 mm 4,8 km/h (1 Bft) W-SW 237 ° 0 min 0,000 mm 0,5 UV-I 77 W/m² 6,3 °C 11,2 °C 6,4 km/h (2 Bft)
20.05.2017 18:52 11,2 °C 11,2 °C 72 % 1023,1 hPa 0,0 mm 1,7 km/h (1 Bft) W-SW 237 ° 0 min 0,000 mm 0,5 UV-I 88 W/m² 6,3 °C 11,2 °C 3,2 km/h (1 Bft)
20.05.2017 18:53 11,2 °C 11,2 °C 73 % 1023,0 hPa 0,0 mm 0,3 km/h (0 Bft) W-SW 237 ° 0 min 0,000 mm 0,6 UV-I 93 W/m² 6,5 °C 11,2 °C 1,6 km/h (1 Bft)
20.05.2017 18:54 11,2 °C 11,2 °C 72 % 1023,1 hPa 0,0 mm 1,1 km/h (1 Bft) W-SW 237 ° 0 min 0,000 mm 0,6 UV-I 97 W/m² 6,3 °C 11,2 °C 3,2 km/h (1 Bft)
20.05.2017 18:55 11,2 °C 11,2 °C 72 % 1023,1 hPa 0,0 mm 1,2 km/h (1 Bft) W-SW 237 ° 0 min 0,000 mm 0,6 UV-I 98 W/m² 6,3 °C 11,2 °C 3,2 km/h (1 Bft)
20.05.2017 18:56 11,2 °C 11,2 °C 72 % 1023,2 hPa 0,0 mm 3,0 km/h (1 Bft) W-SW 247 ° 0 min 0,000 mm 0,6 UV-I 98 W/m² 6,3 °C 11,2 °C 4,8 km/h (1 Bft)
20.05.2017 18:57 11,2 °C 11,3 °C 72 % 1023,2 hPa 0,0 mm 2,7 km/h (1 Bft) W-SW 247 ° 0 min 0,000 mm 0,6 UV-I 95 W/m² 6,3 °C 11,2 °C 4,8 km/h (1 Bft)
20.05.2017 18:58 11,3 °C 11,3 °C 71 % 1023,2 hPa 0,0 mm 2,3 km/h (1 Bft) W-SW 247 ° 0 min 0,000 mm 0,6 UV-I 95 W/m² 6,2 °C 11,3 °C 3,2 km/h (1 Bft)
20.05.2017 18:59 11,3 °C 11,3 °C 71 % 1023,1 hPa 0,0 mm 2,7 km/h (1 Bft) S-SW 212 ° 0 min 0,000 mm 0,6 UV-I 90 W/m² 6,2 °C 11,3 °C 6,4 km/h (2 Bft)
20.05.2017 19:00 11,3 °C 11,3 °C 72 % 1023,2 hPa 0,0 mm 0,5 km/h (0 Bft) S-SW 212 ° 0 min 0,025 mm 0,6 UV-I 90 W/m² 6,4 °C 11,3 °C 1,6 km/h (1 Bft)
20.05.2017 19:01 11,3 °C 11,3 °C 72 % 1023,2 hPa 0,0 mm 2,4 km/h (1 Bft) W-SW 237 ° 0 min 0,000 mm 0,6 UV-I 86 W/m² 6,4 °C 11,3 °C 4,8 km/h (1 Bft)
20.05.2017 19:02 11,3 °C 11,3 °C 72 % 1023,2 hPa 0,0 mm 2,5 km/h (1 Bft) W-SW 238 ° 0 min 0,000 mm 0,6 UV-I 84 W/m² 6,4 °C 11,3 °C 3,2 km/h (1 Bft)
20.05.2017 19:03 11,3 °C 11,3 °C 73 % 1023,2 hPa 0,0 mm 6,1 km/h (2 Bft) W-SW 251 ° 0 min 0,000 mm 0,6 UV-I 79 W/m² 6,6 °C 11,3 °C 6,4 km/h (2 Bft)
20.05.2017 19:04 11,3 °C 11,3 °C 72 % 1023,3 hPa 0,0 mm 2,5 km/h (1 Bft) W-SW 252 ° 0 min 0,000 mm 0,6 UV-I 77 W/m² 6,4 °C 11,3 °C 4,8 km/h (1 Bft)
20.05.2017 19:05 11,3 °C 11,3 °C 72 % 1023,3 hPa 0,0 mm 1,0 km/h (0 Bft) W-SW 248 ° 0 min 0,000 mm 0,6 UV-I 77 W/m² 6,4 °C 11,3 °C 3,2 km/h (1 Bft)
20.05.2017 19:06 11,3 °C 11,3 °C 72 % 1023,3 hPa 0,0 mm 2,9 km/h (1 Bft) W-SW 249 ° 0 min 0,000 mm 0,6 UV-I 76 W/m² 6,4 °C 11,3 °C 6,4 km/h (2 Bft)
20.05.2017 19:07 11,3 °C 11,3 °C 72 % 1023,4 hPa 0,0 mm 1,8 km/h (1 Bft) W-SW 244 ° 0 min 0,000 mm 0,6 UV-I 76 W/m² 6,4 °C 11,3 °C 4,8 km/h (1 Bft)
20.05.2017 19:08 11,3 °C 11,3 °C 72 % 1023,4 hPa 0,0 mm 2,7 km/h (1 Bft) S-SW 212 ° 0 min 0,000 mm 0,6 UV-I 76 W/m² 6,4 °C 11,3 °C 3,2 km/h (1 Bft)
20.05.2017 19:09 11,3 °C 11,3 °C 73 % 1023,3 hPa 0,0 mm 0,1 km/h (0 Bft) S-SW 212 ° 0 min 0,000 mm 0,6 UV-I 77 W/m² 6,6 °C 11,3 °C 1,6 km/h (1 Bft)
20.05.2017 19:10 11,3 °C 11,3 °C 72 % 1023,3 hPa 0,0 mm 1,3 km/h (1 Bft) SW 221 ° 0 min 0,000 mm 0,6 UV-I 77 W/m² 6,4 °C 11,3 °C 4,8 km/h (1 Bft)
20.05.2017 19:11 11,3 °C 11,3 °C 73 % 1023,3 hPa 0,0 mm 3,8 km/h (1 Bft) W-SW 253 ° 0 min 0,000 mm 0,6 UV-I 77 W/m² 6,6 °C 11,3 °C 6,4 km/h (2 Bft)
20.05.2017 19:12 11,3 °C 11,3 °C 74 % 1023,4 hPa 0,0 mm 4,8 km/h (1 Bft) W-SW 244 ° 0 min 0,000 mm 0,6 UV-I 81 W/m² 6,8 °C 11,3 °C 6,4 km/h (2 Bft)
20.05.2017 19:13 11,3 °C 11,3 °C 73 % 1023,4 hPa 0,0 mm 5,4 km/h (1 Bft) W-SW 248 ° 0 min 0,000 mm 0,6 UV-I 83 W/m² 6,6 °C 11,3 °C 8,0 km/h (2 Bft)
20.05.2017 19:14 11,3 °C 11,3 °C 74 % 1023,3 hPa 0,0 mm 2,3 km/h (1 Bft) W-SW 248 ° 0 min 0,000 mm 0,6 UV-I 83 W/m² 6,8 °C 11,3 °C 4,8 km/h (1 Bft)
20.05.2017 19:15 11,3 °C 11,3 °C 73 % 1023,5 hPa 0,0 mm 2,0 km/h (1 Bft) W-SW 248 ° 0 min 0,000 mm 0,6 UV-I 81 W/m² 6,6 °C 11,3 °C 3,2 km/h (1 Bft)
20.05.2017 19:16 11,3 °C 11,3 °C 73 % 1023,5 hPa 0,0 mm 1,4 km/h (1 Bft) W-SW 248 ° 0 min 0,000 mm 0,5 UV-I 79 W/m² 6,6 °C 11,3 °C 3,2 km/h (1 Bft)
20.05.2017 19:17 11,2 °C 11,3 °C 73 % 1023,5 hPa 0,0 mm 2,3 km/h (1 Bft) W-SW 252 ° 0 min 0,000 mm 0,5 UV-I 77 W/m² 6,5 °C 11,2 °C 4,8 km/h (1 Bft)
20.05.2017 19:18 11,2 °C 11,3 °C 75 % 1023,5 hPa 0,0 mm 0,8 km/h (0 Bft) W-SW 244 ° 0 min 0,000 mm 0,5 UV-I 74 W/m² 6,9 °C 11,2 °C 3,2 km/h (1 Bft)
20.05.2017 19:19 11,2 °C 11,3 °C 74 % 1023,5 hPa 0,0 mm 2,7 km/h (1 Bft) W-SW 237 ° 0 min 0,000 mm 0,5 UV-I 70 W/m² 6,7 °C 11,2 °C 3,2 km/h (1 Bft)
20.05.2017 19:20 11,3 °C 11,3 °C 73 % 1023,5 hPa 0,0 mm 0,8 km/h (0 Bft) W-SW 237 ° 0 min 0,000 mm 0,5 UV-I 67 W/m² 6,6 °C 11,3 °C 3,2 km/h (1 Bft)
20.05.2017 19:21 11,2 °C 11,3 °C 74 % 1023,5 hPa 0,0 mm 1,1 km/h (1 Bft) W-SW 237 ° 0 min 0,000 mm 0,5 UV-I 62 W/m² 6,7 °C 11,2 °C 3,2 km/h (1 Bft)
20.05.2017 19:22 11,2 °C 11,2 °C 74 % 1023,5 hPa 0,0 mm 0,0 km/h (0 Bft) W-SW 237 ° 0 min 0,000 mm 0,5 UV-I 58 W/m² 6,7 °C 11,2 °C 0,0 km/h (0 Bft)
20.05.2017 19:23 11,2 °C 11,2 °C 75 % 1023,5 hPa 0,0 mm 0,0 km/h (0 Bft) W-SW 237 ° 0 min 0,000 mm 0,5 UV-I 56 W/m² 6,9 °C 11,2 °C 0,0 km/h (0 Bft)
20.05.2017 19:24 11,2 °C 11,2 °C 74 % 1023,5 hPa 0,0 mm 0,0 km/h (0 Bft) W-SW 237 ° 0 min 0,000 mm 0,0 UV-I 54 W/m² 6,7 °C 11,2 °C 0,0 km/h (0 Bft)
20.05.2017 19:25 11,1 °C 11,2 °C 75 % 1023,5 hPa 0,0 mm 0,5 km/h (0 Bft) W-SW 237 ° 0 min 0,000 mm 0,0 UV-I 49 W/m² 6,8 °C 11,1 °C 1,6 km/h (1 Bft)
20.05.2017 19:26 11,1 °C 11,1 °C 75 % 1023,6 hPa 0,0 mm 0,1 km/h (0 Bft) W-SW 237 ° 0 min 0,000 mm 0,0 UV-I 47 W/m² 6,8 °C 11,1 °C 1,6 km/h (1 Bft)
20.05.2017 19:27 11,1 °C 11,1 °C 74 % 1023,6 hPa 0,0 mm 0,0 km/h (0 Bft) W-SW 237 ° 0 min 0,000 mm 0,0 UV-I 42 W/m² 6,6 °C 11,1 °C 0,0 km/h (0 Bft)
20.05.2017 19:28 11,1 °C 11,1 °C 74 % 1023,6 hPa 0,0 mm 0,0 km/h (0 Bft) W-SW 237 ° 0 min 0,000 mm 0,0 UV-I 42 W/m² 6,6 °C 11,1 °C 0,0 km/h (0 Bft)
20.05.2017 19:29 10,9 °C 11,1 °C 74 % 1023,6 hPa 0,0 mm 0,0 km/h (0 Bft) W-SW 237 ° 0 min 0,000 mm 0,0 UV-I 40 W/m² 6,5 °C 10,9 °C 0,0 km/h (0 Bft)
20.05.2017 19:30 11,0 °C 11,0 °C 74 % 1023,6 hPa 0,0 mm 0,0 km/h (0 Bft) W-SW 237 ° 0 min 0,000 mm 0,0 UV-I 39 W/m² 6,5 °C 11,0 °C 0,0 km/h (0 Bft)
20.05.2017 19:31 10,9 °C 11,0 °C 74 % 1023,7 hPa 0,0 mm 1,3 km/h (1 Bft) W-SW 242 ° 0 min 0,000 mm 0,0 UV-I 37 W/m² 6,5 °C 10,9 °C 3,2 km/h (1 Bft)
20.05.2017 19:32 10,9 °C 10,9 °C 74 % 1023,6 hPa 0,0 mm 0,5 km/h (0 Bft) W-SW 238 ° 0 min 0,000 mm 0,0 UV-I 35 W/m² 6,5 °C 10,9 °C 1,6 km/h (1 Bft)
20.05.2017 19:33 10,9 °C 10,9 °C 74 % 1023,7 hPa 0,0 mm 0,6 km/h (0 Bft) SW 227 ° 0 min 0,000 mm 0,0 UV-I 33 W/m² 6,5 °C 10,9 °C 1,6 km/h (1 Bft)
20.05.2017 19:34 10,8 °C 10,9 °C 74 % 1023,7 hPa 0,0 mm 0,7 km/h (0 Bft) SW 225 ° 0 min 0,000 mm 0,0 UV-I 32 W/m² 6,4 °C 10,8 °C 1,6 km/h (1 Bft)
20.05.2017 19:35 10,8 °C 10,8 °C 74 % 1023,7 hPa 0,0 mm 1,8 km/h (1 Bft) SW 225 ° 0 min 0,000 mm 0,0 UV-I 32 W/m² 6,4 °C 10,8 °C 3,2 km/h (1 Bft)
20.05.2017 19:36 10,8 °C 10,8 °C 75 % 1023,7 hPa 0,0 mm 0,7 km/h (0 Bft) SW 225 ° 0 min 0,000 mm 0,0 UV-I 32 W/m² 6,5 °C 10,8 °C 3,2 km/h (1 Bft)
20.05.2017 19:37 10,7 °C 10,8 °C 74 % 1023,7 hPa 0,0 mm 1,6 km/h (1 Bft) SW 225 ° 0 min 0,000 mm 0,0 UV-I 33 W/m² 6,3 °C 10,7 °C 3,2 km/h (1 Bft)
20.05.2017 19:38 10,7 °C 10,7 °C 74 % 1023,7 hPa 0,0 mm 3,0 km/h (1 Bft) SW 223 ° 0 min 0,000 mm 0,0 UV-I 35 W/m² 6,3 °C 10,7 °C 4,8 km/h (1 Bft)
20.05.2017 19:39 10,7 °C 10,7 °C 74 % 1023,7 hPa 0,0 mm 1,5 km/h (1 Bft) SW 225 ° 0 min 0,000 mm 0,0 UV-I 37 W/m² 6,3 °C 10,7 °C 3,2 km/h (1 Bft)
20.05.2017 19:40 10,7 °C 10,7 °C 75 % 1023,7 hPa 0,0 mm 0,0 km/h (0 Bft) SW 227 ° 0 min 0,000 mm 0,0 UV-I 39 W/m² 6,5 °C 10,7 °C 0,0 km/h (0 Bft)
20.05.2017 19:41 10,7 °C 10,7 °C 75 % 1023,7 hPa 0,0 mm 1,1 km/h (1 Bft) SW 219 ° 0 min 0,000 mm 0,0 UV-I 40 W/m² 6,5 °C 10,7 °C 1,6 km/h (1 Bft)
20.05.2017 19:42 10,6 °C 10,7 °C 74 % 1023,7 hPa 0,0 mm 1,1 km/h (1 Bft) S-SW 198 ° 0 min 0,000 mm 0,0 UV-I 40 W/m² 6,2 °C 10,6 °C 3,2 km/h (1 Bft)
20.05.2017 19:43 10,6 °C 10,6 °C 75 % 1023,8 hPa 0,0 mm 1,7 km/h (1 Bft) S-SW 196 ° 0 min 0,000 mm 0,0 UV-I 39 W/m² 6,4 °C 10,6 °C 4,8 km/h (1 Bft)
20.05.2017 19:44 10,6 °C 10,6 °C 75 % 1023,7 hPa 0,0 mm 1,8 km/h (1 Bft) S-SW 195 ° 0 min 0,000 mm 0,0 UV-I 37 W/m² 6,4 °C 10,6 °C 3,2 km/h (1 Bft)
20.05.2017 19:45 10,6 °C 10,6 °C 75 % 1023,7 hPa 0,0 mm 0,9 km/h (0 Bft) S-SW 196 ° 0 min 0,000 mm 0,0 UV-I 37 W/m² 6,4 °C 10,6 °C 3,2 km/h (1 Bft)
20.05.2017 19:46 10,6 °C 10,6 °C 76 % 1023,7 hPa 0,0 mm 0,3 km/h (0 Bft) S-SW 196 ° 0 min 0,000 mm 0,0 UV-I 33 W/m² 6,5 °C 10,6 °C 3,2 km/h (1 Bft)
20.05.2017 19:47 10,6 °C 10,6 °C 76 % 1023,8 hPa 0,0 mm 0,4 km/h (0 Bft) S-SW 196 ° 0 min 0,000 mm 0,0 UV-I 30 W/m² 6,5 °C 10,6 °C 1,6 km/h (1 Bft)
20.05.2017 19:48 10,6 °C 10,6 °C 74 % 1023,8 hPa 0,0 mm 2,6 km/h (1 Bft) S-SW 196 ° 0 min 0,000 mm 0,0 UV-I 28 W/m² 6,2 °C 10,6 °C 3,2 km/h (1 Bft)
20.05.2017 19:49 10,6 °C 10,7 °C 75 % 1023,7 hPa 0,0 mm 2,6 km/h (1 Bft) S-SW 196 ° 0 min 0,000 mm 0,0 UV-I 26 W/m² 6,4 °C 10,6 °C 4,8 km/h (1 Bft)
20.05.2017 19:50 10,7 °C 10,7 °C 75 % 1023,7 hPa 0,0 mm 3,1 km/h (1 Bft) S-SW 196 ° 0 min 0,000 mm 0,0 UV-I 21 W/m² 6,5 °C 10,7 °C 4,8 km/h (1 Bft)
20.05.2017 19:51 10,7 °C 10,7 °C 74 % 1023,8 hPa 0,0 mm 2,3 km/h (1 Bft) S-SW 196 ° 0 min 0,000 mm 0,0 UV-I 21 W/m² 6,3 °C 10,7 °C 3,2 km/h (1 Bft)
20.05.2017 19:52 10,7 °C 10,7 °C 74 % 1023,8 hPa 0,0 mm 3,6 km/h (1 Bft) S-SW 198 ° 0 min 0,000 mm 0,0 UV-I 19 W/m² 6,3 °C 10,7 °C 4,8 km/h (1 Bft)
20.05.2017 19:53 10,7 °C 10,7 °C 75 % 1023,7 hPa 0,0 mm 2,4 km/h (1 Bft) SW 223 ° 0 min 0,000 mm 0,0 UV-I 18 W/m² 6,5 °C 10,7 °C 3,2 km/h (1 Bft)
20.05.2017 19:54 10,7 °C 10,7 °C 75 % 1023,8 hPa 0,0 mm 2,1 km/h (1 Bft) SW 222 ° 0 min 0,000 mm 0,0 UV-I 16 W/m² 6,5 °C 10,7 °C 3,2 km/h (1 Bft)
20.05.2017 19:55 10,7 °C 10,7 °C 75 % 1023,8 hPa 0,0 mm 2,5 km/h (1 Bft) SW 222 ° 0 min 0,000 mm 0,0 UV-I 16 W/m² 6,5 °C 10,7 °C 4,8 km/h (1 Bft)
20.05.2017 19:56 10,6 °C 10,7 °C 75 % 1023,8 hPa 0,0 mm 1,6 km/h (1 Bft) SW 222 ° 0 min 0,000 mm 0,0 UV-I 14 W/m² 6,4 °C 10,6 °C 3,2 km/h (1 Bft)
20.05.2017 19:57 10,6 °C 10,7 °C 76 % 1023,8 hPa 0,0 mm 2,6 km/h (1 Bft) SW 221 ° 0 min 0,000 mm 0,0 UV-I 12 W/m² 6,5 °C 10,6 °C 4,8 km/h (1 Bft)
20.05.2017 19:58 10,6 °C 10,6 °C 75 % 1023,8 hPa 0,0 mm 3,0 km/h (1 Bft) SW 220 ° 0 min 0,000 mm 0,0 UV-I 12 W/m² 6,4 °C 10,6 °C 4,8 km/h (1 Bft)
20.05.2017 19:59 10,6 °C 10,6 °C 75 % 1023,8 hPa 0,0 mm 2,7 km/h (1 Bft) S-SW 194 ° 0 min 0,000 mm 0,0 UV-I 12 W/m² 6,4 °C 10,6 °C 4,8 km/h (1 Bft)
20.05.2017 20:00 10,6 °C 10,6 °C 75 % 1023,8 hPa 0,0 mm 1,9 km/h (1 Bft) S-SW 197 ° 0 min 0,000 mm 0,0 UV-I 12 W/m² 6,4 °C 10,6 °C 4,8 km/h (1 Bft)
20.05.2017 20:01 10,6 °C 10,6 °C 75 % 1023,8 hPa 0,0 mm 4,0 km/h (1 Bft) S-SW 199 ° 0 min 0,025 mm 0,0 UV-I 11 W/m² 6,4 °C 10,6 °C 6,4 km/h (2 Bft)
20.05.2017 20:02 10,6 °C 10,6 °C 76 % 1023,8 hPa 0,0 mm 1,8 km/h (1 Bft) S 185 ° 0 min 0,000 mm 0,0 UV-I 11 W/m² 6,5 °C 10,6 °C 3,2 km/h (1 Bft)
20.05.2017 20:03 10,6 °C 10,6 °C 74 % 1023,8 hPa 0,0 mm 2,9 km/h (1 Bft) S-SW 209 ° 0 min 0,000 mm 0,0 UV-I 11 W/m² 6,2 °C 10,6 °C 3,2 km/h (1 Bft)
20.05.2017 20:04 10,6 °C 10,6 °C 74 % 1023,8 hPa 0,0 mm 2,0 km/h (1 Bft) S-SW 209 ° 0 min 0,000 mm 0,0 UV-I 11 W/m² 6,2 °C 10,6 °C 3,2 km/h (1 Bft)
20.05.2017 20:05 10,6 °C 10,6 °C 75 % 1023,8 hPa 0,0 mm 0,1 km/h (0 Bft) S-SW 209 ° 0 min 0,000 mm 0,0 UV-I 11 W/m² 6,4 °C 10,6 °C 1,6 km/h (1 Bft)
20.05.2017 20:06 10,6 °C 10,6 °C 76 % 1023,9 hPa 0,0 mm 1,0 km/h (0 Bft) S-SW 209 ° 0 min 0,000 mm 0,0 UV-I 11 W/m² 6,5 °C 10,6 °C 3,2 km/h (1 Bft)
20.05.2017 20:07 10,5 °C 10,6 °C 75 % 1023,9 hPa 0,0 mm 0,4 km/h (0 Bft) S-SW 209 ° 0 min 0,000 mm 0,0 UV-I 9 W/m² 6,3 °C 10,5 °C 1,6 km/h (1 Bft)
20.05.2017 20:08 10,6 °C 10,6 °C 75 % 1023,9 hPa 0,0 mm 1,5 km/h (1 Bft) S-SW 209 ° 0 min 0,000 mm 0,0 UV-I 9 W/m² 6,4 °C 10,6 °C 3,2 km/h (1 Bft)
20.05.2017 20:09 10,5 °C 10,6 °C 75 % 1023,9 hPa 0,0 mm 0,9 km/h (0 Bft) SW 214 ° 0 min 0,000 mm 0,0 UV-I 9 W/m² 6,3 °C 10,5 °C 1,6 km/h (1 Bft)
20.05.2017 20:10 10,5 °C 10,6 °C 75 % 1023,9 hPa 0,0 mm 0,0 km/h (0 Bft) SW 214 ° 0 min 0,000 mm 0,0 UV-I 9 W/m² 6,3 °C 10,5 °C 0,0 km/h (0 Bft)
20.05.2017 20:11 10,5 °C 10,6 °C 75 % 1023,9 hPa 0,0 mm 0,0 km/h (0 Bft) SW 214 ° 0 min 0,000 mm 0,0 UV-I 9 W/m² 6,3 °C 10,5 °C 0,0 km/h (0 Bft)
20.05.2017 20:12 10,5 °C 10,5 °C 75 % 1024,0 hPa 0,0 mm 0,0 km/h (0 Bft) SW 214 ° 0 min 0,000 mm 0,0 UV-I 7 W/m² 6,3 °C 10,5 °C 0,0 km/h (0 Bft)
20.05.2017 20:13 10,4 °C 10,5 °C 75 % 1024,0 hPa 0,0 mm 0,1 km/h (0 Bft) SW 214 ° 0 min 0,000 mm 0,0 UV-I 7 W/m² 6,2 °C 10,4 °C 1,6 km/h (1 Bft)
20.05.2017 20:14 10,4 °C 10,5 °C 76 % 1023,9 hPa 0,0 mm 0,1 km/h (0 Bft) SW 214 ° 0 min 0,000 mm 0,0 UV-I 7 W/m² 6,4 °C 10,4 °C 1,6 km/h (1 Bft)
20.05.2017 20:15 10,4 °C 10,4 °C 76 % 1024,0 hPa 0,0 mm 0,0 km/h (0 Bft) SW 214 ° 0 min 0,000 mm 0,0 UV-I 7 W/m² 6,4 °C 10,4 °C 0,0 km/h (0 Bft)
20.05.2017 20:16 10,4 °C 10,4 °C 76 % 1024,0 hPa 0,0 mm 0,0 km/h (0 Bft) S-SW 213 ° 0 min 0,000 mm 0,0 UV-I 7 W/m² 6,4 °C 10,4 °C 0,0 km/h (0 Bft)
20.05.2017 20:17 10,4 °C 10,4 °C 76 % 1024,0 hPa 0,0 mm 0,0 km/h (0 Bft) SW 214 ° 0 min 0,000 mm 0,0 UV-I 7 W/m² 6,4 °C 10,4 °C 0,0 km/h (0 Bft)
20.05.2017 20:18 10,4 °C 10,4 °C 76 % 1024,0 hPa 0,0 mm 0,6 km/h (0 Bft) SW 214 ° 0 min 0,000 mm 0,0 UV-I 7 W/m² 6,4 °C 10,4 °C 1,6 km/h (1 Bft)
20.05.2017 20:19 10,4 °C 10,4 °C 76 % 1024,0 hPa 0,0 mm 2,5 km/h (1 Bft) W-SW 240 ° 0 min 0,000 mm 0,0 UV-I 7 W/m² 6,4 °C 10,4 °C 4,8 km/h (1 Bft)
20.05.2017 20:20 10,4 °C 10,4 °C 75 % 1024,0 hPa 0,0 mm 0,0 km/h (0 Bft) W-SW 240 ° 0 min 0,000 mm 0,0 UV-I 5 W/m² 6,2 °C 10,4 °C 0,0 km/h (0 Bft)
20.05.2017 20:21 10,4 °C 10,4 °C 76 % 1024,0 hPa 0,0 mm 2,4 km/h (1 Bft) W-SW 240 ° 0 min 0,000 mm 0,0 UV-I 5 W/m² 6,4 °C 10,4 °C 3,2 km/h (1 Bft)
20.05.2017 20:22 10,4 °C 10,4 °C 76 % 1024,0 hPa 0,0 mm 3,5 km/h (1 Bft) W-SW 255 ° 0 min 0,000 mm 0,0 UV-I 5 W/m² 6,4 °C 10,4 °C 4,8 km/h (1 Bft)
20.05.2017 20:23 10,3 °C 10,4 °C 77 % 1024,1 hPa 0,0 mm 2,5 km/h (1 Bft) W-SW 255 ° 0 min 0,000 mm 0,0 UV-I 5 W/m² 6,4 °C 10,3 °C 3,2 km/h (1 Bft)
20.05.2017 20:24 10,3 °C 10,3 °C 77 % 1024,1 hPa 0,0 mm 0,3 km/h (0 Bft) W-SW 255 ° 0 min 0,000 mm 0,0 UV-I 5 W/m² 6,4 °C 10,3 °C 1,6 km/h (1 Bft)
20.05.2017 20:25 10,3 °C 10,3 °C 76 % 1024,1 hPa 0,0 mm 2,6 km/h (1 Bft) W-SW 255 ° 0 min 0,000 mm 0,0 UV-I 5 W/m² 6,3 °C 10,3 °C 4,8 km/h (1 Bft)
20.05.2017 20:26 10,3 °C 10,3 °C 76 % 1024,1 hPa 0,0 mm 0,3 km/h (0 Bft) W-SW 255 ° 0 min 0,000 mm 0,0 UV-I 5 W/m² 6,3 °C 10,3 °C 1,6 km/h (1 Bft)
20.05.2017 20:27 10,3 °C 10,3 °C 77 % 1024,1 hPa 0,0 mm 1,5 km/h (1 Bft) W-SW 255 ° 0 min 0,000 mm 0,0 UV-I 5 W/m² 6,4 °C 10,3 °C 1,6 km/h (1 Bft)
20.05.2017 20:28 10,3 °C 10,3 °C 77 % 1024,1 hPa 0,0 mm 1,4 km/h (1 Bft) W-SW 255 ° 0 min 0,000 mm 0,0 UV-I 5 W/m² 6,4 °C 10,3 °C 3,2 km/h (1 Bft)
20.05.2017 20:29 10,3 °C 10,3 °C 76 % 1024,1 hPa 0,0 mm 1,2 km/h (1 Bft) W-SW 255 ° 0 min 0,000 mm 0,0 UV-I 0 W/m² 6,3 °C 10,3 °C 3,2 km/h (1 Bft)
20.05.2017 20:30 10,3 °C 10,3 °C 76 % 1024,1 hPa 0,0 mm 0,0 km/h (0 Bft) W-SW 255 ° 0 min 0,000 mm 0,0 UV-I 0 W/m² 6,3 °C 10,3 °C 0,0 km/h (0 Bft)
20.05.2017 20:31 10,3 °C 10,3 °C 77 % 1024,1 hPa 0,0 mm 0,0 km/h (0 Bft) W-SW 255 ° 0 min 0,000 mm 0,0 UV-I 0 W/m² 6,4 °C 10,3 °C 0,0 km/h (0 Bft)
20.05.2017 20:32 10,3 °C 10,3 °C 76 % 1024,1 hPa 0,0 mm 2,1 km/h (1 Bft) W 263 ° 0 min 0,000 mm 0,0 UV-I 0 W/m² 6,3 °C 10,3 °C 4,8 km/h (1 Bft)
20.05.2017 20:33 10,4 °C 10,4 °C 75 % 1024,1 hPa 0,0 mm 2,5 km/h (1 Bft) W-SW 242 ° 0 min 0,000 mm 0,0 UV-I 0 W/m² 6,2 °C 10,4 °C 4,8 km/h (1 Bft)
20.05.2017 20:34 10,4 °C 10,4 °C 76 % 1024,1 hPa 0,0 mm 1,3 km/h (1 Bft) W-SW 242 ° 0 min 0,000 mm 0,0 UV-I 0 W/m² 6,4 °C 10,4 °C 3,2 km/h (1 Bft)
20.05.2017 20:35 10,4 °C 10,4 °C 75 % 1024,1 hPa 0,0 mm 0,6 km/h (0 Bft) W-SW 241 ° 0 min 0,000 mm 0,0 UV-I 0 W/m² 6,2 °C 10,4 °C 1,6 km/h (1 Bft)
20.05.2017 20:36 10,4 °C 10,4 °C 75 % 1024,1 hPa 0,0 mm 0,8 km/h (0 Bft) W-SW 241 ° 0 min 0,000 mm 0,0 UV-I 0 W/m² 6,2 °C 10,4 °C 3,2 km/h (1 Bft)
20.05.2017 20:37 10,4 °C 10,4 °C 76 % 1024,1 hPa 0,0 mm 0,7 km/h (0 Bft) W-SW 242 ° 0 min 0,000 mm 0,0 UV-I 0 W/m² 6,4 °C 10,4 °C 1,6 km/h (1 Bft)
20.05.2017 20:38 10,4 °C 10,4 °C 75 % 1024,1 hPa 0,0 mm 0,0 km/h (0 Bft) W-SW 242 ° 0 min 0,000 mm 0,0 UV-I 0 W/m² 6,2 °C 10,4 °C 0,0 km/h (0 Bft)
20.05.2017 20:39 10,4 °C 10,4 °C 76 % 1024,1 hPa 0,0 mm 0,0 km/h (0 Bft) W-SW 242 ° 0 min 0,000 mm 0,0 UV-I 0 W/m² 6,4 °C 10,4 °C 0,0 km/h (0 Bft)
20.05.2017 20:40 10,3 °C 10,4 °C 76 % 1024,1 hPa 0,0 mm 0,8 km/h (0 Bft) W-SW 244 ° 0 min 0,000 mm 0,0 UV-I 0 W/m² 6,3 °C 10,3 °C 6,4 km/h (2 Bft)
20.05.2017 20:41 10,3 °C 10,4 °C 77 % 1024,1 hPa 0,0 mm 1,5 km/h (1 Bft) W-SW 244 ° 0 min 0,000 mm 0,0 UV-I 0 W/m² 6,4 °C 10,3 °C 3,2 km/h (1 Bft)
20.05.2017 20:42 10,3 °C 10,4 °C 77 % 1024,1 hPa 0,0 mm 1,3 km/h (1 Bft) W-SW 244 ° 0 min 0,000 mm 0,0 UV-I 0 W/m² 6,4 °C 10,3 °C 3,2 km/h (1 Bft)
20.05.2017 20:43 10,3 °C 10,3 °C 76 % 1024,2 hPa 0,0 mm 0,0 km/h (0 Bft) W-SW 244 ° 0 min 0,000 mm 0,0 UV-I 0 W/m² 6,3 °C 10,3 °C 0,0 km/h (0 Bft)
20.05.2017 20:44 10,3 °C 10,3 °C 76 % 1024,2 hPa 0,0 mm 1,1 km/h (1 Bft) W-SW 244 ° 0 min 0,000 mm 0,0 UV-I 0 W/m² 6,3 °C 10,3 °C 3,2 km/h (1 Bft)
20.05.2017 20:45 10,3 °C 10,3 °C 76 % 1024,1 hPa 0,0 mm 0,0 km/h (0 Bft) W-SW 244 ° 0 min 0,000 mm 0,0 UV-I 0 W/m² 6,3 °C 10,3 °C 0,0 km/h (0 Bft)
20.05.2017 20:46 10,3 °C 10,3 °C 77 % 1024,1 hPa 0,0 mm 0,3 km/h (0 Bft) W-SW 244 ° 0 min 0,000 mm 0,0 UV-I 0 W/m² 6,4 °C 10,3 °C 1,6 km/h (1 Bft)
20.05.2017 20:47 10,3 °C 10,3 °C 77 % 1024,1 hPa 0,0 mm 0,0 km/h (0 Bft) W-SW 244 ° 0 min 0,000 mm 0,0 UV-I 0 W/m² 6,4 °C 10,3 °C 0,0 km/h (0 Bft)
20.05.2017 20:48 10,3 °C 10,3 °C 77 % 1024,1 hPa 0,0 mm 0,3 km/h (0 Bft) W-SW 244 ° 0 min 0,000 mm 0,0 UV-I 0 W/m² 6,4 °C 10,3 °C 1,6 km/h (1 Bft)
20.05.2017 20:49 10,3 °C 10,3 °C 77 % 1024,2 hPa 0,0 mm 0,2 km/h (0 Bft) W-SW 244 ° 0 min 0,000 mm 0,0 UV-I 0 W/m² 6,4 °C 10,3 °C 1,6 km/h (1 Bft)
20.05.2017 20:50 10,3 °C 10,3 °C 77 % 1024,2 hPa 0,0 mm 0,0 km/h (0 Bft) W-SW 244 ° 0 min 0,000 mm 0,0 UV-I 0 W/m² 6,4 °C 10,3 °C 0,0 km/h (0 Bft)
20.05.2017 20:51 10,3 °C 10,3 °C 77 % 1024,1 hPa 0,0 mm 0,0 km/h (0 Bft) W-SW 244 ° 0 min 0,000 mm 0,0 UV-I 0 W/m² 6,4 °C 10,3 °C 0,0 km/h (0 Bft)
20.05.2017 20:52 10,3 °C 10,3 °C 77 % 1024,2 hPa 0,0 mm 0,0 km/h (0 Bft) W-SW 244 ° 0 min 0,000 mm 0,0 UV-I 0 W/m² 6,4 °C 10,3 °C 0,0 km/h (0 Bft)
20.05.2017 20:53 10,3 °C 10,3 °C 77 % 1024,2 hPa 0,0 mm 0,1 km/h (0 Bft) W-SW 244 ° 0 min 0,000 mm 0,0 UV-I 0 W/m² 6,4 °C 10,3 °C 1,6 km/h (1 Bft)
20.05.2017 20:54 10,3 °C 10,3 °C 78 % 1024,2 hPa 0,0 mm 0,0 km/h (0 Bft) W-SW 244 ° 0 min 0,000 mm 0,0 UV-I 0 W/m² 6,6 °C 10,3 °C 0,0 km/h (0 Bft)
20.05.2017 20:55 10,2 °C 10,3 °C 78 % 1024,2 hPa 0,0 mm 0,7 km/h (0 Bft) W-SW 244 ° 0 min 0,000 mm 0,0 UV-I 0 W/m² 6,5 °C 10,2 °C 3,2 km/h (1 Bft)
20.05.2017 20:56 10,2 °C 10,2 °C 77 % 1024,2 hPa 0,0 mm 1,9 km/h (1 Bft) W-SW 244 ° 0 min 0,000 mm 0,0 UV-I 0 W/m² 6,4 °C 10,2 °C 3,2 km/h (1 Bft)
20.05.2017 20:57 10,2 °C 10,2 °C 76 % 1024,2 hPa 0,0 mm 1,8 km/h (1 Bft) S-SW 209 ° 0 min 0,000 mm 0,0 UV-I 0 W/m² 6,2 °C 10,2 °C 4,8 km/h (1 Bft)
20.05.2017 20:58 10,3 °C 10,3 °C 78 % 1024,2 hPa 0,0 mm 1,1 km/h (1 Bft) S-SW 209 ° 0 min 0,000 mm 0,0 UV-I 0 W/m² 6,6 °C 10,3 °C 3,2 km/h (1 Bft)
20.05.2017 20:59 10,2 °C 10,3 °C 77 % 1024,2 hPa 0,0 mm 0,5 km/h (0 Bft) S-SW 209 ° 0 min 0,000 mm 0,0 UV-I 0 W/m² 6,4 °C 10,2 °C 1,6 km/h (1 Bft)
20.05.2017 21:00 10,2 °C 10,3 °C 77 % 1024,2 hPa 0,0 mm 0,0 km/h (0 Bft) S-SW 209 ° 0 min 0,000 mm 0,0 UV-I 0 W/m² 6,4 °C 10,2 °C 0,0 km/h (0 Bft)
20.05.2017 21:01 10,2 °C 10,2 °C 77 % 1024,2 hPa 0,0 mm 0,7 km/h (0 Bft) S-SW 209 ° 0 min 0,000 mm 0,0 UV-I 0 W/m² 6,4 °C 10,2 °C 1,6 km/h (1 Bft)
20.05.2017 21:02 10,2 °C 10,2 °C 77 % 1024,2 hPa 0,0 mm 0,2 km/h (0 Bft) S-SW 209 ° 0 min 0,000 mm 0,0 UV-I 0 W/m² 6,4 °C 10,2 °C 1,6 km/h (1 Bft)
20.05.2017 21:03 10,2 °C 10,2 °C 77 % 1024,3 hPa 0,0 mm 0,3 km/h (0 Bft) S-SW 209 ° 0 min 0,000 mm 0,0 UV-I 0 W/m² 6,4 °C 10,2 °C 1,6 km/h (1 Bft)
20.05.2017 21:04 10,2 °C 10,3 °C 77 % 1024,3 hPa 0,0 mm 0,4 km/h (0 Bft) S-SW 209 ° 0 min 0,000 mm 0,0 UV-I 0 W/m² 6,4 °C 10,2 °C 3,2 km/h (1 Bft)
20.05.2017 21:05 10,2 °C 10,2 °C 79 % 1024,3 hPa 0,0 mm 0,0 km/h (0 Bft) S-SW 209 ° 0 min 0,000 mm 0,0 UV-I 0 W/m² 6,7 °C 10,2 °C 0,0 km/h (0 Bft)
20.05.2017 21:06 10,1 °C 10,2 °C 80 % 1024,3 hPa 0,0 mm 0,1 km/h (0 Bft) S-SW 209 ° 0 min 0,000 mm 0,0 UV-I 0 W/m² 6,8 °C 10,1 °C 1,6 km/h (1 Bft)
20.05.2017 21:07 10,0 °C 10,1 °C 80 % 1024,3 hPa 0,0 mm 0,0 km/h (0 Bft) S-SW 209 ° 0 min 0,000 mm 0,0 UV-I 0 W/m² 6,7 °C 10,0 °C 0,0 km/h (0 Bft)
20.05.2017 21:08 9,9 °C 10,0 °C 81 % 1024,3 hPa 0,0 mm 0,0 km/h (0 Bft) S-SW 209 ° 0 min 0,000 mm 0,0 UV-I 0 W/m² 6,8 °C 9,9 °C 0,0 km/h (0 Bft)
20.05.2017 21:09 9,8 °C 9,9 °C 81 % 1024,3 hPa 0,0 mm 0,0 km/h (0 Bft) S-SW 209 ° 0 min 0,000 mm 0,0 UV-I 0 W/m² 6,7 °C 9,8 °C 0,0 km/h (0 Bft)
20.05.2017 21:10 9,8 °C 9,8 °C 82 % 1024,3 hPa 0,0 mm 0,6 km/h (0 Bft) S-SW 209 ° 0 min 0,000 mm 0,0 UV-I 0 W/m² 6,9 °C 9,8 °C 1,6 km/h (1 Bft)
20.05.2017 21:11 9,7 °C 9,8 °C 82 % 1024,3 hPa 0,0 mm 0,5 km/h (0 Bft) S-SW 209 ° 0 min 0,000 mm 0,0 UV-I 0 W/m² 6,8 °C 9,7 °C 1,6 km/h (1 Bft)
20.05.2017 21:12 9,6 °C 9,7 °C 82 % 1024,3 hPa 0,0 mm 0,0 km/h (0 Bft) S-SW 209 ° 0 min 0,000 mm 0,0 UV-I 0 W/m² 6,7 °C 9,6 °C 0,0 km/h (0 Bft)
20.05.2017 21:13 9,6 °C 9,6 °C 82 % 1024,4 hPa 0,0 mm 0,0 km/h (0 Bft) S-SW 209 ° 0 min 0,000 mm 0,0 UV-I 0 W/m² 6,7 °C 9,6 °C 0,0 km/h (0 Bft)
20.05.2017 21:14 9,6 °C 9,6 °C 82 % 1024,4 hPa 0,0 mm 0,0 km/h (0 Bft) S-SW 209 ° 0 min 0,000 mm 0,0 UV-I 0 W/m² 6,7 °C 9,6 °C 0,0 km/h (0 Bft)
20.05.2017 21:15 9,6 °C 9,6 °C 83 % 1024,4 hPa 0,0 mm 0,2 km/h (0 Bft) S-SW 209 ° 0 min 0,000 mm 0,0 UV-I 0 W/m² 6,9 °C 9,6 °C 1,6 km/h (1 Bft)
20.05.2017 21:16 9,5 °C 9,6 °C 82 % 1024,4 hPa 0,0 mm 0,1 km/h (0 Bft) S-SW 209 ° 0 min 0,000 mm 0,0 UV-I 0 W/m² 6,6 °C 9,5 °C 1,6 km/h (1 Bft)
20.05.2017 21:17 9,5 °C 9,5 °C 83 % 1024,4 hPa 0,0 mm 0,9 km/h (0 Bft) S-SW 209 ° 0 min 0,000 mm 0,0 UV-I 0 W/m² 6,8 °C 9,5 °C 1,6 km/h (1 Bft)
20.05.2017 21:18 9,5 °C 9,5 °C 82 % 1024,4 hPa 0,0 mm 0,8 km/h (0 Bft) S-SW 209 ° 0 min 0,000 mm 0,0 UV-I 0 W/m² 6,6 °C 9,5 °C 1,6 km/h (1 Bft)
20.05.2017 21:19 9,5 °C 9,5 °C 83 % 1024,4 hPa 0,0 mm 0,1 km/h (0 Bft) S-SW 209 ° 0 min 0,000 mm 0,0 UV-I 0 W/m² 6,8 °C 9,5 °C 1,6 km/h (1 Bft)
20.05.2017 21:20 9,5 °C 9,5 °C 83 % 1024,4 hPa 0,0 mm 1,4 km/h (1 Bft) S-SW 209 ° 0 min 0,000 mm 0,0 UV-I 0 W/m² 6,8 °C 9,5 °C 1,6 km/h (1 Bft)
20.05.2017 21:21 9,4 °C 9,5 °C 84 % 1024,5 hPa 0,0 mm 1,6 km/h (1 Bft) S-SW 209 ° 0 min 0,000 mm 0,0 UV-I 0 W/m² 6,8 °C 9,4 °C 1,6 km/h (1 Bft)
20.05.2017 21:22 9,4 °C 9,4 °C 84 % 1024,4 hPa 0,0 mm 1,4 km/h (1 Bft) S-SW 209 ° 0 min 0,000 mm 0,0 UV-I 0 W/m² 6,8 °C 9,4 °C 1,6 km/h (1 Bft)
20.05.2017 21:23 9,4 °C 9,4 °C 85 % 1024,6 hPa 0,0 mm 0,1 km/h (0 Bft) S-SW 209 ° 0 min 0,000 mm 0,0 UV-I 0 W/m² 7,0 °C 9,4 °C 1,6 km/h (1 Bft)
20.05.2017 21:24 9,4 °C 9,4 °C 84 % 1024,6 hPa 0,0 mm 0,3 km/h (0 Bft) S-SW 209 ° 0 min 0,000 mm 0,0 UV-I 0 W/m² 6,8 °C 9,4 °C 1,6 km/h (1 Bft)
20.05.2017 21:25 9,3 °C 9,4 °C 84 % 1024,6 hPa 0,0 mm 1,2 km/h (1 Bft) S-SW 209 ° 0 min 0,000 mm 0,0 UV-I 0 W/m² 6,7 °C 9,3 °C 1,6 km/h (1 Bft)
20.05.2017 21:26 9,4 °C 9,4 °C 83 % 1024,6 hPa 0,0 mm 0,7 km/h (0 Bft) S-SW 209 ° 0 min 0,000 mm 0,0 UV-I 0 W/m² 6,7 °C 9,4 °C 1,6 km/h (1 Bft)
20.05.2017 21:27 9,3 °C 9,4 °C 85 % 1024,6 hPa 0,0 mm 0,0 km/h (0 Bft) S-SW 209 ° 0 min 0,000 mm 0,0 UV-I 0 W/m² 6,9 °C 9,3 °C 0,0 km/h (0 Bft)
20.05.2017 21:28 9,3 °C 9,3 °C 86 % 1024,6 hPa 0,0 mm 0,0 km/h (0 Bft) S-SW 209 ° 0 min 0,000 mm 0,0 UV-I 0 W/m² 7,1 °C 9,3 °C 0,0 km/h (0 Bft)
20.05.2017 21:29 9,2 °C 9,3 °C 86 % 1024,7 hPa 0,0 mm 0,0 km/h (0 Bft) S-SW 209 ° 0 min 0,000 mm 0,0 UV-I 0 W/m² 7,0 °C 9,2 °C 0,0 km/h (0 Bft)
20.05.2017 21:30 9,2 °C 9,2 °C 84 % 1024,6 hPa 0,0 mm 0,0 km/h (0 Bft) S-SW 209 ° 0 min 0,000 mm 0,0 UV-I 0 W/m² 6,6 °C 9,2 °C 0,0 km/h (0 Bft)
20.05.2017 21:31 9,2 °C 9,2 °C 84 % 1024,7 hPa 0,0 mm 0,0 km/h (0 Bft) S-SW 209 ° 0 min 0,000 mm 0,0 UV-I 0 W/m² 6,6 °C 9,2 °C 0,0 km/h (0 Bft)
20.05.2017 21:32 9,3 °C 9,3 °C 84 % 1024,7 hPa 0,0 mm 0,1 km/h (0 Bft) S-SW 209 ° 0 min 0,000 mm 0,0 UV-I 0 W/m² 6,7 °C 9,3 °C 1,6 km/h (1 Bft)
20.05.2017 21:33 9,3 °C 9,3 °C 84 % 1024,8 hPa 0,0 mm 0,0 km/h (0 Bft) S-SW 209 ° 0 min 0,000 mm 0,0 UV-I 0 W/m² 6,7 °C 9,3 °C 0,0 km/h (0 Bft)
20.05.2017 21:34 9,3 °C 9,3 °C 85 % 1024,8 hPa 0,0 mm 0,0 km/h (0 Bft) S-SW 209 ° 0 min 0,000 mm 0,0 UV-I 0 W/m² 6,9 °C 9,3 °C 0,0 km/h (0 Bft)
20.05.2017 21:35 9,4 °C 9,4 °C 86 % 1024,7 hPa 0,0 mm 1,3 km/h (1 Bft) S-SW 209 ° 0 min 0,000 mm 0,0 UV-I 0 W/m² 7,2 °C 9,4 °C 1,6 km/h (1 Bft)
20.05.2017 21:36 9,4 °C 9,4 °C 86 % 1024,9 hPa 0,0 mm 1,5 km/h (1 Bft) S-SW 209 ° 0 min 0,000 mm 0,0 UV-I 0 W/m² 7,2 °C 9,4 °C 3,2 km/h (1 Bft)
20.05.2017 21:37 9,4 °C 9,4 °C 86 % 1024,8 hPa 0,0 mm 2,0 km/h (1 Bft) S-SW 209 ° 0 min 0,000 mm 0,0 UV-I 0 W/m² 7,2 °C 9,4 °C 3,2 km/h (1 Bft)
20.05.2017 21:38 9,4 °C 9,4 °C 86 % 1024,9 hPa 0,0 mm 4,1 km/h (1 Bft) W 273 ° 0 min 0,000 mm 0,0 UV-I 0 W/m² 7,2 °C 9,4 °C 6,4 km/h (2 Bft)
20.05.2017 21:39 9,4 °C 9,4 °C 86 % 1025,0 hPa 0,0 mm 4,0 km/h (1 Bft) W 281 ° 0 min 0,000 mm 0,0 UV-I 0 W/m² 7,2 °C 9,4 °C 4,8 km/h (1 Bft)
20.05.2017 21:40 9,3 °C 9,4 °C 86 % 1024,9 hPa 0,0 mm 3,5 km/h (1 Bft) W 281 ° 0 min 0,000 mm 0,0 UV-I 0 W/m² 7,1 °C 9,3 °C 4,8 km/h (1 Bft)
20.05.2017 21:41 9,3 °C 9,3 °C 87 % 1025,0 hPa 0,0 mm 1,2 km/h (1 Bft) W 281 ° 0 min 0,000 mm 0,0 UV-I 0 W/m² 7,2 °C 9,3 °C 3,2 km/h (1 Bft)
20.05.2017 21:42 9,2 °C 9,3 °C 87 % 1024,9 hPa 0,0 mm 2,9 km/h (1 Bft) W-SW 257 ° 0 min 0,000 mm 0,0 UV-I 0 W/m² 7,2 °C 9,2 °C 4,8 km/h (1 Bft)
20.05.2017 21:43 9,2 °C 9,2 °C 87 % 1024,9 hPa 0,0 mm 1,9 km/h (1 Bft) W-SW 257 ° 0 min 0,000 mm 0,0 UV-I 0 W/m² 7,2 °C 9,2 °C 3,2 km/h (1 Bft)
20.05.2017 21:44 9,1 °C 9,2 °C 87 % 1024,9 hPa 0,2 mm 0,9 km/h (0 Bft) W-SW 257 ° 0 min 0,000 mm 0,0 UV-I 0 W/m² 7,1 °C 9,1 °C 3,2 km/h (1 Bft)
20.05.2017 21:45 9,1 °C 9,1 °C 87 % 1024,9 hPa 0,0 mm 2,0 km/h (1 Bft) W-SW 257 ° 0 min 0,000 mm 0,0 UV-I 0 W/m² 7,1 °C 9,1 °C 3,2 km/h (1 Bft)
20.05.2017 21:46 9,1 °C 9,1 °C 87 % 1025,0 hPa 0,0 mm 1,6 km/h (1 Bft) W-SW 257 ° 0 min 0,000 mm 0,0 UV-I 0 W/m² 7,1 °C 9,1 °C 3,2 km/h (1 Bft)
20.05.2017 21:47 9,1 °C 9,1 °C 88 % 1025,0 hPa 0,0 mm 3,3 km/h (1 Bft) W-SW 257 ° 0 min 0,000 mm 0,0 UV-I 0 W/m² 7,2 °C 9,1 °C 4,8 km/h (1 Bft)
20.05.2017 21:48 9,0 °C 9,1 °C 88 % 1024,9 hPa 0,0 mm 3,3 km/h (1 Bft) W-SW 257 ° 0 min 0,000 mm 0,0 UV-I 0 W/m² 7,1 °C 9,0 °C 4,8 km/h (1 Bft)
20.05.2017 21:49 9,0 °C 9,0 °C 88 % 1025,0 hPa 0,0 mm 2,4 km/h (1 Bft) W 260 ° 0 min 0,000 mm 0,0 UV-I 0 W/m² 7,1 °C 9,0 °C 4,8 km/h (1 Bft)
20.05.2017 21:50 8,9 °C 9,0 °C 88 % 1024,9 hPa 0,0 mm 0,0 km/h (0 Bft) W 260 ° 0 min 0,000 mm 0,0 UV-I 0 W/m² 7,0 °C 8,9 °C 0,0 km/h (0 Bft)
20.05.2017 21:51 8,9 °C 8,9 °C 88 % 1024,9 hPa 0,0 mm 1,7 km/h (1 Bft) W 260 ° 0 min 0,000 mm 0,0 UV-I 0 W/m² 7,0 °C 8,9 °C 3,2 km/h (1 Bft)
20.05.2017 21:52 8,9 °C 8,9 °C 88 % 1024,9 hPa 0,0 mm 5,2 km/h (1 Bft) SW 236 ° 0 min 0,000 mm 0,0 UV-I 0 W/m² 7,0 °C 8,4 °C 8,0 km/h (2 Bft)
20.05.2017 21:53 8,9 °C 8,9 °C 88 % 1024,9 hPa 0,0 mm 1,6 km/h (1 Bft) SW 236 ° 0 min 0,000 mm 0,0 UV-I 0 W/m² 7,0 °C 8,9 °C 4,8 km/h (1 Bft)
20.05.2017 21:54 8,8 °C 8,9 °C 88 % 1024,9 hPa 0,0 mm 3,0 km/h (1 Bft) W-SW 242 ° 0 min 0,000 mm 0,0 UV-I 0 W/m² 6,9 °C 8,8 °C 4,8 km/h (1 Bft)
20.05.2017 21:55 8,8 °C 8,8 °C 88 % 1024,9 hPa 0,0 mm 4,5 km/h (1 Bft) SW 222 ° 0 min 0,000 mm 0,0 UV-I 0 W/m² 6,9 °C 8,8 °C 6,4 km/h (2 Bft)
20.05.2017 21:56 8,8 °C 8,8 °C 88 % 1024,9 hPa 0,0 mm 2,3 km/h (1 Bft) SW 225 ° 0 min 0,000 mm 0,0 UV-I 0 W/m² 6,9 °C 8,8 °C 3,2 km/h (1 Bft)
20.05.2017 21:57 8,8 °C 8,8 °C 88 % 1024,9 hPa 0,0 mm 2,9 km/h (1 Bft) S-SW 212 ° 0 min 0,000 mm 0,0 UV-I 0 W/m² 6,9 °C 8,8 °C 4,8 km/h (1 Bft)
20.05.2017 21:58 8,8 °C 8,8 °C 88 % 1024,9 hPa 0,0 mm 4,0 km/h (1 Bft) W-SW 242 ° 0 min 0,000 mm 0,0 UV-I 0 W/m² 6,9 °C 8,8 °C 8,0 km/h (2 Bft)
20.05.2017 21:59 8,7 °C 8,8 °C 88 % 1024,9 hPa 0,0 mm 3,0 km/h (1 Bft) S-SW 206 ° 0 min 0,000 mm 0,0 UV-I 0 W/m² 6,8 °C 8,7 °C 6,4 km/h (2 Bft)
20.05.2017 22:00 8,7 °C 8,7 °C 88 % 1025,0 hPa 0,2 mm 2,7 km/h (1 Bft) S-SW 206 ° 0 min 0,000 mm 0,0 UV-I 0 W/m² 6,8 °C 8,7 °C 4,8 km/h (1 Bft)
20.05.2017 22:01 8,7 °C 8,7 °C 88 % 1025,0 hPa 0,0 mm 4,8 km/h (1 Bft) S 182 ° 0 min 0,000 mm 0,0 UV-I 0 W/m² 6,8 °C 8,3 °C 6,4 km/h (2 Bft)
20.05.2017 22:02 8,7 °C 8,7 °C 88 % 1025,0 hPa 0,0 mm 4,1 km/h (1 Bft) S-SW 192 ° 0 min 0,000 mm 0,0 UV-I 0 W/m² 6,8 °C 8,7 °C 8,0 km/h (2 Bft)
20.05.2017 22:03 8,7 °C 8,7 °C 88 % 1025,0 hPa 0,0 mm 6,6 km/h (2 Bft) S 184 ° 0 min 0,000 mm 0,0 UV-I 0 W/m² 6,8 °C 7,8 °C 8,0 km/h (2 Bft)
20.05.2017 22:04 8,7 °C 8,7 °C 88 % 1025,0 hPa 0,0 mm 6,9 km/h (2 Bft) S 183 ° 0 min 0,000 mm 0,0 UV-I 0 W/m² 6,8 °C 7,7 °C 12,9 km/h (3 Bft)
20.05.2017 22:05 8,7 °C 8,7 °C 87 % 1025,0 hPa 0,0 mm 10,6 km/h (2 Bft) S-SW 202 ° 0 min 0,000 mm 0,0 UV-I 0 W/m² 6,7 °C 7,0 °C 14,5 km/h (3 Bft)
20.05.2017 22:06 8,7 °C 8,7 °C 87 % 1025,0 hPa 0,0 mm 4,9 km/h (1 Bft) S 190 ° 0 min 0,000 mm 0,0 UV-I 0 W/m² 6,7 °C 8,3 °C 16,1 km/h (3 Bft)
20.05.2017 22:07 8,7 °C 8,7 °C 87 % 1025,0 hPa 0,0 mm 7,6 km/h (2 Bft) S-SW 207 ° 0 min 0,000 mm 0,0 UV-I 0 W/m² 6,7 °C 7,6 °C 11,3 km/h (2 Bft)
20.05.2017 22:08 8,7 °C 8,7 °C 87 % 1025,0 hPa 0,0 mm 7,2 km/h (2 Bft) S 186 ° 0 min 0,000 mm 0,0 UV-I 0 W/m² 6,7 °C 7,7 °C 9,7 km/h (2 Bft)
20.05.2017 22:09 8,7 °C 8,7 °C 87 % 1025,0 hPa 0,0 mm 5,6 km/h (1 Bft) S 190 ° 0 min 0,000 mm 0,0 UV-I 0 W/m² 6,7 °C 8,1 °C 8,0 km/h (2 Bft)
20.05.2017 22:10 8,7 °C 8,7 °C 87 % 1025,0 hPa 0,0 mm 5,6 km/h (1 Bft) S 183 ° 0 min 0,000 mm 0,0 UV-I 0 W/m² 6,7 °C 8,1 °C 11,3 km/h (2 Bft)
20.05.2017 22:11 8,7 °C 8,7 °C 87 % 1025,0 hPa 0,0 mm 6,8 km/h (2 Bft) S-SW 211 ° 0 min 0,000 mm 0,0 UV-I 0 W/m² 6,7 °C 7,8 °C 9,7 km/h (2 Bft)
20.05.2017 22:12 8,7 °C 8,7 °C 87 % 1025,0 hPa 0,0 mm 3,8 km/h (1 Bft) S-SW 201 ° 0 min 0,000 mm 0,0 UV-I 0 W/m² 6,7 °C 8,7 °C 9,7 km/h (2 Bft)
20.05.2017 22:13 8,7 °C 8,7 °C 87 % 1025,0 hPa 0,0 mm 2,9 km/h (1 Bft) S 182 ° 0 min 0,000 mm 0,0 UV-I 0 W/m² 6,7 °C 8,7 °C 4,8 km/h (1 Bft)
20.05.2017 22:14 8,7 °C 8,7 °C 88 % 1025,0 hPa 0,0 mm 2,5 km/h (1 Bft) SW 229 ° 0 min 0,000 mm 0,0 UV-I 0 W/m² 6,8 °C 8,7 °C 4,8 km/h (1 Bft)
20.05.2017 22:15 8,6 °C 8,7 °C 88 % 1025,0 hPa 0,0 mm 1,8 km/h (1 Bft) SW 229 ° 0 min 0,000 mm 0,0 UV-I 0 W/m² 6,7 °C 8,6 °C 3,2 km/h (1 Bft)
20.05.2017 22:16 8,6 °C 8,6 °C 89 % 1025,1 hPa 0,0 mm 0,8 km/h (0 Bft) SW 229 ° 0 min 0,000 mm 0,0 UV-I 0 W/m² 6,9 °C 8,6 °C 1,6 km/h (1 Bft)
20.05.2017 22:17 8,5 °C 8,6 °C 89 % 1025,0 hPa 0,0 mm 2,9 km/h (1 Bft) S-SW 193 ° 0 min 0,000 mm 0,0 UV-I 0 W/m² 6,8 °C 8,5 °C 4,8 km/h (1 Bft)
20.05.2017 22:18 8,4 °C 8,5 °C 89 % 1025,1 hPa 0,0 mm 2,4 km/h (1 Bft) W 266 ° 0 min 0,000 mm 0,0 UV-I 0 W/m² 6,7 °C 8,4 °C 6,4 km/h (2 Bft)
20.05.2017 22:19 8,4 °C 8,4 °C 89 % 1025,1 hPa 0,0 mm 1,8 km/h (1 Bft) W-SW 257 ° 0 min 0,000 mm 0,0 UV-I 0 W/m² 6,7 °C 8,4 °C 3,2 km/h (1 Bft)
20.05.2017 22:20 8,4 °C 8,4 °C 89 % 1025,1 hPa 0,0 mm 2,6 km/h (1 Bft) W-SW 256 ° 0 min 0,000 mm 0,0 UV-I 0 W/m² 6,7 °C 8,4 °C 3,2 km/h (1 Bft)
20.05.2017 22:21 8,4 °C 8,4 °C 89 % 1025,1 hPa 0,0 mm 1,2 km/h (1 Bft) SW 217 ° 0 min 0,000 mm 0,0 UV-I 0 W/m² 6,7 °C 8,4 °C 3,2 km/h (1 Bft)
20.05.2017 22:22 8,4 °C 8,4 °C 89 % 1025,1 hPa 0,0 mm 2,4 km/h (1 Bft) SW 217 ° 0 min 0,000 mm 0,0 UV-I 0 W/m² 6,7 °C 8,4 °C 4,8 km/h (1 Bft)
20.05.2017 22:23 8,4 °C 8,4 °C 89 % 1025,1 hPa 0,0 mm 2,3 km/h (1 Bft) SW 217 ° 0 min 0,000 mm 0,0 UV-I 0 W/m² 6,7 °C 8,4 °C 4,8 km/h (1 Bft)
20.05.2017 22:24 8,4 °C 8,4 °C 88 % 1025,1 hPa 0,0 mm 3,2 km/h (1 Bft) W-SW 244 ° 0 min 0,000 mm 0,0 UV-I 0 W/m² 6,5 °C 8,4 °C 6,4 km/h (2 Bft)
20.05.2017 22:25 8,4 °C 8,4 °C 88 % 1025,2 hPa 0,0 mm 4,0 km/h (1 Bft) S-SW 204 ° 0 min 0,000 mm 0,0 UV-I 0 W/m² 6,5 °C 8,4 °C 4,8 km/h (1 Bft)
20.05.2017 22:26 8,4 °C 8,4 °C 88 % 1025,2 hPa 0,0 mm 3,6 km/h (1 Bft) S-SW 202 ° 0 min 0,000 mm 0,0 UV-I 0 W/m² 6,5 °C 8,4 °C 6,4 km/h (2 Bft)
20.05.2017 22:27 8,5 °C 8,5 °C 88 % 1025,1 hPa 0,0 mm 6,5 km/h (2 Bft) SW 230 ° 0 min 0,000 mm 0,0 UV-I 0 W/m² 6,6 °C 7,6 °C 8,0 km/h (2 Bft)
20.05.2017 22:28 8,5 °C 8,5 °C 88 % 1025,2 hPa 0,0 mm 2,5 km/h (1 Bft) S-SW 209 ° 0 min 0,000 mm 0,0 UV-I 0 W/m² 6,6 °C 8,5 °C 4,8 km/h (1 Bft)
20.05.2017 22:29 8,6 °C 8,6 °C 88 % 1025,1 hPa 0,0 mm 4,5 km/h (1 Bft) SW 219 ° 0 min 0,000 mm 0,0 UV-I 0 W/m² 6,7 °C 8,6 °C 8,0 km/h (2 Bft)
20.05.2017 22:30 8,5 °C 8,6 °C 88 % 1025,2 hPa 0,0 mm 3,9 km/h (1 Bft) W-SW 238 ° 0 min 0,000 mm 0,0 UV-I 0 W/m² 6,6 °C 8,5 °C 6,4 km/h (2 Bft)
20.05.2017 22:31 8,5 °C 8,5 °C 88 % 1025,1 hPa 0,0 mm 1,5 km/h (1 Bft) S-SW 211 ° 0 min 0,000 mm 0,0 UV-I 0 W/m² 6,6 °C 8,5 °C 3,2 km/h (1 Bft)
20.05.2017 22:32 8,5 °C 8,5 °C 88 % 1025,1 hPa 0,0 mm 0,6 km/h (0 Bft) S-SW 211 ° 0 min 0,000 mm 0,0 UV-I 0 W/m² 6,6 °C 8,5 °C 3,2 km/h (1 Bft)
20.05.2017 22:33 8,5 °C 8,5 °C 88 % 1025,2 hPa 0,0 mm 2,7 km/h (1 Bft) S-SW 204 ° 0 min 0,000 mm 0,0 UV-I 0 W/m² 6,6 °C 8,5 °C 6,4 km/h (2 Bft)
20.05.2017 22:34 8,5 °C 8,5 °C 88 % 1025,2 hPa 0,0 mm 4,7 km/h (1 Bft) S-SW 213 ° 0 min 0,000 mm 0,0 UV-I 0 W/m² 6,6 °C 8,2 °C 6,4 km/h (2 Bft)
20.05.2017 22:35 8,5 °C 8,5 °C 88 % 1025,2 hPa 0,0 mm 2,1 km/h (1 Bft) SW 223 ° 0 min 0,000 mm 0,0 UV-I 0 W/m² 6,6 °C 8,5 °C 4,8 km/h (1 Bft)
20.05.2017 22:36 8,5 °C 8,5 °C 88 % 1025,2 hPa 0,0 mm 0,3 km/h (0 Bft) SW 223 ° 0 min 0,000 mm 0,0 UV-I 0 W/m² 6,6 °C 8,5 °C 1,6 km/h (1 Bft)
20.05.2017 22:37 8,4 °C 8,5 °C 88 % 1025,2 hPa 0,0 mm 0,9 km/h (0 Bft) SW 219 ° 0 min 0,000 mm 0,0 UV-I 0 W/m² 6,5 °C 8,4 °C 3,2 km/h (1 Bft)
20.05.2017 22:38 8,4 °C 8,4 °C 88 % 1025,3 hPa 0,0 mm 1,7 km/h (1 Bft) SW 218 ° 0 min 0,000 mm 0,0 UV-I 0 W/m² 6,5 °C 8,4 °C 3,2 km/h (1 Bft)
20.05.2017 22:39 8,4 °C 8,4 °C 88 % 1025,3 hPa 0,0 mm 0,8 km/h (0 Bft) SW 218 ° 0 min 0,000 mm 0,0 UV-I 0 W/m² 6,5 °C 8,4 °C 1,6 km/h (1 Bft)
20.05.2017 22:40 8,4 °C 8,4 °C 88 % 1025,3 hPa 0,0 mm 1,4 km/h (1 Bft) SW 218 ° 0 min 0,000 mm 0,0 UV-I 0 W/m² 6,5 °C 8,4 °C 1,6 km/h (1 Bft)
20.05.2017 22:41 8,4 °C 8,4 °C 88 % 1025,3 hPa 0,0 mm 0,4 km/h (0 Bft) SW 218 ° 0 min 0,000 mm 0,0 UV-I 0 W/m² 6,5 °C 8,4 °C 1,6 km/h (1 Bft)
20.05.2017 22:42 8,4 °C 8,4 °C 88 % 1025,3 hPa 0,0 mm 0,7 km/h (0 Bft) SW 218 ° 0 min 0,000 mm 0,0 UV-I 0 W/m² 6,5 °C 8,4 °C 1,6 km/h (1 Bft)
20.05.2017 22:43 8,4 °C 8,4 °C 88 % 1025,3 hPa 0,0 mm 0,7 km/h (0 Bft) S-SW 199 ° 0 min 0,000 mm 0,0 UV-I 0 W/m² 6,5 °C 8,4 °C 1,6 km/h (1 Bft)
20.05.2017 22:44 8,4 °C 8,4 °C 88 % 1025,3 hPa 0,0 mm 3,0 km/h (1 Bft) S-SW 197 ° 0 min 0,000 mm 0,0 UV-I 0 W/m² 6,5 °C 8,4 °C 4,8 km/h (1 Bft)
20.05.2017 22:45 8,4 °C 8,4 °C 88 % 1025,3 hPa 0,0 mm 3,4 km/h (1 Bft) S-SW 193 ° 0 min 0,000 mm 0,0 UV-I 0 W/m² 6,5 °C 8,4 °C 4,8 km/h (1 Bft)
20.05.2017 22:46 8,4 °C 8,4 °C 88 % 1025,3 hPa 0,0 mm 2,3 km/h (1 Bft) W-NW 297 ° 0 min 0,000 mm 0,0 UV-I 0 W/m² 6,5 °C 8,4 °C 4,8 km/h (1 Bft)
20.05.2017 22:47 8,4 °C 8,5 °C 88 % 1025,4 hPa 0,0 mm 4,4 km/h (1 Bft) N 360 ° 0 min 0,000 mm 0,0 UV-I 0 W/m² 6,5 °C 8,4 °C 6,4 km/h (2 Bft)
20.05.2017 22:48 8,4 °C 8,5 °C 88 % 1025,5 hPa 0,0 mm 4,2 km/h (1 Bft) N 9 ° 0 min 0,000 mm 0,0 UV-I 0 W/m² 6,5 °C 8,4 °C 4,8 km/h (1 Bft)
20.05.2017 22:49 8,4 °C 8,4 °C 89 % 1025,5 hPa 0,0 mm 3,6 km/h (1 Bft) N 360 ° 0 min 0,000 mm 0,0 UV-I 0 W/m² 6,7 °C 8,4 °C 6,4 km/h (2 Bft)
20.05.2017 22:50 8,4 °C 8,4 °C 89 % 1025,5 hPa 0,0 mm 4,4 km/h (1 Bft) N 5 ° 0 min 0,000 mm 0,0 UV-I 0 W/m² 6,7 °C 8,4 °C 6,4 km/h (2 Bft)
20.05.2017 22:51 8,4 °C 8,4 °C 89 % 1025,5 hPa 0,0 mm 3,0 km/h (1 Bft) N 351 ° 0 min 0,000 mm 0,0 UV-I 0 W/m² 6,7 °C 8,4 °C 6,4 km/h (2 Bft)
20.05.2017 22:52 8,4 °C 8,4 °C 89 % 1025,6 hPa 0,0 mm 0,9 km/h (0 Bft) N 351 ° 0 min 0,000 mm 0,0 UV-I 0 W/m² 6,7 °C 8,4 °C 1,6 km/h (1 Bft)
20.05.2017 22:53 8,4 °C 8,4 °C 89 % 1025,5 hPa 0,0 mm 0,0 km/h (0 Bft) N 351 ° 0 min 0,000 mm 0,0 UV-I 0 W/m² 6,7 °C 8,4 °C 0,0 km/h (0 Bft)
20.05.2017 22:54 8,3 °C 8,4 °C 89 % 1025,5 hPa 0,0 mm 0,1 km/h (0 Bft) N 351 ° 0 min 0,000 mm 0,0 UV-I 0 W/m² 6,6 °C 8,3 °C 1,6 km/h (1 Bft)
20.05.2017 22:55 8,3 °C 8,3 °C 89 % 1025,5 hPa 0,0 mm 0,5 km/h (0 Bft) N 350 ° 0 min 0,000 mm 0,0 UV-I 0 W/m² 6,6 °C 8,3 °C 3,2 km/h (1 Bft)
20.05.2017 22:56 8,3 °C 8,3 °C 90 % 1025,5 hPa 0,0 mm 3,5 km/h (1 Bft) N-NW 338 ° 0 min 0,000 mm 0,0 UV-I 0 W/m² 6,8 °C 8,3 °C 6,4 km/h (2 Bft)
20.05.2017 22:57 8,3 °C 8,3 °C 90 % 1025,5 hPa 0,0 mm 4,9 km/h (1 Bft) NW 323 ° 0 min 0,000 mm 0,0 UV-I 0 W/m² 6,8 °C 7,9 °C 6,4 km/h (2 Bft)
20.05.2017 22:58 8,3 °C 8,3 °C 90 % 1025,5 hPa 0,0 mm 1,9 km/h (1 Bft) NW 323 ° 0 min 0,000 mm 0,0 UV-I 0 W/m² 6,8 °C 8,3 °C 4,8 km/h (1 Bft)
20.05.2017 22:59 8,3 °C 8,3 °C 90 % 1025,5 hPa 0,2 mm 3,5 km/h (1 Bft) NW 321 ° 0 min 0,000 mm 0,0 UV-I 0 W/m² 6,8 °C 8,3 °C 4,8 km/h (1 Bft)
20.05.2017 23:00 8,3 °C 8,3 °C 90 % 1025,5 hPa 0,0 mm 4,7 km/h (1 Bft) S-SW 192 ° 0 min 0,000 mm 0,0 UV-I 0 W/m² 6,8 °C 7,9 °C 6,4 km/h (2 Bft)
20.05.2017 23:01 8,2 °C 8,3 °C 90 % 1025,5 hPa 0,0 mm 5,6 km/h (1 Bft) S 186 ° 0 min 0,000 mm 0,0 UV-I 0 W/m² 6,7 °C 7,5 °C 8,0 km/h (2 Bft)
20.05.2017 23:02 8,2 °C 8,2 °C 90 % 1025,5 hPa 0,0 mm 8,8 km/h (2 Bft) S 182 ° 0 min 0,000 mm 0,0 UV-I 0 W/m² 6,7 °C 6,7 °C 12,9 km/h (3 Bft)
20.05.2017 23:03 8,2 °C 8,2 °C 90 % 1025,4 hPa 0,0 mm 7,0 km/h (2 Bft) S-SW 198 ° 0 min 0,000 mm 0,0 UV-I 0 W/m² 6,7 °C 7,1 °C 11,3 km/h (2 Bft)
20.05.2017 23:04 8,2 °C 8,2 °C 90 % 1025,5 hPa 0,0 mm 4,3 km/h (1 Bft) S 170 ° 0 min 0,000 mm 0,0 UV-I 0 W/m² 6,7 °C 8,2 °C 9,7 km/h (2 Bft)
20.05.2017 23:05 8,2 °C 8,2 °C 90 % 1025,4 hPa 0,0 mm 1,3 km/h (1 Bft) S 170 ° 0 min 0,000 mm 0,0 UV-I 0 W/m² 6,7 °C 8,2 °C 3,2 km/h (1 Bft)
20.05.2017 23:06 8,2 °C 8,2 °C 90 % 1025,4 hPa 0,0 mm 2,3 km/h (1 Bft) S 180 ° 0 min 0,000 mm 0,0 UV-I 0 W/m² 6,7 °C 8,2 °C 4,8 km/h (1 Bft)
20.05.2017 23:07 8,2 °C 8,2 °C 90 % 1025,4 hPa 0,0 mm 2,5 km/h (1 Bft) S 182 ° 0 min 0,000 mm 0,0 UV-I 0 W/m² 6,7 °C 8,2 °C 3,2 km/h (1 Bft)
20.05.2017 23:08 8,2 °C 8,2 °C 90 % 1025,4 hPa 0,0 mm 1,5 km/h (1 Bft) S 187 ° 0 min 0,000 mm 0,0 UV-I 0 W/m² 6,7 °C 8,2 °C 4,8 km/h (1 Bft)
20.05.2017 23:09 8,2 °C 8,2 °C 90 % 1025,4 hPa 0,0 mm 3,3 km/h (1 Bft) S-SW 209 ° 0 min 0,000 mm 0,0 UV-I 0 W/m² 6,7 °C 8,2 °C 6,4 km/h (2 Bft)
20.05.2017 23:10 8,2 °C 8,2 °C 90 % 1025,3 hPa 0,0 mm 6,1 km/h (2 Bft) S 185 ° 0 min 0,000 mm 0,0 UV-I 0 W/m² 6,7 °C 7,4 °C 8,0 km/h (2 Bft)
20.05.2017 23:11 8,2 °C 8,2 °C 90 % 1025,3 hPa 0,0 mm 2,8 km/h (1 Bft) S 186 ° 0 min 0,000 mm 0,0 UV-I 0 W/m² 6,7 °C 8,2 °C 4,8 km/h (1 Bft)
20.05.2017 23:12 8,1 °C 8,2 °C 90 % 1025,3 hPa 0,0 mm 4,7 km/h (1 Bft) S-SW 195 ° 0 min 0,000 mm 0,0 UV-I 0 W/m² 6,6 °C 7,7 °C 8,0 km/h (2 Bft)
20.05.2017 23:13 8,1 °C 8,1 °C 90 % 1025,4 hPa 0,0 mm 5,7 km/h (1 Bft) S-SW 194 ° 0 min 0,000 mm 0,0 UV-I 0 W/m² 6,6 °C 7,4 °C 8,0 km/h (2 Bft)
20.05.2017 23:14 8,1 °C 8,1 °C 90 % 1025,4 hPa 0,2 mm 7,9 km/h (2 Bft) S 190 ° 0 min 0,000 mm 0,0 UV-I 0 W/m² 6,6 °C 6,8 °C 9,7 km/h (2 Bft)
20.05.2017 23:15 8,1 °C 8,1 °C 90 % 1025,4 hPa 0,0 mm 8,0 km/h (2 Bft) S-SO 168 ° 0 min 0,000 mm 0,0 UV-I 0 W/m² 6,6 °C 6,8 °C 11,3 km/h (2 Bft)
20.05.2017 23:16 8,1 °C 8,1 °C 90 % 1025,3 hPa 0,0 mm 5,7 km/h (1 Bft) S-SW 212 ° 0 min 0,000 mm 0,0 UV-I 0 W/m² 6,6 °C 7,4 °C 9,7 km/h (2 Bft)
20.05.2017 23:17 8,1 °C 8,1 °C 90 % 1025,3 hPa 0,0 mm 8,0 km/h (2 Bft) S-SW 206 ° 0 min 0,000 mm 0,0 UV-I 0 W/m² 6,6 °C 6,8 °C 12,9 km/h (3 Bft)
20.05.2017 23:18 8,1 °C 8,1 °C 90 % 1025,3 hPa 0,0 mm 5,6 km/h (1 Bft) S 189 ° 0 min 0,000 mm 0,0 UV-I 0 W/m² 6,6 °C 7,4 °C 11,3 km/h (2 Bft)
20.05.2017 23:19 8,1 °C 8,1 °C 90 % 1025,3 hPa 0,0 mm 4,4 km/h (1 Bft) S-SW 199 ° 0 min 0,000 mm 0,0 UV-I 0 W/m² 6,6 °C 8,1 °C 8,0 km/h (2 Bft)
20.05.2017 23:20 8,1 °C 8,1 °C 90 % 1025,3 hPa 0,0 mm 5,8 km/h (2 Bft) S-SW 204 ° 0 min 0,000 mm 0,0 UV-I 0 W/m² 6,6 °C 7,3 °C 8,0 km/h (2 Bft)
20.05.2017 23:21 8,1 °C 8,1 °C 90 % 1025,4 hPa 0,0 mm 4,1 km/h (1 Bft) S-SW 196 ° 0 min 0,000 mm 0,0 UV-I 0 W/m² 6,6 °C 8,1 °C 6,4 km/h (2 Bft)
20.05.2017 23:22 8,1 °C 8,1 °C 90 % 1025,3 hPa 0,0 mm 1,8 km/h (1 Bft) S-SW 196 ° 0 min 0,000 mm 0,0 UV-I 0 W/m² 6,6 °C 8,1 °C 3,2 km/h (1 Bft)
20.05.2017 23:23 8,1 °C 8,1 °C 90 % 1025,3 hPa 0,0 mm 4,8 km/h (1 Bft) S 190 ° 0 min 0,000 mm 0,0 UV-I 0 W/m² 6,6 °C 7,7 °C 8,0 km/h (2 Bft)
20.05.2017 23:24 8,1 °C 8,1 °C 90 % 1025,3 hPa 0,0 mm 4,5 km/h (1 Bft) S-SW 198 ° 0 min 0,000 mm 0,0 UV-I 0 W/m² 6,6 °C 8,1 °C 8,0 km/h (2 Bft)
20.05.2017 23:25 8,1 °C 8,1 °C 90 % 1025,3 hPa 0,0 mm 2,5 km/h (1 Bft) S 180 ° 0 min 0,000 mm 0,0 UV-I 0 W/m² 6,6 °C 8,1 °C 4,8 km/h (1 Bft)
20.05.2017 23:26 8,1 °C 8,1 °C 91 % 1025,3 hPa 0,0 mm 1,6 km/h (1 Bft) S 180 ° 0 min 0,000 mm 0,0 UV-I 0 W/m² 6,7 °C 8,1 °C 4,8 km/h (1 Bft)
20.05.2017 23:27 8,1 °C 8,1 °C 90 % 1025,4 hPa 0,0 mm 1,2 km/h (1 Bft) S 180 ° 0 min 0,000 mm 0,0 UV-I 0 W/m² 6,6 °C 8,1 °C 3,2 km/h (1 Bft)
20.05.2017 23:28 8,1 °C 8,1 °C 90 % 1025,4 hPa 0,0 mm 1,4 km/h (1 Bft) S 180 ° 0 min 0,000 mm 0,0 UV-I 0 W/m² 6,6 °C 8,1 °C 3,2 km/h (1 Bft)
20.05.2017 23:29 8,1 °C 8,1 °C 90 % 1025,4 hPa 0,0 mm 2,8 km/h (1 Bft) S 180 ° 0 min 0,000 mm 0,0 UV-I 0 W/m² 6,6 °C 8,1 °C 3,2 km/h (1 Bft)
20.05.2017 23:30 8,1 °C 8,1 °C 90 % 1025,4 hPa 0,0 mm 4,0 km/h (1 Bft) S-SO 154 ° 0 min 0,000 mm 0,0 UV-I 0 W/m² 6,6 °C 8,1 °C 6,4 km/h (2 Bft)
20.05.2017 23:31 8,1 °C 8,1 °C 90 % 1025,4 hPa 0,0 mm 1,3 km/h (1 Bft) S-SO 155 ° 0 min 0,000 mm 0,0 UV-I 0 W/m² 6,6 °C 8,1 °C 3,2 km/h (1 Bft)
20.05.2017 23:32 8,1 °C 8,1 °C 90 % 1025,3 hPa 0,0 mm 1,2 km/h (1 Bft) S 189 ° 0 min 0,000 mm 0,0 UV-I 0 W/m² 6,6 °C 8,1 °C 3,2 km/h (1 Bft)
20.05.2017 23:33 8,1 °C 8,1 °C 90 % 1025,4 hPa 0,0 mm 4,0 km/h (1 Bft) S 183 ° 0 min 0,000 mm 0,0 UV-I 0 W/m² 6,6 °C 8,1 °C 6,4 km/h (2 Bft)
20.05.2017 23:34 8,1 °C 8,1 °C 90 % 1025,4 hPa 0,0 mm 1,5 km/h (1 Bft) S 183 ° 0 min 0,000 mm 0,0 UV-I 0 W/m² 6,6 °C 8,1 °C 3,2 km/h (1 Bft)
20.05.2017 23:35 8,1 °C 8,1 °C 90 % 1025,4 hPa 0,0 mm 3,2 km/h (1 Bft) W-SW 257 ° 0 min 0,000 mm 0,0 UV-I 0 W/m² 6,6 °C 8,1 °C 4,8 km/h (1 Bft)
20.05.2017 23:36 8,1 °C 8,1 °C 90 % 1025,4 hPa 0,0 mm 4,6 km/h (1 Bft) S-SW 211 ° 0 min 0,000 mm 0,0 UV-I 0 W/m² 6,6 °C 7,7 °C 6,4 km/h (2 Bft)
20.05.2017 23:37 8,1 °C 8,1 °C 90 % 1025,4 hPa 0,0 mm 1,9 km/h (1 Bft) S-SW 207 ° 0 min 0,000 mm 0,0 UV-I 0 W/m² 6,6 °C 8,1 °C 3,2 km/h (1 Bft)
20.05.2017 23:38 8,1 °C 8,1 °C 90 % 1025,4 hPa 0,0 mm 3,0 km/h (1 Bft) W-SW 251 ° 0 min 0,000 mm 0,0 UV-I 0 W/m² 6,6 °C 8,1 °C 4,8 km/h (1 Bft)
20.05.2017 23:39 8,1 °C 8,1 °C 90 % 1025,4 hPa 0,0 mm 1,9 km/h (1 Bft) SW 229 ° 0 min 0,000 mm 0,0 UV-I 0 W/m² 6,6 °C 8,1 °C 3,2 km/h (1 Bft)
20.05.2017 23:40 8,1 °C 8,1 °C 90 % 1025,4 hPa 0,0 mm 3,1 km/h (1 Bft) W-SW 237 ° 0 min 0,000 mm 0,0 UV-I 0 W/m² 6,6 °C 8,1 °C 4,8 km/h (1 Bft)
20.05.2017 23:41 8,1 °C 8,1 °C 90 % 1025,4 hPa 0,0 mm 4,1 km/h (1 Bft) S-SW 194 ° 0 min 0,000 mm 0,0 UV-I 0 W/m² 6,6 °C 8,1 °C 6,4 km/h (2 Bft)
20.05.2017 23:42 8,1 °C 8,1 °C 90 % 1025,4 hPa 0,0 mm 2,0 km/h (1 Bft) S-SW 194 ° 0 min 0,000 mm 0,0 UV-I 0 W/m² 6,6 °C 8,1 °C 3,2 km/h (1 Bft)
20.05.2017 23:43 8,1 °C 8,1 °C 91 % 1025,5 hPa 0,0 mm 0,6 km/h (0 Bft) S-SW 194 ° 0 min 0,000 mm 0,0 UV-I 0 W/m² 6,7 °C 8,1 °C 1,6 km/h (1 Bft)
20.05.2017 23:44 8,1 °C 8,1 °C 91 % 1025,5 hPa 0,0 mm 0,5 km/h (0 Bft) S-SW 205 ° 0 min 0,000 mm 0,0 UV-I 0 W/m² 6,7 °C 8,1 °C 1,6 km/h (1 Bft)
20.05.2017 23:45 8,0 °C 8,1 °C 91 % 1025,5 hPa 0,0 mm 0,7 km/h (0 Bft) S-SW 210 ° 0 min 0,000 mm 0,0 UV-I 0 W/m² 6,6 °C 8,0 °C 3,2 km/h (1 Bft)
20.05.2017 23:46 8,0 °C 8,0 °C 91 % 1025,5 hPa 0,0 mm 1,9 km/h (1 Bft) S-SW 209 ° 0 min 0,000 mm 0,0 UV-I 0 W/m² 6,6 °C 8,0 °C 4,8 km/h (1 Bft)
20.05.2017 23:47 8,0 °C 8,0 °C 91 % 1025,5 hPa 0,0 mm 0,3 km/h (0 Bft) SW 219 ° 0 min 0,000 mm 0,0 UV-I 0 W/m² 6,6 °C 8,0 °C 4,8 km/h (1 Bft)
20.05.2017 23:48 8,0 °C 8,0 °C 91 % 1025,5 hPa 0,0 mm 1,5 km/h (1 Bft) S-SW 213 ° 0 min 0,000 mm 0,0 UV-I 0 W/m² 6,6 °C 8,0 °C 4,8 km/h (1 Bft)
20.05.2017 23:49 7,9 °C 8,0 °C 91 % 1025,5 hPa 0,0 mm 0,8 km/h (0 Bft) S 191 ° 0 min 0,000 mm 0,0 UV-I 0 W/m² 6,5 °C 7,9 °C 3,2 km/h (1 Bft)
20.05.2017 23:50 7,9 °C 7,9 °C 91 % 1025,6 hPa 0,0 mm 5,1 km/h (1 Bft) S-SW 197 ° 0 min 0,000 mm 0,0 UV-I 0 W/m² 6,5 °C 7,3 °C 6,4 km/h (2 Bft)
20.05.2017 23:51 7,9 °C 7,9 °C 91 % 1025,5 hPa 0,0 mm 3,5 km/h (1 Bft) S-SW 197 ° 0 min 0,000 mm 0,0 UV-I 0 W/m² 6,5 °C 7,9 °C 4,8 km/h (1 Bft)
20.05.2017 23:52 7,9 °C 8,0 °C 91 % 1025,5 hPa 0,0 mm 1,9 km/h (1 Bft) S-SW 197 ° 0 min 0,000 mm 0,0 UV-I 0 W/m² 6,5 °C 7,9 °C 3,2 km/h (1 Bft)
20.05.2017 23:53 7,9 °C 7,9 °C 91 % 1025,5 hPa 0,0 mm 4,7 km/h (1 Bft) S-SW 202 ° 0 min 0,000 mm 0,0 UV-I 0 W/m² 6,5 °C 7,5 °C 6,4 km/h (2 Bft)
20.05.2017 23:54 7,9 °C 7,9 °C 91 % 1025,5 hPa 0,0 mm 3,6 km/h (1 Bft) S-SW 208 ° 0 min 0,000 mm 0,0 UV-I 0 W/m² 6,5 °C 7,9 °C 4,8 km/h (1 Bft)
20.05.2017 23:55 7,9 °C 8,0 °C 91 % 1025,5 hPa 0,0 mm 5,0 km/h (1 Bft) S-SW 205 ° 0 min 0,000 mm 0,0 UV-I 0 W/m² 6,5 °C 7,4 °C 9,7 km/h (2 Bft)
20.05.2017 23:56 8,0 °C 8,0 °C 91 % 1025,5 hPa 0,0 mm 3,9 km/h (1 Bft) S-SW 198 ° 0 min 0,000 mm 0,0 UV-I 0 W/m² 6,6 °C 8,0 °C 6,4 km/h (2 Bft)
20.05.2017 23:57 8,0 °C 8,0 °C 91 % 1025,5 hPa 0,0 mm 3,0 km/h (1 Bft) SW 227 ° 0 min 0,000 mm 0,0 UV-I 0 W/m² 6,6 °C 8,0 °C 4,8 km/h (1 Bft)
20.05.2017 23:58 8,0 °C 8,0 °C 91 % 1025,5 hPa 0,0 mm 1,7 km/h (1 Bft) SW 225 ° 0 min 0,000 mm 0,0 UV-I 0 W/m² 6,6 °C 8,0 °C 3,2 km/h (1 Bft)
20.05.2017 23:59 8,0 °C 8,0 °C 91 % 1025,5 hPa 0,0 mm 0,7 km/h (0 Bft) SW 225 ° 0 min 0,000 mm 0,0 UV-I 0 W/m² 6,6 °C 8,0 °C 1,6 km/h (1 Bft)
_ Min-Zeit 03:34 03:41 13:44 01:35 - 22:53 - - - - - - 03:12 00:44 22:53
Minimum _ 3,6 °C 3,7 °C 54 % 1017,6 hPa - 0,0 km/h (0 Bft) - - - - - - 2,8 °C 3,5 °C 0,0 km/h (0 Bft)
_ Max-Zeit 16:21 16:27 04:09 23:50 23:14 12:36 - - 08:44 13:00 12:24 12:15 21:41 16:28 22:06
Maximum _ 13,0 °C 13,0 °C 96 % 1025,6 hPa 0,2 mm 11,3 km/h
N-NW (2 Bft)
- - 2 min 0,305 mm 5,9 UV-I 763 W/m² 7,2 °C 12,9 °C 16,1 km/h
S-SO (3 Bft)
Durchschnitt _ 8,9 °C 8,9 °C 78 % 1021,0 hPa #1,0 mm 2,1 km/h (1 Bft) W - #5:40 h #1,803 mm 2,3 UV-I 144 W/m² 5,1 °C 8,9 °C 3,7 km/h (1 Bft)